AM4 / XA-ADH 7700 Squawk Report (21st of January, 2023)

Aircraft B789 Reg No. XA-ADH Age 5 years old
Model 787 Jet engines 2 First flight 03-01-18
Registered 16-01-18 Rollout N/A Delivered 16-01-18
Construction No. 44427 Line No. 0653 Series 9
ADSHEX 0D0A9B Airline name Aeromexico Owner N/A
Airfield based Mexico City-LB Juarez~Fed Distr (Mex)~XA First tracked N/A

Flight history for XA-ADH

Route Flight No Date Playback
Licenciado Benito Juarez (MEX) - Charles De Gaulle (CDG) AM3 2023-01-30 14:28:00
Guarulhos Gov Andre Franco Montoro (GRU) - Licenciado Benito Juarez (MEX) AM15 2023-01-30 05:07:00
Licenciado Benito Juarez (MEX) - Guarulhos Gov Andre Franco Montoro (GRU) AM14 2023-01-29 13:37:00
Charles De Gaulle (CDG) - Licenciado Benito Juarez (MEX) AM4 2023-01-28 09:34:00
Licenciado Benito Juarez (MEX) - Charles De Gaulle (CDG) AM3 2023-01-27 14:29:00
Los Angeles Intl (LAX) - Licenciado Benito Juarez (MEX) AM647 2023-01-27 05:04:00
Licenciado Benito Juarez (MEX) - Los Angeles Intl (LAX) AM644 2023-01-26 22:01:00
Schiphol (AMS) - Licenciado Benito Juarez (MEX) AM26 2023-01-26 16:25:00
Licenciado Benito Juarez (MEX) - Schiphol (AMS) AM25 2023-01-25 21:16:00
Charles De Gaulle (CDG) - Licenciado Benito Juarez (MEX) AM9467 2023-01-23 22:41:00
Charles De Gaulle (CDG) - Licenciado Benito Juarez (MEX) AM4 2023-01-22 06:41:00
Licenciado Benito Juarez (MEX) - Charles De Gaulle (CDG) AM3 2023-01-21 22:13:00
John F Kennedy Intl (JFK) - Licenciado Benito Juarez (MEX) AM409 2023-01-21 05:13:00
Licenciado Benito Juarez (MEX) - John F Kennedy Intl (JFK) AM408 2023-01-20 19:56:00
Barajas (MAD) - Licenciado Benito Juarez (MEX) AM22 2023-01-20 10:56:00
Licenciado Benito Juarez (MEX) - Barajas (MAD) AM21 2023-01-19 23:05:00
John F Kennedy Intl (JFK) - Licenciado Benito Juarez (MEX) AM409 2023-01-19 05:20:00
Licenciado Benito Juarez (MEX) - John F Kennedy Intl (JFK) AM408 2023-01-18 18:16:00
Charles De Gaulle (CDG) - Licenciado Benito Juarez (MEX) AM4 2023-01-18 13:56:00
Licenciado Benito Juarez (MEX) - Charles De Gaulle (CDG) AM3 2023-01-17 22:25:00
Time Lat Lon Altitude Heading Speed Vertical Rate
2023-01-22 01:35:31 GMT 49.001667 2.579181 0 354 0 0
2023-01-22 01:35:26 GMT 49.001663 2.579185 0 354 0 0
2023-01-22 01:35:25 GMT 49.001667 2.579181 0 354 0 0
2023-01-22 01:35:23 GMT 49.001667 2.579181 0 354 0 0
2023-01-22 01:35:21 GMT 49.001663 2.579185 0 354 0 0
2023-01-22 01:35:20 GMT 49.001667 2.579181 0 354 0 0
2023-01-22 01:35:19 GMT 49.001663 2.579185 0 354 0 0
2023-01-22 01:35:16 GMT 49.001663 2.579185 0 354 0 0
2023-01-22 01:35:14 GMT 49.001667 2.579181 0 354 0 0
2023-01-22 01:35:10 GMT 49.001656 2.579185 0 354 0 0
2023-01-22 01:35:07 GMT 49.001644 2.579181 0 354 0 0
2023-01-22 01:35:06 GMT 49.001629 2.579185 0 354 0 0
2023-01-22 01:35:04 GMT 49.001617 2.579185 0 354 0 0
2023-01-22 01:35:02 GMT 49.001621 2.579181 0 354 1 0
2023-01-22 01:35:00 GMT 49.001598 2.579181 0 354 2 0
2023-01-22 01:34:59 GMT 49.001595 2.579185 0 354 2 0
2023-01-22 01:34:58 GMT 49.001587 2.579181 0 354 2 0
2023-01-22 01:34:55 GMT 49.001564 2.579181 0 354 2 0
2023-01-22 01:34:54 GMT 49.001553 2.579181 0 354 3 0
2023-01-22 01:34:53 GMT 49.001537 2.579185 0 354 3 0
2023-01-22 01:34:51 GMT 49.001526 2.579203 0 354 3 0
2023-01-22 01:34:50 GMT 49.001518 2.579199 0 354 3 0
2023-01-22 01:34:49 GMT 49.001495 2.579199 0 354 3 0
2023-01-22 01:34:48 GMT 49.001469 2.579203 0 354 3 0
2023-01-22 01:34:46 GMT 49.001457 2.579203 0 354 3 0
2023-01-22 01:34:45 GMT 49.001450 2.579199 0 354 3 0
2023-01-22 01:34:44 GMT 49.001415 2.579217 0 351 3 0
2023-01-22 01:34:42 GMT 49.001415 2.579217 0 351 3 0
2023-01-22 01:34:40 GMT 49.001385 2.579221 0 351 3 0
2023-01-22 01:34:37 GMT 49.001347 2.579217 0 351 3 0
2023-01-22 01:34:36 GMT 49.001328 2.579221 0 351 3 0
2023-01-22 01:34:35 GMT 49.001301 2.579217 0 348 4 0
2023-01-22 01:34:30 GMT 49.001255 2.579234 0 345 4 0
2023-01-22 01:34:26 GMT 49.001202 2.579257 0 345 3 0
2023-01-22 01:34:11 GMT 49.001152 2.579275 0 345 0 0
2023-01-22 01:34:02 GMT 49.001152 2.579269 0 345 0 0
2023-01-22 01:33:56 GMT 49.001152 2.579275 0 345 0 0
2023-01-22 01:33:47 GMT 49.001152 2.579269 0 345 0 0
2023-01-22 01:33:37 GMT 49.001152 2.579275 0 345 0 0
2023-01-22 01:33:26 GMT 49.001152 2.579269 0 345 0 0
2023-01-22 01:33:16 GMT 49.001152 2.579275 0 345 0 0
2023-01-22 01:33:01 GMT 49.001152 2.579269 0 345 0 0
2023-01-22 01:32:56 GMT 49.001152 2.579275 0 345 0 0
2023-01-22 01:32:54 GMT 49.001152 2.579269 0 345 0 0
2023-01-22 01:32:48 GMT 49.001152 2.579275 0 345 0 0
2023-01-22 01:32:47 GMT 49.001152 2.579269 0 345 0 0
2023-01-22 01:32:44 GMT 49.001152 2.579269 0 345 0 0
2023-01-22 01:32:40 GMT 49.001152 2.579275 0 345 0 0
2023-01-22 01:32:35 GMT 49.001129 2.579269 0 345 2 0
2023-01-22 01:32:33 GMT 49.001118 2.579275 0 345 2 0
2023-01-22 01:32:31 GMT 49.001106 2.579269 0 343 2 0
2023-01-22 01:32:30 GMT 49.001095 2.579257 0 340 3 0
2023-01-22 01:32:28 GMT 49.001072 2.579257 0 337 3 0
2023-01-22 01:32:27 GMT 49.001072 2.579252 0 334 4 0
2023-01-22 01:32:25 GMT 49.001015 2.579257 0 326 5 0
2023-01-22 01:32:23 GMT 49.000992 2.579252 0 323 5 0
2023-01-22 01:32:22 GMT 49.000965 2.579275 0 317 6 0
2023-01-22 01:32:20 GMT 49.000935 2.579287 0 312 6 0
2023-01-22 01:32:18 GMT 49.000889 2.579322 0 303 5 0
2023-01-22 01:32:16 GMT 49.000851 2.579348 0 295 5 0
2023-01-22 01:32:15 GMT 49.000793 2.579402 0 284 5 0
2023-01-22 01:32:13 GMT 49.000793 2.579402 0 281 5 0
2023-01-22 01:32:12 GMT 49.000786 2.579410 0 278 5 0
2023-01-22 01:32:11 GMT 49.000774 2.579428 0 275 5 0
2023-01-22 01:32:10 GMT 49.000748 2.579510 0 267 5 0
2023-01-22 01:32:08 GMT 49.000748 2.579528 0 264 6 0
2023-01-22 01:32:07 GMT 49.000751 2.579569 0 264 6 0
2023-01-22 01:32:06 GMT 49.000759 2.579691 0 264 7 0
2023-01-22 01:32:04 GMT 49.000759 2.579691 0 264 7 0
2023-01-22 01:32:02 GMT 49.000763 2.579745 0 264 7 0
2023-01-22 01:32:00 GMT 49.000763 2.579868 0 264 7 0
2023-01-22 01:31:55 GMT 49.000782 2.580125 0 264 7 0
2023-01-22 01:31:51 GMT 49.000786 2.580255 0 267 7 0
2023-01-22 01:31:50 GMT 49.000793 2.580360 0 267 7 0
2023-01-22 01:31:48 GMT 49.000793 2.580450 0 267 7 0
2023-01-22 01:31:47 GMT 49.000797 2.580502 0 267 7 0
2023-01-22 01:31:46 GMT 49.000797 2.580537 0 267 7 0
2023-01-22 01:31:44 GMT 49.000809 2.580625 0 267 8 0
2023-01-22 01:31:43 GMT 49.000809 2.580696 0 267 8 0
2023-01-22 01:31:42 GMT 49.000816 2.580739 0 267 8 0
2023-01-22 01:31:41 GMT 49.000816 2.580793 0 267 8 0
2023-01-22 01:31:37 GMT 49.000832 2.581030 0 267 8 0
2023-01-22 01:31:30 GMT 49.000851 2.581408 0 267 9 0
2023-01-22 01:31:25 GMT 49.000877 2.582016 0 267 7 0
2023-01-22 01:31:19 GMT 49.000877 2.582016 0 267 7 0
2023-01-22 01:31:18 GMT 49.000874 2.582076 0 267 7 0
2023-01-22 01:31:12 GMT 49.000889 2.582298 0 272 6 0
2023-01-22 01:31:01 GMT 49.000900 2.582615 0 284 4 0
2023-01-22 01:30:57 GMT 49.000908 2.582727 0 289 4 0
2023-01-22 01:30:54 GMT 49.000908 2.582799 0 298 4 0
2023-01-22 01:30:51 GMT 49.000908 2.582853 0 303 4 0
2023-01-22 01:30:46 GMT 49.000900 2.582967 0 320 5 0
2023-01-22 01:30:42 GMT 49.000862 2.583106 0 337 6 0
2023-01-22 01:29:31 GMT 49.000237 2.585220 0 267 6 0
2023-01-22 01:29:30 GMT 49.000237 2.585256 0 267 6 0
2023-01-22 01:29:26 GMT 49.000248 2.585396 0 267 6 0
2023-01-22 01:29:24 GMT 49.000248 2.585467 0 267 6 0
2023-01-22 01:28:18 GMT 49.000477 2.589728 0 267 13 0
2023-01-22 01:28:12 GMT 49.000500 2.590298 0 267 14 0
2023-01-22 01:28:10 GMT 49.000511 2.590502 0 267 14 0
2023-01-22 01:28:09 GMT 49.000511 2.590551 0 267 14 0
2023-01-22 01:28:08 GMT 49.000523 2.590643 0 267 14 0
2023-01-22 01:28:06 GMT 49.000534 2.590837 0 267 13 0
2023-01-22 01:28:05 GMT 49.000546 2.590960 0 267 13 0
2023-01-22 01:28:04 GMT 49.000549 2.591039 0 267 13 0
2023-01-22 01:28:03 GMT 49.000549 2.591129 0 267 12 0
2023-01-22 01:28:01 GMT 49.000561 2.591274 0 267 12 0
2023-01-22 01:27:59 GMT 49.000568 2.591471 0 267 11 0
2023-01-22 01:27:54 GMT 49.000580 2.591805 0 270 10 0
2023-01-22 01:27:53 GMT 49.000584 2.591942 0 270 9 0
2023-01-22 01:27:48 GMT 49.000591 2.592192 0 272 8 0
2023-01-22 01:27:46 GMT 49.000603 2.592333 0 278 7 0
2023-01-22 01:27:44 GMT 49.000595 2.592412 0 281 7 0
2023-01-22 01:27:43 GMT 49.000607 2.592502 0 286 7 0
2023-01-22 01:27:41 GMT 49.000603 2.592545 0 289 7 0
2023-01-22 01:27:40 GMT 49.000595 2.592593 0 292 6 0
2023-01-22 01:27:39 GMT 49.000595 2.592611 0 295 6 0
2023-01-22 01:27:37 GMT 49.000591 2.592703 0 303 6 0
2023-01-22 01:27:36 GMT 49.000591 2.592738 0 306 6 0
2023-01-22 01:27:35 GMT 49.000584 2.592773 0 309 5 0
2023-01-22 01:27:34 GMT 49.000568 2.592826 0 315 5 0
2023-01-22 01:27:32 GMT 49.000561 2.592882 0 320 5 0
2023-01-22 01:27:30 GMT 49.000538 2.592936 0 326 5 0
2023-01-22 01:27:29 GMT 49.000534 2.592950 0 329 5 0
2023-01-22 01:27:25 GMT 49.000488 2.593020 0 334 4 0
2023-01-22 01:27:23 GMT 49.000465 2.593063 0 340 4 0
2023-01-22 01:27:21 GMT 49.000443 2.593090 0 343 4 0
2023-01-22 01:27:19 GMT 49.000408 2.593126 0 348 4 0
2023-01-22 01:27:18 GMT 49.000385 2.593143 0 351 4 0
2023-01-22 01:27:15 GMT 49.000340 2.593171 0 357 4 0
2023-01-22 01:27:13 GMT 49.000328 2.593178 0 357 4 0
2023-01-22 01:27:11 GMT 49.000271 2.593189 0 357 4 0
2023-01-22 01:27:08 GMT 49.000248 2.593196 0 357 4 0
2023-01-22 01:27:07 GMT 49.000233 2.593189 0 357 4 0
2023-01-22 01:27:05 GMT 49.000202 2.593196 0 357 4 0
2023-01-22 01:27:04 GMT 49.000179 2.593196 0 357 4 0
2023-01-22 01:27:03 GMT 49.000164 2.593207 0 357 4 0
2023-01-22 01:27:02 GMT 49.000145 2.593196 0 357 4 0
2023-01-22 01:27:00 GMT 49.000118 2.593207 0 357 4 0
2023-01-22 01:26:59 GMT 49.000095 2.593207 0 357 4 0
2023-01-22 01:26:58 GMT 49.000076 2.593196 0 357 4 0
2023-01-22 01:26:57 GMT 49.000057 2.593207 0 357 5 0
2023-01-22 01:26:54 GMT 49.000008 2.593214 0 0 6 0
2023-01-22 01:26:52 GMT 48.999920 2.593225 0 2 8 0
2023-01-22 01:26:50 GMT 48.999859 2.593231 0 5 8 0
2023-01-22 01:26:49 GMT 48.999825 2.593225 0 8 8 0
2023-01-22 01:26:47 GMT 48.999790 2.593225 0 11 8 0
2023-01-22 01:26:46 GMT 48.999733 2.593225 0 16 8 0
2023-01-22 01:26:45 GMT 48.999710 2.593231 0 19 8 0
2023-01-22 01:26:44 GMT 48.999664 2.593225 0 22 8 0
2023-01-22 01:26:42 GMT 48.999596 2.593214 0 28 8 0
2023-01-22 01:26:41 GMT 48.999561 2.593196 0 30 8 0
2023-01-22 01:26:39 GMT 48.999477 2.593135 0 33 9 0
2023-01-22 01:26:38 GMT 48.999443 2.593117 0 39 9 0
2023-01-22 01:26:36 GMT 48.999386 2.593063 0 45 9 0
2023-01-22 01:26:35 GMT 48.999348 2.593026 0 47 9 0
2023-01-22 01:26:33 GMT 48.999287 2.592950 0 53 9 0
2023-01-22 01:26:31 GMT 48.999233 2.592864 0 59 9 0
2023-01-22 01:26:27 GMT 48.999142 2.592647 0 64 11 0
2023-01-22 01:26:26 GMT 48.999115 2.592597 0 64 11 0
2023-01-22 01:26:22 GMT 48.999046 2.592376 0 67 11 0
2023-01-22 01:26:18 GMT 48.998955 2.592015 0 67 12 0
2023-01-22 01:26:15 GMT 48.998898 2.591840 0 67 12 0
2023-01-22 01:26:13 GMT 48.998840 2.591647 0 64 13 0
2023-01-22 01:26:12 GMT 48.998791 2.591472 0 64 13 0
2023-01-22 01:26:07 GMT 48.998711 2.591219 0 64 14 0
2023-01-22 01:26:06 GMT 48.998672 2.591093 0 64 14 0
2023-01-22 01:26:05 GMT 48.998627 2.590966 0 64 14 0
2023-01-22 01:26:02 GMT 48.998558 2.590732 0 67 14 0
2023-01-22 01:26:00 GMT 48.998508 2.590555 0 64 15 0
2023-01-22 01:25:59 GMT 48.998474 2.590432 0 64 15 0
2023-01-22 01:25:56 GMT 48.998371 2.590115 0 64 16 0
2023-01-22 01:25:53 GMT 48.998314 2.589904 0 64 17 0
2023-01-22 01:25:51 GMT 48.998234 2.589647 0 64 17 0
2023-01-22 01:25:50 GMT 48.998199 2.589551 0 64 17 0
2023-01-22 01:25:49 GMT 48.998119 2.589305 0 64 17 0
2023-01-22 01:25:47 GMT 48.998093 2.589196 0 64 17 0
2023-01-22 01:25:45 GMT 48.998024 2.588997 0 64 17 0
2023-01-22 01:25:42 GMT 48.997948 2.588742 0 67 16 0
2023-01-22 01:25:35 GMT 48.997730 2.587949 0 73 18 0
2023-01-22 01:25:34 GMT 48.997707 2.587826 0 73 19 0
2023-01-22 01:25:31 GMT 48.997627 2.587439 0 75 20 0
2023-01-22 01:25:29 GMT 48.997593 2.587190 0 78 20 0
2023-01-22 01:25:27 GMT 48.997547 2.586858 0 81 21 0
2023-01-22 01:25:26 GMT 48.997536 2.586717 0 81 21 0
2023-01-22 01:25:24 GMT 48.997509 2.586521 0 84 21 0
2023-01-22 01:25:21 GMT 48.997475 2.586033 0 84 21 0
2023-01-22 01:25:20 GMT 48.997475 2.585889 0 84 21 0
2023-01-22 01:25:17 GMT 48.997440 2.585473 0 84 23 0
2023-01-22 01:25:15 GMT 48.997433 2.585168 0 84 26 0
2023-01-22 01:25:14 GMT 48.997417 2.584913 0 84 27 0
2023-01-22 01:25:12 GMT 48.997395 2.584660 0 84 29 0
2023-01-22 01:25:11 GMT 48.997387 2.584446 0 84 30 0
2023-01-22 01:25:10 GMT 48.997372 2.584136 0 84 30 0
2023-01-22 01:25:09 GMT 48.997341 2.583689 0 84 31 0
2023-01-22 01:25:07 GMT 48.997330 2.583477 0 84 31 0
2023-01-22 01:25:04 GMT 48.997288 2.582618 0 87 30 0
2023-01-22 01:25:01 GMT 48.997272 2.582298 0 84 29 0
2023-01-22 01:24:59 GMT 48.997250 2.581910 0 84 29 0
2023-01-22 01:24:58 GMT 48.997242 2.581715 0 84 28 0
2023-01-22 01:24:57 GMT 48.997227 2.581470 0 87 30 0
2023-01-22 01:24:54 GMT 48.997192 2.580784 0 84 41 0
2023-01-22 01:24:53 GMT 48.997158 2.580343 0 84 49 0
2023-01-22 01:24:52 GMT 48.997147 2.580203 0 84 49 0
2023-01-22 01:24:51 GMT 48.997116 2.579474 0 87 58 0
2023-01-22 01:24:49 GMT 48.997093 2.579077 0 87 62 0
2023-01-22 01:24:48 GMT 48.997078 2.578688 0 87 67 0
2023-01-22 01:24:47 GMT 48.996998 2.577161 0 84 76 0
2023-01-22 01:24:45 GMT 48.996975 2.576664 0 84 84 0
2023-01-22 01:24:43 GMT 48.996952 2.576149 0 84 88 0
2023-01-22 01:24:41 GMT 48.996872 2.574815 -175 85 105 -64
2023-01-22 01:24:39 GMT 48.996780 2.573477 -175 85 105 -64
2023-01-22 01:24:38 GMT 48.996742 2.572825 -175 84 109 -64
2023-01-22 01:24:37 GMT 48.996696 2.572030 -175 84 114 -64
2023-01-22 01:24:36 GMT 48.996555 2.569572 -175 85 136 -64
2023-01-22 01:24:34 GMT 48.996555 2.569572 -175 85 136 -64
2023-01-22 01:24:32 GMT 48.996414 2.566153 -225 85 141 -64
2023-01-22 01:24:28 GMT 48.996277 2.564007 -175 85 158 64
2023-01-22 01:24:27 GMT 48.996231 2.562922 -175 85 158 64
2023-01-22 01:24:25 GMT 48.996140 2.561223 -175 85 160 -256
2023-01-22 01:24:24 GMT 48.996048 2.559674 -175 85 161 -128
2023-01-22 01:24:23 GMT 48.995956 2.558054 -175 85 162 -192
2023-01-22 01:24:21 GMT 48.995857 2.555911 -175 85 163 -704
2023-01-22 01:24:19 GMT 48.995716 2.553382 -125 85 163 -896
2023-01-22 01:24:17 GMT 48.995590 2.551434 -100 85 163 -832
2023-01-22 01:24:15 GMT 48.995453 2.548899 -75 85 163 -768
2023-01-22 01:24:13 GMT 48.995361 2.546645 -50 85 163 -832
2023-01-22 01:24:12 GMT 48.995270 2.545448 -25 85 163 -960
2023-01-22 01:24:11 GMT 48.995159 2.543263 -25 85 164 -896
2023-01-22 01:24:09 GMT 48.995113 2.542106 25 85 164 -896
2023-01-22 01:24:08 GMT 48.995068 2.540950 25 85 164 -896
2023-01-22 01:24:07 GMT 48.994995 2.539743 50 85 164 -896
2023-01-22 01:24:05 GMT 48.994881 2.537553 75 85 164 -896
2023-01-22 01:24:04 GMT 48.994835 2.536396 100 85 163 -960
2023-01-22 01:24:03 GMT 48.994785 2.535457 100 85 163 -960
2023-01-22 01:24:02 GMT 48.994648 2.533144 125 85 163 -896
2023-01-22 01:24:00 GMT 48.994553 2.531987 150 85 163 -896
2023-01-22 01:23:59 GMT 48.994507 2.530903 175 85 162 -896
2023-01-22 01:23:58 GMT 48.994461 2.529747 175 85 162 -896
2023-01-22 01:23:56 GMT 48.994263 2.526433 225 85 162 -896
2023-01-22 01:23:55 GMT 48.994263 2.526433 225 85 161 -896
2023-01-22 01:23:53 GMT 48.994087 2.523603 250 85 162 -896
2023-01-22 01:23:52 GMT 48.994034 2.522560 275 85 161 -896
2023-01-22 01:23:51 GMT 48.993996 2.521362 300 85 161 -896
2023-01-22 01:23:50 GMT 48.993950 2.520423 300 85 161 -896
2023-01-22 01:23:49 GMT 48.993896 2.519390 325 85 161 -896
2023-01-22 01:23:47 GMT 48.993759 2.516714 350 85 161 -896
2023-01-22 01:23:46 GMT 48.993668 2.515587 375 85 161 -896
2023-01-22 01:23:45 GMT 48.993622 2.514461 375 85 161 -896
2023-01-22 01:23:43 GMT 48.993484 2.512137 425 85 161 -896
2023-01-22 01:23:42 GMT 48.993439 2.511503 425 85 161 -896
2023-01-22 01:23:41 GMT 48.993393 2.510376 450 85 161 -896
2023-01-22 01:23:40 GMT 48.993256 2.507841 475 85 161 -960
2023-01-22 01:23:38 GMT 48.993202 2.506834 500 85 161 -960
2023-01-22 01:23:37 GMT 48.993156 2.505750 500 85 161 -1024
2023-01-22 01:23:36 GMT 48.993065 2.504594 525 85 162 -960
2023-01-22 01:23:35 GMT 48.992924 2.501847 575 85 162 -1024
2023-01-22 01:23:33 GMT 48.992878 2.500763 575 85 162 -960
2023-01-22 01:23:32 GMT 48.992752 2.498333 625 85 162 -832
2023-01-22 01:23:30 GMT 48.992706 2.497629 625 85 162 -768
2023-01-22 01:23:29 GMT 48.992661 2.496502 650 85 162 -832
2023-01-22 01:23:28 GMT 48.992569 2.495375 650 85 162 -768
2023-01-22 01:23:26 GMT 48.992432 2.492629 675 85 162 -832
2023-01-22 01:23:24 GMT 48.992386 2.491291 700 85 161 -896
2023-01-22 01:23:23 GMT 48.992271 2.489777 725 85 161 -896
2023-01-22 01:23:22 GMT 48.992157 2.487629 750 85 162 -896
2023-01-22 01:23:20 GMT 48.992111 2.486502 750 85 162 -960
2023-01-22 01:23:19 GMT 48.992020 2.484952 775 85 162 -896
2023-01-22 01:23:18 GMT 48.991974 2.484460 800 85 162 -896
2023-01-22 01:23:17 GMT 48.991901 2.482766 825 85 163 -832
2023-01-22 01:23:16 GMT 48.991714 2.479513 850 85 163 -960
2023-01-22 01:23:14 GMT 48.991714 2.479513 850 85 163 -960
2023-01-22 01:23:13 GMT 48.991653 2.478544 875 85 164 -960
2023-01-22 01:23:12 GMT 48.991470 2.475093 925 85 164 -960
2023-01-22 01:23:10 GMT 48.991470 2.474600 925 85 164 -960
2023-01-22 01:23:09 GMT 48.991379 2.473473 950 85 164 -960
2023-01-22 01:23:08 GMT 48.991333 2.472276 975 85 165 -960
2023-01-22 01:23:07 GMT 48.991203 2.469828 1,000 85 165 -896
2023-01-22 01:23:04 GMT 48.991104 2.468121 1,000 85 165 -896
2023-01-22 01:23:02 GMT 48.990967 2.465093 1,075 85 165 -960
2023-01-22 01:23:00 GMT 48.990829 2.463395 1,100 85 165 -960
2023-01-22 01:22:59 GMT 48.990692 2.460445 1,125 85 165 -960
2023-01-22 01:22:57 GMT 48.990692 2.460445 1,125 85 166 -896
2023-01-22 01:22:55 GMT 48.990410 2.455228 1,200 85 166 -896
2023-01-22 01:22:53 GMT 48.990410 2.455228 1,200 85 167 -832
2023-01-22 01:22:51 GMT 48.990280 2.452979 1,225 85 167 -832
2023-01-22 01:22:50 GMT 48.990234 2.451641 1,250 85 167 -896
2023-01-22 01:22:49 GMT 48.990177 2.450529 1,250 85 167 -1024
2023-01-22 01:22:48 GMT 48.990097 2.449247 1,275 85 167 -1024
2023-01-22 01:22:47 GMT 48.990051 2.448050 1,300 85 168 -1024
2023-01-22 01:22:46 GMT 48.989960 2.446923 1,325 84 168 -1024
2023-01-22 01:22:44 GMT 48.989807 2.444458 1,375 84 169 -1024
2023-01-22 01:22:43 GMT 48.989731 2.442627 1,375 84 169 -960
2023-01-22 01:22:42 GMT 48.989685 2.441923 1,375 84 169 -960
2023-01-22 01:22:41 GMT 48.989620 2.440844 1,400 84 170 -896
2023-01-22 01:22:39 GMT 48.989456 2.438613 1,425 84 170 -960
2023-01-22 01:22:38 GMT 48.989388 2.437302 1,450 84 170 -960
2023-01-22 01:22:37 GMT 48.989365 2.436218 1,450 85 170 -960
2023-01-22 01:22:35 GMT 48.989227 2.434317 1,475 85 171 -960
2023-01-22 01:22:34 GMT 48.989182 2.433120 1,525 85 171 -1024
2023-01-22 01:22:33 GMT 48.989109 2.432026 1,525 85 171 -1024
2023-01-22 01:22:32 GMT 48.989059 2.430797 1,550 85 171 -1024
2023-01-22 01:22:29 GMT 48.988815 2.426359 1,600 85 171 -960
2023-01-22 01:22:27 GMT 48.988735 2.424075 1,625 85 171 -960
2023-01-22 01:22:24 GMT 48.988495 2.420091 1,700 85 171 -1152
2023-01-22 01:22:22 GMT 48.988403 2.418401 1,725 85 171 -1152
2023-01-22 01:22:21 GMT 48.988358 2.417203 1,725 85 171 -1088
2023-01-22 01:22:20 GMT 48.988270 2.415908 1,775 85 171 -1024
2023-01-22 01:22:19 GMT 48.988174 2.414105 1,775 84 171 -1024
2023-01-22 01:22:17 GMT 48.988129 2.412908 1,800 84 171 -1024
2023-01-22 01:22:16 GMT 48.988037 2.411788 1,825 84 171 -960
2023-01-22 01:22:15 GMT 48.987946 2.410126 1,850 84 171 -960
2023-01-22 01:22:14 GMT 48.987854 2.408823 1,875 84 170 -960
2023-01-22 01:22:11 GMT 48.987663 2.405355 1,925 84 170 -960
2023-01-22 01:22:09 GMT 48.987526 2.402753 1,925 84 170 -960
2023-01-22 01:22:06 GMT 48.987350 2.400020 2,025 85 169 -960
2023-01-22 01:22:03 GMT 48.987152 2.396321 2,025 85 169 -960
2023-01-22 01:22:01 GMT 48.986965 2.392273 2,100 85 167 -896
2023-01-22 01:21:58 GMT 48.986893 2.390512 2,150 85 166 -896
2023-01-22 01:21:54 GMT 48.986546 2.384611 2,200 85 161 -896
2023-01-22 01:21:52 GMT 48.986500 2.383527 2,200 84 160 -896
2023-01-22 01:21:50 GMT 48.986317 2.380564 2,250 84 158 -960
2023-01-22 01:21:48 GMT 48.986221 2.378829 2,250 84 157 -960
2023-01-22 01:21:44 GMT 48.985931 2.373892 2,350 85 156 -960
2023-01-22 01:21:42 GMT 48.985847 2.372685 2,350 85 156 -960
2023-01-22 01:21:40 GMT 48.985748 2.370371 2,400 85 156 -960
2023-01-22 01:21:38 GMT 48.985565 2.367554 2,425 85 157 -960
2023-01-22 01:21:36 GMT 48.985477 2.365458 2,550 85 158 -896
2023-01-22 01:21:33 GMT 48.985291 2.361990 2,500 85 157 -960
2023-01-22 01:21:31 GMT 48.985149 2.359459 2,550 85 158 -896
2023-01-22 01:21:28 GMT 48.985016 2.356708 2,575 85 158 -896
2023-01-22 01:21:25 GMT 48.984833 2.353328 2,625 84 159 -896
2023-01-22 01:21:23 GMT 48.984741 2.351567 2,675 84 159 -896
2023-01-22 01:21:21 GMT 48.984547 2.348328 2,700 84 159 -896
2023-01-22 01:21:19 GMT 48.984467 2.346637 2,725 84 160 -896
2023-01-22 01:21:16 GMT 48.984264 2.343196 2,800 85 161 -960
2023-01-22 01:21:13 GMT 48.984100 2.340158 2,800 85 161 -960
2023-01-22 01:21:11 GMT 48.983917 2.337200 2,850 85 161 -960
2023-01-22 01:21:08 GMT 48.983753 2.334161 2,875 85 161 -960
2023-01-22 01:21:06 GMT 48.983597 2.331285 2,925 85 161 -896
2023-01-22 01:21:03 GMT 48.983429 2.328451 2,975 85 161 -896
2023-01-22 01:21:01 GMT 48.983288 2.325560 3,000 85 161 -896
2023-01-22 01:20:58 GMT 48.983093 2.322693 3,050 85 161 -960
2023-01-22 01:20:55 GMT 48.982918 2.319199 3,100 85 161 -960
2023-01-22 01:20:52 GMT 48.982731 2.316308 3,125 85 161 -896
2023-01-22 01:20:50 GMT 48.982635 2.313779 3,175 85 161 -896
2023-01-22 01:20:48 GMT 48.982498 2.311636 3,200 85 161 -896
2023-01-22 01:20:45 GMT 48.982361 2.308960 3,250 85 161 -896
2023-01-22 01:20:42 GMT 48.982132 2.304875 3,275 85 161 -832
2023-01-22 01:20:40 GMT 48.981995 2.302622 3,325 85 161 -832
2023-01-22 01:20:38 GMT 48.981846 2.300046 3,325 85 161 -832
2023-01-22 01:20:34 GMT 48.981674 2.297199 3,375 85 162 -832
2023-01-22 01:20:32 GMT 48.981522 2.294336 3,425 85 162 -832
2023-01-22 01:20:30 GMT 48.981308 2.290156 3,475 85 162 -832
2023-01-22 01:20:28 GMT 48.981239 2.288915 3,475 85 162 -832
2023-01-22 01:20:23 GMT 48.980896 2.282903 3,550 85 163 -832
2023-01-22 01:20:20 GMT 48.980621 2.278536 3,600 85 163 -960
2023-01-22 01:20:18 GMT 48.980621 2.278043 3,600 85 164 -960
2023-01-22 01:20:16 GMT 48.980438 2.275085 3,650 85 164 -960
2023-01-22 01:20:13 GMT 48.980072 2.268606 3,750 85 166 -1024
2023-01-22 01:20:08 GMT 48.979939 2.265713 3,775 84 166 -1088
2023-01-22 01:20:03 GMT 48.979568 2.259521 3,900 85 167 -1216
2023-01-22 01:19:58 GMT 48.979145 2.251619 4,000 85 168 -1344
2023-01-22 01:19:56 GMT 48.979145 2.251619 4,050 85 169 -1280
2023-01-22 01:19:52 GMT 48.978882 2.247479 4,125 85 170 -1344
2023-01-22 01:19:50 GMT 48.978771 2.245186 4,150 84 170 -1280
2023-01-22 01:19:48 GMT 48.978634 2.242584 4,200 84 171 -1280
2023-01-22 01:19:45 GMT 48.978424 2.239098 4,275 85 172 -1216
2023-01-22 01:19:42 GMT 48.978195 2.235436 4,325 85 173 -1152
2023-01-22 01:19:40 GMT 48.978027 2.232176 4,400 85 174 -1088
2023-01-22 01:19:38 GMT 48.977921 2.230295 4,400 85 176 -896
2023-01-22 01:19:31 GMT 48.977371 2.220928 4,500 85 177 -256
2023-01-22 01:19:29 GMT 48.977188 2.217126 4,500 85 178 -128
2023-01-22 01:19:24 GMT 48.976818 2.211288 4,500 84 179 128
2023-01-22 01:19:21 GMT 48.976677 2.208758 4,500 84 180 64
2023-01-22 01:19:19 GMT 48.976456 2.204872 4,500 84 180 0
2023-01-22 01:19:15 GMT 48.976307 2.201675 4,500 84 180 -64
2023-01-22 01:19:12 GMT 48.976074 2.197627 4,500 85 180 -64
2023-01-22 01:19:10 GMT 48.975933 2.195603 4,500 85 180 0
2023-01-22 01:19:08 GMT 48.975815 2.192970 4,500 85 180 0
2023-01-22 01:19:04 GMT 48.975559 2.188303 4,500 85 180 0
2023-01-22 01:19:01 GMT 48.975235 2.183027 4,500 85 180 0
2023-01-22 01:18:58 GMT 48.975082 2.180364 4,500 85 179 -64
2023-01-22 01:18:54 GMT 48.974861 2.175943 4,500 85 179 0
2023-01-22 01:18:51 GMT 48.974533 2.170786 4,500 84 179 0
2023-01-22 01:18:48 GMT 48.974075 2.162757 4,500 84 178 -64
2023-01-22 01:18:44 GMT 48.973839 2.158452 4,500 84 178 -64
2023-01-22 01:18:41 GMT 48.973839 2.158452 4,500 84 178 -64
2023-01-22 01:18:39 GMT 48.973709 2.155785 4,500 84 177 -64
2023-01-22 01:18:35 GMT 48.973419 2.151441 4,500 84 177 -64
2023-01-22 01:18:31 GMT 48.973068 2.145292 4,500 84 178 64
2023-01-22 01:18:28 GMT 48.972908 2.142189 4,500 84 179 0
2023-01-22 01:18:24 GMT 48.972675 2.138142 4,500 85 185 64
2023-01-22 01:18:21 GMT 48.972427 2.133953 4,500 85 183 64
2023-01-22 01:18:18 GMT 48.972210 2.129902 4,475 85 188 -64
2023-01-22 01:18:15 GMT 48.971970 2.125573 4,500 84 192 -64
2023-01-22 01:18:12 GMT 48.971741 2.121066 4,500 84 192 -64
2023-01-22 01:18:08 GMT 48.971420 2.115643 4,500 84 194 -64
2023-01-22 01:18:06 GMT 48.971325 2.114434 4,500 84 194 -64
2023-01-22 01:18:03 GMT 48.971046 2.109736 4,500 84 194 -64
2023-01-22 01:18:01 GMT 48.970905 2.107279 4,500 84 194 -64
2023-01-22 01:17:58 GMT 48.970627 2.102653 4,500 84 193 -64
2023-01-22 01:17:56 GMT 48.970531 2.100774 4,500 84 193 -64
2023-01-22 01:17:53 GMT 48.970253 2.096148 4,500 84 193 -64
2023-01-22 01:17:51 GMT 48.970020 2.092606 4,500 84 193 -64
2023-01-22 01:17:48 GMT 48.969818 2.089233 4,500 84 193 0
2023-01-22 01:17:45 GMT 48.969589 2.084656 4,500 84 193 -64
2023-01-22 01:17:41 GMT 48.969269 2.079796 4,500 84 193 -64
2023-01-22 01:17:38 GMT 48.969044 2.075549 4,500 84 193 -64
2023-01-22 01:17:36 GMT 48.968952 2.073669 4,500 85 193 -64
2023-01-22 01:17:33 GMT 48.968670 2.069044 4,500 85 193 0
2023-01-22 01:17:31 GMT 48.968533 2.066080 4,500 85 194 -64
2023-01-22 01:17:28 GMT 48.968300 2.062539 4,500 84 194 0
2023-01-22 01:17:26 GMT 48.968124 2.059091 4,500 84 194 0
2023-01-22 01:17:23 GMT 48.967739 2.052203 4,500 84 194 0
2023-01-22 01:17:21 GMT 48.967739 2.052203 4,500 84 194 0
2023-01-22 01:17:18 GMT 48.967506 2.048083 4,500 84 194 -64
2023-01-22 01:17:16 GMT 48.967319 2.045336 4,500 84 194 0
2023-01-22 01:17:13 GMT 48.967182 2.042662 4,500 84 194 0
2023-01-22 01:17:11 GMT 48.966888 2.038105 4,500 84 194 0
2023-01-22 01:17:08 GMT 48.966705 2.034865 4,500 84 194 0
2023-01-22 01:17:06 GMT 48.966568 2.032682 4,500 84 194 0
2023-01-22 01:17:02 GMT 48.966248 2.026414 4,500 85 194 -64
2023-01-22 01:17:00 GMT 48.966110 2.024376 4,500 85 194 -64
2023-01-22 01:16:58 GMT 48.965923 2.020834 4,500 84 193 0
2023-01-22 01:16:56 GMT 48.965836 2.018808 4,500 84 193 -64
2023-01-22 01:16:52 GMT 48.965515 2.013385 4,500 84 193 -64
2023-01-22 01:16:50 GMT 48.965321 2.010570 4,500 84 193 -64
2023-01-22 01:16:46 GMT 48.964966 2.005005 4,525 84 194 -128
2023-01-22 01:16:43 GMT 48.964668 2.000813 4,500 83 195 -128
2023-01-22 01:16:40 GMT 48.964390 1.996693 4,525 83 195 -128
2023-01-22 01:16:38 GMT 48.964203 1.993729 4,525 83 197 -64
2023-01-22 01:16:36 GMT 48.964016 1.991489 4,500 90 208 64
2023-01-22 01:16:33 GMT 48.963551 1.982815 4,500 86 202 0
2023-01-22 01:16:30 GMT 48.963551 1.982815 4,500 87 204 0
2023-01-22 01:16:28 GMT 48.963459 1.979997 4,500 90 208 64
2023-01-22 01:16:25 GMT 48.963409 1.976060 4,500 92 211 128
2023-01-22 01:16:22 GMT 48.963642 1.970817 4,500 97 215 192
2023-01-22 01:16:20 GMT 48.963913 1.967961 4,500 101 218 128
2023-01-22 01:16:16 GMT 48.964993 1.961855 4,500 111 224 0
2023-01-22 01:16:13 GMT 48.965599 1.959542 4,500 116 226 -64
2023-01-22 01:16:11 GMT 48.968948 1.950848 4,500 123 229 -64
2023-01-22 01:16:08 GMT 48.968948 1.950848 4,500 124 228 0
2023-01-22 01:16:06 GMT 48.970139 1.948172 4,500 124 228 -64
2023-01-22 01:16:02 GMT 48.972153 1.943665 4,500 124 229 0
2023-01-22 01:15:59 GMT 48.973984 1.939721 4,500 124 229 0
2023-01-22 01:15:55 GMT 48.976227 1.934650 4,500 124 229 0
2023-01-22 01:15:52 GMT 48.978123 1.930558 4,500 124 228 -64
2023-01-22 01:15:49 GMT 48.979889 1.926583 4,500 124 228 -64
2023-01-22 01:15:44 GMT 48.983185 1.919297 4,500 124 228 -64
2023-01-22 01:15:42 GMT 48.984081 1.917331 4,500 124 228 0
2023-01-22 01:15:39 GMT 48.986130 1.912850 4,500 124 228 -64
2023-01-22 01:15:34 GMT 48.990318 1.903598 4,500 124 228 -64
2023-01-22 01:15:32 GMT 48.990318 1.903598 4,500 124 227 -64
2023-01-22 01:15:29 GMT 48.992088 1.899623 4,500 124 227 -64
2023-01-22 01:15:26 GMT 48.993996 1.895431 4,500 124 226 -128
2023-01-22 01:15:22 GMT 48.995998 1.890949 4,500 124 226 -128
2023-01-22 01:15:19 GMT 48.997997 1.886468 4,525 124 225 -256
2023-01-22 01:15:15 GMT 49.000050 1.881987 4,525 124 226 -320
2023-01-22 01:15:12 GMT 49.002594 1.876409 4,550 124 226 -512
2023-01-22 01:15:09 GMT 49.004288 1.872746 4,575 124 226 -768
2023-01-22 01:15:04 GMT 49.006760 1.867253 4,650 124 226 -1216
2023-01-22 01:15:02 GMT 49.008286 1.863990 4,750 125 227 -1344
2023-01-22 01:14:59 GMT 49.010338 1.859508 4,775 125 227 -1280
2023-01-22 01:14:54 GMT 49.013351 1.853168 4,875 125 227 -1280
2023-01-22 01:14:52 GMT 49.014248 1.851196 4,900 126 227 -1280
2023-01-22 01:14:50 GMT 49.015686 1.848238 4,950 126 228 -1216
2023-01-22 01:14:48 GMT 49.016693 1.846126 5,000 127 229 -1216
2023-01-22 01:14:45 GMT 49.018436 1.842667 5,100 129 230 -1152
2023-01-22 01:14:42 GMT 49.020721 1.838308 5,100 129 230 -1152
2023-01-22 01:14:40 GMT 49.022438 1.835223 5,150 131 230 -1152
2023-01-22 01:14:38 GMT 49.023602 1.833271 5,200 134 232 -1152
2023-01-22 01:14:32 GMT 49.028397 1.826188 5,325 141 235 -1216
2023-01-22 01:14:30 GMT 49.029831 1.824435 5,350 148 240 -1024
2023-01-22 01:14:26 GMT 49.032448 1.821634 5,400 148 241 -1024
2023-01-22 01:14:23 GMT 49.036171 1.818020 5,500 148 240 -1024
2023-01-22 01:14:20 GMT 49.039673 1.814716 5,550 148 241 -1024
2023-01-22 01:14:17 GMT 49.041550 1.812885 5,575 148 242 -960
2023-01-22 01:14:14 GMT 49.044800 1.809857 5,625 148 242 -896
2023-01-22 01:14:12 GMT 49.046906 1.807885 5,650 148 243 -896
2023-01-22 01:14:10 GMT 49.049011 1.805913 5,700 148 243 -896
2023-01-22 01:14:07 GMT 49.051117 1.803871 5,725 148 244 -896
2023-01-22 01:14:02 GMT 49.059357 1.796120 5,825 148 246 -768
2023-01-22 01:13:59 GMT 49.059357 1.796120 5,850 148 247 -768
2023-01-22 01:13:57 GMT 49.061600 1.794011 5,875 148 249 -704
2023-01-22 01:13:55 GMT 49.063080 1.792651 5,925 148 250 -704
2023-01-22 01:13:52 GMT 49.066429 1.789543 5,925 148 250 -704
2023-01-22 01:13:49 GMT 49.068512 1.787602 5,950 148 252 -704
2023-01-22 01:13:44 GMT 49.074875 1.781616 6,025 148 255 -832
2023-01-22 01:13:42 GMT 49.076294 1.780278 6,050 148 255 -768
2023-01-22 01:13:39 GMT 49.078720 1.778025 6,050 148 255 -768
2023-01-22 01:13:35 GMT 49.082382 1.774644 6,125 148 258 -640
2023-01-22 01:13:33 GMT 49.084625 1.772531 6,125 148 260 -512
2023-01-22 01:13:31 GMT 49.086590 1.770678 6,150 148 261 -320
2023-01-22 01:13:29 GMT 49.089241 1.768148 6,150 148 264 -64
2023-01-22 01:13:26 GMT 49.092407 1.765185 6,175 148 268 -256
2023-01-22 01:13:22 GMT 49.097351 1.760489 6,200 148 270 -1216
2023-01-22 01:13:19 GMT 49.099575 1.758391 6,250 148 270 -1280
2023-01-22 01:13:15 GMT 49.104172 1.754080 6,325 148 271 -1280
2023-01-22 01:13:12 GMT 49.110703 1.747910 6,425 148 272 -1344
2023-01-22 01:13:09 GMT 49.110703 1.747910 6,475 148 272 -1344
2023-01-22 01:13:03 GMT 49.116894 1.742056 6,600 148 272 -1408
2023-01-22 01:13:01 GMT 49.118500 1.740488 6,650 148 272 -1408
2023-01-22 01:12:59 GMT 49.121178 1.738008 6,700 148 272 -1408
2023-01-22 01:12:53 GMT 49.127701 1.731755 6,850 147 271 -1344
2023-01-22 01:12:51 GMT 49.129395 1.730135 6,875 147 271 -1344
2023-01-22 01:12:49 GMT 49.132141 1.727530 6,925 147 271 -1280
2023-01-22 01:12:43 GMT 49.138447 1.721529 7,050 147 271 -1280
2023-01-22 01:12:41 GMT 49.140354 1.719649 7,100 147 271 -1280
2023-01-22 01:12:38 GMT 49.143520 1.716614 7,150 147 271 -1344
2023-01-22 01:12:36 GMT 49.145664 1.714590 7,200 147 271 -1344
2023-01-22 01:12:33 GMT 49.149296 1.711121 7,275 147 271 -1408
2023-01-22 01:12:31 GMT 49.150864 1.709571 7,300 147 271 -1408
2023-01-22 01:12:28 GMT 49.154480 1.706050 7,400 147 271 -1408
2023-01-22 01:12:26 GMT 49.155670 1.704977 7,425 147 271 -1408
2023-01-22 01:12:23 GMT 49.160019 1.700768 7,525 147 271 -1408
2023-01-22 01:12:21 GMT 49.161484 1.699360 7,550 147 271 -1344
2023-01-22 01:12:19 GMT 49.163818 1.697106 7,600 147 271 -1344
2023-01-22 01:12:17 GMT 49.165401 1.695581 7,650 147 271 -1280
2023-01-22 01:12:13 GMT 49.170410 1.690768 7,750 147 271 -1280
2023-01-22 01:12:11 GMT 49.172104 1.689148 7,775 147 271 -1280
2023-01-22 01:12:09 GMT 49.176544 1.684852 7,850 147 271 -1280
2023-01-22 01:12:04 GMT 49.179749 1.681824 7,925 147 271 -1280
2023-01-22 01:12:02 GMT 49.181442 1.680204 7,950 147 271 -1280
2023-01-22 01:12:00 GMT 49.187096 1.674765 8,050 147 271 -1344
2023-01-22 01:11:57 GMT 49.187096 1.674765 8,075 147 271 -1344
2023-01-22 01:11:53 GMT 49.193707 1.668476 8,225 148 272 -1344
2023-01-22 01:11:51 GMT 49.193707 1.668476 8,225 148 272 -1344
2023-01-22 01:11:47 GMT 49.197418 1.664922 8,275 148 272 -1344
2023-01-22 01:11:43 GMT 49.202457 1.660092 8,400 148 272 -1280
2023-01-22 01:11:41 GMT 49.204365 1.658285 8,450 148 272 -1280
2023-01-22 01:11:39 GMT 49.207031 1.655766 8,500 148 272 -1216
2023-01-22 01:11:36 GMT 49.208771 1.654076 8,525 148 273 -1216
2023-01-22 01:11:32 GMT 49.217972 1.645343 8,650 147 273 -1152
2023-01-22 01:11:29 GMT 49.217972 1.645343 8,700 147 273 -1152
2023-01-22 01:11:27 GMT 49.218937 1.644408 8,700 147 273 -1152
2023-01-22 01:11:23 GMT 49.224106 1.639493 8,800 147 274 -1088
2023-01-22 01:11:21 GMT 49.225639 1.638047 8,825 147 274 -1088
2023-01-22 01:11:18 GMT 49.228851 1.634939 8,875 148 275 -1088
2023-01-22 01:11:16 GMT 49.230927 1.632949 8,925 147 277 -896
2023-01-22 01:11:13 GMT 49.233833 1.630169 8,950 147 277 -960
2023-01-22 01:11:11 GMT 49.236786 1.627385 9,000 147 277 -896
2023-01-22 01:11:08 GMT 49.239929 1.624314 9,050 147 278 -896
2023-01-22 01:11:03 GMT 49.244888 1.619638 9,100 148 280 -832
2023-01-22 01:11:01 GMT 49.247845 1.616797 9,150 148 281 -768
2023-01-22 01:10:58 GMT 49.252167 1.612737 9,200 148 283 -512
2023-01-22 01:10:53 GMT 49.256149 1.608934 9,225 148 286 -320
2023-01-22 01:10:51 GMT 49.258972 1.606245 9,225 148 287 -256
2023-01-22 01:10:47 GMT 49.262604 1.602847 9,250 148 289 -320
2023-01-22 01:10:43 GMT 49.267960 1.597736 9,300 148 291 -1152
2023-01-22 01:10:41 GMT 49.270477 1.595342 9,325 148 291 -1280
2023-01-22 01:10:37 GMT 49.274826 1.591187 9,450 148 291 -1472
2023-01-22 01:10:33 GMT 49.281693 1.584637 9,550 148 291 -1472
2023-01-22 01:10:31 GMT 49.281693 1.584637 9,575 148 291 -1472
2023-01-22 01:10:28 GMT 49.285229 1.581236 9,650 147 290 -1472
2023-01-22 01:10:26 GMT 49.286911 1.579637 9,675 147 290 -1472
2023-01-22 01:10:23 GMT 49.290573 1.576186 9,750 147 290 -1472
2023-01-22 01:10:21 GMT 49.293419 1.573430 9,825 148 289 -1472
2023-01-22 01:10:18 GMT 49.297981 1.569093 9,925 148 289 -1536
2023-01-22 01:10:12 GMT 49.302887 1.564495 10,100 148 289 -1472
2023-01-22 01:10:10 GMT 49.304672 1.562735 10,075 148 289 -1472
2023-01-22 01:10:08 GMT 49.307758 1.559842 10,150 148 289 -1408
2023-01-22 01:10:06 GMT 49.314697 1.553298 10,225 148 289 -1408
2023-01-22 01:10:02 GMT 49.314697 1.553298 10,300 148 289 -1408
2023-01-22 01:10:00 GMT 49.316883 1.551241 10,325 148 289 -1408
2023-01-22 01:09:58 GMT 49.319733 1.548579 10,375 148 289 -1408
2023-01-22 01:09:52 GMT 49.326553 1.542171 10,525 148 288 -1280
2023-01-22 01:09:49 GMT 49.329170 1.539676 10,575 148 289 -1024
2023-01-22 01:09:47 GMT 49.332458 1.536537 10,600 148 290 -704
2023-01-22 01:09:42 GMT 49.338062 1.531292 10,700 148 290 -576
2023-01-22 01:09:39 GMT 49.340240 1.529283 10,675 148 290 -512
2023-01-22 01:09:36 GMT 49.344021 1.525726 10,750 148 289 -576
2023-01-22 01:09:34 GMT 49.347000 1.522907 10,725 148 289 -576
2023-01-22 01:09:32 GMT 49.349396 1.520691 10,750 148 289 -576
2023-01-22 01:09:29 GMT 49.352726 1.517631 10,775 148 289 -576
2023-01-22 01:09:27 GMT 49.354660 1.515761 10,775 148 289 -448
2023-01-22 01:09:23 GMT 49.358780 1.511958 10,825 148 289 -448
2023-01-22 01:09:21 GMT 49.361851 1.509030 10,825 148 290 -448
2023-01-22 01:09:19 GMT 49.362900 1.508085 10,825 148 290 -448
2023-01-22 01:09:17 GMT 49.365761 1.505416 10,850 148 294 -512
2023-01-22 01:09:14 GMT 49.369812 1.501606 10,875 148 297 -512
2023-01-22 01:09:12 GMT 49.372192 1.499352 10,875 148 299 -512
2023-01-22 01:09:10 GMT 49.373722 1.497899 10,900 148 300 -512
2023-01-22 01:09:06 GMT 49.378326 1.493577 10,925 148 304 -512
2023-01-22 01:09:04 GMT 49.381485 1.490619 10,950 148 309 -576
2023-01-22 01:09:01 GMT 49.384010 1.488214 10,975 148 309 -576
2023-01-22 01:08:59 GMT 49.386795 1.485549 10,975 148 312 -576
2023-01-22 01:08:57 GMT 49.390156 1.482359 11,075 148 316 -576
2023-01-22 01:08:54 GMT 49.393753 1.478929 11,050 148 320 -576
2023-01-22 01:08:52 GMT 49.398117 1.474770 11,075 148 322 -576
2023-01-22 01:08:50 GMT 49.398117 1.474770 11,075 147 324 -576
2023-01-22 01:08:47 GMT 49.402863 1.470266 11,100 147 330 -576
2023-01-22 01:08:43 GMT 49.407211 1.466041 11,125 147 330 -576
2023-01-22 01:08:41 GMT 49.409428 1.463928 11,150 147 333 -576
2023-01-22 01:08:39 GMT 49.412037 1.461398 11,150 147 334 -512
2023-01-22 01:08:37 GMT 49.415199 1.458363 11,175 147 340 -512
2023-01-22 01:08:33 GMT 49.421345 1.452364 11,225 147 344 -512
2023-01-22 01:08:31 GMT 49.424046 1.449762 11,225 147 349 -512
2023-01-22 01:08:29 GMT 49.425568 1.448294 11,250 147 349 -512
2023-01-22 01:08:27 GMT 49.429138 1.444847 11,250 147 352 -512
2023-01-22 01:08:23 GMT 49.433533 1.440582 11,275 147 356 -704
2023-01-22 01:08:21 GMT 49.436920 1.437330 11,325 147 358 -896
2023-01-22 01:08:19 GMT 49.438988 1.435275 11,350 147 366 -1792
2023-01-22 01:08:17 GMT 49.443100 1.431331 11,400 147 360 -1152
2023-01-22 01:08:13 GMT 49.447739 1.426812 11,450 147 362 -1408
2023-01-22 01:08:11 GMT 49.453583 1.421139 11,550 147 363 -1728
2023-01-22 01:08:09 GMT 49.453583 1.421139 12,300 147 373 -1792
2023-01-22 01:08:07 GMT 49.457657 1.417162 11,650 147 363 -1792
2023-01-22 01:08:04 GMT 49.465759 1.409286 11,825 147 363 -1792
2023-01-22 01:08:01 GMT 49.467339 1.407735 11,850 147 364 -1792
2023-01-22 01:07:57 GMT 49.471710 1.403431 11,950 147 364 -1792
2023-01-22 01:07:51 GMT 49.481964 1.393312 12,150 147 366 -1792
2023-01-22 01:07:46 GMT 49.486378 1.388954 12,275 147 368 -1792
2023-01-22 01:07:41 GMT 49.496483 1.379007 12,425 147 370 -1792
2023-01-22 01:07:39 GMT 49.496483 1.379007 12,450 147 370 -1792
2023-01-22 01:07:37 GMT 49.500641 1.374953 12,550 147 371 -1792
2023-01-22 01:07:34 GMT 49.504581 1.371064 12,675 147 373 -1792
2023-01-22 01:07:31 GMT 49.510849 1.364979 12,800 147 374 -1792
2023-01-22 01:07:29 GMT 49.510849 1.364979 12,875 147 375 -1792
2023-01-22 01:07:27 GMT 49.515057 1.360820 12,850 147 375 -1792
2023-01-22 01:07:23 GMT 49.519913 1.356089 12,975 147 378 -1792
2023-01-22 01:07:20 GMT 49.524784 1.351318 13,050 147 378 -1792
2023-01-22 01:07:18 GMT 49.527111 1.349017 13,100 147 378 -1792
2023-01-22 01:07:16 GMT 49.530090 1.346122 13,150 147 378 -1792
2023-01-22 01:07:11 GMT 49.538097 1.338328 13,325 147 381 -1856
2023-01-22 01:07:09 GMT 49.541245 1.335273 13,400 147 382 -1920
2023-01-22 01:07:06 GMT 49.544815 1.331803 13,475 147 382 -1920
2023-01-22 01:07:03 GMT 49.549179 1.327638 13,550 147 383 -1920
2023-01-22 01:07:00 GMT 49.555183 1.321848 13,700 147 384 -1920
2023-01-22 01:06:58 GMT 49.557606 1.319473 13,725 147 384 -1920
2023-01-22 01:06:54 GMT 49.563492 1.313806 13,900 147 386 -1856
2023-01-22 01:06:51 GMT 49.568775 1.308635 14,000 147 387 -1856
2023-01-22 01:06:49 GMT 49.576038 1.301509 14,250 147 388 -1856
2023-01-22 01:06:43 GMT 49.581486 1.296164 14,250 147 388 -1856
2023-01-22 01:06:40 GMT 49.584511 1.293195 14,325 147 389 -1856
2023-01-22 01:06:36 GMT 49.590729 1.287063 14,450 147 389 -1792
2023-01-22 01:06:32 GMT 49.597221 1.280650 14,575 147 390 -1728
2023-01-22 01:06:30 GMT 49.602386 1.275528 14,675 147 390 -1664
2023-01-22 01:06:26 GMT 49.604691 1.273258 14,725 147 390 -1728
2023-01-22 01:06:23 GMT 49.610458 1.267548 14,875 147 391 -1728
2023-01-22 01:06:20 GMT 49.614258 1.263725 14,900 147 392 -1728
2023-01-22 01:06:18 GMT 49.618214 1.259865 14,975 147 392 -1792
2023-01-22 01:06:15 GMT 49.621399 1.256706 15,050 147 392 -1920
2023-01-22 01:06:12 GMT 49.627991 1.250214 15,225 147 395 -2048
2023-01-22 01:06:09 GMT 49.631516 1.246804 15,275 147 394 -1984
2023-01-22 01:06:04 GMT 49.638790 1.239748 15,425 147 395 -2048
2023-01-22 01:06:02 GMT 49.644196 1.234444 15,575 147 397 -1856
2023-01-22 01:05:59 GMT 49.647449 1.231285 15,625 147 398 -1856
2023-01-22 01:05:56 GMT 49.651501 1.227277 15,850 147 400 -1920
2023-01-22 01:05:52 GMT 49.657738 1.221190 15,825 147 400 -1920
2023-01-22 01:05:49 GMT 49.662392 1.216587 15,950 147 400 -1920
2023-01-22 01:05:48 GMT 49.663788 1.215146 15,950 147 400 -1920
2023-01-22 01:05:47 GMT 49.665344 1.213628 15,975 147 400 -1920
2023-01-22 01:05:45 GMT 49.668633 1.210352 16,075 147 400 -1920
2023-01-22 01:05:43 GMT 49.672077 1.207011 16,250 147 401 -1920
2023-01-22 01:05:39 GMT 49.679077 1.200040 16,250 147 401 -1920
2023-01-22 01:05:37 GMT 49.680634 1.198522 16,300 147 402 -1920
2023-01-22 01:05:35 GMT 49.685028 1.194113 16,375 147 402 -1920
2023-01-22 01:05:31 GMT 49.689857 1.189344 16,475 147 402 -1920
2023-01-22 01:05:30 GMT 49.691574 1.187608 16,525 147 402 -1920
2023-01-22 01:05:29 GMT 49.694885 1.184371 16,575 147 403 -1920
2023-01-22 01:05:27 GMT 49.696289 1.182982 16,625 147 403 -1920
2023-01-22 01:05:25 GMT 49.699402 1.179874 16,700 147 403 -1920
2023-01-22 01:05:22 GMT 49.704117 1.175176 16,775 147 403 -1920
2023-01-22 01:05:21 GMT 49.705826 1.173459 16,800 147 403 -1920
2023-01-22 01:05:19 GMT 49.710251 1.169153 16,900 147 403 -1920
2023-01-22 01:05:17 GMT 49.713367 1.166035 16,975 147 403 -1920
2023-01-22 01:05:16 GMT 49.714951 1.164477 17,000 147 403 -1920
2023-01-22 01:05:15 GMT 49.716534 1.162918 17,025 147 404 -1920
2023-01-22 01:05:14 GMT 49.718262 1.161226 17,050 147 404 -1920
2023-01-22 01:05:12 GMT 49.721233 1.158241 17,125 147 404 -1920
2023-01-22 01:05:11 GMT 49.722816 1.156682 17,150 147 405 -1920
2023-01-22 01:05:10 GMT 49.724579 1.155010 17,200 147 405 -1984
2023-01-22 01:05:09 GMT 49.726311 1.153268 17,225 147 405 -1920
2023-01-22 01:05:07 GMT 49.729473 1.150150 17,300 147 406 -1920
2023-01-22 01:05:06 GMT 49.731056 1.148591 17,325 147 406 -1920
2023-01-22 01:05:05 GMT 49.732594 1.147032 17,350 147 406 -1920
2023-01-22 01:05:03 GMT 49.735760 1.143914 17,425 147 406 -1920
2023-01-22 01:05:02 GMT 49.737343 1.142355 17,450 147 406 -1920
2023-01-22 01:05:01 GMT 49.738770 1.140916 17,475 147 406 -1920
2023-01-22 01:04:59 GMT 49.741928 1.137808 17,550 147 406 -1920
2023-01-22 01:04:58 GMT 49.743530 1.136218 17,575 147 406 -1920
2023-01-22 01:04:57 GMT 49.744930 1.134784 17,600 147 406 -1920
2023-01-22 01:04:56 GMT 49.748096 1.131666 17,650 147 407 -1920
2023-01-22 01:04:53 GMT 49.749527 1.130219 17,775 147 408 -1920
2023-01-22 01:04:51 GMT 49.754288 1.125520 17,825 147 408 -1920
2023-01-22 01:04:49 GMT 49.757267 1.122535 17,850 147 408 -1920
2023-01-22 01:04:47 GMT 49.760155 1.119640 17,925 147 408 -1920
2023-01-22 01:04:46 GMT 49.761688 1.118082 17,950 147 408 -1920
2023-01-22 01:04:43 GMT 49.766647 1.113161 18,050 147 408 -1920
2023-01-22 01:04:41 GMT 49.769806 1.109981 18,150 147 409 -1920
2023-01-22 01:04:39 GMT 49.773140 1.106650 18,175 147 409 -1920
2023-01-22 01:04:38 GMT 49.775375 1.104497 18,250 147 409 -1920
2023-01-22 01:04:37 GMT 49.776306 1.103532 18,250 147 409 -1920
2023-01-22 01:04:36 GMT 49.777935 1.101899 18,275 147 410 -1920
2023-01-22 01:04:35 GMT 49.779518 1.100340 18,300 147 410 -1920
2023-01-22 01:04:34 GMT 49.782852 1.097043 18,375 147 410 -1920
2023-01-22 01:04:32 GMT 49.784592 1.095292 18,425 147 410 -1920
2023-01-22 01:04:31 GMT 49.786221 1.093659 18,450 147 410 -1920
2023-01-22 01:04:29 GMT 49.789261 1.090682 18,500 147 411 -1920
2023-01-22 01:04:28 GMT 49.790817 1.089092 18,550 147 411 -1920
2023-01-22 01:04:27 GMT 49.792419 1.087502 18,575 147 411 -1920
2023-01-22 01:04:26 GMT 49.795486 1.084455 18,625 147 411 -1920
2023-01-22 01:04:24 GMT 49.797226 1.082732 18,675 147 411 -1920
2023-01-22 01:04:22 GMT 49.800606 1.079333 18,725 147 411 -1920
2023-01-22 01:04:21 GMT 49.802189 1.077774 18,775 147 412 -1920
2023-01-22 01:04:20 GMT 49.803493 1.076512 18,800 147 412 -1984
2023-01-22 01:04:19 GMT 49.805237 1.074709 18,825 147 412 -1984
2023-01-22 01:04:18 GMT 49.808441 1.071528 18,900 147 412 -1984
2023-01-22 01:04:16 GMT 49.810043 1.069938 18,925 147 413 -1984
2023-01-22 01:04:15 GMT 49.811825 1.068198 18,975 147 413 -1984
2023-01-22 01:04:14 GMT 49.815315 1.064709 19,050 147 413 -1984
2023-01-22 01:04:12 GMT 49.816772 1.063216 19,075 147 413 -1984
2023-01-22 01:04:11 GMT 49.818375 1.061626 19,100 147 413 -1984
2023-01-22 01:04:09 GMT 49.821304 1.058735 19,175 147 413 -1984
2023-01-22 01:04:08 GMT 49.825150 1.054904 19,250 147 413 -1984
2023-01-22 01:04:05 GMT 49.827072 1.053025 19,275 147 413 -1984
2023-01-22 01:04:04 GMT 49.832401 1.047710 19,375 147 414 -1920
2023-01-22 01:04:02 GMT 49.832401 1.047710 19,400 147 414 -1856
2023-01-22 01:04:01 GMT 49.833984 1.046151 19,425 147 414 -1792
2023-01-22 01:03:59 GMT 49.837051 1.043051 19,475 147 415 -1728
2023-01-22 01:03:58 GMT 49.838654 1.041461 19,500 147 415 -1664
2023-01-22 01:03:57 GMT 49.840454 1.039693 19,550 147 415 -1664
2023-01-22 01:03:55 GMT 49.843666 1.036501 19,575 147 416 -1600
2023-01-22 01:03:54 GMT 49.845108 1.035028 19,625 147 416 -1536
2023-01-22 01:03:53 GMT 49.846756 1.033438 19,650 147 416 -1472
2023-01-22 01:03:52 GMT 49.848358 1.031848 19,675 147 417 -1408
2023-01-22 01:03:50 GMT 49.851608 1.028595 19,750 147 417 -1280
2023-01-22 01:03:48 GMT 49.855026 1.025217 19,750 147 417 -1280
2023-01-22 01:03:47 GMT 49.856827 1.023391 19,775 147 419 -1152
2023-01-22 01:03:46 GMT 49.858429 1.021801 19,800 147 419 -1088
2023-01-22 01:03:45 GMT 49.862045 1.018187 19,825 147 421 -960
2023-01-22 01:03:43 GMT 49.863499 1.016755 19,850 147 421 -896
2023-01-22 01:03:42 GMT 49.865128 1.015122 19,850 147 421 -832
2023-01-22 01:03:41 GMT 49.866432 1.013786 19,875 147 423 -832
2023-01-22 01:03:39 GMT 49.870064 1.010223 19,925 147 424 -704
2023-01-22 01:03:37 GMT 49.873043 1.007253 19,925 147 425 -576
2023-01-22 01:03:36 GMT 49.874672 1.005620 19,950 147 426 -512
2023-01-22 01:03:34 GMT 49.878159 1.002141 19,950 147 427 -384
2023-01-22 01:03:33 GMT 49.879978 1.000350 19,950 147 429 -320
2023-01-22 01:03:32 GMT 49.881653 0.998717 19,975 147 429 -192
2023-01-22 01:03:31 GMT 49.885162 0.995202 19,975 147 431 -64
2023-01-22 01:03:29 GMT 49.886681 0.993743 19,975 147 432 0
2023-01-22 01:03:28 GMT 49.888184 0.992239 19,975 147 433 0
2023-01-22 01:03:27 GMT 49.890034 0.990403 19,975 147 434 0
2023-01-22 01:03:24 GMT 49.895107 0.985281 19,975 147 437 -128
2023-01-22 01:03:23 GMT 49.897156 0.983276 19,975 147 438 -128
2023-01-22 01:03:21 GMT 49.900227 0.980233 19,975 147 440 -192
2023-01-22 01:03:20 GMT 49.901951 0.978526 19,975 147 442 -192
2023-01-22 01:03:19 GMT 49.904045 0.976447 19,975 147 443 -192
2023-01-22 01:03:18 GMT 49.905579 0.974964 19,975 147 444 -192
2023-01-22 01:03:16 GMT 49.909012 0.971495 20,000 147 445 -256
2023-01-22 01:03:14 GMT 49.912491 0.968098 20,000 147 447 -256
2023-01-22 01:03:12 GMT 49.914917 0.965640 20,000 147 449 -256
2023-01-22 01:03:10 GMT 49.918442 0.962171 20,000 147 450 -256
2023-01-22 01:03:09 GMT 49.920181 0.960436 20,025 147 452 -192
2023-01-22 01:03:08 GMT 49.922108 0.958483 20,025 147 452 -192
2023-01-22 01:03:07 GMT 49.925812 0.954799 20,025 147 453 -128
2023-01-22 01:03:05 GMT 49.927742 0.952841 20,000 147 454 -128
2023-01-22 01:03:04 GMT 49.929138 0.951505 20,000 147 454 -128
2023-01-22 01:03:02 GMT 49.932861 0.947788 20,000 147 455 -64
2023-01-22 01:03:01 GMT 49.934647 0.945981 20,000 147 456 -64
2023-01-22 01:03:00 GMT 49.936386 0.944174 19,975 147 456 -64
2023-01-22 01:02:59 GMT 49.939957 0.940632 19,975 147 456 -64
2023-01-22 01:02:57 GMT 49.941696 0.938897 20,000 147 456 -64
2023-01-22 01:02:56 GMT 49.943291 0.937327 19,975 147 455 -64
2023-01-22 01:02:54 GMT 49.947006 0.933549 20,000 147 454 -64
2023-01-22 01:02:53 GMT 49.948425 0.932175 20,000 147 454 -64
2023-01-22 01:02:52 GMT 49.950363 0.930201 20,000 147 454 -64
2023-01-22 01:02:51 GMT 49.952133 0.928419 20,000 147 454 -64
2023-01-22 01:02:49 GMT 49.955673 0.924930 20,000 147 454 -64
2023-01-22 01:02:48 GMT 49.957439 0.923148 20,000 147 454 -64
2023-01-22 01:02:47 GMT 49.959366 0.921189 20,000 147 454 -128
2023-01-22 01:02:46 GMT 49.961151 0.919382 20,000 147 454 -64
2023-01-22 01:02:44 GMT 49.964996 0.915551 20,000 147 454 -64
2023-01-22 01:02:42 GMT 49.967834 0.912733 20,000 147 454 -64
2023-01-22 01:02:40 GMT 49.971725 0.908830 20,000 146 453 -64
2023-01-22 01:02:39 GMT 49.973270 0.907189 20,000 146 453 0
2023-01-22 01:02:38 GMT 49.975204 0.905288 19,975 146 453 -64
2023-01-22 01:02:37 GMT 49.976990 0.903481 20,000 146 453 -64
2023-01-22 01:02:35 GMT 49.980469 0.899939 20,000 146 453 0
2023-01-22 01:02:34 GMT 49.982254 0.898205 20,000 146 452 0
2023-01-22 01:02:33 GMT 49.985558 0.894866 20,000 147 451 0
2023-01-22 01:02:31 GMT 49.987839 0.892567 20,000 147 451 0
2023-01-22 01:02:30 GMT 49.989578 0.890760 20,000 147 451 64
2023-01-22 01:02:29 GMT 49.992912 0.887443 20,000 147 451 0
2023-01-22 01:02:27 GMT 49.994843 0.885484 20,000 147 451 0
2023-01-22 01:02:26 GMT 49.996628 0.883749 20,000 147 451 0
2023-01-22 01:02:24 GMT 50.000107 0.880207 20,000 147 451 -64
2023-01-22 01:02:23 GMT 50.001667 0.878609 20,000 146 450 0
2023-01-22 01:02:22 GMT 50.003586 0.876666 20,000 147 451 0
2023-01-22 01:02:20 GMT 50.010269 0.870016 19,975 147 451 0
2023-01-22 01:02:18 GMT 50.010269 0.870016 19,975 147 451 0
2023-01-22 01:02:17 GMT 50.012184 0.868068 19,975 147 451 -64
2023-01-22 01:02:16 GMT 50.015854 0.864378 19,975 147 451 64
2023-01-22 01:02:14 GMT 50.017593 0.862571 19,975 147 451 64
2023-01-22 01:02:12 GMT 50.020386 0.859825 19,975 147 451 0
2023-01-22 01:02:11 GMT 50.022171 0.858018 19,975 147 451 0
2023-01-22 01:02:10 GMT 50.023911 0.856283 19,975 147 451 0
2023-01-22 01:02:09 GMT 50.025826 0.854335 20,000 147 451 -64
2023-01-22 01:02:08 GMT 50.027596 0.852628 19,975 147 451 0
2023-01-22 01:02:06 GMT 50.031235 0.848911 19,975 147 451 0
2023-01-22 01:02:04 GMT 50.033878 0.846318 19,975 147 451 -64
2023-01-22 01:02:03 GMT 50.036179 0.843996 20,000 147 452 0
2023-01-22 01:02:02 GMT 50.040024 0.840165 19,975 147 452 0
2023-01-22 01:02:00 GMT 50.041931 0.838227 19,975 147 452 0
2023-01-22 01:01:59 GMT 50.043869 0.836262 19,975 147 452 0
2023-01-22 01:01:58 GMT 50.045288 0.834889 19,975 147 452 0
2023-01-22 01:01:56 GMT 50.048962 0.831175 19,975 147 451 -64
2023-01-22 01:01:55 GMT 50.050919 0.829251 19,975 147 451 -64
2023-01-22 01:01:54 GMT 50.052456 0.827612 19,975 147 451 -64
2023-01-22 01:01:52 GMT 50.056137 0.823902 19,975 147 451 -64
2023-01-22 01:01:51 GMT 50.057922 0.822168 19,975 147 451 -64
2023-01-22 01:01:50 GMT 50.059662 0.820361 19,975 147 451 -64
2023-01-22 01:01:48 GMT 50.063187 0.816819 19,975 147 452 -128
2023-01-22 01:01:47 GMT 50.064926 0.815084 19,975 147 451 -128
2023-01-22 01:01:45 GMT 50.067719 0.812265 20,000 147 452 -64
2023-01-22 01:01:44 GMT 50.069504 0.810459 20,000 147 452 -128
2023-01-22 01:01:43 GMT 50.071400 0.808534 20,000 147 452 -128
2023-01-22 01:01:42 GMT 50.074768 0.805182 20,000 147 453 -64
2023-01-22 01:01:40 GMT 50.076710 0.803264 20,000 147 453 -64
2023-01-22 01:01:39 GMT 50.078430 0.801482 20,000 147 453 -64
2023-01-22 01:01:38 GMT 50.081966 0.797993 20,000 147 454 64
2023-01-22 01:01:35 GMT 50.086395 0.793545 20,000 147 454 64
2023-01-22 01:01:34 GMT 50.088135 0.791811 20,000 147 454 64
2023-01-22 01:01:32 GMT 50.091660 0.788269 19,975 147 454 64
2023-01-22 01:01:30 GMT 50.095051 0.784854 19,975 147 454 64
2023-01-22 01:01:28 GMT 50.098541 0.781291 19,975 147 455 64
2023-01-22 01:01:27 GMT 50.099609 0.780252 19,975 146 454 0
2023-01-22 01:01:26 GMT 50.101913 0.777933 19,975 146 454 -64
2023-01-22 01:01:25 GMT 50.105244 0.774536 19,975 146 454 0
2023-01-22 01:01:23 GMT 50.107178 0.772585 19,975 146 454 -64
2023-01-22 01:01:22 GMT 50.108963 0.770850 19,975 146 454 0
2023-01-22 01:01:21 GMT 50.115112 0.764589 19,975 147 454 -64
2023-01-22 01:01:19 GMT 50.115112 0.764589 19,975 147 454 -64
2023-01-22 01:01:18 GMT 50.115810 0.763921 19,975 147 454 -64
2023-01-22 01:01:17 GMT 50.118279 0.761397 19,975 147 454 -64
2023-01-22 01:01:15 GMT 50.121643 0.757984 20,000 147 454 -64
2023-01-22 01:01:14 GMT 50.123428 0.756250 19,975 147 455 -64
2023-01-22 01:01:13 GMT 50.124981 0.754642 20,000 147 455 -64
2023-01-22 01:01:12 GMT 50.130287 0.749297 20,000 147 456 0
2023-01-22 01:01:10 GMT 50.130287 0.749297 20,000 147 456 0
2023-01-22 01:01:09 GMT 50.132057 0.747516 19,975 147 456 0
2023-01-22 01:01:08 GMT 50.134003 0.745552 19,975 147 456 0
2023-01-22 01:01:06 GMT 50.137363 0.742171 19,975 147 456 -64
2023-01-22 01:01:05 GMT 50.138992 0.740565 20,000 147 456 -64
2023-01-22 01:01:04 GMT 50.142883 0.736662 19,975 147 456 -64
2023-01-22 01:01:02 GMT 50.144302 0.735217 20,000 147 456 -64
2023-01-22 01:01:01 GMT 50.145885 0.733634 19,975 146 456 -64
2023-01-22 01:00:59 GMT 50.149246 0.730229 20,000 146 456 -64
2023-01-22 01:00:58 GMT 50.150986 0.728422 20,000 146 456 -64
2023-01-22 01:00:57 GMT 50.154728 0.724652 20,000 146 455 -64
2023-01-22 01:00:55 GMT 50.156498 0.722871 20,000 146 456 -64
2023-01-22 01:00:54 GMT 50.158447 0.720906 20,000 146 455 -64
2023-01-22 01:00:53 GMT 50.160034 0.719308 20,000 146 455 -64
2023-01-22 01:00:51 GMT 50.163898 0.715373 20,000 146 455 -64
2023-01-22 01:00:49 GMT 50.167439 0.711810 20,000 146 456 -64
2023-01-22 01:00:47 GMT 50.170807 0.708401 20,000 146 456 -64
2023-01-22 01:00:46 GMT 50.172592 0.706594 20,000 146 456 -64
2023-01-22 01:00:45 GMT 50.174515 0.704610 20,000 146 456 -64
2023-01-22 01:00:42 GMT 50.179642 0.699439 20,000 146 456 0
2023-01-22 01:00:41 GMT 50.181427 0.697632 20,000 146 456 0
2023-01-22 01:00:39 GMT 50.184952 0.694018 20,000 146 456 0
2023-01-22 01:00:38 GMT 50.186691 0.692211 19,975 146 455 -64
2023-01-22 01:00:37 GMT 50.188667 0.690283 20,000 146 455 -64
2023-01-22 01:00:35 GMT 50.192001 0.686862 20,000 146 455 0
2023-01-22 01:00:34 GMT 50.193974 0.684864 20,000 146 455 0
2023-01-22 01:00:33 GMT 50.195892 0.682887 20,000 146 455 0
2023-01-22 01:00:32 GMT 50.197838 0.680930 19,975 146 455 0
2023-01-22 01:00:30 GMT 50.201202 0.677538 19,975 147 455 0
2023-01-22 01:00:29 GMT 50.202942 0.675731 19,975 147 455 -64
2023-01-22 01:00:28 GMT 50.204540 0.674175 20,000 147 455 -64
2023-01-22 01:00:27 GMT 50.208076 0.670611 20,000 147 455 -64
2023-01-22 01:00:25 GMT 50.210037 0.668648 19,975 147 455 -64
2023-01-22 01:00:24 GMT 50.211990 0.666677 19,975 147 455 -64
2023-01-22 01:00:23 GMT 50.213387 0.665192 20,000 147 455 -64
2023-01-22 01:00:21 GMT 50.216721 0.661854 19,975 147 455 -64
2023-01-22 01:00:20 GMT 50.218319 0.660219 19,975 147 455 -64
2023-01-22 01:00:19 GMT 50.220245 0.658240 20,000 147 455 -64
2023-01-22 01:00:18 GMT 50.223625 0.654874 19,975 146 454 -64
2023-01-22 01:00:16 GMT 50.225189 0.653253 19,975 146 454 -64
2023-01-22 01:00:15 GMT 50.227295 0.651084 20,000 146 454 -64
2023-01-22 01:00:14 GMT 50.230656 0.647674 20,000 146 454 -64
2023-01-22 01:00:12 GMT 50.232426 0.645892 19,975 146 454 -64
2023-01-22 01:00:11 GMT 50.234196 0.644111 20,000 146 454 -64
2023-01-22 01:00:10 GMT 50.235962 0.642329 19,975 146 454 -64
2023-01-22 01:00:09 GMT 50.237732 0.640547 19,975 146 454 -64
2023-01-22 01:00:08 GMT 50.241222 0.636984 20,000 146 454 -64
2023-01-22 01:00:06 GMT 50.242992 0.635203 20,000 146 454 -64
2023-01-22 01:00:04 GMT 50.246529 0.631640 20,000 146 454 0
2023-01-22 01:00:03 GMT 50.248810 0.629256 20,000 146 454 -64
2023-01-22 01:00:02 GMT 50.250721 0.627334 20,000 146 454 0
2023-01-22 01:00:01 GMT 50.253887 0.624068 19,975 146 453 -64
2023-01-22 00:59:59 GMT 50.255493 0.622462 20,000 146 453 -64
2023-01-22 00:59:58 GMT 50.257050 0.620876 20,000 146 453 -64
2023-01-22 00:59:57 GMT 50.261078 0.616752 20,000 146 453 0
2023-01-22 00:59:54 GMT 50.264080 0.613750 19,975 146 453 -64
2023-01-22 00:59:53 GMT 50.265850 0.611968 20,000 146 453 -64
2023-01-22 00:59:51 GMT 50.269341 0.608331 20,000 146 453 -64
2023-01-22 00:59:50 GMT 50.271111 0.606549 20,000 146 453 -64
2023-01-22 00:59:49 GMT 50.273205 0.604397 20,000 146 453 0
2023-01-22 00:59:48 GMT 50.276550 0.600996 20,000 146 452 -64
2023-01-22 00:59:46 GMT 50.278137 0.599423 19,975 146 452 -64
2023-01-22 00:59:45 GMT 50.280075 0.597454 19,975 146 452 -64
2023-01-22 00:59:43 GMT 50.283188 0.594201 20,000 146 452 -64
2023-01-22 00:59:41 GMT 50.286892 0.590441 20,000 146 452 0
2023-01-22 00:59:40 GMT 50.288818 0.588491 20,000 146 452 0
2023-01-22 00:59:38 GMT 50.292664 0.584516 20,000 146 452 -64
2023-01-22 00:59:36 GMT 50.296017 0.581162 20,000 146 452 0
2023-01-22 00:59:34 GMT 50.299507 0.577599 20,000 146 452 0
2023-01-22 00:59:32 GMT 50.302998 0.573961 19,975 146 452 0
2023-01-22 00:59:30 GMT 50.308411 0.568470 19,975 146 452 0
2023-01-22 00:59:27 GMT 50.312077 0.564682 19,975 146 452 0
2023-01-22 00:59:26 GMT 50.316963 0.559709 20,000 146 452 0
2023-01-22 00:59:24 GMT 50.316963 0.559709 19,975 146 452 0
2023-01-22 00:59:23 GMT 50.318893 0.557701 19,975 146 452 0
2023-01-22 00:59:21 GMT 50.322224 0.554364 19,975 146 452 0
2023-01-22 00:59:19 GMT 50.326088 0.550430 19,975 146 452 0
2023-01-22 00:59:18 GMT 50.327812 0.548648 19,975 146 452 -64
2023-01-22 00:59:17 GMT 50.329578 0.546867 19,975 146 452 -64
2023-01-22 00:59:15 GMT 50.333073 0.543304 19,975 146 452 -64
2023-01-22 00:59:14 GMT 50.334839 0.541448 19,975 146 452 -64
2023-01-22 00:59:13 GMT 50.336380 0.539848 19,975 146 452 -64
2023-01-22 00:59:11 GMT 50.339729 0.536474 19,975 146 452 -64
2023-01-22 00:59:10 GMT 50.341824 0.534322 19,975 146 452 -64
2023-01-22 00:59:09 GMT 50.342846 0.533282 19,975 146 452 -64
2023-01-22 00:59:07 GMT 50.346909 0.529151 19,975 146 452 -64
2023-01-22 00:59:06 GMT 50.348480 0.527566 19,975 146 452 -64
2023-01-22 00:59:05 GMT 50.353912 0.522067 20,000 146 452 -64
2023-01-22 00:59:03 GMT 50.353912 0.522067 20,000 146 452 -64
2023-01-22 00:59:02 GMT 50.355835 0.520069 19,975 146 452 -64
2023-01-22 00:59:01 GMT 50.357391 0.518453 19,975 146 452 -64
2023-01-22 00:58:59 GMT 50.360916 0.514912 20,000 146 452 -64
2023-01-22 00:58:58 GMT 50.362492 0.513314 20,000 146 452 -64
2023-01-22 00:58:57 GMT 50.364262 0.511532 20,000 146 452 -64
2023-01-22 00:58:56 GMT 50.367752 0.507895 20,000 146 452 -64
2023-01-22 00:58:54 GMT 50.369148 0.506485 20,000 146 452 -64
2023-01-22 00:58:53 GMT 50.371078 0.504504 20,000 146 452 -64
2023-01-22 00:58:51 GMT 50.374783 0.500769 20,000 146 452 -64
2023-01-22 00:58:50 GMT 50.376343 0.499155 20,000 146 452 -64
2023-01-22 00:58:49 GMT 50.378273 0.497206 20,000 146 452 -64
2023-01-22 00:58:48 GMT 50.381763 0.493568 20,000 146 452 0
2023-01-22 00:58:46 GMT 50.383160 0.492158 20,000 146 452 0
2023-01-22 00:58:44 GMT 50.389118 0.486071 20,000 146 452 0
2023-01-22 00:58:42 GMT 50.390190 0.484957 19,975 146 452 0
2023-01-22 00:58:40 GMT 50.392822 0.482314 19,975 146 452 -64
2023-01-22 00:58:39 GMT 50.395451 0.479613 19,975 146 452 0
2023-01-22 00:58:38 GMT 50.397175 0.477831 19,975 146 452 0
2023-01-22 00:58:37 GMT 50.398941 0.475975 19,975 146 452 -64
2023-01-22 00:58:36 GMT 50.403133 0.471744 20,000 146 452 -64
2023-01-22 00:58:34 GMT 50.404900 0.469888 20,000 146 452 -64
2023-01-22 00:58:33 GMT 50.405777 0.469015 19,975 146 452 -64
2023-01-22 00:58:31 GMT 50.409790 0.464915 20,000 146 452 -64
2023-01-22 00:58:30 GMT 50.411728 0.462944 20,000 146 452 -64
2023-01-22 00:58:28 GMT 50.414841 0.459691 20,000 146 452 -64
2023-01-22 00:58:27 GMT 50.416771 0.457714 20,000 146 452 -64
2023-01-22 00:58:26 GMT 50.418541 0.455933 20,000 146 452 -64
2023-01-22 00:58:24 GMT 50.421844 0.452536 20,000 146 452 -64
2023-01-22 00:58:23 GMT 50.423584 0.450729 20,000 146 452 -64
2023-01-22 00:58:22 GMT 50.425198 0.449178 20,000 146 452 -64
2023-01-22 00:58:20 GMT 50.427990 0.446282 20,000 146 452 -64
2023-01-22 00:58:19 GMT 50.430412 0.443759 20,000 146 452 -64
2023-01-22 00:58:18 GMT 50.432507 0.441606 20,000 146 452 -64
2023-01-22 00:58:16 GMT 50.437443 0.436632 19,975 146 452 -64
2023-01-22 00:58:14 GMT 50.439377 0.434683 20,000 146 452 -64
2023-01-22 00:58:13 GMT 50.440933 0.433069 20,000 146 452 -64
2023-01-22 00:58:12 GMT 50.445122 0.428764 20,000 146 452 0
2023-01-22 00:58:10 GMT 50.446701 0.427166 20,000 146 452 0
2023-01-22 00:58:09 GMT 50.448288 0.425498 19,975 146 452 0
2023-01-22 00:58:08 GMT 50.450008 0.423716 19,975 146 452 0
2023-01-22 00:58:07 GMT 50.451778 0.421934 19,975 146 452 0
2023-01-22 00:58:05 GMT 50.455444 0.418203 19,975 146 452 0
2023-01-22 00:58:04 GMT 50.457363 0.416219 19,975 146 452 64
2023-01-22 00:58:01 GMT 50.462299 0.411171 19,975 146 452 0
2023-01-22 00:57:59 GMT 50.465607 0.407795 19,975 146 452 0
2023-01-22 00:57:57 GMT 50.469131 0.404181 19,975 146 452 0
2023-01-22 00:57:56 GMT 50.470680 0.402560 19,975 146 452 0
2023-01-22 00:57:54 GMT 50.476265 0.396844 19,975 146 452 0
2023-01-22 00:57:52 GMT 50.478035 0.395062 19,975 146 452 -64
2023-01-22 00:57:51 GMT 50.479755 0.393281 19,975 146 452 -64
2023-01-22 00:57:50 GMT 50.485199 0.387702 19,975 146 452 -64
2023-01-22 00:57:48 GMT 50.485199 0.387702 20,000 146 452 -64
2023-01-22 00:57:47 GMT 50.486938 0.385895 19,975 146 452 -64
2023-01-22 00:57:45 GMT 50.490463 0.382281 20,000 146 453 -64
2023-01-22 00:57:43 GMT 50.493942 0.378667 20,000 146 453 -64
2023-01-22 00:57:42 GMT 50.495682 0.376932 19,975 146 453 -64
2023-01-22 00:57:41 GMT 50.497635 0.374946 20,000 146 453 -64
2023-01-22 00:57:40 GMT 50.500751 0.371679 19,975 146 453 -64
2023-01-22 00:57:38 GMT 50.502522 0.369898 19,975 146 453 -64
2023-01-22 00:57:37 GMT 50.504292 0.368042 20,000 146 453 0
2023-01-22 00:57:36 GMT 50.506012 0.366260 19,975 146 453 0
2023-01-22 00:57:34 GMT 50.509323 0.362838 19,975 146 453 0
2023-01-22 00:57:33 GMT 50.511108 0.361031 19,975 146 453 0
2023-01-22 00:57:32 GMT 50.512669 0.359357 19,975 146 453 -64
2023-01-22 00:57:30 GMT 50.516693 0.355249 19,975 146 453 0
2023-01-22 00:57:29 GMT 50.518433 0.353442 19,975 146 453 0
2023-01-22 00:57:28 GMT 50.520023 0.351785 19,975 146 453 0
2023-01-22 00:57:27 GMT 50.523376 0.348382 19,975 146 453 0
2023-01-22 00:57:25 GMT 50.525116 0.346575 19,975 146 453 0
2023-01-22 00:57:24 GMT 50.526855 0.344768 19,975 146 453 0
2023-01-22 00:57:23 GMT 50.528450 0.343174 19,975 146 453 0
2023-01-22 00:57:21 GMT 50.532639 0.338795 19,975 146 453 0
2023-01-22 00:57:20 GMT 50.533710 0.337755 19,975 146 454 0
2023-01-22 00:57:19 GMT 50.535645 0.335734 19,975 146 454 0
2023-01-22 00:57:18 GMT 50.539124 0.332120 19,975 146 454 0
2023-01-22 00:57:15 GMT 50.542648 0.328506 19,975 146 454 -64
2023-01-22 00:57:14 GMT 50.544231 0.326917 19,975 146 454 -64
2023-01-22 00:57:11 GMT 50.550018 0.320916 19,975 146 454 -64
2023-01-22 00:57:10 GMT 50.551758 0.319109 19,975 146 454 -64
2023-01-22 00:57:09 GMT 50.553730 0.317119 19,975 146 454 -128
2023-01-22 00:57:07 GMT 50.557068 0.313689 19,975 146 454 -128
2023-01-22 00:57:06 GMT 50.558807 0.311882 19,975 146 454 -128
2023-01-22 00:57:05 GMT 50.560547 0.310075 19,975 146 454 -128
2023-01-22 00:57:02 GMT 50.565811 0.304654 20,000 146 454 -192
2023-01-22 00:57:01 GMT 50.567596 0.302847 20,000 146 454 -192
2023-01-22 00:56:59 GMT 50.571808 0.298510 20,000 146 454 -192
2023-01-22 00:56:58 GMT 50.572861 0.297426 20,000 146 455 -128
2023-01-22 00:56:57 GMT 50.574600 0.295619 20,000 146 454 -128
2023-01-22 00:56:56 GMT 50.576912 0.293290 20,000 146 454 -128
2023-01-22 00:56:53 GMT 50.581474 0.288540 20,000 146 454 -128
2023-01-22 00:56:52 GMT 50.583244 0.286758 20,000 146 454 -128
2023-01-22 00:56:51 GMT 50.588505 0.281265 20,000 146 453 -128
2023-01-22 00:56:49 GMT 50.588505 0.281265 20,000 146 453 -128
2023-01-22 00:56:48 GMT 50.590439 0.279284 20,000 146 453 -128
2023-01-22 00:56:46 GMT 50.597443 0.272056 20,000 146 452 -64
2023-01-22 00:56:44 GMT 50.597443 0.272056 20,000 146 452 -64
2023-01-22 00:56:43 GMT 50.599182 0.270249 20,000 146 451 -64
2023-01-22 00:56:41 GMT 50.602661 0.266635 20,000 146 450 -64
2023-01-22 00:56:40 GMT 50.604565 0.264711 20,000 146 450 -64
2023-01-22 00:56:39 GMT 50.606140 0.263094 20,000 146 449 -64
2023-01-22 00:56:37 GMT 50.609253 0.259841 20,000 146 446 -64
2023-01-22 00:56:36 GMT 50.610992 0.258034 20,000 146 446 -64
2023-01-22 00:56:35 GMT 50.614426 0.254493 20,000 146 445 -64
2023-01-22 00:56:33 GMT 50.616669 0.252166 20,000 146 445 -64
2023-01-22 00:56:31 GMT 50.619919 0.248783 20,000 146 443 0
2023-01-22 00:56:30 GMT 50.621834 0.246821 20,000 146 442 -64
2023-01-22 00:56:29 GMT 50.623508 0.245040 20,000 146 442 -64
2023-01-22 00:56:27 GMT 50.626907 0.241477 20,000 146 440 -64
2023-01-22 00:56:26 GMT 50.628632 0.239769 20,000 146 438 0
2023-01-22 00:56:25 GMT 50.630127 0.238158 20,000 146 438 0
2023-01-22 00:56:24 GMT 50.633331 0.234796 20,000 146 436 64
2023-01-22 00:56:22 GMT 50.635056 0.233088 20,000 146 435 64
2023-01-22 00:56:20 GMT 50.639877 0.228039 20,000 146 432 64
2023-01-22 00:56:18 GMT 50.641712 0.226111 20,000 146 431 128
2023-01-22 00:56:17 GMT 50.643387 0.224403 20,000 146 430 128
2023-01-22 00:56:16 GMT 50.646740 0.220914 20,000 146 427 128
2023-01-22 00:56:14 GMT 50.648369 0.219207 20,000 146 426 128
2023-01-22 00:56:13 GMT 50.650043 0.217500 20,000 146 426 128
2023-01-22 00:56:12 GMT 50.653152 0.214233 19,975 146 425 128
2023-01-22 00:56:10 GMT 50.654934 0.212378 19,975 146 424 128
2023-01-22 00:56:09 GMT 50.656609 0.210670 19,975 146 422 128
2023-01-22 00:56:07 GMT 50.659058 0.208162 19,975 146 422 128
2023-01-22 00:56:06 GMT 50.662148 0.204954 19,975 146 420 128
2023-01-22 00:56:04 GMT 50.664871 0.202091 19,975 146 418 128
2023-01-22 00:56:03 GMT 50.666519 0.200428 19,975 146 417 128
2023-01-22 00:56:01 GMT 50.669552 0.197234 19,975 146 415 64
2023-01-22 00:56:00 GMT 50.671005 0.195730 19,975 146 414 0
2023-01-22 00:55:58 GMT 50.674671 0.191879 19,975 146 414 0
2023-01-22 00:55:56 GMT 50.677231 0.189285 20,000 146 413 -64
2023-01-22 00:55:55 GMT 50.680893 0.185431 20,000 146 413 -64
2023-01-22 00:55:53 GMT 50.682350 0.183945 20,000 146 413 -64
2023-01-22 00:55:52 GMT 50.683933 0.182266 20,000 146 413 -64
2023-01-22 00:55:51 GMT 50.685699 0.180458 20,000 146 413 -64
2023-01-22 00:55:49 GMT 50.688728 0.177307 19,975 146 413 -64
2023-01-22 00:55:48 GMT 50.690460 0.175484 19,975 146 413 0
2023-01-22 00:55:47 GMT 50.693478 0.172348 19,975 146 413 -64
2023-01-22 00:55:45 GMT 50.694946 0.170882 20,000 146 413 -64
2023-01-22 00:55:43 GMT 50.698105 0.167542 20,000 146 413 -64
2023-01-22 00:55:41 GMT 50.701630 0.163904 20,000 146 413 -64
2023-01-22 00:55:40 GMT 50.703068 0.162430 20,000 146 413 -64
2023-01-22 00:55:37 GMT 50.707672 0.157594 20,000 146 413 -64
2023-01-22 00:55:36 GMT 50.709122 0.156097 20,000 146 413 -64
2023-01-22 00:55:34 GMT 50.712284 0.152817 19,975 146 413 -64
2023-01-22 00:55:33 GMT 50.713917 0.151138 20,000 146 413 -64
2023-01-22 00:55:32 GMT 50.715317 0.149652 20,000 146 413 -64
2023-01-22 00:55:30 GMT 50.718662 0.146179 20,000 146 413 -64
2023-01-22 00:55:29 GMT 50.720444 0.144381 20,000 146 413 -64
2023-01-22 00:55:28 GMT 50.722046 0.142674 20,000 146 413 -64
2023-01-22 00:55:26 GMT 50.725368 0.139236 20,000 146 414 -64
2023-01-22 00:55:25 GMT 50.726807 0.137700 20,000 146 414 -64
2023-01-22 00:55:24 GMT 50.728409 0.136067 20,000 146 414 -64
2023-01-22 00:55:23 GMT 50.733170 0.131094 20,000 146 414 -64
2023-01-22 00:55:21 GMT 50.734451 0.129757 20,000 146 414 0
2023-01-22 00:55:19 GMT 50.736866 0.127182 19,975 146 414 0
2023-01-22 00:55:18 GMT 50.738449 0.125580 19,975 146 414 0
2023-01-22 00:55:17 GMT 50.739704 0.124207 19,975 146 414 0
2023-01-22 00:55:15 GMT 50.742916 0.120850 19,975 146 414 0
2023-01-22 00:55:14 GMT 50.744499 0.119171 19,975 146 414 0
2023-01-22 00:55:13 GMT 50.745941 0.117732 19,975 146 414 0
2023-01-22 00:55:11 GMT 50.749420 0.114020 19,975 146 414 0
2023-01-22 00:55:10 GMT 50.751022 0.112387 19,975 146 414 0
2023-01-22 00:55:08 GMT 50.754044 0.109177 19,975 146 414 -64
2023-01-22 00:55:07 GMT 50.755672 0.107574 20,000 146 414 -64
2023-01-22 00:55:06 GMT 50.757256 0.105896 19,975 146 414 -64
2023-01-22 00:55:04 GMT 50.760139 0.102844 19,975 146 414 -64
2023-01-22 00:55:03 GMT 50.762051 0.100861 20,000 146 414 -64
2023-01-22 00:55:02 GMT 50.763634 0.099182 20,000 146 414 -64
2023-01-22 00:55:00 GMT 50.766953 0.095685 19,975 146 414 -64
2023-01-22 00:54:59 GMT 50.768379 0.094223 20,000 146 414 -64
2023-01-22 00:54:58 GMT 50.770012 0.092545 19,975 146 414 -64
2023-01-22 00:54:57 GMT 50.771591 0.090866 20,000 146 414 -64
2023-01-22 00:54:54 GMT 50.776199 0.086035 20,000 146 414 -64
2023-01-22 00:54:53 GMT 50.777969 0.084229 20,000 146 414 -64
2023-01-22 00:54:52 GMT 50.779552 0.082550 19,975 146 414 -64
2023-01-22 00:54:50 GMT 50.782764 0.079193 20,000 146 414 -64
2023-01-22 00:54:48 GMT 50.786133 0.075717 20,000 146 414 -64
2023-01-22 00:54:47 GMT 50.789143 0.072556 20,000 146 414 -64
2023-01-22 00:54:45 GMT 50.790573 0.071040 20,000 146 414 -64
2023-01-22 00:54:44 GMT 50.792175 0.069407 20,000 146 414 -64
2023-01-22 00:54:43 GMT 50.795380 0.066066 20,000 146 414 -64
2023-01-22 00:54:41 GMT 50.796825 0.064545 20,000 146 414 0
2023-01-22 00:54:40 GMT 50.798409 0.062866 20,000 146 414 0
2023-01-22 00:54:38 GMT 50.801575 0.059509 19,975 146 414 0
2023-01-22 00:54:36 GMT 50.804787 0.056152 19,975 146 414 -64
2023-01-22 00:54:35 GMT 50.807949 0.052872 20,000 146 414 -64
2023-01-22 00:54:33 GMT 50.809582 0.051193 20,000 146 414 -64
2023-01-22 00:54:32 GMT 50.811813 0.048828 19,975 146 414 -64
2023-01-22 00:54:31 GMT 50.812744 0.047836 20,000 146 414 -64
2023-01-22 00:54:29 GMT 50.816116 0.044316 20,000 146 414 -64
2023-01-22 00:54:28 GMT 50.817719 0.042609 19,975 146 414 0
2023-01-22 00:54:27 GMT 50.819916 0.040308 19,975 146 414 -64
2023-01-22 00:54:26 GMT 50.823120 0.036968 19,975 146 414 0
2023-01-22 00:54:24 GMT 50.824894 0.035095 19,975 146 414 -64
2023-01-22 00:54:23 GMT 50.826645 0.033256 19,975 146 414 0
2023-01-22 00:54:21 GMT 50.830620 0.029068 20,000 146 414 -64
2023-01-22 00:54:19 GMT 50.832253 0.027466 20,000 146 414 0
2023-01-22 00:54:18 GMT 50.834015 0.025610 20,000 146 414 0
2023-01-22 00:54:17 GMT 50.835415 0.024109 19,975 146 414 -64
2023-01-22 00:54:15 GMT 50.838455 0.020933 20,000 146 414 -64
2023-01-22 00:54:14 GMT 50.839931 0.019455 20,000 146 414 -64
2023-01-22 00:54:13 GMT 50.841660 0.017593 19,975 146 414 -64
2023-01-22 00:54:12 GMT 50.846466 0.012545 19,975 146 414 0
2023-01-22 00:54:10 GMT 50.846466 0.012545 19,975 146 414 0
2023-01-22 00:54:09 GMT 50.848869 0.010071 19,975 146 414 0
2023-01-22 00:54:08 GMT 50.852081 0.006714 19,975 146 414 0
2023-01-22 00:54:06 GMT 50.853836 0.004899 20,000 146 414 0
2023-01-22 00:54:05 GMT 50.856876 0.001678 20,000 146 415 -64
2023-01-22 00:54:03 GMT 50.858597 -0.000148 19,975 146 415 -64
2023-01-22 00:54:02 GMT 50.860367 -0.001984 19,975 146 415 -64
2023-01-22 00:54:01 GMT 50.861801 -0.003489 19,975 146 415 -64
2023-01-22 00:53:59 GMT 50.864838 -0.006714 19,975 146 415 -64
2023-01-22 00:53:57 GMT 50.867249 -0.009205 19,975 146 415 -64
2023-01-22 00:53:56 GMT 50.870609 -0.012741 20,000 146 416 -64
2023-01-22 00:53:54 GMT 50.872055 -0.014253 19,975 146 416 -64
2023-01-22 00:53:53 GMT 50.873821 -0.016098 19,975 146 416 -64
2023-01-22 00:53:51 GMT 50.877182 -0.019671 20,000 146 416 -64
2023-01-22 00:53:50 GMT 50.878784 -0.021305 19,975 146 417 -64
2023-01-22 00:53:49 GMT 50.880707 -0.023383 20,000 146 417 -64
2023-01-22 00:53:48 GMT 50.883911 -0.026724 20,000 146 417 -64
2023-01-22 00:53:45 GMT 50.887276 -0.030289 20,000 146 417 -64
2023-01-22 00:53:44 GMT 50.888859 -0.031967 19,975 146 418 -64
2023-01-22 00:53:43 GMT 50.890488 -0.033722 20,000 146 418 -64
2023-01-22 00:53:42 GMT 50.893524 -0.036893 20,000 146 418 -64
2023-01-22 00:53:40 GMT 50.895126 -0.038601 20,000 146 418 -64
2023-01-22 00:53:39 GMT 50.895935 -0.039444 20,000 146 418 -64
2023-01-22 00:53:38 GMT 50.898331 -0.042015 20,000 146 418 -64
2023-01-22 00:53:36 GMT 50.901901 -0.045727 20,000 146 418 -64
2023-01-22 00:53:35 GMT 50.902683 -0.046616 20,000 146 418 -64
2023-01-22 00:53:33 GMT 50.905895 -0.049973 20,000 146 418 -64
2023-01-22 00:53:32 GMT 50.908176 -0.052338 20,000 146 418 -64
2023-01-22 00:53:31 GMT 50.909592 -0.053892 20,000 146 418 -64
2023-01-22 00:53:30 GMT 50.910553 -0.054857 20,000 146 418 -64
2023-01-22 00:53:28 GMT 50.914764 -0.059311 20,000 146 418 -64
2023-01-22 00:53:27 GMT 50.916367 -0.061019 20,000 146 418 -64
2023-01-22 00:53:26 GMT 50.917969 -0.062652 20,000 146 418 -64
2023-01-22 00:53:24 GMT 50.921024 -0.065918 20,000 146 417 -64
2023-01-22 00:53:23 GMT 50.922607 -0.067596 20,000 146 417 0
2023-01-22 00:53:22 GMT 50.924057 -0.069110 20,000 146 417 -64
2023-01-22 00:53:20 GMT 50.927261 -0.072525 20,000 146 417 0
2023-01-22 00:53:19 GMT 50.928864 -0.074232 20,000 146 417 -64
2023-01-22 00:53:18 GMT 50.930660 -0.076065 20,000 146 417 -64
2023-01-22 00:53:16 GMT 50.932896 -0.078506 19,975 146 417 -64
2023-01-22 00:53:15 GMT 50.934631 -0.080319 20,000 146 417 -64
2023-01-22 00:53:14 GMT 50.937836 -0.083734 19,975 146 417 0
2023-01-22 00:53:12 GMT 50.939438 -0.085441 19,975 146 417 0
2023-01-22 00:53:11 GMT 50.941040 -0.087148 19,975 146 417 0
2023-01-22 00:53:10 GMT 50.944115 -0.090408 20,000 146 416 0
2023-01-22 00:53:08 GMT 50.945698 -0.092087 19,975 146 416 0
2023-01-22 00:53:06 GMT 50.950974 -0.097689 20,000 146 416 0
2023-01-22 00:53:04 GMT 50.952576 -0.099397 19,975 146 416 0
2023-01-22 00:53:03 GMT 50.954178 -0.101104 20,000 146 417 0
2023-01-22 00:53:01 GMT 50.957523 -0.104675 20,000 146 417 -64
2023-01-22 00:53:00 GMT 50.958500 -0.105667 19,975 146 417 -64
2023-01-22 00:52:59 GMT 50.959946 -0.107191 19,975 146 417 -64
2023-01-22 00:52:58 GMT 50.961712 -0.109100 20,000 146 417 -64
2023-01-22 00:52:57 GMT 50.965073 -0.112610 20,000 146 417 -64
2023-01-22 00:52:54 GMT 50.968742 -0.116577 19,975 146 417 64
2023-01-22 00:52:53 GMT 50.970325 -0.118256 19,975 146 417 64
2023-01-22 00:52:52 GMT 50.973038 -0.121147 20,000 146 417 -64
2023-01-22 00:52:50 GMT 50.974514 -0.122681 20,000 145 417 -64
2023-01-22 00:52:49 GMT 50.976242 -0.124561 20,000 145 417 0
2023-01-22 00:52:48 GMT 50.979633 -0.128174 19,975 145 417 -64
2023-01-22 00:52:46 GMT 50.981216 -0.129852 19,975 145 417 -64
2023-01-22 00:52:45 GMT 50.982971 -0.131762 19,975 146 418 -64
2023-01-22 00:52:44 GMT 50.985855 -0.134879 19,975 146 418 -64
2023-01-22 00:52:42 GMT 50.987595 -0.136719 20,000 146 418 -64
2023-01-22 00:52:41 GMT 50.989059 -0.138294 20,000 146 418 -64
2023-01-22 00:52:40 GMT 50.992264 -0.141709 20,000 146 419 -64
2023-01-22 00:52:38 GMT 50.993866 -0.143416 20,000 146 419 0
2023-01-22 00:52:37 GMT 50.995468 -0.145123 20,000 146 419 0
2023-01-22 00:52:35 GMT 50.998718 -0.148538 20,000 146 420 -64
2023-01-22 00:52:33 GMT 51.003525 -0.153660 20,000 146 419 -64
2023-01-22 00:52:31 GMT 51.005173 -0.155367 19,975 146 419 0
2023-01-22 00:52:29 GMT 51.009846 -0.160294 19,975 146 420 -64
2023-01-22 00:52:26 GMT 51.013710 -0.164413 19,975 146 420 -64
2023-01-22 00:52:25 GMT 51.016922 -0.167847 20,000 146 419 -64
2023-01-22 00:52:23 GMT 51.018402 -0.169397 20,000 146 419 -64
2023-01-22 00:52:22 GMT 51.019855 -0.170898 19,975 146 420 -64
2023-01-22 00:52:21 GMT 51.022934 -0.174148 20,000 146 421 -64
2023-01-22 00:52:19 GMT 51.024536 -0.175855 20,000 146 421 -64
2023-01-22 00:52:18 GMT 51.026138 -0.177563 20,000 146 421 -64
2023-01-22 00:52:17 GMT 51.030991 -0.182685 20,000 146 421 -64
2023-01-22 00:52:15 GMT 51.030991 -0.182685 19,975 146 421 -64
2023-01-22 00:52:14 GMT 51.032593 -0.184466 20,000 146 421 -64
2023-01-22 00:52:13 GMT 51.037312 -0.189362 20,000 146 421 -64
2023-01-22 00:52:11 GMT 51.037312 -0.189362 19,975 146 421 -64
2023-01-22 00:52:09 GMT 51.040573 -0.192795 19,975 146 421 0
2023-01-22 00:52:08 GMT 51.042202 -0.194550 19,975 146 421 0
2023-01-22 00:52:06 GMT 51.045914 -0.198496 20,000 146 422 -64
2023-01-22 00:52:05 GMT 51.047695 -0.200348 20,000 146 422 0
2023-01-22 00:52:04 GMT 51.049164 -0.201911 19,975 146 422 0
2023-01-22 00:52:03 GMT 51.050766 -0.203618 20,000 146 422 0
2023-01-22 00:52:01 GMT 51.054062 -0.207033 20,000 146 422 0
2023-01-22 00:52:00 GMT 51.055840 -0.208893 19,975 146 422 0
2023-01-22 00:51:59 GMT 51.057468 -0.210648 20,000 146 422 -64
2023-01-22 00:51:57 GMT 51.060078 -0.213394 19,975 146 422 -64
2023-01-22 00:51:56 GMT 51.061707 -0.215073 19,975 146 422 -64
2023-01-22 00:51:54 GMT 51.064919 -0.218506 19,975 146 422 -64
2023-01-22 00:51:53 GMT 51.066547 -0.220261 19,975 146 422 -64
2023-01-22 00:51:52 GMT 51.068344 -0.222102 20,000 146 422 -64
2023-01-22 00:51:51 GMT 51.069992 -0.223809 19,975 146 422 -64
2023-01-22 00:51:50 GMT 51.074890 -0.229006 20,000 146 423 -64
2023-01-22 00:51:48 GMT 51.074890 -0.229006 19,975 146 423 -64
2023-01-22 00:51:47 GMT 51.076492 -0.230713 20,000 146 423 0
2023-01-22 00:51:45 GMT 51.080235 -0.234680 19,975 146 424 0
2023-01-22 00:51:44 GMT 51.081863 -0.236359 19,975 146 424 0
2023-01-22 00:51:43 GMT 51.083359 -0.237913 19,975 146 424 0
2023-01-22 00:51:40 GMT 51.088100 -0.242920 19,975 146 424 -64
2023-01-22 00:51:39 GMT 51.089729 -0.244598 19,975 146 424 -64
2023-01-22 00:51:37 GMT 51.093155 -0.248232 19,975 146 425 -64
2023-01-22 00:51:35 GMT 51.096294 -0.251465 19,975 146 426 -64
2023-01-22 00:51:33 GMT 51.099426 -0.254764 19,975 146 426 -64
2023-01-22 00:51:32 GMT 51.101231 -0.256653 19,975 146 426 -64
2023-01-22 00:51:31 GMT 51.102676 -0.258179 19,975 146 426 -64
2023-01-22 00:51:29 GMT 51.106163 -0.261765 20,000 146 426 -128
2023-01-22 00:51:28 GMT 51.107792 -0.263519 20,000 146 426 -128
2023-01-22 00:51:27 GMT 51.109268 -0.265008 20,000 146 426 -128
2023-01-22 00:51:26 GMT 51.111282 -0.267087 20,000 146 426 -128
2023-01-22 00:51:25 GMT 51.115219 -0.271244 20,000 146 427 -128
2023-01-22 00:51:23 GMT 51.116730 -0.272751 20,000 146 427 -128
2023-01-22 00:51:22 GMT 51.118362 -0.274429 20,000 146 427 -128
2023-01-22 00:51:21 GMT 51.121342 -0.277557 20,000 146 427 -128
2023-01-22 00:51:19 GMT 51.123016 -0.279236 20,000 146 427 -64
2023-01-22 00:51:18 GMT 51.124645 -0.280991 20,000 146 427 -64
2023-01-22 00:51:17 GMT 51.128448 -0.284902 20,000 146 426 -64
2023-01-22 00:51:15 GMT 51.129951 -0.286484 20,000 146 426 -64
2023-01-22 00:51:14 GMT 51.131580 -0.288162 20,000 146 426 -64
2023-01-22 00:51:13 GMT 51.133072 -0.289727 20,000 146 425 -64
2023-01-22 00:51:12 GMT 51.136368 -0.293216 20,000 146 425 -64
2023-01-22 00:51:09 GMT 51.139450 -0.296478 20,000 146 424 0
2023-01-22 00:51:07 GMT 51.142056 -0.299225 19,975 146 424 64
2023-01-22 00:51:06 GMT 51.143684 -0.300980 20,000 146 424 64
2023-01-22 00:51:05 GMT 51.145313 -0.302734 19,975 146 424 64
2023-01-22 00:51:04 GMT 51.148773 -0.306355 19,975 146 424 64
2023-01-22 00:51:01 GMT 51.152203 -0.309982 19,975 146 424 64
2023-01-22 00:51:00 GMT 51.153831 -0.311737 19,975 146 424 0
2023-01-22 00:50:58 GMT 51.157093 -0.315170 19,975 146 424 0
2023-01-22 00:50:57 GMT 51.158722 -0.316925 19,975 146 424 0
2023-01-22 00:50:55 GMT 51.161819 -0.320162 19,975 146 424 -64
2023-01-22 00:50:54 GMT 51.163467 -0.321870 19,975 146 424 -64
2023-01-22 00:50:53 GMT 51.164959 -0.323486 19,975 146 424 -64
2023-01-22 00:50:52 GMT 51.167084 -0.325730 19,975 146 424 -64
2023-01-22 00:50:50 GMT 51.169846 -0.328598 19,975 146 424 -128
2023-01-22 00:50:49 GMT 51.172127 -0.331039 19,975 146 424 -128
2023-01-22 00:50:48 GMT 51.173107 -0.332031 20,000 146 424 -128
2023-01-22 00:50:46 GMT 51.176365 -0.335541 20,000 146 424 -128
2023-01-22 00:50:44 GMT 51.180321 -0.339661 20,000 146 424 -128
2023-01-22 00:50:42 GMT 51.182930 -0.342407 20,000 146 425 -64
2023-01-22 00:50:41 GMT 51.184559 -0.344162 20,000 146 425 -64
2023-01-22 00:50:40 GMT 51.186188 -0.345917 20,000 146 426 -64
2023-01-22 00:50:38 GMT 51.189121 -0.349045 20,000 146 425 -64
2023-01-22 00:50:37 GMT 51.190422 -0.350418 20,000 145 425 0
2023-01-22 00:50:29 GMT 51.204300 -0.365295 19,975 145 424 -64
2023-01-22 00:50:27 GMT 51.207550 -0.368859 19,975 145 424 -64
2023-01-22 00:50:26 GMT 51.209324 -0.370789 19,975 145 424 -64
2023-01-22 00:50:25 GMT 51.211121 -0.372644 19,975 146 425 -64
2023-01-22 00:50:23 GMT 51.214211 -0.375977 19,975 145 424 -64
2023-01-22 00:50:22 GMT 51.215839 -0.377731 19,975 145 424 -64
2023-01-22 00:50:21 GMT 51.217621 -0.379696 20,000 145 424 0
2023-01-22 00:50:20 GMT 51.220730 -0.382996 20,000 145 424 0
2023-01-22 00:50:18 GMT 51.222198 -0.384596 20,000 145 424 -64
2023-01-22 00:50:17 GMT 51.223988 -0.386505 20,000 145 424 -64
2023-01-22 00:50:16 GMT 51.225449 -0.388085 20,000 145 424 -64
2023-01-22 00:50:15 GMT 51.228699 -0.391574 20,000 145 424 -64
2023-01-22 00:50:13 GMT 51.230507 -0.393448 20,000 145 424 -64
2023-01-22 00:50:12 GMT 51.232136 -0.395203 20,000 145 424 0
2023-01-22 00:50:11 GMT 51.233597 -0.396770 20,000 146 424 -64
2023-01-22 00:50:08 GMT 51.238930 -0.402527 19,975 146 424 0
2023-01-22 00:50:06 GMT 51.242191 -0.406036 20,000 146 424 -64
2023-01-22 00:50:05 GMT 51.243168 -0.407104 20,000 146 424 -64
2023-01-22 00:50:04 GMT 51.244797 -0.408859 20,000 146 424 -64
2023-01-22 00:50:03 GMT 51.248055 -0.412369 20,000 146 424 0
2023-01-22 00:50:01 GMT 51.249847 -0.414288 20,000 146 424 0
2023-01-22 00:50:00 GMT 51.251919 -0.416489 20,000 146 424 -64
2023-01-22 00:49:59 GMT 51.254700 -0.419485 20,000 146 424 0
2023-01-22 00:49:57 GMT 51.256348 -0.421266 20,000 146 424 0
2023-01-22 00:49:56 GMT 51.257950 -0.422974 19,975 146 424 0
2023-01-22 00:49:55 GMT 51.261200 -0.426463 19,975 146 424 0
2023-01-22 00:49:52 GMT 51.264771 -0.430323 19,975 146 424 0
2023-01-22 00:49:51 GMT 51.267513 -0.433273 19,975 146 424 0
2023-01-22 00:49:49 GMT 51.269302 -0.435148 19,975 146 424 0
2023-01-22 00:49:48 GMT 51.270950 -0.436929 19,975 145 423 0
2023-01-22 00:49:47 GMT 51.272404 -0.438461 19,975 145 423 0
2023-01-22 00:49:45 GMT 51.275803 -0.442125 19,975 145 423 -64
2023-01-22 00:49:44 GMT 51.277290 -0.443726 19,975 146 424 -64
2023-01-22 00:49:43 GMT 51.278919 -0.445480 19,975 146 424 -64
2023-01-22 00:49:42 GMT 51.282623 -0.449474 19,975 146 424 -64
2023-01-22 00:49:40 GMT 51.284271 -0.451182 20,000 146 424 -64
2023-01-22 00:49:39 GMT 51.285717 -0.452805 20,000 146 424 -64
2023-01-22 00:49:37 GMT 51.288975 -0.456238 20,000 146 424 -64
2023-01-22 00:49:36 GMT 51.290604 -0.457993 20,000 146 424 -64
2023-01-22 00:49:35 GMT 51.292374 -0.459941 20,000 146 424 -64
2023-01-22 00:49:33 GMT 51.295624 -0.463430 20,000 146 424 -64
2023-01-22 00:49:31 GMT 51.298424 -0.466385 20,000 146 424 -64
2023-01-22 00:49:30 GMT 51.300659 -0.468826 20,000 146 424 -64
2023-01-22 00:49:29 GMT 51.302940 -0.471268 20,000 146 424 -64
2023-01-22 00:49:27 GMT 51.306381 -0.474936 20,000 146 424 0
2023-01-22 00:49:26 GMT 51.308807 -0.477600 20,000 146 424 0
2023-01-22 00:49:23 GMT 51.311874 -0.480875 20,000 146 424 0
2023-01-22 00:49:22 GMT 51.314018 -0.483170 20,000 146 424 0
2023-01-22 00:49:21 GMT 51.316132 -0.485403 20,000 146 424 0
2023-01-22 00:49:19 GMT 51.318375 -0.487852 20,000 146 424 0
2023-01-22 00:49:17 GMT 51.321793 -0.491562 19,975 146 424 0
2023-01-22 00:49:16 GMT 51.323421 -0.493317 19,975 146 424 0
2023-01-22 00:49:13 GMT 51.328491 -0.498690 19,975 146 424 -64
2023-01-22 00:49:11 GMT 51.333023 -0.503590 19,975 146 424 0
2023-01-22 00:49:09 GMT 51.334503 -0.505219 19,975 146 424 -64
2023-01-22 00:49:08 GMT 51.336132 -0.506897 19,975 146 424 -64
2023-01-22 00:49:07 GMT 51.339569 -0.510642 20,000 146 424 -64
2023-01-22 00:49:05 GMT 51.341019 -0.512161 19,975 146 424 -64
2023-01-22 00:49:04 GMT 51.342323 -0.513611 20,000 146 424 -64
2023-01-22 00:49:03 GMT 51.346390 -0.517991 20,000 146 424 -64
2023-01-22 00:49:00 GMT 51.348843 -0.520554 20,000 145 424 -64
2023-01-22 00:48:59 GMT 51.353355 -0.525513 20,000 145 424 -64
2023-01-22 00:48:56 GMT 51.355965 -0.528259 19,975 145 424 -64
2023-01-22 00:48:54 GMT 51.360851 -0.533524 20,000 145 424 -64
2023-01-22 00:48:52 GMT 51.362480 -0.535355 19,975 145 424 -64
2023-01-22 00:48:50 GMT 51.365738 -0.538864 20,000 145 425 -64
2023-01-22 00:48:49 GMT 51.367218 -0.540409 20,000 145 425 -64
2023-01-22 00:48:48 GMT 51.368671 -0.541992 20,000 145 425 -64
2023-01-22 00:48:47 GMT 51.370468 -0.543972 20,000 145 425 0
2023-01-22 00:48:45 GMT 51.375000 -0.548871 19,975 145 426 0
2023-01-22 00:48:44 GMT 51.375000 -0.548871 19,975 145 426 0
2023-01-22 00:48:42 GMT 51.380077 -0.554352 20,000 145 426 0
2023-01-22 00:48:40 GMT 51.381706 -0.556107 19,975 145 426 0
2023-01-22 00:48:39 GMT 51.383148 -0.557705 19,975 145 426 0
2023-01-22 00:48:38 GMT 51.384796 -0.559486 20,000 145 426 0
2023-01-22 00:48:37 GMT 51.389694 -0.564757 20,000 145 426 0
2023-01-22 00:48:35 GMT 51.389694 -0.564757 19,975 145 426 0
2023-01-22 00:48:34 GMT 51.391342 -0.566538 19,975 145 427 0
2023-01-22 00:48:32 GMT 51.394417 -0.569916 19,975 145 427 0
2023-01-22 00:48:31 GMT 51.396240 -0.571809 19,975 145 427 0
2023-01-22 00:48:29 GMT 51.399677 -0.575562 19,975 145 427 0
2023-01-22 00:48:28 GMT 51.401138 -0.577153 19,975 145 427 -64
2023-01-22 00:48:26 GMT 51.404388 -0.580642 19,975 146 427 -64
2023-01-22 00:48:25 GMT 51.407684 -0.584205 19,975 146 427 -64
2023-01-22 00:48:23 GMT 51.409012 -0.585616 19,975 146 427 -64
2023-01-22 00:48:22 GMT 51.410980 -0.587769 19,975 146 427 -64
2023-01-22 00:48:20 GMT 51.414059 -0.591125 19,975 146 427 -64
2023-01-22 00:48:19 GMT 51.415737 -0.592880 19,975 146 428 -64
2023-01-22 00:48:18 GMT 51.418018 -0.595322 19,975 146 428 -64
2023-01-22 00:48:17 GMT 51.418995 -0.596390 19,975 146 428 -64
2023-01-22 00:48:16 GMT 51.422298 -0.599899 19,975 146 428 -64
2023-01-22 00:48:14 GMT 51.424118 -0.601873 19,975 146 428 -64
2023-01-22 00:48:13 GMT 51.425930 -0.603790 20,000 146 428 -64
2023-01-22 00:48:11 GMT 51.429062 -0.607217 20,000 146 430 -128
2023-01-22 00:48:10 GMT 51.430710 -0.608925 20,000 146 430 -64
2023-01-22 00:48:08 GMT 51.434006 -0.612488 20,000 146 430 -64
2023-01-22 00:48:07 GMT 51.435654 -0.614269 20,000 146 430 -64
2023-01-22 00:48:06 GMT 51.437302 -0.616051 20,000 146 430 -64
2023-01-22 00:48:04 GMT 51.440598 -0.619614 20,000 146 430 -64
2023-01-22 00:48:03 GMT 51.442410 -0.621567 20,000 146 430 -64
2023-01-22 00:48:02 GMT 51.444214 -0.623474 20,000 146 430 -64
2023-01-22 00:48:01 GMT 51.447510 -0.627037 20,000 145 430 -64
2023-01-22 00:47:59 GMT 51.449158 -0.628819 20,000 145 430 0
2023-01-22 00:47:58 GMT 51.450977 -0.630798 20,000 145 430 0
2023-01-22 00:47:57 GMT 51.452454 -0.632382 20,000 145 430 -64
2023-01-22 00:47:55 GMT 51.456070 -0.636316 20,000 145 430 -64
2023-01-22 00:47:54 GMT 51.456886 -0.637207 20,000 145 430 -64
2023-01-22 00:47:53 GMT 51.459217 -0.639648 19,975 145 430 0
2023-01-22 00:47:51 GMT 51.462475 -0.643234 20,000 145 429 -64
2023-01-22 00:47:49 GMT 51.465317 -0.646263 19,975 145 429 -64
2023-01-22 00:47:48 GMT 51.466965 -0.648045 20,000 145 430 -64
2023-01-22 00:47:47 GMT 51.468758 -0.650024 19,975 145 430 -64
2023-01-22 00:47:46 GMT 51.470261 -0.651608 19,975 145 430 -64
2023-01-22 00:47:44 GMT 51.473557 -0.655171 19,975 145 430 0
2023-01-22 00:47:43 GMT 51.474998 -0.656815 19,975 145 430 -64
2023-01-22 00:47:42 GMT 51.477173 -0.659105 20,000 145 430 0
2023-01-22 00:47:41 GMT 51.480305 -0.662537 19,975 145 430 -64
2023-01-22 00:47:39 GMT 51.481750 -0.664079 20,000 145 430 -64
2023-01-22 00:47:38 GMT 51.483765 -0.666232 19,975 145 430 -64
2023-01-22 00:47:36 GMT 51.486870 -0.669632 20,000 145 430 -64
2023-01-22 00:47:35 GMT 51.488544 -0.671463 20,000 145 430 -64
2023-01-22 00:47:34 GMT 51.490356 -0.673358 19,975 145 430 -64
2023-01-22 00:47:31 GMT 51.495300 -0.678777 20,000 145 430 -64
2023-01-22 00:47:29 GMT 51.499557 -0.683379 20,000 145 430 -64
2023-01-22 00:47:27 GMT 51.501392 -0.685349 20,000 145 430 -64
2023-01-22 00:47:26 GMT 51.503021 -0.687103 20,000 145 430 -64
2023-01-22 00:47:25 GMT 51.504700 -0.688934 20,000 145 430 -64
2023-01-22 00:47:22 GMT 51.510284 -0.694962 20,000 145 429 -64
2023-01-22 00:47:21 GMT 51.513916 -0.698929 20,000 145 429 0
2023-01-22 00:47:18 GMT 51.516521 -0.701752 20,000 145 429 -64
2023-01-22 00:47:16 GMT 51.520153 -0.705719 20,000 145 430 -64
2023-01-22 00:47:15 GMT 51.521622 -0.707356 20,000 145 430 -64
2023-01-22 00:47:14 GMT 51.523270 -0.709138 20,000 145 430 -64
2023-01-22 00:47:12 GMT 51.526566 -0.712701 20,000 145 430 -64
2023-01-22 00:47:11 GMT 51.528214 -0.714482 20,000 145 429 -64
2023-01-22 00:47:10 GMT 51.529541 -0.715893 20,000 145 429 -64
2023-01-22 00:47:09 GMT 51.534760 -0.721609 20,000 145 429 -64
2023-01-22 00:47:07 GMT 51.534760 -0.721609 19,975 145 429 0
2023-01-22 00:47:06 GMT 51.536407 -0.723465 19,975 145 429 -64
2023-01-22 00:47:04 GMT 51.539062 -0.726285 19,975 145 429 0
2023-01-22 00:47:03 GMT 51.540543 -0.727921 20,000 145 429 -64
2023-01-22 00:47:02 GMT 51.542500 -0.730057 19,975 145 429 -64
2023-01-22 00:47:01 GMT 51.543961 -0.731630 20,000 145 429 -64
2023-01-22 00:46:59 GMT 51.549061 -0.737228 20,000 145 429 -64
2023-01-22 00:46:58 GMT 51.549061 -0.737228 20,000 145 429 -64
2023-01-22 00:46:56 GMT 51.554764 -0.743433 20,000 145 428 -64
2023-01-22 00:46:53 GMT 51.557419 -0.746328 19,975 145 428 0
2023-01-22 00:46:51 GMT 51.561310 -0.750633 20,000 145 428 -64
2023-01-22 00:46:50 GMT 51.562141 -0.751495 20,000 145 428 0
2023-01-22 00:46:49 GMT 51.563965 -0.753454 19,975 145 428 0
2023-01-22 00:46:47 GMT 51.567078 -0.756836 20,000 145 428 0
2023-01-22 00:46:46 GMT 51.568707 -0.758667 19,975 145 428 0
2023-01-22 00:46:45 GMT 51.570988 -0.761185 20,000 145 428 0
2023-01-22 00:46:44 GMT 51.574245 -0.764694 19,975 145 428 0
2023-01-22 00:46:41 GMT 51.577057 -0.767781 19,975 145 428 0
2023-01-22 00:46:39 GMT 51.580486 -0.771484 19,975 145 428 0
2023-01-22 00:46:38 GMT 51.582275 -0.773497 20,000 145 428 0
2023-01-22 00:46:36 GMT 51.585373 -0.776901 19,975 145 428 0
2023-01-22 00:46:35 GMT 51.586678 -0.778275 19,975 145 428 -64
2023-01-22 00:46:33 GMT 51.589783 -0.781662 19,975 145 428 0
2023-01-22 00:46:32 GMT 51.592117 -0.784186 19,975 145 428 -64
2023-01-22 00:46:31 GMT 51.593719 -0.785968 19,975 145 428 -64
2023-01-22 00:46:30 GMT 51.597477 -0.790100 19,975 145 428 -64
2023-01-22 00:46:28 GMT 51.598499 -0.791168 19,975 145 429 -64
2023-01-22 00:46:27 GMT 51.599804 -0.792618 19,975 145 429 -64
2023-01-22 00:46:26 GMT 51.601593 -0.794579 20,000 145 429 -64
2023-01-22 00:46:24 GMT 51.605019 -0.798340 19,975 145 429 -64
2023-01-22 00:46:23 GMT 51.607498 -0.800963 20,000 145 429 -64
2023-01-22 00:46:22 GMT 51.608322 -0.801849 19,975 145 429 -64
2023-01-22 00:46:20 GMT 51.611908 -0.805817 20,000 145 429 -64
2023-01-22 00:46:19 GMT 51.613403 -0.807421 20,000 145 429 -64
2023-01-22 00:46:18 GMT 51.615051 -0.809202 20,000 145 429 -64
2023-01-22 00:46:16 GMT 51.618469 -0.812912 20,000 145 429 -64
2023-01-22 00:46:15 GMT 51.620148 -0.814743 20,000 145 429 -64
2023-01-22 00:46:14 GMT 51.621777 -0.816498 20,000 145 429 -64
2023-01-22 00:46:13 GMT 51.623405 -0.818329 20,000 145 429 -64
2023-01-22 00:46:11 GMT 51.626713 -0.821915 20,000 145 429 -64
2023-01-22 00:46:10 GMT 51.628189 -0.823529 20,000 145 429 -64
2023-01-22 00:46:09 GMT 51.629642 -0.825119 20,000 145 429 -64
2023-01-22 00:46:08 GMT 51.631969 -0.827637 20,000 145 429 -64
2023-01-22 00:46:06 GMT 51.634579 -0.830536 20,000 145 429 -64
2023-01-22 00:46:05 GMT 51.636063 -0.832140 20,000 145 429 -64
2023-01-22 00:46:04 GMT 51.639839 -0.836258 20,000 145 429 -64
2023-01-22 00:46:02 GMT 51.641327 -0.837856 20,000 145 429 -64
2023-01-22 00:46:01 GMT 51.643097 -0.839844 20,000 145 429 -64
2023-01-22 00:45:59 GMT 51.645752 -0.842667 20,000 145 429 -64
2023-01-22 00:45:57 GMT 51.649841 -0.847209 20,000 145 429 -64
2023-01-22 00:45:55 GMT 51.654594 -0.852356 20,000 145 428 -64
2023-01-22 00:45:54 GMT 51.654594 -0.852356 20,000 145 428 -64
2023-01-22 00:45:53 GMT 51.656387 -0.854335 20,000 145 428 -64
2023-01-22 00:45:51 GMT 51.661972 -0.860422 20,000 145 428 0
2023-01-22 00:45:49 GMT 51.661972 -0.860422 20,000 145 428 0
2023-01-22 00:45:48 GMT 51.663769 -0.862427 20,000 145 427 0
2023-01-22 00:45:47 GMT 51.665398 -0.864182 20,000 145 427 0
2023-01-22 00:45:45 GMT 51.669159 -0.868365 19,975 145 427 0
2023-01-22 00:45:44 GMT 51.670761 -0.870147 19,975 145 427 64
2023-01-22 00:45:42 GMT 51.674011 -0.873710 19,975 145 427 0
2023-01-22 00:45:40 GMT 51.677452 -0.877457 19,975 145 427 0
2023-01-22 00:45:39 GMT 51.679081 -0.879288 19,975 145 426 0
2023-01-22 00:45:37 GMT 51.682480 -0.883063 19,975 145 426 0
2023-01-22 00:45:36 GMT 51.684128 -0.884845 19,975 145 426 0
2023-01-22 00:45:35 GMT 51.688019 -0.889150 19,975 145 426 64
2023-01-22 00:45:33 GMT 51.689026 -0.890190 19,975 145 426 64
2023-01-22 00:45:31 GMT 51.691635 -0.893085 19,975 145 427 0
2023-01-22 00:45:30 GMT 51.693237 -0.894866 19,975 145 427 0
2023-01-22 00:45:29 GMT 51.695526 -0.897316 19,975 145 427 0
2023-01-22 00:45:28 GMT 51.697006 -0.898972 19,975 145 427 -64
2023-01-22 00:45:27 GMT 51.700264 -0.902557 19,975 145 427 -64
2023-01-22 00:45:25 GMT 51.701706 -0.904145 19,975 145 427 -64
2023-01-22 00:45:24 GMT 51.703522 -0.906143 19,975 145 427 -64
2023-01-22 00:45:22 GMT 51.706779 -0.909653 19,975 145 428 -64
2023-01-22 00:45:21 GMT 51.708572 -0.911643 19,975 145 428 -64
2023-01-22 00:45:20 GMT 51.709900 -0.913053 19,975 145 428 -64
2023-01-22 00:45:19 GMT 51.713470 -0.916987 19,975 145 428 -64
2023-01-22 00:45:17 GMT 51.715302 -0.918961 19,975 145 428 -64
2023-01-22 00:45:16 GMT 51.717255 -0.921173 19,975 145 428 -64
2023-01-22 00:45:14 GMT 51.719696 -0.923817 20,000 145 429 -64
2023-01-22 00:45:12 GMT 51.722672 -0.927083 20,000 145 429 -64
2023-01-22 00:45:11 GMT 51.725922 -0.930646 20,000 145 429 -64
2023-01-22 00:45:09 GMT 51.728382 -0.933304 20,000 145 429 -64
2023-01-22 00:45:08 GMT 51.730057 -0.935135 20,000 145 429 -64
2023-01-22 00:45:07 GMT 51.732990 -0.938339 20,000 145 430 -64
2023-01-22 00:45:05 GMT 51.734802 -0.940370 20,000 145 430 -64
2023-01-22 00:45:04 GMT 51.736450 -0.942152 20,000 145 430 -64
2023-01-22 00:45:02 GMT 51.739555 -0.945511 20,000 145 430 -64
2023-01-22 00:45:01 GMT 51.741394 -0.947497 20,000 145 430 -64
2023-01-22 00:45:00 GMT 51.742859 -0.949173 20,000 145 430 -64
2023-01-22 00:44:58 GMT 51.746162 -0.952759 20,000 145 431 -64
2023-01-22 00:44:56 GMT 51.750275 -0.957295 20,000 145 431 -64
2023-01-22 00:44:54 GMT 51.751923 -0.959077 20,000 145 431 -64
2023-01-22 00:44:53 GMT 51.753891 -0.961229 20,000 145 431 -64
2023-01-22 00:44:51 GMT 51.757141 -0.964867 20,000 145 430 -64
2023-01-22 00:44:50 GMT 51.758640 -0.966492 20,000 145 430 0
2023-01-22 00:44:49 GMT 51.760269 -0.968323 20,000 145 430 0
2023-01-22 00:44:47 GMT 51.763733 -0.972142 20,000 145 430 0
2023-01-22 00:44:46 GMT 51.765381 -0.973923 20,000 145 429 0
2023-01-22 00:44:45 GMT 51.766834 -0.975571 20,000 145 429 0
2023-01-22 00:44:43 GMT 51.770092 -0.979156 19,975 145 429 0
2023-01-22 00:44:42 GMT 51.771561 -0.980827 20,000 145 429 -64
2023-01-22 00:44:41 GMT 51.773396 -0.982819 20,000 145 429 -64
2023-01-22 00:44:39 GMT 51.776825 -0.986617 20,000 145 429 -64
2023-01-22 00:44:37 GMT 51.780239 -0.990448 20,000 145 429 -64
2023-01-22 00:44:36 GMT 51.783501 -0.994034 20,000 145 429 -64
2023-01-22 00:44:33 GMT 51.786804 -0.997696 19,975 145 429 -64
2023-01-22 00:44:32 GMT 51.788109 -0.999146 20,000 145 429 -64
2023-01-22 00:44:31 GMT 51.792995 -1.004562 20,000 145 429 -64
2023-01-22 00:44:29 GMT 51.792995 -1.004562 20,000 145 429 -64
2023-01-22 00:44:28 GMT 51.794624 -1.006317 20,000 145 429 -64
2023-01-22 00:44:26 GMT 51.797745 -1.009777 20,000 145 429 -64
2023-01-22 00:44:25 GMT 51.799232 -1.011429 20,000 145 429 -64
2023-01-22 00:44:24 GMT 51.801682 -1.014157 20,000 145 429 -64
2023-01-22 00:44:22 GMT 51.804291 -1.017052 20,000 145 429 -64
2023-01-22 00:44:21 GMT 51.806259 -1.019205 20,000 145 429 -64
2023-01-22 00:44:20 GMT 51.807861 -1.020986 19,975 145 429 0
2023-01-22 00:44:18 GMT 51.810966 -1.024399 20,000 145 429 0
2023-01-22 00:44:17 GMT 51.812439 -1.026034 20,000 145 429 0
2023-01-22 00:44:16 GMT 51.814270 -1.028061 20,000 145 429 0
2023-01-22 00:44:15 GMT 51.815735 -1.029671 20,000 145 429 0
2023-01-22 00:44:12 GMT 51.820786 -1.035309 20,000 145 429 0
2023-01-22 00:44:10 GMT 51.823883 -1.038728 19,975 145 429 0
2023-01-22 00:44:09 GMT 51.825531 -1.040509 19,975 145 429 0
2023-01-22 00:44:08 GMT 51.829308 -1.044693 19,975 145 429 0
2023-01-22 00:44:06 GMT 51.830936 -1.046524 19,975 145 429 0
2023-01-22 00:44:05 GMT 51.832565 -1.048279 19,975 145 428 0
2023-01-22 00:44:04 GMT 51.835648 -1.051718 19,975 145 428 0
2023-01-22 00:44:02 GMT 51.837296 -1.053574 19,975 145 428 0
2023-01-22 00:44:01 GMT 51.838943 -1.055356 19,975 145 429 -64
2023-01-22 00:44:00 GMT 51.840591 -1.057137 19,975 145 429 -64
2023-01-22 00:43:59 GMT 51.842388 -1.059113 19,975 145 429 -64
2023-01-22 00:43:57 GMT 51.845322 -1.062393 19,975 145 429 -64
2023-01-22 00:43:56 GMT 51.846817 -1.064041 19,975 145 429 -64
2023-01-22 00:43:55 GMT 51.851883 -1.069565 20,000 145 429 -64
2023-01-22 00:43:53 GMT 51.851883 -1.069565 20,000 145 430 -64
2023-01-22 00:43:52 GMT 51.855190 -1.073227 19,975 145 430 -64
2023-01-22 00:43:49 GMT 51.858307 -1.076660 20,000 145 430 -64
2023-01-22 00:43:47 GMT 51.862244 -1.080966 20,000 145 430 -64
2023-01-22 00:43:45 GMT 51.865540 -1.084603 20,000 145 431 -64
2023-01-22 00:43:43 GMT 51.868317 -1.087646 20,000 145 431 -64
2023-01-22 00:43:41 GMT 51.872272 -1.091995 20,000 145 430 -64
2023-01-22 00:43:40 GMT 51.876884 -1.097107 20,000 145 430 -64
2023-01-22 00:43:38 GMT 51.876884 -1.097107 20,000 145 430 -64
2023-01-22 00:43:37 GMT 51.878838 -1.099319 20,000 145 430 -64
2023-01-22 00:43:36 GMT 51.879639 -1.100192 20,000 145 430 -64
2023-01-22 00:43:34 GMT 51.883076 -1.103973 20,000 145 430 0
2023-01-22 00:43:33 GMT 51.885075 -1.106186 19,975 145 430 0
2023-01-22 00:43:32 GMT 51.886871 -1.108209 19,975 145 430 0
2023-01-22 00:43:30 GMT 51.889801 -1.111475 19,975 145 430 -64
2023-01-22 00:43:29 GMT 51.891449 -1.113331 19,975 145 430 -64
2023-01-22 00:43:28 GMT 51.892944 -1.114960 19,975 145 430 -64
2023-01-22 00:43:26 GMT 51.896526 -1.118958 19,975 145 430 -64
2023-01-22 00:43:25 GMT 51.898205 -1.120762 20,000 145 430 -64
2023-01-22 00:43:24 GMT 51.899834 -1.122567 19,975 145 430 -64
2023-01-22 00:43:23 GMT 51.903091 -1.126256 20,000 145 430 -64
2023-01-22 00:43:21 GMT 51.904770 -1.128060 20,000 145 431 -64
2023-01-22 00:43:20 GMT 51.906555 -1.130066 20,000 145 431 -64
2023-01-22 00:43:19 GMT 51.909851 -1.133728 20,000 145 431 -64
2023-01-22 00:43:17 GMT 51.911655 -1.135672 20,000 145 431 -64
2023-01-22 00:43:16 GMT 51.913147 -1.137314 20,000 145 431 0
2023-01-22 00:43:15 GMT 51.916267 -1.140773 19,975 145 431 0
2023-01-22 00:43:13 GMT 51.918045 -1.142807 20,000 145 431 -64
2023-01-22 00:43:12 GMT 51.919693 -1.144638 20,000 145 431 -64
2023-01-22 00:43:11 GMT 51.922504 -1.147679 19,975 145 431 -64
2023-01-22 00:43:08 GMT 51.926460 -1.152073 20,000 145 431 -64
2023-01-22 00:43:06 GMT 51.929581 -1.155548 20,000 145 431 -64
2023-01-22 00:43:04 GMT 51.934479 -1.161041 20,000 145 431 -64
2023-01-22 00:43:01 GMT 51.937309 -1.164080 20,000 145 431 -64
2023-01-22 00:43:00 GMT 51.940567 -1.167768 20,000 145 431 -64
2023-01-22 00:42:57 GMT 51.943871 -1.171378 20,000 145 430 -64
2023-01-22 00:42:54 GMT 51.948944 -1.177063 20,000 145 430 -64
2023-01-22 00:42:53 GMT 51.950592 -1.178894 20,000 145 430 -64
2023-01-22 00:42:52 GMT 51.954529 -1.183243 20,000 145 430 -64
2023-01-22 00:42:50 GMT 51.956020 -1.184875 20,000 145 430 -64
2023-01-22 00:42:49 GMT 51.957649 -1.186680 20,000 145 430 -64
2023-01-22 00:42:48 GMT 51.959106 -1.188354 20,000 145 431 -64
2023-01-22 00:42:46 GMT 51.962261 -1.191860 20,000 145 431 -64
2023-01-22 00:42:45 GMT 51.963890 -1.193665 20,000 145 431 -64
2023-01-22 00:42:44 GMT 51.965332 -1.195297 20,000 145 431 -64
2023-01-22 00:42:42 GMT 51.968777 -1.199158 20,000 145 431 -64
2023-01-22 00:42:40 GMT 51.972244 -1.203003 20,000 145 431 -64
2023-01-22 00:42:38 GMT 51.975494 -1.206665 19,975 145 431 -64
2023-01-22 00:42:37 GMT 51.977142 -1.208496 20,000 145 431 -64
2023-01-22 00:42:36 GMT 51.978790 -1.210327 19,975 145 431 -64
2023-01-22 00:42:34 GMT 51.982231 -1.214146 20,000 145 431 -64
2023-01-22 00:42:33 GMT 51.983860 -1.215951 20,000 145 431 -64
2023-01-22 00:42:32 GMT 51.985489 -1.217834 20,000 145 431 -64
2023-01-22 00:42:30 GMT 51.988792 -1.221444 20,000 145 431 0
2023-01-22 00:42:29 GMT 51.990425 -1.223328 20,000 145 431 64
2023-01-22 00:42:27 GMT 51.993851 -1.227188 20,000 145 431 64
2023-01-22 00:42:25 GMT 51.996506 -1.230087 19,975 145 431 0
2023-01-22 00:42:24 GMT 51.997967 -1.231724 19,975 145 431 0
2023-01-22 00:42:23 GMT 52.003693 -1.238174 19,975 145 431 0
2023-01-22 00:42:21 GMT 52.003693 -1.238174 19,975 145 431 -64
2023-01-22 00:42:20 GMT 52.005180 -1.239807 19,975 145 431 0
2023-01-22 00:42:19 GMT 52.006989 -1.241837 19,975 145 431 0
2023-01-22 00:42:17 GMT 52.010284 -1.245422 19,975 145 431 -64
2023-01-22 00:42:16 GMT 52.013580 -1.249084 19,975 145 431 -64
2023-01-22 00:42:13 GMT 52.015869 -1.251678 20,000 145 431 -64
2023-01-22 00:42:12 GMT 52.019657 -1.255894 20,000 145 432 -64
2023-01-22 00:42:10 GMT 52.022095 -1.258621 20,000 145 432 -128
2023-01-22 00:42:09 GMT 52.023102 -1.259766 20,000 145 432 -64
2023-01-22 00:42:08 GMT 52.024750 -1.261597 20,000 145 432 -64
2023-01-22 00:42:06 GMT 52.028046 -1.265259 20,000 145 432 -64
2023-01-22 00:42:05 GMT 52.029530 -1.266881 20,000 145 433 -64
2023-01-22 00:42:04 GMT 52.033157 -1.270961 20,000 145 433 -64
2023-01-22 00:42:02 GMT 52.034958 -1.272964 19,975 145 433 0
2023-01-22 00:42:01 GMT 52.036465 -1.274649 20,000 145 433 0
2023-01-22 00:42:00 GMT 52.041073 -1.279750 20,000 145 433 -64
2023-01-22 00:41:58 GMT 52.041073 -1.279750 19,975 145 433 -64
2023-01-22 00:41:57 GMT 52.043354 -1.282340 20,000 145 433 -64
2023-01-22 00:41:55 GMT 52.046658 -1.286028 20,000 145 433 -64
2023-01-22 00:41:54 GMT 52.047501 -1.286926 20,000 145 433 0
2023-01-22 00:41:52 GMT 52.051640 -1.291600 20,000 145 433 0
2023-01-22 00:41:50 GMT 52.054947 -1.295288 19,975 145 433 0
2023-01-22 00:41:49 GMT 52.058250 -1.298976 19,975 145 433 0
2023-01-22 00:41:47 GMT 52.059555 -1.300389 19,975 145 434 64
2023-01-22 00:41:46 GMT 52.061882 -1.302979 19,975 145 434 0
2023-01-22 00:41:45 GMT 52.065838 -1.307452 20,000 145 434 -64
2023-01-22 00:41:43 GMT 52.065838 -1.307452 20,000 145 434 0
2023-01-22 00:41:42 GMT 52.067467 -1.309256 19,975 145 434 -64
2023-01-22 00:41:41 GMT 52.068970 -1.310959 19,975 145 434 -64
2023-01-22 00:41:40 GMT 52.070446 -1.312631 19,975 145 434 -64
2023-01-22 00:41:37 GMT 52.075428 -1.318124 19,975 145 434 0
2023-01-22 00:41:35 GMT 52.079224 -1.322403 20,000 145 434 -64
2023-01-22 00:41:34 GMT 52.080872 -1.324234 19,975 145 434 -64
2023-01-22 00:41:33 GMT 52.082520 -1.326065 19,975 145 434 -64
2023-01-22 00:41:32 GMT 52.084167 -1.327972 19,975 145 434 -64
2023-01-22 00:41:30 GMT 52.087509 -1.331635 19,975 145 434 0
2023-01-22 00:41:29 GMT 52.088974 -1.333348 19,975 145 434 -64
2023-01-22 00:41:28 GMT 52.090652 -1.335153 19,975 145 435 -64
2023-01-22 00:41:26 GMT 52.093781 -1.338654 19,975 145 435 -64
2023-01-22 00:41:25 GMT 52.095261 -1.340332 20,000 145 435 -64
2023-01-22 00:41:24 GMT 52.096756 -1.342010 19,975 145 435 -64
2023-01-22 00:41:22 GMT 52.100239 -1.345904 20,000 145 435 -64
2023-01-22 00:41:21 GMT 52.101917 -1.347787 20,000 145 435 -64
2023-01-22 00:41:20 GMT 52.103714 -1.349792 20,000 145 435 -64
2023-01-22 00:41:18 GMT 52.106895 -1.353359 20,000 145 435 -64
2023-01-22 00:41:17 GMT 52.108704 -1.355362 20,000 145 435 -64
2023-01-22 00:41:16 GMT 52.110352 -1.357193 20,000 145 435 -64
2023-01-22 00:41:15 GMT 52.113693 -1.360931 20,000 145 436 -64
2023-01-22 00:41:13 GMT 52.115509 -1.363011 20,000 145 436 -64
2023-01-22 00:41:12 GMT 52.116989 -1.364670 20,000 145 436 -64
2023-01-22 00:41:10 GMT 52.120491 -1.368583 20,000 145 436 -64
2023-01-22 00:41:09 GMT 52.122166 -1.370387 20,000 145 436 -64
2023-01-22 00:41:07 GMT 52.125641 -1.374283 20,000 145 436 -64
2023-01-22 00:41:06 GMT 52.127289 -1.376190 20,000 145 436 -64
2023-01-22 00:41:05 GMT 52.128777 -1.377842 20,000 145 436 -64
2023-01-22 00:41:03 GMT 52.132278 -1.381760 19,975 145 435 -64
2023-01-22 00:41:02 GMT 52.133926 -1.383591 19,975 145 435 -64
2023-01-22 00:41:01 GMT 52.135712 -1.385611 20,000 145 435 -64
2023-01-22 00:40:59 GMT 52.138229 -1.388474 20,000 145 435 0
2023-01-22 00:40:58 GMT 52.140694 -1.391262 20,000 145 435 0
2023-01-22 00:40:57 GMT 52.141525 -1.392136 19,975 145 435 -64
2023-01-22 00:40:55 GMT 52.145142 -1.396255 20,000 145 435 -64
2023-01-22 00:40:54 GMT 52.146790 -1.398087 20,000 145 435 -64
2023-01-22 00:40:53 GMT 52.148483 -1.399994 19,975 145 435 -64
2023-01-22 00:40:52 GMT 52.150131 -1.401825 20,000 145 434 -64
2023-01-22 00:40:50 GMT 52.153587 -1.405701 19,975 145 434 0
2023-01-22 00:40:49 GMT 52.155396 -1.407776 19,975 145 434 0
2023-01-22 00:40:48 GMT 52.157043 -1.409607 20,000 145 434 0
2023-01-22 00:40:47 GMT 52.160339 -1.413345 20,000 145 434 -64
2023-01-22 00:40:45 GMT 52.161831 -1.415039 20,000 145 434 -64
2023-01-22 00:40:43 GMT 52.164963 -1.418533 20,000 145 434 -64
2023-01-22 00:40:42 GMT 52.166439 -1.420218 20,000 145 434 -64
2023-01-22 00:40:41 GMT 52.168114 -1.422023 20,000 145 434 -64
2023-01-22 00:40:40 GMT 52.169586 -1.423721 20,000 145 434 -64
2023-01-22 00:40:39 GMT 52.173203 -1.427841 20,000 145 433 -64
2023-01-22 00:40:37 GMT 52.174679 -1.429478 20,000 145 433 -64
2023-01-22 00:40:36 GMT 52.176353 -1.431362 20,000 145 433 0
2023-01-22 00:40:34 GMT 52.180115 -1.435623 20,000 145 433 0
2023-01-22 00:40:33 GMT 52.181442 -1.437073 20,000 145 433 0
2023-01-22 00:40:32 GMT 52.183243 -1.439131 20,000 145 433 0
2023-01-22 00:40:31 GMT 52.186386 -1.442642 19,975 145 433 64
2023-01-22 00:40:29 GMT 52.188034 -1.444550 19,975 145 433 0
2023-01-22 00:40:28 GMT 52.189480 -1.446193 19,975 145 433 0
2023-01-22 00:40:27 GMT 52.191284 -1.448288 19,975 145 433 0
2023-01-22 00:40:26 GMT 52.194901 -1.452332 19,975 145 433 0
2023-01-22 00:40:24 GMT 52.196369 -1.454041 19,975 145 433 0
2023-01-22 00:40:23 GMT 52.198196 -1.456070 19,975 145 433 64
2023-01-22 00:40:22 GMT 52.199844 -1.457901 19,975 145 433 0
2023-01-22 00:40:19 GMT 52.204285 -1.462908 19,975 145 433 -64
2023-01-22 00:40:17 GMT 52.207718 -1.466827 19,975 145 432 -64
2023-01-22 00:40:16 GMT 52.209366 -1.468658 19,975 145 432 -64
2023-01-22 00:40:15 GMT 52.211014 -1.470490 19,975 145 432 -64
2023-01-22 00:40:12 GMT 52.215958 -1.476059 19,975 145 433 -64
2023-01-22 00:40:11 GMT 52.217606 -1.477890 19,975 145 433 -64
2023-01-22 00:40:10 GMT 52.221088 -1.481820 19,975 145 433 -64
2023-01-22 00:40:08 GMT 52.222717 -1.483625 20,000 145 433 -64
2023-01-22 00:40:07 GMT 52.224396 -1.485509 20,000 145 434 -64
2023-01-22 00:40:05 GMT 52.227699 -1.489197 20,000 145 434 -64
2023-01-22 00:40:04 GMT 52.229004 -1.490688 20,000 145 434 -64
2023-01-22 00:40:03 GMT 52.230633 -1.492493 20,000 145 434 -64
2023-01-22 00:40:02 GMT 52.234131 -1.496429 20,000 145 434 -64
2023-01-22 00:40:00 GMT 52.235615 -1.498064 20,000 145 434 -64
2023-01-22 00:39:59 GMT 52.237106 -1.499786 20,000 145 434 -64
2023-01-22 00:39:58 GMT 52.239075 -1.501999 20,000 145 434 -64
2023-01-22 00:39:57 GMT 52.242416 -1.505661 20,000 145 434 -64
2023-01-22 00:39:55 GMT 52.244225 -1.507717 20,000 145 434 -64
2023-01-22 00:39:54 GMT 52.245857 -1.509600 20,000 145 434 -64
2023-01-22 00:39:53 GMT 52.249008 -1.513138 20,000 145 434 -64
2023-01-22 00:39:51 GMT 52.250511 -1.514779 20,000 145 434 -64
2023-01-22 00:39:50 GMT 52.251984 -1.516495 20,000 145 434 -64
2023-01-22 00:39:49 GMT 52.253632 -1.518326 20,000 145 434 -64
2023-01-22 00:39:48 GMT 52.257122 -1.522234 20,000 145 434 -64
2023-01-22 00:39:46 GMT 52.258797 -1.524118 20,000 145 434 -64
2023-01-22 00:39:44 GMT 52.264057 -1.530082 20,000 145 434 -64
2023-01-22 00:39:42 GMT 52.265736 -1.531887 20,000 145 435 -64
2023-01-22 00:39:41 GMT 52.267365 -1.533770 20,000 145 435 -64
2023-01-22 00:39:40 GMT 52.268875 -1.535492 20,000 145 435 -64
2023-01-22 00:39:39 GMT 52.272343 -1.539342 20,000 145 435 -64
2023-01-22 00:39:37 GMT 52.273972 -1.541225 20,000 145 434 -64
2023-01-22 00:39:36 GMT 52.275787 -1.543274 20,000 145 434 -64
2023-01-22 00:39:35 GMT 52.278954 -1.546875 20,000 145 435 0
2023-01-22 00:39:33 GMT 52.280411 -1.548538 20,000 145 435 0
2023-01-22 00:39:32 GMT 52.281887 -1.550249 20,000 145 434 0
2023-01-22 00:39:31 GMT 52.285355 -1.554184 20,000 145 434 64
2023-01-22 00:39:29 GMT 52.287193 -1.556213 20,000 145 434 0
2023-01-22 00:39:28 GMT 52.288971 -1.558304 20,000 145 434 0
2023-01-22 00:39:26 GMT 52.291756 -1.561471 19,975 145 434 0
2023-01-22 00:39:25 GMT 52.293274 -1.563187 20,000 144 433 64
2023-01-22 00:39:24 GMT 52.294876 -1.565018 19,975 144 433 64
2023-01-22 00:39:23 GMT 52.296692 -1.567121 19,975 144 433 64
2023-01-22 00:39:21 GMT 52.300140 -1.571045 19,975 144 433 64
2023-01-22 00:39:20 GMT 52.301952 -1.573085 19,975 144 433 0
2023-01-22 00:39:19 GMT 52.303581 -1.574969 19,975 144 433 64
2023-01-22 00:39:18 GMT 52.305210 -1.576852 19,975 144 433 64
2023-01-22 00:39:16 GMT 52.308189 -1.580226 19,975 144 433 64
2023-01-22 00:39:15 GMT 52.309818 -1.582110 19,975 144 433 64
2023-01-22 00:39:14 GMT 52.311630 -1.584167 19,975 144 433 0
2023-01-22 00:39:12 GMT 52.314560 -1.587524 19,975 145 433 -64
2023-01-22 00:39:11 GMT 52.317856 -1.591263 19,975 145 433 -64
2023-01-22 00:39:09 GMT 52.319504 -1.593094 19,975 145 433 -64
2023-01-22 00:39:08 GMT 52.321270 -1.595215 19,975 145 433 -64
2023-01-22 00:39:07 GMT 52.325226 -1.599688 19,975 145 433 -64
2023-01-22 00:39:04 GMT 52.327881 -1.602670 19,975 145 433 -64
2023-01-22 00:39:02 GMT 52.331314 -1.606598 20,000 145 433 -64
2023-01-22 00:39:01 GMT 52.332767 -1.608241 19,975 145 433 -64
2023-01-22 00:39:00 GMT 52.334770 -1.610517 20,000 145 433 -64
2023-01-22 00:38:58 GMT 52.337860 -1.614075 20,000 145 433 -64
2023-01-22 00:38:57 GMT 52.339378 -1.615775 20,000 145 433 -64
2023-01-22 00:38:56 GMT 52.344131 -1.621170 20,000 145 433 -64
2023-01-22 00:38:54 GMT 52.344131 -1.621170 20,000 145 433 -64
2023-01-22 00:38:53 GMT 52.345779 -1.623001 20,000 145 433 -64
2023-01-22 00:38:51 GMT 52.349075 -1.626740 20,000 145 433 -64
2023-01-22 00:38:50 GMT 52.350880 -1.628802 20,000 145 434 -64
2023-01-22 00:38:49 GMT 52.352509 -1.630685 20,000 145 434 -64
2023-01-22 00:38:47 GMT 52.355812 -1.634452 20,000 145 434 -64
2023-01-22 00:38:46 GMT 52.357635 -1.636505 20,000 145 434 -64
2023-01-22 00:38:45 GMT 52.359283 -1.638412 20,000 145 434 -64
2023-01-22 00:38:44 GMT 52.360931 -1.640244 20,000 145 434 0
2023-01-22 00:38:42 GMT 52.364052 -1.643790 20,000 145 434 -64
2023-01-22 00:38:41 GMT 52.365829 -1.645889 20,000 144 433 0
2023-01-22 00:38:39 GMT 52.369267 -1.649833 19,975 144 433 0
2023-01-22 00:38:37 GMT 52.372742 -1.653824 19,975 144 433 0
2023-01-22 00:38:36 GMT 52.374527 -1.655875 20,000 144 433 -64
2023-01-22 00:38:35 GMT 52.376038 -1.657562 20,000 144 433 -64
2023-01-22 00:38:34 GMT 52.377506 -1.659249 19,975 144 433 -64
2023-01-22 00:38:33 GMT 52.380615 -1.662827 20,000 145 433 -64
2023-01-22 00:38:31 GMT 52.382114 -1.664507 20,000 145 433 -64
2023-01-22 00:38:30 GMT 52.383911 -1.666565 20,000 145 433 -64
2023-01-22 00:38:29 GMT 52.385559 -1.668396 20,000 145 433 -64
2023-01-22 00:38:27 GMT 52.389004 -1.672355 20,000 145 433 -64
2023-01-22 00:38:26 GMT 52.390633 -1.674238 20,000 145 433 -64
2023-01-22 00:38:25 GMT 52.392426 -1.676254 20,000 145 433 -64
2023-01-22 00:38:24 GMT 52.395401 -1.679688 20,000 145 433 -64
2023-01-22 00:38:22 GMT 52.397049 -1.681519 20,000 145 433 -64
2023-01-22 00:38:20 GMT 52.401806 -1.686951 20,000 145 434 -64
2023-01-22 00:38:18 GMT 52.403481 -1.688834 20,000 145 434 -64
2023-01-22 00:38:17 GMT 52.404922 -1.690521 20,000 145 434 -64
2023-01-22 00:38:15 GMT 52.408585 -1.694641 20,000 145 434 0
2023-01-22 00:38:14 GMT 52.410187 -1.696548 20,000 145 434 0
2023-01-22 00:38:12 GMT 52.415131 -1.702194 20,000 144 434 0
2023-01-22 00:38:10 GMT 52.416611 -1.703901 20,000 144 434 0
2023-01-22 00:38:09 GMT 52.418427 -1.706009 20,000 144 434 0
2023-01-22 00:38:07 GMT 52.421543 -1.709551 19,975 144 434 64
2023-01-22 00:38:06 GMT 52.423172 -1.711435 19,975 144 434 0
2023-01-22 00:38:04 GMT 52.430389 -1.719753 19,975 144 433 64
2023-01-22 00:38:02 GMT 52.430389 -1.719753 19,975 144 433 64
2023-01-22 00:38:00 GMT 52.433533 -1.723328 19,975 144 433 0
2023-01-22 00:37:59 GMT 52.434814 -1.724854 19,975 144 433 -64
2023-01-22 00:37:58 GMT 52.436783 -1.727066 19,975 144 433 -64
2023-01-22 00:37:56 GMT 52.440258 -1.731053 19,975 145 433 -64
2023-01-22 00:37:55 GMT 52.441887 -1.732936 19,975 145 433 -64
2023-01-22 00:37:54 GMT 52.443375 -1.734619 19,975 145 433 -64
2023-01-22 00:37:51 GMT 52.448124 -1.739999 19,975 145 433 -64
2023-01-22 00:37:50 GMT 52.449921 -1.742096 19,975 145 433 -64
2023-01-22 00:37:49 GMT 52.453217 -1.745834 20,000 145 433 -64
2023-01-22 00:37:47 GMT 52.454865 -1.747742 20,000 145 435 -64
2023-01-22 00:37:46 GMT 52.456512 -1.749573 20,000 145 435 -64
2023-01-22 00:37:45 GMT 52.457993 -1.751299 20,000 145 435 -64
2023-01-22 00:37:44 GMT 52.462784 -1.756744 20,000 145 435 -64
2023-01-22 00:37:42 GMT 52.462784 -1.756744 20,000 145 435 -64
2023-01-22 00:37:41 GMT 52.464603 -1.758833 20,000 145 435 -64
2023-01-22 00:37:40 GMT 52.467911 -1.762599 20,000 145 435 -64
2023-01-22 00:37:38 GMT 52.469864 -1.764875 20,000 145 435 0
2023-01-22 00:37:37 GMT 52.471344 -1.766510 19,975 145 435 0
2023-01-22 00:37:35 GMT 52.474148 -1.769741 19,975 145 435 -64
2023-01-22 00:37:33 GMT 52.478104 -1.774292 19,975 145 435 0
2023-01-22 00:37:32 GMT 52.481552 -1.778259 19,975 145 435 0
2023-01-22 00:37:30 GMT 52.483200 -1.780090 19,975 145 435 -64
2023-01-22 00:37:28 GMT 52.486542 -1.783905 19,975 145 435 -64
2023-01-22 00:37:26 GMT 52.489651 -1.787476 19,975 145 435 -64
2023-01-22 00:37:25 GMT 52.491119 -1.789169 19,975 145 435 -64
2023-01-22 00:37:24 GMT 52.492813 -1.791000 19,975 145 435 -64
2023-01-22 00:37:22 GMT 52.495934 -1.794617 20,000 145 435 -64
2023-01-22 00:37:21 GMT 52.496910 -1.795715 20,000 145 435 -64
2023-01-22 00:37:20 GMT 52.500870 -1.800267 20,000 145 436 -64
2023-01-22 00:37:18 GMT 52.502701 -1.802292 20,000 145 436 -64
2023-01-22 00:37:17 GMT 52.503708 -1.803436 20,000 145 436 -64
2023-01-22 00:37:15 GMT 52.507004 -1.807175 20,000 145 436 -64
2023-01-22 00:37:14 GMT 52.510300 -1.810989 20,000 145 435 -64
2023-01-22 00:37:12 GMT 52.512135 -1.813058 20,000 145 436 -64
2023-01-22 00:37:11 GMT 52.513763 -1.814941 20,000 145 436 -64
2023-01-22 00:37:10 GMT 52.515442 -1.816825 20,000 145 435 -64
2023-01-22 00:37:09 GMT 52.518745 -1.820592 20,000 145 435 -64
2023-01-22 00:37:07 GMT 52.520187 -1.822281 20,000 144 435 -64
2023-01-22 00:37:06 GMT 52.522003 -1.824358 20,000 144 435 -64
2023-01-22 00:37:04 GMT 52.525818 -1.828766 20,000 144 435 -64
2023-01-22 00:37:03 GMT 52.527309 -1.830401 20,000 144 435 -64
2023-01-22 00:37:02 GMT 52.529114 -1.832504 20,000 144 435 -64
2023-01-22 00:37:01 GMT 52.531593 -1.835345 20,000 144 435 -64
2023-01-22 00:36:59 GMT 52.533222 -1.837228 20,000 144 435 -64
2023-01-22 00:36:58 GMT 52.535706 -1.840057 20,000 144 435 -64
2023-01-22 00:36:57 GMT 52.536713 -1.841202 20,000 144 435 -64
2023-01-22 00:36:55 GMT 52.540157 -1.845154 20,000 144 435 0
2023-01-22 00:36:54 GMT 52.541656 -1.846924 20,000 144 435 -64
2023-01-22 00:36:53 GMT 52.543304 -1.848755 19,975 144 435 -64
2023-01-22 00:36:51 GMT 52.546555 -1.852570 20,000 144 434 0
2023-01-22 00:36:50 GMT 52.548203 -1.854477 19,975 144 434 0
2023-01-22 00:36:49 GMT 52.549850 -1.856384 19,975 144 434 0
2023-01-22 00:36:48 GMT 52.553612 -1.860692 20,000 144 434 0
2023-01-22 00:36:46 GMT 52.555241 -1.862575 19,975 144 434 0
2023-01-22 00:36:45 GMT 52.556919 -1.864458 19,975 144 432 0
2023-01-22 00:36:44 GMT 52.560501 -1.868617 19,975 144 432 0
2023-01-22 00:36:41 GMT 52.563263 -1.871872 19,975 144 432 0
2023-01-22 00:36:40 GMT 52.565392 -1.874346 19,975 144 432 -64
2023-01-22 00:36:38 GMT 52.568371 -1.877720 20,000 144 432 -64
2023-01-22 00:36:37 GMT 52.569809 -1.879425 20,000 144 432 -64
2023-01-22 00:36:36 GMT 52.571457 -1.881256 19,975 144 432 -64
2023-01-22 00:36:35 GMT 52.575073 -1.885452 20,000 144 432 -64
2023-01-22 00:36:33 GMT 52.576515 -1.887137 19,975 144 432 -64
2023-01-22 00:36:32 GMT 52.578148 -1.889021 20,000 144 432 -64
2023-01-22 00:36:30 GMT 52.581619 -1.893005 19,975 144 432 -64
2023-01-22 00:36:29 GMT 52.583080 -1.894671 20,000 144 432 -64
2023-01-22 00:36:28 GMT 52.584869 -1.896744 20,000 144 432 -64
2023-01-22 00:36:27 GMT 52.586517 -1.898651 20,000 144 432 -64
2023-01-22 00:36:25 GMT 52.589600 -1.902204 20,000 144 432 -64
2023-01-22 00:36:24 GMT 52.591095 -1.903915 19,975 144 432 -64
2023-01-22 00:36:23 GMT 52.592903 -1.906049 19,975 144 432 -64
2023-01-22 00:36:22 GMT 52.596161 -1.909816 20,000 144 432 -64
2023-01-22 00:36:20 GMT 52.597790 -1.911700 20,000 144 432 -64
2023-01-22 00:36:19 GMT 52.599419 -1.913583 20,000 144 432 -64
2023-01-22 00:36:18 GMT 52.601097 -1.915466 20,000 144 432 -64
2023-01-22 00:36:16 GMT 52.604187 -1.919022 20,000 144 432 -64
2023-01-22 00:36:14 GMT 52.607613 -1.923000 20,000 144 432 -64
2023-01-22 00:36:13 GMT 52.610733 -1.926651 20,000 144 432 -64
2023-01-22 00:36:11 GMT 52.612381 -1.928482 19,975 144 432 0
2023-01-22 00:36:09 GMT 52.615631 -1.932297 20,000 144 433 0
2023-01-22 00:36:08 GMT 52.617279 -1.934204 20,000 144 433 -64
2023-01-22 00:36:07 GMT 52.619064 -1.936262 20,000 144 433 -64
2023-01-22 00:36:05 GMT 52.622498 -1.940231 20,000 144 433 -64
2023-01-22 00:36:04 GMT 52.625793 -1.944046 19,975 144 433 -64
2023-01-22 00:36:01 GMT 52.630844 -1.949916 20,000 144 432 -64
2023-01-22 00:35:59 GMT 52.632473 -1.951800 20,000 144 432 -64
2023-01-22 00:35:58 GMT 52.634148 -1.953683 20,000 144 432 -64
2023-01-22 00:35:56 GMT 52.637081 -1.957136 20,000 144 432 -64
2023-01-22 00:35:55 GMT 52.638710 -1.959019 20,000 144 432 -64
2023-01-22 00:35:54 GMT 52.640533 -1.961060 20,000 144 432 -64
2023-01-22 00:35:53 GMT 52.643272 -1.964277 20,000 144 432 -64
2023-01-22 00:35:51 GMT 52.645111 -1.966400 20,000 144 432 -64
2023-01-22 00:35:50 GMT 52.646904 -1.968436 20,000 144 432 -64
2023-01-22 00:35:49 GMT 52.648533 -1.970319 20,000 144 432 -64
2023-01-22 00:35:47 GMT 52.651978 -1.974335 20,000 144 432 -64
2023-01-22 00:35:46 GMT 52.653793 -1.976362 20,000 144 432 -64
2023-01-22 00:35:45 GMT 52.655422 -1.978324 20,000 144 432 -64
2023-01-22 00:35:44 GMT 52.658844 -1.982269 20,000 144 432 0
2023-01-22 00:35:41 GMT 52.661289 -1.985073 20,000 144 432 0
2023-01-22 00:35:39 GMT 52.664547 -1.988918 19,975 144 432 0
2023-01-22 00:35:38 GMT 52.666351 -1.990967 19,975 144 432 64
2023-01-22 00:35:37 GMT 52.668179 -1.993077 19,975 144 431 64
2023-01-22 00:35:36 GMT 52.671112 -1.996451 19,975 144 431 64
2023-01-22 00:35:33 GMT 52.674866 -2.000809 19,975 144 432 0
2023-01-22 00:35:31 GMT 52.680725 -2.007599 19,975 144 432 0
2023-01-22 00:35:29 GMT 52.680725 -2.007599 19,975 144 432 -64
2023-01-22 00:35:27 GMT 52.683655 -2.011032 19,975 144 432 -64
2023-01-22 00:35:25 GMT 52.687775 -2.015756 19,975 144 432 -64
2023-01-22 00:35:24 GMT 52.689560 -2.017822 19,975 145 432 -64
2023-01-22 00:35:23 GMT 52.691036 -2.019444 19,975 145 432 -64
2023-01-22 00:35:22 GMT 52.694294 -2.023211 20,000 145 432 -64
2023-01-22 00:35:20 GMT 52.696297 -2.025487 20,000 145 432 0
2023-01-22 00:35:19 GMT 52.697754 -2.027206 19,975 145 432 -64
2023-01-22 00:35:17 GMT 52.700855 -2.030744 20,000 145 432 -64
2023-01-22 00:35:15 GMT 52.703979 -2.034302 19,975 145 432 -64
2023-01-22 00:35:14 GMT 52.705791 -2.036394 20,000 145 432 -64
2023-01-22 00:35:13 GMT 52.707420 -2.038278 19,975 145 432 -64
2023-01-22 00:35:11 GMT 52.711212 -2.042542 20,000 145 432 -64
2023-01-22 00:35:10 GMT 52.711853 -2.043304 19,975 145 432 -64
2023-01-22 00:35:08 GMT 52.719246 -2.051775 20,000 145 432 -64
2023-01-22 00:35:06 GMT 52.719246 -2.051775 20,000 145 431 -64
2023-01-22 00:35:05 GMT 52.720875 -2.053659 19,975 145 431 -64
2023-01-22 00:35:04 GMT 52.723663 -2.056808 20,000 145 431 -64
2023-01-22 00:35:01 GMT 52.727066 -2.060800 20,000 145 431 -64
2023-01-22 00:35:00 GMT 52.731022 -2.065273 20,000 145 431 -64
2023-01-22 00:34:58 GMT 52.731674 -2.066057 20,000 145 431 -64
2023-01-22 00:34:56 GMT 52.735584 -2.070530 20,000 145 431 -64
2023-01-22 00:34:54 GMT 52.738846 -2.074297 20,000 145 430 -64
2023-01-22 00:34:53 GMT 52.740475 -2.076181 20,000 145 430 -64
2023-01-22 00:34:52 GMT 52.742294 -2.078247 20,000 145 430 -64
2023-01-22 00:34:51 GMT 52.746185 -2.082748 20,000 145 430 -64
2023-01-22 00:34:49 GMT 52.746185 -2.082748 20,000 145 430 -64
2023-01-22 00:34:47 GMT 52.749435 -2.086487 20,000 144 430 -64
2023-01-22 00:34:46 GMT 52.751083 -2.088394 20,000 144 430 0
2023-01-22 00:34:45 GMT 52.753006 -2.090683 19,975 144 430 0
2023-01-22 00:34:44 GMT 52.754810 -2.092739 20,000 144 430 0
2023-01-22 00:34:43 GMT 52.756439 -2.094622 20,000 144 430 0
2023-01-22 00:34:41 GMT 52.759186 -2.097778 20,000 144 430 -64
2023-01-22 00:34:40 GMT 52.760677 -2.099487 20,000 144 430 0
2023-01-22 00:34:39 GMT 52.762436 -2.101593 20,000 144 430 -64
2023-01-22 00:34:37 GMT 52.765686 -2.105331 20,000 144 430 0
2023-01-22 00:34:36 GMT 52.767475 -2.107413 20,000 144 429 0
2023-01-22 00:34:35 GMT 52.768936 -2.109070 20,000 144 429 0
2023-01-22 00:34:34 GMT 52.772507 -2.113266 19,975 144 429 0
2023-01-22 00:34:32 GMT 52.774155 -2.115097 19,975 144 429 0
2023-01-22 00:34:31 GMT 52.775757 -2.117004 19,975 144 429 64
2023-01-22 00:34:29 GMT 52.779007 -2.120743 19,975 144 429 0
2023-01-22 00:34:28 GMT 52.782089 -2.124363 19,975 144 429 0
2023-01-22 00:34:26 GMT 52.783718 -2.126247 19,975 144 429 0
2023-01-22 00:34:25 GMT 52.785187 -2.127914 19,975 144 429 0
2023-01-22 00:34:23 GMT 52.788563 -2.131897 19,975 144 428 -64
2023-01-22 00:34:22 GMT 52.790039 -2.133560 19,975 144 428 -64
2023-01-22 00:34:20 GMT 52.793076 -2.137155 19,975 144 428 0
2023-01-22 00:34:18 GMT 52.796814 -2.141571 19,975 144 429 -64
2023-01-22 00:34:17 GMT 52.798416 -2.143402 19,975 144 428 -64
2023-01-22 00:34:15 GMT 52.801346 -2.146835 19,975 144 429 -64
2023-01-22 00:34:14 GMT 52.802948 -2.148743 20,000 144 429 -64
2023-01-22 00:34:13 GMT 52.804714 -2.150888 19,975 144 429 -64
2023-01-22 00:34:12 GMT 52.807926 -2.154654 20,000 144 429 -64
2023-01-22 00:34:10 GMT 52.809723 -2.156830 19,975 143 430 -64
2023-01-22 00:34:08 GMT 52.813095 -2.160854 20,000 143 430 -64
2023-01-22 00:34:07 GMT 52.814529 -2.162552 20,000 143 430 -64
2023-01-22 00:34:06 GMT 52.817734 -2.166443 20,000 143 429 -64
2023-01-22 00:34:04 GMT 52.819473 -2.168623 19,975 143 430 -64
2023-01-22 00:34:03 GMT 52.820778 -2.170192 20,000 143 430 -64
2023-01-22 00:34:02 GMT 52.822357 -2.172076 19,975 143 430 -64
2023-01-22 00:34:01 GMT 52.825745 -2.176208 20,000 143 430 -64
2023-01-22 00:33:59 GMT 52.827480 -2.178353 20,000 143 430 -64
2023-01-22 00:33:57 GMT 52.830692 -2.182199 19,975 143 430 0
2023-01-22 00:33:55 GMT 52.833576 -2.185730 20,000 143 431 -64
2023-01-22 00:33:54 GMT 52.835037 -2.187500 20,000 143 431 -64
2023-01-22 00:33:53 GMT 52.838371 -2.191537 20,000 143 431 -64
2023-01-22 00:33:50 GMT 52.841259 -2.195068 20,000 143 431 -64
2023-01-22 00:33:49 GMT 52.843494 -2.197815 19,975 143 431 -64
2023-01-22 00:33:46 GMT 52.848289 -2.203622 19,975 143 430 -64
2023-01-22 00:33:44 GMT 52.851334 -2.207336 19,975 143 430 -64
2023-01-22 00:33:43 GMT 52.852936 -2.209320 20,000 143 430 -64
2023-01-22 00:33:42 GMT 52.854713 -2.211469 20,000 143 430 -64
2023-01-22 00:33:41 GMT 52.856297 -2.213431 20,000 143 431 -64
2023-01-22 00:33:39 GMT 52.859344 -2.217102 20,000 143 430 -64
2023-01-22 00:33:38 GMT 52.860809 -2.218846 20,000 143 430 -64
2023-01-22 00:33:37 GMT 52.862392 -2.220808 20,000 143 430 -64
2023-01-22 00:33:36 GMT 52.865753 -2.224884 20,000 143 430 -64
2023-01-22 00:33:34 GMT 52.867355 -2.226868 20,000 143 430 -64
2023-01-22 00:33:33 GMT 52.868958 -2.228775 20,000 143 430 -64
2023-01-22 00:33:32 GMT 52.872162 -2.232666 20,000 143 430 0
2023-01-22 00:33:29 GMT 52.875366 -2.236633 20,000 143 430 -64
2023-01-22 00:33:27 GMT 52.878845 -2.240906 20,000 143 430 -64
2023-01-22 00:33:26 GMT 52.880318 -2.242623 20,000 143 430 -64
2023-01-22 00:33:25 GMT 52.882225 -2.244978 20,000 143 430 -64
2023-01-22 00:33:23 GMT 52.886215 -2.249908 20,000 143 429 0
2023-01-22 00:33:21 GMT 52.887951 -2.252040 20,000 143 429 0
2023-01-22 00:33:19 GMT 52.891163 -2.255964 19,975 143 429 0
2023-01-22 00:33:18 GMT 52.892746 -2.257847 20,000 143 429 0
2023-01-22 00:33:17 GMT 52.894180 -2.259674 19,975 143 429 0
2023-01-22 00:33:15 GMT 52.898026 -2.264328 19,975 143 429 0
2023-01-22 00:33:13 GMT 52.901184 -2.268219 19,975 143 429 0
2023-01-22 00:33:11 GMT 52.904198 -2.271973 19,975 143 429 -64
2023-01-22 00:33:10 GMT 52.905827 -2.273935 20,000 143 429 -64
2023-01-22 00:33:08 GMT 52.908829 -2.277603 20,000 143 429 0
2023-01-22 00:33:07 GMT 52.910248 -2.279349 20,000 143 429 -64
2023-01-22 00:33:06 GMT 52.912033 -2.281494 20,000 143 429 -64
2023-01-22 00:33:05 GMT 52.916348 -2.286804 20,000 143 429 -64
2023-01-22 00:33:03 GMT 52.916348 -2.286804 19,975 143 429 -64
2023-01-22 00:33:02 GMT 52.919514 -2.290649 19,975 143 429 -64
2023-01-22 00:33:00 GMT 52.921280 -2.292786 19,975 143 429 0
2023-01-22 00:32:59 GMT 52.923004 -2.294965 20,000 143 429 0
2023-01-22 00:32:57 GMT 52.926041 -2.298660 20,000 143 429 -64
2023-01-22 00:32:56 GMT 52.927643 -2.300644 20,000 143 429 -64
2023-01-22 00:32:55 GMT 52.929382 -2.302813 19,975 143 429 -64
2023-01-22 00:32:53 GMT 52.932404 -2.306519 20,000 143 429 -64
2023-01-22 00:32:52 GMT 52.934177 -2.308620 20,000 143 429 0
2023-01-22 00:32:51 GMT 52.935760 -2.310582 20,000 143 429 0
2023-01-22 00:32:50 GMT 52.937485 -2.312775 19,975 143 429 0
2023-01-22 00:32:48 GMT 52.940510 -2.316467 20,000 143 429 0
2023-01-22 00:32:47 GMT 52.942417 -2.318821 20,000 143 429 0
2023-01-22 00:32:46 GMT 52.944046 -2.320783 20,000 143 428 -64
2023-01-22 00:32:44 GMT 52.946884 -2.324315 19,975 143 428 0
2023-01-22 00:32:43 GMT 52.948654 -2.326431 20,000 143 428 0
2023-01-22 00:32:42 GMT 52.950050 -2.328238 19,975 143 429 64
2023-01-22 00:32:41 GMT 52.951492 -2.329941 19,975 143 429 0
2023-01-22 00:32:39 GMT 52.954697 -2.333908 19,975 143 429 0
2023-01-22 00:32:38 GMT 52.956253 -2.335892 19,975 143 429 0
2023-01-22 00:32:36 GMT 52.960247 -2.340794 19,975 143 429 -64
2023-01-22 00:32:35 GMT 52.964996 -2.346680 19,975 143 429 -64
2023-01-22 00:32:33 GMT 52.964996 -2.346680 19,975 143 429 -64
2023-01-22 00:32:32 GMT 52.966579 -2.348642 19,975 143 429 -64
2023-01-22 00:32:30 GMT 52.969620 -2.352371 19,975 143 429 -64
2023-01-22 00:32:28 GMT 52.972504 -2.355881 19,975 143 430 -64
2023-01-22 00:32:26 GMT 52.977264 -2.361755 19,975 143 430 0
2023-01-22 00:32:24 GMT 52.979008 -2.363944 19,975 143 430 0
2023-01-22 00:32:23 GMT 52.980743 -2.366104 20,000 143 430 -64
2023-01-22 00:32:22 GMT 52.982174 -2.367868 20,000 143 430 0
2023-01-22 00:32:19 GMT 52.987106 -2.373962 19,975 143 430 0
2023-01-22 00:32:17 GMT 52.990131 -2.377755 20,000 143 430 -64
2023-01-22 00:32:16 GMT 52.991760 -2.379717 19,975 143 430 0
2023-01-22 00:32:15 GMT 52.992695 -2.380894 19,975 143 430 0
2023-01-22 00:32:14 GMT 52.996033 -2.385025 19,975 143 430 -64
2023-01-22 00:32:12 GMT 52.997814 -2.387172 20,000 143 430 -64
2023-01-22 00:32:11 GMT 52.999397 -2.389134 19,975 143 430 -128
2023-01-22 00:32:09 GMT 53.002563 -2.393136 19,975 143 430 -128
2023-01-22 00:32:08 GMT 53.004192 -2.395098 19,975 143 430 -64
2023-01-22 00:32:06 GMT 53.007523 -2.399216 19,975 143 430 0
2023-01-22 00:32:05 GMT 53.009125 -2.401199 20,000 143 430 0
2023-01-22 00:32:03 GMT 53.011501 -2.404201 20,000 143 430 -64
2023-01-22 00:32:02 GMT 53.013737 -2.406948 20,000 143 430 -64
2023-01-22 00:32:00 GMT 53.017227 -2.411264 20,000 143 430 -64
2023-01-22 00:31:58 GMT 53.019974 -2.414627 20,000 143 431 -64
2023-01-22 00:31:57 GMT 53.021530 -2.416611 20,000 143 431 -64
2023-01-22 00:31:55 GMT 53.025513 -2.421544 20,000 143 430 -64
2023-01-22 00:31:53 GMT 53.027893 -2.424545 20,000 143 430 -64
2023-01-22 00:31:52 GMT 53.029655 -2.426723 20,000 143 430 0
2023-01-22 00:31:50 GMT 53.033146 -2.431117 20,000 142 431 0
2023-01-22 00:31:48 GMT 53.036312 -2.435120 20,000 142 430 0
2023-01-22 00:31:47 GMT 53.039478 -2.439043 19,975 142 430 0
2023-01-22 00:31:45 GMT 53.040939 -2.440872 20,000 142 430 0
2023-01-22 00:31:44 GMT 53.042496 -2.442856 19,975 142 430 0
2023-01-22 00:31:42 GMT 53.045654 -2.446823 19,975 142 429 0
2023-01-22 00:31:41 GMT 53.047112 -2.448617 19,975 142 429 0
2023-01-22 00:31:40 GMT 53.048977 -2.451050 19,975 142 429 0
2023-01-22 00:31:38 GMT 53.051815 -2.454581 19,975 142 429 0
2023-01-22 00:31:37 GMT 53.053253 -2.456360 19,975 142 429 -64
2023-01-22 00:31:36 GMT 53.054703 -2.458191 19,975 142 429 -64
2023-01-22 00:31:35 GMT 53.058014 -2.462387 19,975 142 429 -64
2023-01-22 00:31:33 GMT 53.059402 -2.464155 19,975 142 429 -64
2023-01-22 00:31:32 GMT 53.061172 -2.466354 20,000 142 429 -64
2023-01-22 00:31:31 GMT 53.064476 -2.470511 20,000 142 429 -64
2023-01-22 00:31:29 GMT 53.066059 -2.472473 19,975 142 429 -64
2023-01-22 00:31:28 GMT 53.067642 -2.474513 20,000 142 429 -64
2023-01-22 00:31:26 GMT 53.070648 -2.478256 19,975 142 429 -64
2023-01-22 00:31:25 GMT 53.072063 -2.480007 20,000 142 429 -64
2023-01-22 00:31:24 GMT 53.073807 -2.482224 20,000 142 429 -64
2023-01-22 00:31:21 GMT 53.079327 -2.489188 20,000 143 429 -64
2023-01-22 00:31:19 GMT 53.082367 -2.492905 20,000 143 429 -64
2023-01-22 00:31:18 GMT 53.083752 -2.494681 20,000 143 429 -64
2023-01-22 00:31:16 GMT 53.088684 -2.500839 20,000 143 429 -64
2023-01-22 00:31:15 GMT 53.090286 -2.502823 20,000 143 428 0
2023-01-22 00:31:12 GMT 53.092968 -2.506217 20,000 143 429 -64
2023-01-22 00:31:11 GMT 53.096283 -2.510298 20,000 143 428 0
2023-01-22 00:31:09 GMT 53.098042 -2.512476 20,000 143 428 -64
2023-01-22 00:31:08 GMT 53.099808 -2.514614 20,000 143 429 -128
2023-01-22 00:31:07 GMT 53.102837 -2.518373 20,000 143 428 -64
2023-01-22 00:31:05 GMT 53.104420 -2.520312 19,975 143 428 -64
2023-01-22 00:31:04 GMT 53.106171 -2.522461 20,000 143 428 0
2023-01-22 00:31:03 GMT 53.109375 -2.526306 20,000 144 428 64
2023-01-22 00:31:01 GMT 53.110977 -2.528268 20,000 144 428 64
2023-01-22 00:31:00 GMT 53.112427 -2.530006 20,000 144 427 0
2023-01-22 00:30:59 GMT 53.115784 -2.533997 20,000 144 427 0
2023-01-22 00:30:57 GMT 53.117386 -2.535880 20,000 144 428 0
2023-01-22 00:30:55 GMT 53.120270 -2.539333 20,000 144 427 0
2023-01-22 00:30:54 GMT 53.121735 -2.541073 20,000 144 427 -64
2023-01-22 00:30:53 GMT 53.123363 -2.542931 20,000 144 427 0
2023-01-22 00:30:52 GMT 53.126579 -2.546728 20,000 144 427 -64
2023-01-22 00:30:50 GMT 53.128208 -2.548667 20,000 144 427 -64
2023-01-22 00:30:49 GMT 53.129974 -2.550711 20,000 144 427 -64
2023-01-22 00:30:47 GMT 53.133003 -2.554321 20,000 144 426 -64
2023-01-22 00:30:46 GMT 53.134781 -2.556440 20,000 144 426 64
2023-01-22 00:30:45 GMT 53.136383 -2.558323 20,000 144 426 64
2023-01-22 00:30:44 GMT 53.137844 -2.560057 19,975 144 426 0
2023-01-22 00:30:43 GMT 53.141056 -2.563773 20,000 144 426 -64
2023-01-22 00:30:41 GMT 53.142685 -2.565712 19,975 144 426 64
2023-01-22 00:30:40 GMT 53.144268 -2.567570 19,975 144 426 64
2023-01-22 00:30:38 GMT 53.147480 -2.571366 19,975 144 426 0
2023-01-22 00:30:37 GMT 53.149109 -2.573305 20,000 144 426 -64
2023-01-22 00:30:36 GMT 53.150692 -2.575163 19,975 144 426 0
2023-01-22 00:30:35 GMT 53.152496 -2.577314 19,975 144 426 0
2023-01-22 00:30:33 GMT 53.156021 -2.581473 19,975 144 426 0
2023-01-22 00:30:32 GMT 53.157814 -2.583564 19,975 144 427 -64
2023-01-22 00:30:31 GMT 53.159225 -2.585240 19,975 144 427 0
2023-01-22 00:30:29 GMT 53.162476 -2.589007 19,975 144 427 0
2023-01-22 00:30:28 GMT 53.163914 -2.590754 19,975 144 427 0
2023-01-22 00:30:27 GMT 53.165543 -2.592612 19,975 144 427 -64
2023-01-22 00:30:25 GMT 53.168884 -2.596619 20,000 144 427 0
2023-01-22 00:30:24 GMT 53.170532 -2.598502 19,975 144 427 0
2023-01-22 00:30:23 GMT 53.172134 -2.600385 20,000 144 427 -64
2023-01-22 00:30:22 GMT 53.177132 -2.606264 19,975 144 427 0
2023-01-22 00:30:20 GMT 53.177132 -2.606264 19,975 144 427 -64
2023-01-22 00:30:19 GMT 53.178764 -2.608203 19,975 144 428 -64
2023-01-22 00:30:18 GMT 53.179695 -2.609334 19,975 144 428 -64
2023-01-22 00:30:16 GMT 53.182953 -2.613130 19,975 144 428 -64
2023-01-22 00:30:15 GMT 53.184536 -2.615069 20,000 144 428 -64
2023-01-22 00:30:13 GMT 53.187794 -2.618866 20,000 144 428 -64
2023-01-22 00:30:12 GMT 53.189423 -2.620724 19,975 144 428 -64
2023-01-22 00:30:11 GMT 53.190857 -2.622437 20,000 144 429 -64
2023-01-22 00:30:09 GMT 53.194107 -2.626203 20,000 144 429 -64
2023-01-22 00:30:07 GMT 53.198780 -2.631710 20,000 144 429 -64
2023-01-22 00:30:05 GMT 53.200409 -2.633649 20,000 144 429 -64
2023-01-22 00:30:04 GMT 53.202038 -2.635507 20,000 144 429 0
2023-01-22 00:30:02 GMT 53.205296 -2.639304 20,000 144 429 0
2023-01-22 00:30:00 GMT 53.208664 -2.643311 20,000 144 428 0
2023-01-22 00:29:59 GMT 53.210312 -2.645272 20,000 144 428 -64
2023-01-22 00:29:57 GMT 53.213837 -2.649432 20,000 144 428 -64
2023-01-22 00:29:56 GMT 53.215633 -2.651583 19,975 144 428 -64
2023-01-22 00:29:55 GMT 53.216446 -2.652492 19,975 144 428 -64
2023-01-22 00:29:52 GMT 53.221451 -2.658449 19,975 144 428 -64
2023-01-22 00:29:51 GMT 53.225037 -2.662650 20,000 144 428 -64
2023-01-22 00:29:49 GMT 53.226471 -2.664342 20,000 144 428 -64
2023-01-22 00:29:48 GMT 53.227921 -2.666043 20,000 144 428 -64
2023-01-22 00:29:47 GMT 53.229721 -2.668187 20,000 144 428 -64
2023-01-22 00:29:45 GMT 53.232971 -2.671953 20,000 144 428 -64
2023-01-22 00:29:43 GMT 53.236496 -2.676191 20,000 144 429 -64
2023-01-22 00:29:42 GMT 53.238144 -2.678074 20,000 144 429 -64
2023-01-22 00:29:41 GMT 53.239605 -2.679856 20,000 144 429 -64
2023-01-22 00:29:40 GMT 53.241348 -2.681920 20,000 144 429 0
2023-01-22 00:29:38 GMT 53.244598 -2.685765 20,000 144 428 -64
2023-01-22 00:29:37 GMT 53.246078 -2.687450 20,000 144 429 0
2023-01-22 00:29:36 GMT 53.247662 -2.689388 20,000 144 430 0
2023-01-22 00:29:33 GMT 53.252220 -2.694720 20,000 144 429 0
2023-01-22 00:29:31 GMT 53.257065 -2.700456 20,000 144 429 0
2023-01-22 00:29:29 GMT 53.259476 -2.703343 20,000 144 429 64
2023-01-22 00:29:28 GMT 53.260925 -2.705060 20,000 144 429 0
2023-01-22 00:29:27 GMT 53.264008 -2.708758 19,975 144 429 64
2023-01-22 00:29:25 GMT 53.265816 -2.710796 19,975 144 429 64
2023-01-22 00:29:24 GMT 53.267258 -2.712524 19,975 144 429 64
2023-01-22 00:29:23 GMT 53.270508 -2.716370 19,975 144 429 0
2023-01-22 00:29:21 GMT 53.273544 -2.720005 19,975 144 429 0
2023-01-22 00:29:19 GMT 53.275173 -2.721944 19,975 144 429 0
2023-01-22 00:29:18 GMT 53.276642 -2.723668 19,975 144 429 0
2023-01-22 00:29:17 GMT 53.278244 -2.725630 19,975 144 429 0
2023-01-22 00:29:15 GMT 53.281643 -2.729618 19,975 144 429 0
2023-01-22 00:29:14 GMT 53.283272 -2.731557 19,975 144 429 -64
2023-01-22 00:29:13 GMT 53.284698 -2.733320 19,975 144 429 -64
2023-01-22 00:29:12 GMT 53.289742 -2.739231 19,975 144 429 -64
2023-01-22 00:29:10 GMT 53.289742 -2.739231 19,975 144 429 -64
2023-01-22 00:29:09 GMT 53.291519 -2.741324 19,975 144 429 -64
2023-01-22 00:29:08 GMT 53.296215 -2.746905 20,000 144 430 -64
2023-01-22 00:29:06 GMT 53.296215 -2.746905 20,000 144 430 -64
2023-01-22 00:29:05 GMT 53.297974 -2.749015 20,000 144 430 -64
2023-01-22 00:29:04 GMT 53.299255 -2.750506 20,000 144 430 -64
2023-01-22 00:29:01 GMT 53.304966 -2.757245 19,975 144 430 -64
2023-01-22 00:29:00 GMT 53.308178 -2.761123 19,975 144 431 0
2023-01-22 00:28:57 GMT 53.311436 -2.764920 19,975 144 431 0
2023-01-22 00:28:56 GMT 53.312740 -2.766454 19,975 144 431 -64
2023-01-22 00:28:54 GMT 53.316147 -2.770517 19,975 144 431 -64
2023-01-22 00:28:53 GMT 53.317795 -2.772400 19,975 144 431 0
2023-01-22 00:28:52 GMT 53.322647 -2.778207 19,975 144 431 0
2023-01-22 00:28:50 GMT 53.322647 -2.778207 19,975 144 431 0
2023-01-22 00:28:49 GMT 53.323654 -2.779384 19,975 144 431 0
2023-01-22 00:28:48 GMT 53.327030 -2.783419 19,975 144 431 64
2023-01-22 00:28:45 GMT 53.330292 -2.787296 19,975 144 431 64
2023-01-22 00:28:43 GMT 53.337460 -2.795778 19,975 144 431 0
2023-01-22 00:28:41 GMT 53.337460 -2.795778 19,975 144 431 -64
2023-01-22 00:28:39 GMT 53.342346 -2.801514 19,975 144 432 -64
2023-01-22 00:28:37 GMT 53.343796 -2.803240 20,000 144 432 -64
2023-01-22 00:28:35 GMT 53.347046 -2.807164 20,000 144 432 -64
2023-01-22 00:28:34 GMT 53.348694 -2.809047 19,975 144 432 -64
2023-01-22 00:28:32 GMT 53.352123 -2.813146 19,975 144 432 -64
2023-01-22 00:28:30 GMT 53.354729 -2.816216 20,000 144 432 -128
2023-01-22 00:28:29 GMT 53.357990 -2.820093 20,000 144 432 -64
2023-01-22 00:28:26 GMT 53.361900 -2.824698 20,000 144 433 -128
2023-01-22 00:28:25 GMT 53.366135 -2.829707 20,000 144 433 -64
2023-01-22 00:28:23 GMT 53.366135 -2.829707 20,000 144 433 -64
2023-01-22 00:28:22 GMT 53.367966 -2.831883 20,000 144 433 -64
2023-01-22 00:28:21 GMT 53.369568 -2.833766 20,000 144 433 -64
2023-01-22 00:28:20 GMT 53.373184 -2.838082 20,000 144 432 -64
2023-01-22 00:28:18 GMT 53.374786 -2.839966 20,000 144 433 -64
2023-01-22 00:28:16 GMT 53.380005 -2.846165 20,000 144 432 -64
2023-01-22 00:28:13 GMT 53.382477 -2.849094 20,000 144 432 0
2023-01-22 00:28:12 GMT 53.384754 -2.851760 20,000 144 432 0
2023-01-22 00:28:09 GMT 53.389435 -2.857387 19,975 144 431 64
2023-01-22 00:28:07 GMT 53.392685 -2.861311 19,975 144 431 0
2023-01-22 00:28:06 GMT 53.394287 -2.863273 19,975 144 431 0
2023-01-22 00:28:04 GMT 53.396721 -2.866139 20,000 144 431 0
2023-01-22 00:28:03 GMT 53.398544 -2.868295 20,000 144 430 -64
2023-01-22 00:28:02 GMT 53.399979 -2.870017 19,975 144 430 -64
2023-01-22 00:28:01 GMT 53.401749 -2.872140 19,975 144 430 -64
2023-01-22 00:28:00 GMT 53.404865 -2.875833 19,975 144 430 -64
2023-01-22 00:27:58 GMT 53.406494 -2.877772 20,000 144 430 -64
2023-01-22 00:27:56 GMT 53.411987 -2.884315 20,000 144 430 -64
2023-01-22 00:27:54 GMT 53.413620 -2.886254 20,000 144 430 -64
2023-01-22 00:27:53 GMT 53.415249 -2.888193 20,000 144 430 -64
2023-01-22 00:27:52 GMT 53.416718 -2.889875 20,000 144 430 -64
2023-01-22 00:27:50 GMT 53.419968 -2.893799 20,000 144 430 -64
2023-01-22 00:27:49 GMT 53.421394 -2.895544 20,000 144 430 -64
2023-01-22 00:27:48 GMT 53.426102 -2.901097 20,000 144 430 -64
2023-01-22 00:27:46 GMT 53.426102 -2.901097 20,000 144 431 -64
2023-01-22 00:27:45 GMT 53.427910 -2.903218 20,000 144 431 -64
2023-01-22 00:27:43 GMT 53.431122 -2.907096 20,000 144 430 0
2023-01-22 00:27:42 GMT 53.432602 -2.908866 20,000 144 430 0
2023-01-22 00:27:40 GMT 53.437454 -2.914673 20,000 144 430 0
2023-01-22 00:27:38 GMT 53.439220 -2.916789 20,000 144 429 64
2023-01-22 00:27:37 GMT 53.440853 -2.918728 20,000 144 429 64
2023-01-22 00:27:36 GMT 53.442627 -2.920872 19,975 144 429 0
2023-01-22 00:27:34 GMT 53.445694 -2.924544 19,975 144 429 0
2023-01-22 00:27:33 GMT 53.447277 -2.926483 19,975 144 429 0
2023-01-22 00:27:31 GMT 53.450363 -2.930211 20,000 144 429 0
2023-01-22 00:27:30 GMT 53.451965 -2.932173 19,975 144 429 0
2023-01-22 00:27:29 GMT 53.453568 -2.934056 20,000 144 429 0
2023-01-22 00:27:28 GMT 53.457287 -2.938520 19,975 144 429 0
2023-01-22 00:27:25 GMT 53.460499 -2.942397 19,975 144 429 64
2023-01-22 00:27:24 GMT 53.462128 -2.944336 19,975 144 429 64
2023-01-22 00:27:23 GMT 53.463547 -2.946062 19,975 144 429 64
2023-01-22 00:27:22 GMT 53.466640 -2.949748 19,975 144 429 64
2023-01-22 00:27:20 GMT 53.468224 -2.951687 19,975 144 429 0
2023-01-22 00:27:18 GMT 53.471283 -2.955401 19,975 144 429 0
2023-01-22 00:27:17 GMT 53.473251 -2.957676 19,975 144 429 0
2023-01-22 00:27:16 GMT 53.474693 -2.959442 19,975 144 429 -64
2023-01-22 00:27:15 GMT 53.476456 -2.961600 19,975 144 430 0
2023-01-22 00:27:14 GMT 53.479862 -2.965582 19,975 144 430 -64
2023-01-22 00:27:12 GMT 53.481628 -2.967721 19,975 144 429 -64
2023-01-22 00:27:11 GMT 53.483402 -2.969863 19,975 144 429 -64
2023-01-22 00:27:10 GMT 53.486481 -2.973528 19,975 144 430 -64
2023-01-22 00:27:08 GMT 53.488129 -2.975490 19,975 144 430 0
2023-01-22 00:27:06 GMT 53.490524 -2.978345 19,975 144 430 0
2023-01-22 00:27:05 GMT 53.493130 -2.981496 19,975 144 430 -64
2023-01-22 00:27:04 GMT 53.493942 -2.982396 20,000 144 430 -64
2023-01-22 00:27:03 GMT 53.496063 -2.984969 19,975 144 430 -64
2023-01-22 00:27:01 GMT 53.499115 -2.988595 20,000 144 431 -64
2023-01-22 00:27:00 GMT 53.500904 -2.990705 20,000 144 431 -64
2023-01-22 00:26:58 GMT 53.504162 -2.994582 20,000 144 431 -64
2023-01-22 00:26:57 GMT 53.505791 -2.996521 20,000 144 432 -64
2023-01-22 00:26:56 GMT 53.507584 -2.998718 20,000 144 432 -64
2023-01-22 00:26:55 GMT 53.511986 -3.003953 20,000 144 432 0
2023-01-22 00:26:53 GMT 53.511986 -3.003953 20,000 144 432 0
2023-01-22 00:26:52 GMT 53.513615 -3.005892 19,975 144 432 0
2023-01-22 00:26:50 GMT 53.516872 -3.009769 19,975 144 433 -64
2023-01-22 00:26:49 GMT 53.518501 -3.011708 20,000 144 433 0
2023-01-22 00:26:48 GMT 53.520782 -3.014455 20,000 144 433 -64
2023-01-22 00:26:47 GMT 53.522232 -3.016218 20,000 144 433 -64
2023-01-22 00:26:46 GMT 53.525345 -3.019867 20,000 144 433 -128
2023-01-22 00:26:44 GMT 53.526974 -3.021886 20,000 144 433 -64
2023-01-22 00:26:43 GMT 53.528412 -3.023594 20,000 144 433 -64
2023-01-22 00:26:41 GMT 53.531536 -3.027299 20,000 144 433 -64
2023-01-22 00:26:39 GMT 53.538704 -3.035862 20,000 144 433 -64
2023-01-22 00:26:37 GMT 53.538704 -3.035862 20,000 144 433 -64
2023-01-22 00:26:36 GMT 53.540176 -3.037641 20,000 144 433 -64
2023-01-22 00:26:35 GMT 53.541637 -3.039416 20,000 144 433 -64
2023-01-22 00:26:34 GMT 53.543266 -3.041355 20,000 144 433 -64
2023-01-22 00:26:32 GMT 53.546677 -3.045489 20,000 144 432 -64
2023-01-22 00:26:31 GMT 53.548325 -3.047372 20,000 144 432 -64
2023-01-22 00:26:30 GMT 53.549786 -3.049191 20,000 144 432 0
2023-01-22 00:26:28 GMT 53.553177 -3.053258 20,000 144 432 -64
2023-01-22 00:26:27 GMT 53.554504 -3.054827 20,000 144 432 -64
2023-01-22 00:26:26 GMT 53.556255 -3.056946 20,000 144 432 0
2023-01-22 00:26:25 GMT 53.559513 -3.060904 20,000 144 432 0
2023-01-22 00:26:23 GMT 53.561279 -3.063067 20,000 144 432 0
2023-01-22 00:26:22 GMT 53.562927 -3.065029 20,000 144 432 0
2023-01-22 00:26:21 GMT 53.565983 -3.068740 19,975 144 432 -64
2023-01-22 00:26:19 GMT 53.567459 -3.070443 20,000 144 432 -64
2023-01-22 00:26:18 GMT 53.569061 -3.072405 20,000 144 432 -64
2023-01-22 00:26:17 GMT 53.572311 -3.076329 20,000 144 431 0
2023-01-22 00:26:15 GMT 53.574085 -3.078434 19,975 144 430 64
2023-01-22 00:26:14 GMT 53.575882 -3.080645 20,000 144 430 64
2023-01-22 00:26:12 GMT 53.579132 -3.084490 19,975 144 430 0
2023-01-22 00:26:11 GMT 53.580555 -3.086270 20,000 144 430 0
2023-01-22 00:26:10 GMT 53.582016 -3.088021 19,975 144 430 -64
2023-01-22 00:26:08 GMT 53.585266 -3.091945 20,000 144 430 -64
2023-01-22 00:26:06 GMT 53.589634 -3.097175 20,000 144 430 -64
2023-01-22 00:26:03 GMT 53.593369 -3.101676 20,000 144 430 -64
2023-01-22 00:26:02 GMT 53.594799 -3.103395 20,000 144 430 -64
2023-01-22 00:26:01 GMT 53.599823 -3.109445 19,975 144 430 0
2023-01-22 00:25:59 GMT 53.599823 -3.109445 19,975 144 430 0
2023-01-22 00:25:58 GMT 53.601273 -3.111150 19,975 144 430 64
2023-01-22 00:25:56 GMT 53.606113 -3.117047 20,000 144 430 -64
2023-01-22 00:25:53 GMT 53.609528 -3.121137 20,000 144 429 -64
2023-01-22 00:25:50 GMT 53.614536 -3.127145 20,000 144 429 0
2023-01-22 00:25:48 GMT 53.617424 -3.130700 19,975 144 429 0
2023-01-22 00:25:47 GMT 53.619007 -3.132638 19,975 144 429 0
2023-01-22 00:25:46 GMT 53.620468 -3.134399 20,000 144 429 0
2023-01-22 00:25:45 GMT 53.623524 -3.138051 20,000 144 429 0
2023-01-22 00:25:43 GMT 53.625153 -3.139990 20,000 144 429 -64
2023-01-22 00:25:41 GMT 53.628365 -3.143948 19,975 144 429 -64
2023-01-22 00:25:38 GMT 53.633530 -3.150168 20,000 144 429 -64
2023-01-22 00:25:36 GMT 53.636948 -3.154253 20,000 144 429 0
2023-01-22 00:25:35 GMT 53.638550 -3.156215 19,975 144 429 0
2023-01-22 00:25:34 GMT 53.640152 -3.158177 19,975 144 429 0
2023-01-22 00:25:33 GMT 53.642075 -3.160531 19,975 144 429 64
2023-01-22 00:25:30 GMT 53.646427 -3.165759 19,975 144 429 0
2023-01-22 00:25:29 GMT 53.648163 -3.167908 19,975 144 429 0
2023-01-22 00:25:28 GMT 53.651733 -3.172224 19,975 144 429 0
2023-01-22 00:25:25 GMT 53.655087 -3.176341 19,975 144 429 0
2023-01-22 00:25:24 GMT 53.655899 -3.177246 20,000 144 429 -64
2023-01-22 00:25:23 GMT 53.657368 -3.179007 19,975 144 429 -64
2023-01-22 00:25:22 GMT 53.661346 -3.183916 19,975 144 429 -64
2023-01-22 00:25:19 GMT 53.663792 -3.186843 19,975 144 429 -64
2023-01-22 00:25:18 GMT 53.667160 -3.190979 20,000 144 429 -64
2023-01-22 00:25:16 GMT 53.669403 -3.193647 20,000 144 429 -64
2023-01-22 00:25:15 GMT 53.670216 -3.194679 20,000 144 429 -64
2023-01-22 00:25:14 GMT 53.674080 -3.199364 19,975 144 429 -64
2023-01-22 00:25:12 GMT 53.675659 -3.201303 20,000 144 429 -64
2023-01-22 00:25:10 GMT 53.679062 -3.205418 20,000 144 429 -64
2023-01-22 00:25:08 GMT 53.682133 -3.209058 20,000 144 429 -64
2023-01-22 00:25:07 GMT 53.683716 -3.211078 20,000 144 429 -64
2023-01-22 00:25:06 GMT 53.685196 -3.212795 20,000 144 429 -64
2023-01-22 00:25:04 GMT 53.688400 -3.216718 20,000 144 429 64
2023-01-22 00:25:03 GMT 53.689861 -3.218429 20,000 144 429 0
2023-01-22 00:25:02 GMT 53.691284 -3.220250 20,000 144 429 -64
2023-01-22 00:25:00 GMT 53.695175 -3.224880 20,000 144 430 -64
2023-01-22 00:24:59 GMT 53.696609 -3.226668 20,000 144 429 -64
2023-01-22 00:24:57 GMT 53.699982 -3.230765 20,000 144 429 64
2023-01-22 00:24:56 GMT 53.701450 -3.232565 20,000 144 429 64
2023-01-22 00:24:55 GMT 53.704338 -3.236120 19,975 144 429 64
2023-01-22 00:24:52 GMT 53.706573 -3.238866 19,975 144 429 64
2023-01-22 00:24:51 GMT 53.709000 -3.241752 19,975 144 429 64
2023-01-22 00:24:49 GMT 53.712204 -3.245675 19,975 144 429 0
2023-01-22 00:24:47 GMT 53.715408 -3.249599 19,975 144 429 0
2023-01-22 00:24:45 GMT 53.719421 -3.254538 19,975 144 429 0
2023-01-22 00:24:43 GMT 53.721863 -3.257446 19,975 144 429 0
2023-01-22 00:24:41 GMT 53.725708 -3.262155 20,000 144 429 -64
2023-01-22 00:24:40 GMT 53.726669 -3.263332 20,000 144 429 -64
2023-01-22 00:24:39 GMT 53.730560 -3.267962 20,000 144 430 -64
2023-01-22 00:24:37 GMT 53.731991 -3.269725 20,000 144 430 -64
2023-01-22 00:24:36 GMT 53.733765 -3.271885 20,000 144 430 -64
2023-01-22 00:24:34 GMT 53.736832 -3.275541 20,000 144 430 -64
2023-01-22 00:24:33 GMT 53.738297 -3.277300 20,000 144 430 -64
2023-01-22 00:24:32 GMT 53.741718 -3.281438 20,000 144 429 -64
2023-01-22 00:24:30 GMT 53.743301 -3.283377 20,000 144 429 -64
2023-01-22 00:24:29 GMT 53.745071 -3.285540 20,000 144 429 -64
2023-01-22 00:24:28 GMT 53.746513 -3.287255 20,000 144 429 -64
2023-01-22 00:24:25 GMT 53.751205 -3.292916 20,000 144 429 0
2023-01-22 00:24:23 GMT 53.754456 -3.296840 20,000 144 429 -64
2023-01-22 00:24:22 GMT 53.756058 -3.298802 20,000 144 429 -64
2023-01-22 00:24:21 GMT 53.757500 -3.300584 20,000 144 430 -64
2023-01-22 00:24:20 GMT 53.759262 -3.302726 20,000 144 429 -64
2023-01-22 00:24:17 GMT 53.764435 -3.309004 20,000 144 429 0
2023-01-22 00:24:16 GMT 53.766205 -3.311166 20,000 144 429 0
2023-01-22 00:24:14 GMT 53.769241 -3.314889 20,000 144 428 64
2023-01-22 00:24:12 GMT 53.772446 -3.318813 19,975 144 428 64
2023-01-22 00:24:11 GMT 53.774212 -3.320941 19,975 144 428 64
2023-01-22 00:24:09 GMT 53.777252 -3.324698 19,975 144 428 0
2023-01-22 00:24:08 GMT 53.778683 -3.326434 19,975 143 428 -64
2023-01-22 00:24:07 GMT 53.780457 -3.328622 19,975 143 428 -64
2023-01-22 00:24:05 GMT 53.783661 -3.332546 19,975 144 427 -64
2023-01-22 00:24:04 GMT 53.785263 -3.334508 19,975 144 427 0
2023-01-22 00:24:03 GMT 53.787014 -3.336612 19,975 144 428 0
2023-01-22 00:24:02 GMT 53.789902 -3.340167 19,975 144 428 -64
2023-01-22 00:24:00 GMT 53.791485 -3.342106 19,975 144 428 0
2023-01-22 00:23:59 GMT 53.793392 -3.344448 19,975 144 428 0
2023-01-22 00:23:58 GMT 53.796158 -3.347770 19,975 144 427 0
2023-01-22 00:23:56 GMT 53.798557 -3.350749 19,975 144 427 -64
2023-01-22 00:23:55 GMT 53.800793 -3.353415 19,975 144 427 -64
2023-01-22 00:23:53 GMT 53.802376 -3.355435 20,000 144 427 -64
2023-01-22 00:23:52 GMT 53.804443 -3.357971 20,000 144 427 -64
2023-01-22 00:23:51 GMT 53.806240 -3.360120 20,000 144 427 -64
2023-01-22 00:23:49 GMT 53.807823 -3.362059 20,000 144 427 -64
2023-01-22 00:23:48 GMT 53.809616 -3.364171 20,000 144 427 -64
2023-01-22 00:23:47 GMT 53.812820 -3.368094 20,000 144 428 -64
2023-01-22 00:23:45 GMT 53.814571 -3.370218 20,000 144 428 -64
2023-01-22 00:23:44 GMT 53.816200 -3.372237 20,000 144 429 -64
2023-01-22 00:23:42 GMT 53.819550 -3.376334 20,000 144 429 -64
2023-01-22 00:23:41 GMT 53.821152 -3.378296 20,000 144 429 0
2023-01-22 00:23:40 GMT 53.822628 -3.379992 20,000 144 429 0
2023-01-22 00:23:38 GMT 53.826118 -3.384355 20,000 144 428 0
2023-01-22 00:23:37 GMT 53.827560 -3.386065 20,000 144 428 0
2023-01-22 00:23:36 GMT 53.829163 -3.388027 20,000 144 428 0
2023-01-22 00:23:35 GMT 53.832214 -3.391786 19,975 144 428 64
2023-01-22 00:23:33 GMT 53.833847 -3.393725 19,975 144 428 64
2023-01-22 00:23:32 GMT 53.835430 -3.395664 19,975 144 428 64
2023-01-22 00:23:30 GMT 53.838642 -3.399622 19,975 144 427 64
2023-01-22 00:23:29 GMT 53.840221 -3.401561 19,975 144 427 0
2023-01-22 00:23:28 GMT 53.841660 -3.403329 19,975 144 427 0
2023-01-22 00:23:26 GMT 53.845505 -3.408037 19,975 144 427 0
2023-01-22 00:23:25 GMT 53.846466 -3.409215 19,975 144 427 0
2023-01-22 00:23:24 GMT 53.848389 -3.411569 19,975 144 427 0
2023-01-22 00:23:22 GMT 53.851768 -3.415698 19,975 144 427 -64
2023-01-22 00:23:21 GMT 53.853024 -3.417233 19,975 144 427 -64
2023-01-22 00:23:19 GMT 53.858799 -3.424261 19,975 144 427 -64
2023-01-22 00:23:16 GMT 53.862808 -3.429147 19,975 144 427 0
2023-01-22 00:23:14 GMT 53.864410 -3.431109 19,975 144 427 -64
2023-01-22 00:23:13 GMT 53.865692 -3.432678 20,000 144 427 -64
2023-01-22 00:23:11 GMT 53.869690 -3.437590 19,975 144 428 -64
2023-01-22 00:23:10 GMT 53.871140 -3.439348 19,975 144 428 0
2023-01-22 00:23:09 GMT 53.872742 -3.441310 19,975 144 428 0
2023-01-22 00:23:08 GMT 53.875790 -3.445022 19,975 144 428 -64
2023-01-22 00:23:06 GMT 53.877373 -3.446960 19,975 144 428 -64
2023-01-22 00:23:05 GMT 53.879002 -3.448980 20,000 144 428 -64
2023-01-22 00:23:03 GMT 53.882214 -3.452858 20,000 144 428 -64
2023-01-22 00:23:01 GMT 53.885704 -3.457220 19,975 144 428 -64
2023-01-22 00:22:59 GMT 53.889725 -3.462106 20,000 144 428 -64
2023-01-22 00:22:57 GMT 53.892609 -3.465637 20,000 144 428 0
2023-01-22 00:22:55 GMT 53.895493 -3.469169 20,000 144 428 0
2023-01-22 00:22:53 GMT 53.898056 -3.472307 20,000 144 427 0
2023-01-22 00:22:52 GMT 53.900742 -3.475638 20,000 144 427 -64
2023-01-22 00:22:51 GMT 53.904099 -3.479762 20,000 144 427 -64
2023-01-22 00:22:48 GMT 53.906982 -3.483294 20,000 144 427 -64
2023-01-22 00:22:47 GMT 53.908905 -3.485648 20,000 144 427 -64
2023-01-22 00:22:44 GMT 53.913544 -3.491310 20,000 143 426 -64
2023-01-22 00:22:42 GMT 53.918339 -3.497207 20,000 143 426 0
2023-01-22 00:22:40 GMT 53.920074 -3.499381 20,000 143 426 -64
2023-01-22 00:22:39 GMT 53.923279 -3.503305 20,000 143 425 -64
2023-01-22 00:22:37 GMT 53.924835 -3.505266 20,000 143 425 -64
2023-01-22 00:22:36 GMT 53.928040 -3.509190 20,000 143 425 -64
2023-01-22 00:22:34 GMT 53.929321 -3.510760 20,000 143 425 0
2023-01-22 00:22:33 GMT 53.931698 -3.513686 20,000 143 425 0
2023-01-22 00:22:32 GMT 53.933281 -3.515625 20,000 143 425 0
2023-01-22 00:22:31 GMT 53.934723 -3.517430 20,000 143 425 0
2023-01-22 00:22:30 GMT 53.937099 -3.520310 20,000 143 425 -64
2023-01-22 00:22:28 GMT 53.938683 -3.522330 20,000 143 425 0
2023-01-22 00:22:27 GMT 53.940399 -3.524493 19,975 143 425 0
2023-01-22 00:22:26 GMT 53.942173 -3.526611 20,000 143 425 0
2023-01-22 00:22:24 GMT 53.944565 -3.529515 20,000 143 425 0
2023-01-22 00:22:22 GMT 53.947723 -3.533439 20,000 143 425 0
2023-01-22 00:22:21 GMT 53.949482 -3.535578 19,975 143 425 0
2023-01-22 00:22:20 GMT 53.951065 -3.537598 20,000 143 425 -64
2023-01-22 00:22:19 GMT 53.952805 -3.539716 19,975 143 425 0
2023-01-22 00:22:17 GMT 53.955963 -3.543640 20,000 144 424 0
2023-01-22 00:22:15 GMT 53.960560 -3.549311 20,000 144 424 0
2023-01-22 00:22:13 GMT 53.961819 -3.550846 19,975 144 424 0
2023-01-22 00:22:12 GMT 53.963608 -3.552979 19,975 144 424 0
2023-01-22 00:22:10 GMT 53.966766 -3.556902 20,000 144 424 0
2023-01-22 00:22:09 GMT 53.968369 -3.558864 20,000 144 424 -64
2023-01-22 00:22:08 GMT 53.969925 -3.560826 20,000 144 424 -64
2023-01-22 00:22:07 GMT 53.973270 -3.564902 19,975 144 424 0
2023-01-22 00:22:05 GMT 53.975006 -3.567025 19,975 144 424 0
2023-01-22 00:22:04 GMT 53.976437 -3.568779 19,975 144 424 -64
2023-01-22 00:22:03 GMT 53.979649 -3.572738 19,975 144 424 0
2023-01-22 00:22:01 GMT 53.981049 -3.574480 19,975 144 424 0
2023-01-22 00:22:00 GMT 53.982330 -3.576050 19,975 144 424 0
2023-01-22 00:21:59 GMT 53.986130 -3.580680 19,975 143 425 0
2023-01-22 00:21:57 GMT 53.987888 -3.582835 20,000 143 425 -64
2023-01-22 00:21:55 GMT 53.990936 -3.586565 19,975 143 425 -64
2023-01-22 00:21:53 GMT 53.993774 -3.590097 20,000 143 425 -64
2023-01-22 00:21:52 GMT 53.995522 -3.592206 20,000 143 425 -64
2023-01-22 00:21:51 GMT 53.997253 -3.594413 20,000 143 425 -64
2023-01-22 00:21:49 GMT 54.000458 -3.598336 20,000 143 425 -64
2023-01-22 00:21:47 GMT 54.003616 -3.602260 20,000 143 426 0
2023-01-22 00:21:46 GMT 54.006973 -3.606343 20,000 143 426 -64
2023-01-22 00:21:44 GMT 54.008423 -3.608146 20,000 143 426 -64
2023-01-22 00:21:42 GMT 54.011902 -3.612462 20,000 143 426 0
2023-01-22 00:21:41 GMT 54.012699 -3.613452 20,000 143 426 -64
2023-01-22 00:21:40 GMT 54.014282 -3.615391 20,000 143 426 -64
2023-01-22 00:21:39 GMT 54.015911 -3.617410 20,000 143 426 -64
2023-01-22 00:21:38 GMT 54.019226 -3.621565 20,000 143 426 -64
2023-01-22 00:21:36 GMT 54.020828 -3.623526 20,000 143 426 -64
2023-01-22 00:21:35 GMT 54.022430 -3.625488 20,000 143 426 0
2023-01-22 00:21:33 GMT 54.026386 -3.630416 19,975 143 426 -64
2023-01-22 00:21:31 GMT 54.028946 -3.633566 20,000 143 426 -64
2023-01-22 00:21:29 GMT 54.033875 -3.639692 20,000 143 426 0
2023-01-22 00:21:26 GMT 54.036579 -3.643018 20,000 143 426 0
2023-01-22 00:21:24 GMT 54.039791 -3.646976 20,000 143 426 0
2023-01-22 00:21:22 GMT 54.042957 -3.650935 20,000 143 426 0
2023-01-22 00:21:20 GMT 54.046452 -3.655216 20,000 143 425 0
2023-01-22 00:21:19 GMT 54.048080 -3.657236 20,000 143 425 0
2023-01-22 00:21:18 GMT 54.049805 -3.659389 19,975 143 425 0
2023-01-22 00:21:16 GMT 54.052826 -3.663133 20,000 143 425 0
2023-01-22 00:21:15 GMT 54.054245 -3.664882 19,975 143 425 64
2023-01-22 00:21:14 GMT 54.055847 -3.666844 19,975 143 425 0
2023-01-22 00:21:12 GMT 54.059483 -3.671372 20,000 143 425 0
2023-01-22 00:21:11 GMT 54.061066 -3.673392 19,975 143 425 64
2023-01-22 00:21:09 GMT 54.065815 -3.679289 19,975 143 425 0
2023-01-22 00:21:07 GMT 54.067566 -3.681440 19,975 143 425 0
2023-01-22 00:21:06 GMT 54.069958 -3.684459 19,975 143 425 0
2023-01-22 00:21:03 GMT 54.075359 -3.691164 19,975 143 425 -64
2023-01-22 00:21:01 GMT 54.076614 -3.692699 19,975 143 425 -64
2023-01-22 00:21:00 GMT 54.078197 -3.694718 20,000 143 425 0
2023-01-22 00:20:58 GMT 54.081364 -3.698596 19,975 143 425 -64
2023-01-22 00:20:57 GMT 54.082809 -3.700352 19,975 143 425 -64
2023-01-22 00:20:56 GMT 54.084686 -3.702785 20,000 143 425 -64
2023-01-22 00:20:54 GMT 54.087696 -3.706512 20,000 143 425 0
2023-01-22 00:20:53 GMT 54.089127 -3.708278 20,000 143 425 0
2023-01-22 00:20:52 GMT 54.090908 -3.710390 20,000 143 425 0
2023-01-22 00:20:51 GMT 54.094208 -3.714556 20,000 143 425 0
2023-01-22 00:20:49 GMT 54.095810 -3.716518 20,000 143 425 0
2023-01-22 00:20:48 GMT 54.097412 -3.718480 19,975 143 425 0
2023-01-22 00:20:47 GMT 54.100571 -3.722403 19,975 143 425 0
2023-01-22 00:20:44 GMT 54.103775 -3.726327 19,975 143 425 0
2023-01-22 00:20:42 GMT 54.106934 -3.730329 19,975 143 425 0
2023-01-22 00:20:40 GMT 54.110413 -3.734645 20,000 143 425 -64
2023-01-22 00:20:39 GMT 54.113297 -3.738177 19,975 143 425 -64
2023-01-22 00:20:36 GMT 54.116325 -3.741895 19,975 143 426 -64
2023-01-22 00:20:34 GMT 54.119659 -3.746102 19,975 143 426 -64
2023-01-22 00:20:32 GMT 54.122982 -3.750215 19,975 143 426 -64
2023-01-22 00:20:31 GMT 54.126297 -3.754421 20,000 143 426 -64
2023-01-22 00:20:29 GMT 54.128056 -3.756597 19,975 143 426 -64
2023-01-22 00:20:28 GMT 54.129639 -3.758536 20,000 143 426 -64
2023-01-22 00:20:27 GMT 54.131104 -3.760306 20,000 143 426 -64
2023-01-22 00:20:25 GMT 54.134434 -3.764514 20,000 143 426 -64
2023-01-22 00:20:23 GMT 54.136185 -3.766663 20,000 143 426 -64
2023-01-22 00:20:22 GMT 54.138577 -3.769684 20,000 143 426 -64
2023-01-22 00:20:21 GMT 54.140305 -3.771842 20,000 143 427 -64
2023-01-22 00:20:20 GMT 54.141743 -3.773642 20,000 143 427 -64
2023-01-22 00:20:19 GMT 54.143326 -3.775581 20,000 143 427 -64
2023-01-22 00:20:18 GMT 54.145561 -3.778408 20,000 143 427 -64
2023-01-22 00:20:16 GMT 54.148445 -3.781963 20,000 143 427 -64
2023-01-22 00:20:14 GMT 54.151794 -3.786124 20,000 143 427 -64
2023-01-22 00:20:13 GMT 54.153194 -3.787941 20,000 143 427 -64
2023-01-22 00:20:12 GMT 54.154778 -3.789879 20,000 143 427 -64
2023-01-22 00:20:11 GMT 54.157990 -3.793838 20,000 143 427 -64
2023-01-22 00:20:09 GMT 54.159393 -3.795619 20,000 143 427 -64
2023-01-22 00:20:08 GMT 54.161156 -3.797796 20,000 143 427 -64
2023-01-22 00:20:07 GMT 54.162598 -3.799622 20,000 143 427 0
2023-01-22 00:20:05 GMT 54.165802 -3.803545 20,000 143 427 0
2023-01-22 00:20:04 GMT 54.167404 -3.805586 20,000 143 427 0
2023-01-22 00:20:03 GMT 54.169113 -3.807732 20,000 143 427 0
2023-01-22 00:20:01 GMT 54.172653 -3.812094 20,000 143 426 0
2023-01-22 00:19:59 GMT 54.177246 -3.817827 20,000 143 426 -64
2023-01-22 00:19:57 GMT 54.178658 -3.819607 20,000 143 427 0
2023-01-22 00:19:56 GMT 54.182007 -3.823792 19,975 143 427 0
2023-01-22 00:19:54 GMT 54.183609 -3.825832 20,000 143 427 0
2023-01-22 00:19:53 GMT 54.185036 -3.827604 19,975 143 427 0
2023-01-22 00:19:52 GMT 54.186768 -3.829756 19,975 143 427 0
2023-01-22 00:19:50 GMT 54.190109 -3.833986 19,975 143 426 0
2023-01-22 00:19:49 GMT 54.191849 -3.836112 20,000 143 426 0
2023-01-22 00:19:48 GMT 54.193275 -3.837944 19,975 143 426 0
2023-01-22 00:19:46 GMT 54.196289 -3.841684 19,975 143 426 64
2023-01-22 00:19:45 GMT 54.197697 -3.843518 19,975 143 426 64
2023-01-22 00:19:44 GMT 54.199127 -3.845293 19,975 143 425 64
2023-01-22 00:19:42 GMT 54.202927 -3.850080 19,975 143 425 0
2023-01-22 00:19:41 GMT 54.203751 -3.851031 19,975 143 425 64
2023-01-22 00:19:40 GMT 54.205284 -3.853051 19,975 143 425 0
2023-01-22 00:19:38 GMT 54.209103 -3.857817 19,975 143 425 0
2023-01-22 00:19:37 GMT 54.210079 -3.859029 19,975 143 425 0
2023-01-22 00:19:36 GMT 54.212269 -3.861775 19,975 143 425 0
2023-01-22 00:19:35 GMT 54.213852 -3.863714 19,975 143 425 -64
2023-01-22 00:19:33 GMT 54.216888 -3.867501 19,975 143 425 -64
2023-01-22 00:19:32 GMT 54.218445 -3.869463 19,975 143 425 -64
2023-01-22 00:19:30 GMT 54.221329 -3.873073 19,975 143 425 -64
2023-01-22 00:19:29 GMT 54.222744 -3.874862 19,975 143 425 -64
2023-01-22 00:19:28 GMT 54.224487 -3.876997 20,000 143 425 -64
2023-01-22 00:19:27 GMT 54.225910 -3.878820 19,975 143 425 -64
2023-01-22 00:19:26 GMT 54.229248 -3.882961 20,000 143 425 -64
2023-01-22 00:19:24 GMT 54.230850 -3.884923 20,000 143 426 -64
2023-01-22 00:19:23 GMT 54.232613 -3.887141 20,000 143 426 -64
2023-01-22 00:19:22 GMT 54.235611 -3.890887 20,000 143 426 -64
2023-01-22 00:19:20 GMT 54.237213 -3.892848 20,000 143 426 -64
2023-01-22 00:19:19 GMT 54.238770 -3.894810 20,000 143 426 -64
2023-01-22 00:19:17 GMT 54.241974 -3.898812 20,000 143 426 -64
2023-01-22 00:19:16 GMT 54.244019 -3.901439 20,000 143 425 -64
2023-01-22 00:19:15 GMT 54.245773 -3.903599 20,000 143 426 -64
2023-01-22 00:19:13 GMT 54.248611 -3.907209 20,000 143 426 -64
2023-01-22 00:19:12 GMT 54.250214 -3.909171 20,000 143 426 -64
2023-01-22 00:19:11 GMT 54.251450 -3.910740 20,000 143 426 -64
2023-01-22 00:19:09 GMT 54.255096 -3.915333 20,000 143 426 -64
2023-01-22 00:19:08 GMT 54.256680 -3.917353 20,000 143 426 -64
2023-01-22 00:19:07 GMT 54.259846 -3.921311 20,000 143 425 -64
2023-01-22 00:19:05 GMT 54.261429 -3.923331 20,000 143 425 -64
2023-01-22 00:19:04 GMT 54.263012 -3.925270 20,000 143 424 -64
2023-01-22 00:19:03 GMT 54.267433 -3.930844 20,000 143 424 -64
2023-01-22 00:19:01 GMT 54.267433 -3.930844 20,000 143 424 0
2023-01-22 00:19:00 GMT 54.269016 -3.932863 20,000 143 424 0
2023-01-22 00:18:58 GMT 54.274246 -3.939462 20,000 143 424 0
2023-01-22 00:18:56 GMT 54.275021 -3.940376 20,000 143 424 0
2023-01-22 00:18:54 GMT 54.278046 -3.944170 20,000 143 424 0
2023-01-22 00:18:53 GMT 54.279770 -3.946339 20,000 143 423 64
2023-01-22 00:18:52 GMT 54.281029 -3.947920 20,000 143 423 64
2023-01-22 00:18:50 GMT 54.284798 -3.952748 20,000 143 423 64
2023-01-22 00:18:49 GMT 54.286240 -3.954513 19,975 143 423 64
2023-01-22 00:18:48 GMT 54.289398 -3.958471 19,975 143 423 64
2023-01-22 00:18:46 GMT 54.290802 -3.960238 20,000 143 423 64
2023-01-22 00:18:45 GMT 54.292236 -3.962025 19,975 143 423 64
2023-01-22 00:18:44 GMT 54.294434 -3.964772 19,975 143 423 64
2023-01-22 00:18:42 GMT 54.297413 -3.968561 19,975 143 423 64
2023-01-22 00:18:41 GMT 54.298187 -3.969538 19,975 143 423 64
2023-01-22 00:18:40 GMT 54.301834 -3.974055 19,975 143 422 -64
2023-01-22 00:18:38 GMT 54.303543 -3.976243 19,975 143 422 -64
2023-01-22 00:18:37 GMT 54.304955 -3.978050 19,975 143 422 -64
2023-01-22 00:18:36 GMT 54.307938 -3.981817 19,975 143 422 0
2023-01-22 00:18:34 GMT 54.309376 -3.983543 19,975 143 422 -64
2023-01-22 00:18:33 GMT 54.310959 -3.985540 19,975 143 422 -64
2023-01-22 00:18:32 GMT 54.314079 -3.989452 19,975 143 422 -64
2023-01-22 00:18:30 GMT 54.315662 -3.991450 19,975 143 422 0
2023-01-22 00:18:29 GMT 54.317413 -3.993611 19,975 143 422 0
2023-01-22 00:18:28 GMT 54.319153 -3.995777 19,975 143 422 0
2023-01-22 00:18:27 GMT 54.322128 -3.999508 19,975 143 422 0
2023-01-22 00:18:25 GMT 54.323856 -4.001687 19,975 143 422 -64
2023-01-22 00:18:24 GMT 54.325607 -4.003870 19,975 143 422 -64
2023-01-22 00:18:23 GMT 54.327347 -4.006015 20,000 143 422 -64
2023-01-22 00:18:21 GMT 54.330463 -4.010010 19,975 143 423 -64
2023-01-22 00:18:20 GMT 54.331768 -4.011591 20,000 143 423 -64
2023-01-22 00:18:19 GMT 54.333305 -4.013589 20,000 143 423 -64
2023-01-22 00:18:17 GMT 54.336319 -4.017280 20,000 143 423 -64
2023-01-22 00:18:16 GMT 54.338379 -4.019831 20,000 143 423 -64
2023-01-22 00:18:15 GMT 54.341221 -4.023410 20,000 143 424 -64
2023-01-22 00:18:13 GMT 54.342636 -4.025197 20,000 143 424 -64
2023-01-22 00:18:11 GMT 54.345642 -4.028986 20,000 143 424 -64
2023-01-22 00:18:10 GMT 54.347397 -4.031175 20,000 143 424 0
2023-01-22 00:18:09 GMT 54.349133 -4.033314 20,000 143 424 0
2023-01-22 00:18:08 GMT 54.350670 -4.035312 19,975 143 424 -64
2023-01-22 00:18:07 GMT 54.352112 -4.037152 20,000 143 424 0
2023-01-22 00:18:05 GMT 54.355091 -4.040888 20,000 143 424 0
2023-01-22 00:18:04 GMT 54.356827 -4.043050 20,000 143 424 0
2023-01-22 00:18:03 GMT 54.358582 -4.045299 19,975 143 424 0
2023-01-22 00:18:01 GMT 54.361542 -4.049027 20,000 143 423 0
2023-01-22 00:18:00 GMT 54.363285 -4.051208 19,975 143 423 -64
2023-01-22 00:17:58 GMT 54.366898 -4.055813 20,000 143 423 -64
2023-01-22 00:17:57 GMT 54.368500 -4.057752 20,000 143 423 -64
2023-01-22 00:17:56 GMT 54.371479 -4.061529 20,000 143 423 -64
2023-01-22 00:17:54 GMT 54.373058 -4.063527 20,000 143 423 -64
2023-01-22 00:17:53 GMT 54.374771 -4.065749 20,000 143 422 -64
2023-01-22 00:17:52 GMT 54.377930 -4.069708 20,000 143 422 -64
2023-01-22 00:17:50 GMT 54.379486 -4.071646 20,000 143 422 -64
2023-01-22 00:17:49 GMT 54.381088 -4.073666 20,000 143 422 -64
2023-01-22 00:17:48 GMT 54.384201 -4.077624 20,000 143 422 -64
2023-01-22 00:17:46 GMT 54.385803 -4.079563 20,000 143 422 -64
2023-01-22 00:17:45 GMT 54.387211 -4.081338 20,000 143 421 0
2023-01-22 00:17:44 GMT 54.388596 -4.083117 20,000 143 421 0
2023-01-22 00:17:42 GMT 54.391754 -4.087076 20,000 143 421 -64
2023-01-22 00:17:41 GMT 54.393311 -4.089095 20,000 143 421 0
2023-01-22 00:17:39 GMT 54.396423 -4.093053 20,000 143 421 0
2023-01-22 00:17:38 GMT 54.397659 -4.094588 19,975 143 421 0
2023-01-22 00:17:37 GMT 54.399857 -4.097416 19,975 143 421 0
2023-01-22 00:17:35 GMT 54.402695 -4.100970 20,000 143 420 64
2023-01-22 00:17:34 GMT 54.404064 -4.102728 19,975 143 420 64
2023-01-22 00:17:32 GMT 54.409241 -4.109291 20,000 143 420 -64
2023-01-22 00:17:29 GMT 54.411713 -4.112441 20,000 143 419 -64
2023-01-22 00:17:27 GMT 54.415005 -4.116627 20,000 143 419 0
2023-01-22 00:17:26 GMT 54.416702 -4.118823 20,000 143 419 0
2023-01-22 00:17:25 GMT 54.417938 -4.120358 19,975 143 419 -64
2023-01-22 00:17:24 GMT 54.421692 -4.125124 20,000 143 419 0
2023-01-22 00:17:22 GMT 54.423248 -4.127143 19,975 143 419 0
2023-01-22 00:17:21 GMT 54.424805 -4.129082 20,000 143 418 -64
2023-01-22 00:17:20 GMT 54.426502 -4.131276 20,000 143 418 0
2023-01-22 00:17:18 GMT 54.429016 -4.134438 20,000 143 418 64
2023-01-22 00:17:17 GMT 54.430553 -4.136436 19,975 143 418 64
2023-01-22 00:17:15 GMT 54.433670 -4.140348 20,000 143 418 0
2023-01-22 00:17:14 GMT 54.435207 -4.142345 19,975 143 418 64
2023-01-22 00:17:12 GMT 54.438766 -4.146935 19,975 143 418 0
2023-01-22 00:17:11 GMT 54.441727 -4.150668 19,975 143 419 0
2023-01-22 00:17:09 GMT 54.443260 -4.152666 20,000 143 419 -64
2023-01-22 00:17:07 GMT 54.446228 -4.156386 19,975 143 419 -64
2023-01-22 00:17:06 GMT 54.448105 -4.158810 20,000 143 419 -64
2023-01-22 00:17:05 GMT 54.449497 -4.160572 20,000 143 419 -64
2023-01-22 00:17:04 GMT 54.452454 -4.164303 20,000 143 419 -64
2023-01-22 00:17:02 GMT 54.453876 -4.166066 20,000 143 419 -64
2023-01-22 00:17:01 GMT 54.455410 -4.168063 19,975 143 419 0
2023-01-22 00:17:00 GMT 54.457123 -4.170281 19,975 143 419 0
2023-01-22 00:16:59 GMT 54.460236 -4.174158 20,000 143 419 -64
2023-01-22 00:16:57 GMT 54.461651 -4.175970 19,975 143 419 0
2023-01-22 00:16:56 GMT 54.463512 -4.178300 20,000 143 419 -64
2023-01-22 00:16:54 GMT 54.466782 -4.182479 20,000 143 419 -64
2023-01-22 00:16:53 GMT 54.468491 -4.184626 20,000 143 419 -64
2023-01-22 00:16:51 GMT 54.470074 -4.186623 20,000 143 419 -64
2023-01-22 00:16:50 GMT 54.472588 -4.189703 20,000 143 419 -64
2023-01-22 00:16:49 GMT 54.474125 -4.191700 20,000 143 419 -64
2023-01-22 00:16:47 GMT 54.477722 -4.196212 20,000 143 419 -64
2023-01-22 00:16:46 GMT 54.479279 -4.198231 20,000 143 419 -128
2023-01-22 00:16:44 GMT 54.482552 -4.202354 20,000 143 419 -64
2023-01-22 00:16:43 GMT 54.483761 -4.203935 20,000 143 419 -64
2023-01-22 00:16:41 GMT 54.486740 -4.207683 20,000 143 419 -64
2023-01-22 00:16:40 GMT 54.488297 -4.209702 20,000 143 418 -64
2023-01-22 00:16:38 GMT 54.491409 -4.213661 20,000 143 419 -64
2023-01-22 00:16:37 GMT 54.494328 -4.217418 20,000 143 418 -64
2023-01-22 00:16:35 GMT 54.495865 -4.219416 20,000 143 417 0
2023-01-22 00:16:34 GMT 54.498055 -4.222162 20,000 143 417 64
2023-01-22 00:16:33 GMT 54.500519 -4.225408 20,000 142 417 64
2023-01-22 00:16:30 GMT 54.505455 -4.231734 20,000 142 416 128
2023-01-22 00:16:28 GMT 54.507111 -4.233937 19,975 142 416 128
2023-01-22 00:16:27 GMT 54.508667 -4.235957 19,975 142 416 128
2023-01-22 00:16:26 GMT 54.511879 -4.240140 20,000 142 415 0
2023-01-22 00:16:23 GMT 54.514301 -4.243386 19,975 142 415 64
2023-01-22 00:16:21 GMT 54.517372 -4.247298 19,975 142 414 128
2023-01-22 00:16:19 GMT 54.520447 -4.251293 19,975 142 414 64
2023-01-22 00:16:18 GMT 54.524231 -4.256233 19,975 143 414 64
2023-01-22 00:16:16 GMT 54.525787 -4.258252 19,975 143 414 64
2023-01-22 00:16:15 GMT 54.527298 -4.260191 19,975 143 414 64
2023-01-22 00:16:13 GMT 54.529613 -4.263195 19,975 143 414 64
2023-01-22 00:16:12 GMT 54.531601 -4.265765 19,975 143 415 64
2023-01-22 00:16:11 GMT 54.533112 -4.267704 19,975 143 415 64
2023-01-22 00:16:10 GMT 54.536320 -4.271851 19,975 143 415 64
2023-01-22 00:16:07 GMT 54.539391 -4.275846 19,975 143 415 64
2023-01-22 00:16:05 GMT 54.543549 -4.281114 19,975 143 416 64
2023-01-22 00:16:03 GMT 54.544930 -4.282920 19,975 143 416 64
2023-01-22 00:16:02 GMT 54.547256 -4.285880 19,975 143 416 64
2023-01-22 00:16:01 GMT 54.550049 -4.289434 19,975 143 416 0
2023-01-22 00:15:59 GMT 54.551880 -4.291777 19,975 143 416 0
2023-01-22 00:15:58 GMT 54.553116 -4.293392 19,975 143 417 -64
2023-01-22 00:15:56 GMT 54.556229 -4.297270 19,975 143 418 0
2023-01-22 00:15:55 GMT 54.557964 -4.299483 19,975 143 418 0
2023-01-22 00:15:54 GMT 54.559502 -4.301480 19,975 143 419 0
2023-01-22 00:15:52 GMT 54.562622 -4.305392 19,975 143 419 -64
2023-01-22 00:15:51 GMT 54.563877 -4.306974 19,975 143 420 -64
2023-01-22 00:15:50 GMT 54.565567 -4.309145 19,975 143 420 -64
2023-01-22 00:15:48 GMT 54.568726 -4.313103 19,975 143 422 -64
2023-01-22 00:15:47 GMT 54.571095 -4.316046 19,975 143 422 -64
2023-01-22 00:15:44 GMT 54.574863 -4.320873 19,975 143 424 -128
2023-01-22 00:15:43 GMT 54.576447 -4.322870 19,975 143 424 -128
2023-01-22 00:15:42 GMT 54.581635 -4.329421 20,000 143 426 -192
2023-01-22 00:15:40 GMT 54.581635 -4.329421 20,000 143 426 -192
2023-01-22 00:15:38 GMT 54.587524 -4.336853 20,000 143 427 -192
2023-01-22 00:15:36 GMT 54.587524 -4.336853 20,000 143 427 -192
2023-01-22 00:15:35 GMT 54.589108 -4.338851 20,000 143 428 -192
2023-01-22 00:15:33 GMT 54.591522 -4.341862 20,000 143 428 -192
2023-01-22 00:15:32 GMT 54.593300 -4.344094 20,000 143 429 -192
2023-01-22 00:15:31 GMT 54.594727 -4.345901 20,000 143 430 -128
2023-01-22 00:15:29 GMT 54.598095 -4.350170 20,000 143 431 -128
2023-01-22 00:15:28 GMT 54.600174 -4.352767 20,000 143 431 -64
2023-01-22 00:15:27 GMT 54.601585 -4.354581 20,000 143 431 -64
2023-01-22 00:15:25 GMT 54.604797 -4.358659 20,000 143 431 -64
2023-01-22 00:15:24 GMT 54.606426 -4.360740 20,000 143 431 0
2023-01-22 00:15:23 GMT 54.608009 -4.362821 20,000 143 431 0
2023-01-22 00:15:22 GMT 54.610703 -4.366258 20,000 143 431 0
2023-01-22 00:15:20 GMT 54.613129 -4.369396 20,000 143 431 64
2023-01-22 00:15:19 GMT 54.614548 -4.371185 20,000 143 431 64
2023-01-22 00:15:18 GMT 54.615971 -4.373058 20,000 143 431 0
2023-01-22 00:15:15 GMT 54.620766 -4.379217 20,000 143 430 64
2023-01-22 00:15:14 GMT 54.623795 -4.383141 19,975 143 430 64
2023-01-22 00:15:12 GMT 54.625233 -4.384960 19,975 143 430 64
2023-01-22 00:15:11 GMT 54.627422 -4.387873 19,975 143 430 64
2023-01-22 00:15:10 GMT 54.628876 -4.389684 19,975 143 429 0
2023-01-22 00:15:08 GMT 54.632034 -4.393804 19,975 143 429 0
2023-01-22 00:15:07 GMT 54.633636 -4.395905 19,975 143 429 0
2023-01-22 00:15:06 GMT 54.636967 -4.400191 19,975 143 430 -64
2023-01-22 00:15:04 GMT 54.637756 -4.401236 20,000 143 430 -64
2023-01-22 00:15:03 GMT 54.639481 -4.403437 19,975 143 429 -64
2023-01-22 00:15:02 GMT 54.641235 -4.405679 19,975 143 429 -64
2023-01-22 00:15:00 GMT 54.644440 -4.409799 20,000 143 429 0
2023-01-22 00:14:59 GMT 54.645855 -4.411677 19,975 143 429 -64
2023-01-22 00:14:58 GMT 54.647438 -4.413674 19,975 143 429 -64
2023-01-22 00:14:57 GMT 54.649021 -4.415755 19,975 143 429 -64
2023-01-22 00:14:56 GMT 54.652359 -4.420058 20,000 143 430 -64
2023-01-22 00:14:54 GMT 54.653816 -4.421914 20,000 143 430 -64
2023-01-22 00:14:53 GMT 54.657307 -4.426408 20,000 143 430 0
2023-01-22 00:14:51 GMT 54.658722 -4.428217 20,000 143 430 -64
2023-01-22 00:14:49 GMT 54.661125 -4.431319 20,000 143 430 -64
2023-01-22 00:14:48 GMT 54.665596 -4.437062 20,000 143 431 0
2023-01-22 00:14:44 GMT 54.669739 -4.442472 20,000 143 432 0
2023-01-22 00:14:42 GMT 54.673553 -4.447382 19,975 143 432 -64
2023-01-22 00:14:41 GMT 54.675018 -4.449221 20,000 143 432 -64
2023-01-22 00:14:40 GMT 54.676765 -4.451460 20,000 143 432 -64
2023-01-22 00:14:38 GMT 54.679825 -4.455441 20,000 143 432 -64
2023-01-22 00:14:37 GMT 54.681427 -4.457460 20,000 143 433 0
2023-01-22 00:14:35 GMT 54.684120 -4.460949 19,975 143 433 0
2023-01-22 00:14:33 GMT 54.687660 -4.465526 19,975 143 433 0
2023-01-22 00:14:32 GMT 54.689243 -4.467524 19,975 143 432 -64
2023-01-22 00:14:31 GMT 54.690872 -4.469604 19,975 143 432 -64
2023-01-22 00:14:29 GMT 54.693878 -4.473536 19,975 143 432 0
2023-01-22 00:14:28 GMT 54.695667 -4.475763 20,000 143 432 -64
2023-01-22 00:14:26 GMT 54.698879 -4.479925 20,000 143 432 -64
2023-01-22 00:14:25 GMT 54.700333 -4.481776 20,000 143 432 -64
2023-01-22 00:14:24 GMT 54.701935 -4.483795 20,000 143 432 -64
2023-01-22 00:14:23 GMT 54.703537 -4.485895 20,000 143 432 -64
2023-01-22 00:14:20 GMT 54.708664 -4.492439 20,000 143 432 -64
2023-01-22 00:14:18 GMT 54.715218 -4.500899 20,000 143 432 0
2023-01-22 00:14:16 GMT 54.715218 -4.500899 20,000 143 432 64
2023-01-22 00:14:15 GMT 54.716801 -4.502896 20,000 143 431 64
2023-01-22 00:14:13 GMT 54.720013 -4.507058 20,000 143 431 0
2023-01-22 00:14:11 GMT 54.723179 -4.511219 20,000 143 431 64
2023-01-22 00:14:10 GMT 54.724915 -4.513442 20,000 143 430 64
2023-01-22 00:14:07 GMT 54.729233 -4.519043 20,000 143 430 0
2023-01-22 00:14:05 GMT 54.732395 -4.523204 20,000 143 430 0
2023-01-22 00:14:04 GMT 54.733978 -4.525202 20,000 142 429 0
2023-01-22 00:14:02 GMT 54.737320 -4.529518 20,000 143 429 64
2023-01-22 00:14:00 GMT 54.740311 -4.533442 19,975 143 429 64
2023-01-22 00:13:59 GMT 54.741894 -4.535522 19,975 143 429 64
2023-01-22 00:13:57 GMT 54.745384 -4.540100 19,975 142 428 64
2023-01-22 00:13:56 GMT 54.748550 -4.544178 19,975 142 428 64
2023-01-22 00:13:53 GMT 54.751064 -4.547508 19,975 142 428 64
2023-01-22 00:13:52 GMT 54.753479 -4.550521 19,975 143 427 0
2023-01-22 00:13:51 GMT 54.754715 -4.552217 19,975 143 427 0
2023-01-22 00:13:50 GMT 54.756638 -4.554641 19,975 143 427 0
2023-01-22 00:13:49 GMT 54.758194 -4.556741 19,975 143 427 -64
2023-01-22 00:13:48 GMT 54.760887 -4.560158 19,975 143 427 -64
2023-01-22 00:13:45 GMT 54.763870 -4.564092 20,000 143 427 -64
2023-01-22 00:13:44 GMT 54.767220 -4.568398 20,000 143 427 -64
2023-01-22 00:13:42 GMT 54.768951 -4.570716 20,000 143 427 -64
2023-01-22 00:13:41 GMT 54.770336 -4.572560 20,000 143 427 -64
2023-01-22 00:13:40 GMT 54.773666 -4.576856 20,000 142 428 -64
2023-01-22 00:13:38 GMT 54.775410 -4.579135 20,000 142 428 -64
2023-01-22 00:13:37 GMT 54.776825 -4.580976 20,000 142 428 0
2023-01-22 00:13:36 GMT 54.779835 -4.584878 20,000 142 428 0
2023-01-22 00:13:34 GMT 54.781265 -4.586711 20,000 142 428 -64
2023-01-22 00:13:32 GMT 54.785065 -4.591639 20,000 143 429 -64
2023-01-22 00:13:31 GMT 54.786491 -4.593534 20,000 143 429 -64
2023-01-22 00:13:30 GMT 54.787903 -4.595355 20,000 143 429 -64
2023-01-22 00:13:29 GMT 54.790913 -4.599276 20,000 143 429 0
2023-01-22 00:13:27 GMT 54.792496 -4.601357 20,000 143 429 0
2023-01-22 00:13:26 GMT 54.794079 -4.603438 20,000 143 429 0
2023-01-22 00:13:25 GMT 54.797424 -4.607714 20,000 143 430 0
2023-01-22 00:13:23 GMT 54.799301 -4.610219 20,000 143 430 64
2023-01-22 00:13:22 GMT 54.800583 -4.611834 20,000 143 430 0
2023-01-22 00:13:21 GMT 54.803741 -4.615954 20,000 143 430 0
2023-01-22 00:13:19 GMT 54.805206 -4.617837 20,000 143 430 0
2023-01-22 00:13:18 GMT 54.806789 -4.619917 20,000 143 430 0
2023-01-22 00:13:17 GMT 54.809021 -4.622830 19,975 143 430 0
2023-01-22 00:13:15 GMT 54.812027 -4.626698 19,975 143 431 64
2023-01-22 00:13:14 GMT 54.813442 -4.628573 19,975 143 431 64
2023-01-22 00:13:13 GMT 54.815075 -4.630654 19,975 143 431 64
2023-01-22 00:13:11 GMT 54.818436 -4.635019 19,975 143 432 64
2023-01-22 00:13:10 GMT 54.819992 -4.637038 19,975 143 432 64
2023-01-22 00:13:09 GMT 54.821777 -4.639310 19,975 143 432 64
2023-01-22 00:13:07 GMT 54.824013 -4.642223 19,975 143 433 64
2023-01-22 00:13:06 GMT 54.825760 -4.644470 19,975 143 433 0
2023-01-22 00:13:05 GMT 54.828964 -4.648671 19,975 143 433 64
2023-01-22 00:13:03 GMT 54.830437 -4.650546 19,975 143 433 64
2023-01-22 00:13:02 GMT 54.832020 -4.652627 19,975 143 434 -64
2023-01-22 00:13:00 GMT 54.835693 -4.657395 19,975 143 434 -64
2023-01-22 00:12:59 GMT 54.837296 -4.659415 19,975 143 434 64
2023-01-22 00:12:58 GMT 54.839096 -4.661699 19,975 143 435 64
2023-01-22 00:12:57 GMT 54.841656 -4.665028 19,975 143 435 -64
2023-01-22 00:12:55 GMT 54.843430 -4.667331 19,975 143 435 -64
2023-01-22 00:12:54 GMT 54.844868 -4.669189 19,975 143 436 -64
2023-01-22 00:12:53 GMT 54.848282 -4.673632 19,975 143 437 -64
2023-01-22 00:12:51 GMT 54.849884 -4.675733 19,975 143 438 -64
2023-01-22 00:12:50 GMT 54.851665 -4.678012 19,975 143 438 -64
2023-01-22 00:12:48 GMT 54.854923 -4.682173 20,000 143 438 0
2023-01-22 00:12:47 GMT 54.856705 -4.684538 19,975 143 439 0
2023-01-22 00:12:46 GMT 54.858505 -4.686834 19,975 143 440 -64
2023-01-22 00:12:44 GMT 54.861923 -4.691243 19,975 143 441 -128
2023-01-22 00:12:43 GMT 54.863396 -4.693160 19,975 143 441 -128
2023-01-22 00:12:41 GMT 54.866501 -4.697140 19,975 143 441 -64
2023-01-22 00:12:39 GMT 54.869911 -4.701566 19,975 143 442 -64
2023-01-22 00:12:38 GMT 54.871399 -4.703441 20,000 143 442 -64
2023-01-22 00:12:36 GMT 54.874695 -4.707722 20,000 143 443 -128
2023-01-22 00:12:35 GMT 54.876148 -4.709556 20,000 143 443 -128
2023-01-22 00:12:34 GMT 54.877453 -4.711304 20,000 143 443 -128
2023-01-22 00:12:32 GMT 54.881241 -4.716124 20,000 143 445 -128
2023-01-22 00:12:31 GMT 54.882759 -4.718045 20,000 143 445 -128
2023-01-22 00:12:30 GMT 54.887695 -4.724454 20,000 143 445 -128
2023-01-22 00:12:28 GMT 54.887695 -4.724454 20,000 143 445 -128
2023-01-22 00:12:27 GMT 54.889324 -4.726618 20,000 143 446 -128
2023-01-22 00:12:25 GMT 54.892776 -4.731149 20,000 143 446 -128
2023-01-22 00:12:24 GMT 54.894424 -4.733249 20,000 143 447 -64
2023-01-22 00:12:23 GMT 54.896072 -4.735431 20,000 143 447 -64
2023-01-22 00:12:22 GMT 54.897766 -4.737531 20,000 143 447 0
2023-01-22 00:12:21 GMT 54.899414 -4.739712 20,000 143 447 -64
2023-01-22 00:12:18 GMT 54.904175 -4.746011 20,000 143 447 -64
2023-01-22 00:12:17 GMT 54.905640 -4.747952 20,000 143 447 -64
2023-01-22 00:12:16 GMT 54.911270 -4.755222 20,000 143 447 -64
2023-01-22 00:12:14 GMT 54.911270 -4.755222 20,000 142 446 -64
2023-01-22 00:12:12 GMT 54.913067 -4.757579 20,000 142 446 -64
2023-01-22 00:12:11 GMT 54.915527 -4.760877 20,000 142 446 128
2023-01-22 00:12:09 GMT 54.918823 -4.765158 20,000 142 445 64
2023-01-22 00:12:07 GMT 54.922283 -4.769731 20,000 142 445 64
2023-01-22 00:12:06 GMT 54.923912 -4.771895 20,000 142 445 128
2023-01-22 00:12:05 GMT 54.925735 -4.774206 19,975 142 445 128
2023-01-22 00:12:03 GMT 54.928665 -4.778083 19,975 142 445 128
2023-01-22 00:12:02 GMT 54.933609 -4.784627 20,000 142 445 128
2023-01-22 00:12:00 GMT 54.933609 -4.784627 19,975 142 444 128
2023-01-22 00:11:58 GMT 54.939148 -4.791897 19,975 142 444 128
2023-01-22 00:11:56 GMT 54.940624 -4.793868 19,975 142 444 128
2023-01-22 00:11:55 GMT 54.942253 -4.796032 19,975 142 444 128
2023-01-22 00:11:54 GMT 54.943726 -4.797956 19,975 143 445 64
2023-01-22 00:11:53 GMT 54.946701 -4.801752 19,975 143 445 64
2023-01-22 00:11:51 GMT 54.948349 -4.803934 19,975 143 445 0
2023-01-22 00:11:50 GMT 54.950638 -4.806922 19,975 143 445 64
2023-01-22 00:11:49 GMT 54.953934 -4.811204 19,975 143 446 0
2023-01-22 00:11:46 GMT 54.956734 -4.814925 19,975 143 446 64
2023-01-22 00:11:44 GMT 54.960205 -4.819363 19,975 143 447 -64
2023-01-22 00:11:43 GMT 54.961853 -4.821544 19,975 143 447 0
2023-01-22 00:11:42 GMT 54.963669 -4.823914 19,975 143 447 0
2023-01-22 00:11:40 GMT 54.966972 -4.828242 19,975 143 447 -64
2023-01-22 00:11:38 GMT 54.970280 -4.832486 19,975 143 448 0
2023-01-22 00:11:37 GMT 54.971786 -4.834469 19,975 143 448 0
2023-01-22 00:11:36 GMT 54.975082 -4.838751 19,975 143 449 0
2023-01-22 00:11:34 GMT 54.976730 -4.840932 19,975 143 449 64
2023-01-22 00:11:32 GMT 54.979916 -4.845054 19,975 142 449 64
2023-01-22 00:11:30 GMT 54.983734 -4.850060 19,975 143 450 0
2023-01-22 00:11:29 GMT 54.985382 -4.852241 19,975 143 450 64
2023-01-22 00:11:27 GMT 54.988037 -4.855715 19,975 143 450 64
2023-01-22 00:11:26 GMT 54.989685 -4.857896 19,975 143 451 64
2023-01-22 00:11:24 GMT 54.993183 -4.862532 19,975 143 451 -64
2023-01-22 00:11:23 GMT 54.997185 -4.867692 19,975 143 452 -64
2023-01-22 00:11:21 GMT 54.998703 -4.869690 19,975 143 452 -64
2023-01-22 00:11:19 GMT 55.002213 -4.874268 19,975 143 453 -128
2023-01-22 00:11:18 GMT 55.005386 -4.878414 19,975 143 454 -128
2023-01-22 00:11:16 GMT 55.006916 -4.880427 20,000 143 454 -128
2023-01-22 00:11:14 GMT 55.009415 -4.883665 20,000 143 454 -128
2023-01-22 00:11:13 GMT 55.011108 -4.885846 20,000 143 455 -128
2023-01-22 00:11:12 GMT 55.012756 -4.888108 20,000 143 455 -128
2023-01-22 00:11:11 GMT 55.014645 -4.890497 19,975 143 455 -64
2023-01-22 00:11:09 GMT 55.017838 -4.894652 19,975 143 455 -64
2023-01-22 00:11:08 GMT 55.019672 -4.897073 19,975 143 455 -64
2023-01-22 00:11:07 GMT 55.023193 -4.901680 20,000 143 455 -64
2023-01-22 00:11:05 GMT 55.024887 -4.903861 20,000 143 455 -64
2023-01-22 00:11:04 GMT 55.026421 -4.905812 20,000 143 457 -64
2023-01-22 00:11:03 GMT 55.028095 -4.908059 20,000 143 457 -64
2023-01-22 00:11:00 GMT 55.033173 -4.914634 20,000 143 457 -64
2023-01-22 00:10:59 GMT 55.036697 -4.919290 19,975 143 456 -64
2023-01-22 00:10:57 GMT 55.038391 -4.921471 20,000 143 457 0
2023-01-22 00:10:56 GMT 55.040085 -4.923652 19,975 143 457 0
2023-01-22 00:10:53 GMT 55.045486 -4.930761 20,000 143 457 -64
2023-01-22 00:10:52 GMT 55.047180 -4.932942 20,000 143 457 -64
2023-01-22 00:10:51 GMT 55.048874 -4.935204 20,000 142 457 -64
2023-01-22 00:10:49 GMT 55.051373 -4.938521 20,000 142 456 -64
2023-01-22 00:10:48 GMT 55.053745 -4.941600 20,000 142 456 -64
2023-01-22 00:10:47 GMT 55.057098 -4.946012 20,000 142 456 -64
2023-01-22 00:10:45 GMT 55.058624 -4.948048 20,000 142 456 -64
2023-01-22 00:10:43 GMT 55.062126 -4.952753 19,975 142 456 -64
2023-01-22 00:10:41 GMT 55.065674 -4.957419 20,000 142 456 -128
2023-01-22 00:10:40 GMT 55.067154 -4.959412 20,000 142 456 -128
2023-01-22 00:10:39 GMT 55.070663 -4.964043 20,000 142 456 -64
2023-01-22 00:10:37 GMT 55.072357 -4.966305 20,000 142 456 -64
2023-01-22 00:10:35 GMT 55.078720 -4.974787 20,000 142 455 -64
2023-01-22 00:10:33 GMT 55.078720 -4.974787 20,000 142 455 -64
2023-01-22 00:10:32 GMT 55.080235 -4.976807 20,000 142 455 -128
2023-01-22 00:10:31 GMT 55.084076 -4.981896 20,000 142 455 -64
2023-01-22 00:10:29 GMT 55.085724 -4.984077 20,000 142 455 0
2023-01-22 00:10:28 GMT 55.087265 -4.986128 20,000 142 455 0
2023-01-22 00:10:27 GMT 55.090439 -4.990378 20,000 142 455 -64
2023-01-22 00:10:25 GMT 55.092407 -4.993044 20,000 142 455 -64
2023-01-22 00:10:24 GMT 55.093922 -4.995034 20,000 142 454 0
2023-01-22 00:10:21 GMT 55.098904 -5.001692 20,000 142 454 0
2023-01-22 00:10:20 GMT 55.100578 -5.003940 20,000 142 453 64
2023-01-22 00:10:19 GMT 55.102707 -5.006857 20,000 142 453 64
2023-01-22 00:10:17 GMT 55.105885 -5.011097 20,000 142 453 64
2023-01-22 00:10:15 GMT 55.109192 -5.015508 20,000 142 452 64
2023-01-22 00:10:13 GMT 55.111679 -5.018894 20,000 142 452 64
2023-01-22 00:10:12 GMT 55.113968 -5.022044 20,000 142 452 64
2023-01-22 00:10:11 GMT 55.115803 -5.024497 20,000 142 452 64
2023-01-22 00:10:08 GMT 55.120605 -5.030930 20,000 142 453 64
2023-01-22 00:10:07 GMT 55.122253 -5.033192 20,000 142 453 64
2023-01-22 00:10:06 GMT 55.124741 -5.036566 20,000 142 453 64
2023-01-22 00:10:04 GMT 55.127563 -5.040382 20,000 142 453 64
2023-01-22 00:10:02 GMT 55.131180 -5.045229 20,000 142 454 128
2023-01-22 00:10:01 GMT 55.132000 -5.046387 20,000 142 454 128
2023-01-22 00:10:00 GMT 55.134655 -5.049966 20,000 142 454 128
2023-01-22 00:09:59 GMT 55.135307 -5.050881 20,000 142 454 128
2023-01-22 00:09:57 GMT 55.138657 -5.055376 19,975 142 454 192
2023-01-22 00:09:56 GMT 55.140472 -5.057831 19,975 142 454 192
2023-01-22 00:09:55 GMT 55.142288 -5.060286 19,975 142 454 192
2023-01-22 00:09:52 GMT 55.147476 -5.067202 19,975 142 455 192
2023-01-22 00:09:51 GMT 55.149124 -5.069463 19,975 142 456 192
2023-01-22 00:09:50 GMT 55.152466 -5.073906 19,975 142 457 192
2023-01-22 00:09:47 GMT 55.155975 -5.078597 19,975 142 458 128
2023-01-22 00:09:44 GMT 55.161049 -5.085338 19,975 142 459 0
2023-01-22 00:09:43 GMT 55.162727 -5.087585 19,975 142 460 -64
2023-01-22 00:09:42 GMT 55.164402 -5.089833 19,975 142 460 -128
2023-01-22 00:09:40 GMT 55.167801 -5.094327 19,975 142 461 -192
2023-01-22 00:09:38 GMT 55.172546 -5.100653 20,000 142 462 -384
2023-01-22 00:09:36 GMT 55.174923 -5.103815 20,000 142 463 -448
2023-01-22 00:09:35 GMT 55.176453 -5.105896 20,000 142 463 -576
2023-01-22 00:09:33 GMT 55.179840 -5.110420 20,025 142 464 -640
2023-01-22 00:09:32 GMT 55.180695 -5.111556 20,025 142 464 -704
2023-01-22 00:09:31 GMT 55.182953 -5.114459 20,050 142 464 -704
2023-01-22 00:09:30 GMT 55.186516 -5.119213 20,075 142 465 -832
2023-01-22 00:09:28 GMT 55.188400 -5.121729 20,075 142 466 -960
2023-01-22 00:09:27 GMT 55.189262 -5.122875 20,100 142 466 -1024
2023-01-22 00:09:25 GMT 55.193527 -5.128515 20,150 142 466 -1216
2023-01-22 00:09:24 GMT 55.195080 -5.130615 20,175 142 466 -1280
2023-01-22 00:09:23 GMT 55.196800 -5.132862 20,200 142 467 -1344
2023-01-22 00:09:21 GMT 55.200249 -5.137440 20,225 142 468 -1472
2023-01-22 00:09:20 GMT 55.201969 -5.139687 20,275 142 469 -1536
2023-01-22 00:09:19 GMT 55.203693 -5.142018 20,275 142 469 -1600
2023-01-22 00:09:17 GMT 55.206486 -5.145597 20,325 142 469 -1664
2023-01-22 00:09:16 GMT 55.210098 -5.150407 20,375 142 470 -1728
2023-01-22 00:09:14 GMT 55.212524 -5.153638 20,425 142 471 -1792
2023-01-22 00:09:13 GMT 55.214073 -5.155751 20,450 142 471 -1792
2023-01-22 00:09:11 GMT 55.217564 -5.160328 20,525 142 471 -1856
2023-01-22 00:09:09 GMT 55.220856 -5.164705 20,575 142 472 -1920
2023-01-22 00:09:08 GMT 55.225708 -5.171168 20,625 142 473 -1920
2023-01-22 00:09:06 GMT 55.225708 -5.171168 20,675 142 473 -1920
2023-01-22 00:09:05 GMT 55.229015 -5.175559 20,725 142 473 -1984
2023-01-22 00:09:02 GMT 55.232346 -5.179973 20,800 142 474 -2112
2023-01-22 00:09:01 GMT 55.236145 -5.185143 20,875 142 475 -2240
2023-01-22 00:08:59 GMT 55.237518 -5.187001 20,875 142 475 -2304
2023-01-22 00:08:58 GMT 55.239445 -5.189542 20,925 142 475 -2304
2023-01-22 00:08:57 GMT 55.242737 -5.194029 21,025 142 475 -2304
2023-01-22 00:08:55 GMT 55.245209 -5.197260 21,050 142 475 -2368
2023-01-22 00:08:54 GMT 55.246948 -5.199603 21,100 142 475 -2368
2023-01-22 00:08:53 GMT 55.248474 -5.201693 21,150 142 475 -2368
2023-01-22 00:08:52 GMT 55.250061 -5.203804 21,175 142 475 -2368
2023-01-22 00:08:50 GMT 55.253906 -5.208974 21,250 142 475 -2240
2023-01-22 00:08:49 GMT 55.255646 -5.211316 21,275 142 475 -2112
2023-01-22 00:08:47 GMT 55.259125 -5.216002 21,325 142 475 -2112
2023-01-22 00:08:46 GMT 55.260674 -5.218090 21,400 142 476 -1728
2023-01-22 00:08:44 GMT 55.266632 -5.226080 21,500 142 477 -1600
2023-01-22 00:08:41 GMT 55.270821 -5.231739 21,550 142 479 -1280
2023-01-22 00:08:38 GMT 55.275009 -5.237399 21,600 142 479 -1280
2023-01-22 00:08:36 GMT 55.277664 -5.240882 21,625 142 480 -1216
2023-01-22 00:08:35 GMT 55.280136 -5.244194 21,650 142 481 -1216
2023-01-22 00:08:34 GMT 55.282040 -5.246804 21,675 142 482 -1152
2023-01-22 00:08:33 GMT 55.283661 -5.248961 21,700 142 482 -1152
2023-01-22 00:08:32 GMT 55.288971 -5.256069 21,750 142 484 -1088
2023-01-22 00:08:30 GMT 55.288971 -5.256069 21,750 142 484 -1088
2023-01-22 00:08:29 GMT 55.294098 -5.263034 21,800 142 485 -960
2023-01-22 00:08:27 GMT 55.294098 -5.263034 21,800 142 486 -896
2023-01-22 00:08:26 GMT 55.295700 -5.265198 21,825 142 487 -896
2023-01-22 00:08:25 GMT 55.299450 -5.270192 21,850 142 488 -768
2023-01-22 00:08:23 GMT 55.301266 -5.272605 21,850 142 490 -768
2023-01-22 00:08:21 GMT 55.304104 -5.276434 21,875 142 490 -704
2023-01-22 00:08:20 GMT 55.306618 -5.279846 21,900 142 491 -704
2023-01-22 00:08:19 GMT 55.308243 -5.282000 21,900 142 492 -768
2023-01-22 00:08:18 GMT 55.310074 -5.284424 21,900 142 492 -768
2023-01-22 00:08:16 GMT 55.313690 -5.289271 21,925 142 493 -960
2023-01-22 00:08:15 GMT 55.315277 -5.291415 21,950 142 493 -1024
2023-01-22 00:08:14 GMT 55.317467 -5.294328 21,975 142 493 -1152
2023-01-22 00:08:11 GMT 55.321976 -5.300419 22,000 142 493 -1408
2023-01-22 00:08:10 GMT 55.326370 -5.306235 22,075 142 493 -1664
2023-01-22 00:08:08 GMT 55.328156 -5.308658 22,100 142 494 -1728
2023-01-22 00:08:07 GMT 55.329987 -5.311001 22,125 142 494 -1792
2023-01-22 00:08:06 GMT 55.331818 -5.313425 22,150 142 493 -1856
2023-01-22 00:08:05 GMT 55.335251 -5.318049 22,225 142 493 -1984
2023-01-22 00:08:03 GMT 55.337063 -5.320379 22,250 143 492 -1984
2023-01-22 00:08:02 GMT 55.338879 -5.322793 22,275 143 492 -2048
2023-01-22 00:08:01 GMT 55.340515 -5.324976 22,325 143 492 -2048
2023-01-22 00:08:00 GMT 55.342346 -5.327400 22,350 143 492 -2112
2023-01-22 00:07:58 GMT 55.346188 -5.332447 22,425 143 492 -2176
2023-01-22 00:07:57 GMT 55.348526 -5.335559 22,475 143 492 -2176
2023-01-22 00:07:56 GMT 55.352142 -5.340325 22,525 143 492 -2240
2023-01-22 00:07:53 GMT 55.355591 -5.344849 22,600 143 490 -2368
2023-01-22 00:07:52 GMT 55.358479 -5.348677 22,675 142 489 -2432
2023-01-22 00:07:49 GMT 55.363037 -5.354704 22,775 142 489 -2496
2023-01-22 00:07:48 GMT 55.366241 -5.358985 22,850 142 489 -2560
2023-01-22 00:07:46 GMT 55.367706 -5.360924 22,875 142 488 -2560
2023-01-22 00:07:45 GMT 55.369492 -5.363267 22,925 142 488 -2560
2023-01-22 00:07:44 GMT 55.375050 -5.370733 23,000 142 487 -2560
2023-01-22 00:07:42 GMT 55.375050 -5.370733 23,050 142 486 -2560
2023-01-22 00:07:41 GMT 55.375946 -5.371911 23,125 142 486 -2560
2023-01-22 00:07:39 GMT 55.379707 -5.376892 23,150 142 486 -2560
2023-01-22 00:07:38 GMT 55.381668 -5.379504 23,200 142 485 -2560
2023-01-22 00:07:37 GMT 55.383453 -5.381927 23,300 142 485 -2496
2023-01-22 00:07:36 GMT 55.385059 -5.384050 23,325 142 483 -2496
2023-01-22 00:07:34 GMT 55.388596 -5.388794 23,375 142 483 -2432
2023-01-22 00:07:33 GMT 55.390411 -5.391208 23,400 142 483 -2432
2023-01-22 00:07:32 GMT 55.392334 -5.393802 23,500 142 483 -2368
2023-01-22 00:07:31 GMT 55.395721 -5.398282 23,500 142 482 -2304
2023-01-22 00:07:29 GMT 55.398186 -5.401611 23,550 142 481 -2176
2023-01-22 00:07:28 GMT 55.399796 -5.403739 23,600 142 481 -2112
2023-01-22 00:07:27 GMT 55.401535 -5.406081 23,650 142 480 -2112
2023-01-22 00:07:25 GMT 55.405262 -5.411100 23,675 142 480 -1984
2023-01-22 00:07:24 GMT 55.406658 -5.412931 23,750 142 480 -1856
2023-01-22 00:07:22 GMT 55.411057 -5.418845 23,825 142 478 -1664
2023-01-22 00:07:19 GMT 55.415829 -5.425249 23,900 142 478 -1344
2023-01-22 00:07:17 GMT 55.419525 -5.430154 23,925 142 478 -1088
2023-01-22 00:07:16 GMT 55.421089 -5.432240 23,950 142 478 -960
2023-01-22 00:07:15 GMT 55.423050 -5.434840 23,950 142 478 -768
2023-01-22 00:07:13 GMT 55.426895 -5.440010 23,975 142 478 -448
2023-01-22 00:07:11 GMT 55.429890 -5.444059 24,000 142 478 -192
2023-01-22 00:07:10 GMT 55.434078 -5.449718 24,000 142 478 -64
2023-01-22 00:07:07 GMT 55.435848 -5.452049 23,975 142 478 -64
2023-01-22 00:07:06 GMT 55.440735 -5.458624 23,975 142 478 0
2023-01-22 00:07:03 GMT 55.443901 -5.462866 23,975 142 478 0
2023-01-22 00:07:01 GMT 55.448090 -5.468531 23,975 142 478 -64
2023-01-22 00:07:00 GMT 55.449535 -5.470419 23,975 142 478 0
2023-01-22 00:06:59 GMT 55.453171 -5.475436 24,000 142 478 -64
2023-01-22 00:06:57 GMT 55.454956 -5.477767 24,000 142 478 -64
2023-01-22 00:06:56 GMT 55.456516 -5.479946 24,000 142 478 -64
2023-01-22 00:06:55 GMT 55.458286 -5.482264 24,000 142 478 -64
2023-01-22 00:06:54 GMT 55.461227 -5.486339 24,000 142 479 -64
2023-01-22 00:06:51 GMT 55.463871 -5.489902 24,000 142 479 -64
2023-01-22 00:06:50 GMT 55.466492 -5.493497 24,000 142 479 -64
2023-01-22 00:06:49 GMT 55.468433 -5.496082 24,000 142 479 -64
2023-01-22 00:06:48 GMT 55.470158 -5.498486 24,000 142 479 -64
2023-01-22 00:06:46 GMT 55.475601 -5.505815 24,000 142 479 -64
2023-01-22 00:06:44 GMT 55.477139 -5.508013 24,000 142 479 -64
2023-01-22 00:06:43 GMT 55.479446 -5.511058 24,000 142 479 -64
2023-01-22 00:06:42 GMT 55.482925 -5.515886 24,000 142 479 -64
2023-01-22 00:06:40 GMT 55.484867 -5.518484 24,000 142 479 0
2023-01-22 00:06:39 GMT 55.486404 -5.520630 23,975 142 479 0
2023-01-22 00:06:36 GMT 55.490780 -5.526552 24,000 142 479 0
2023-01-22 00:06:35 GMT 55.494461 -5.531533 24,000 142 478 64
2023-01-22 00:06:33 GMT 55.496201 -5.533947 24,000 142 478 64
2023-01-22 00:06:32 GMT 55.498135 -5.536594 24,000 142 478 64
2023-01-22 00:06:31 GMT 55.499859 -5.538998 24,000 142 478 0
2023-01-22 00:06:30 GMT 55.503204 -5.543518 24,000 142 478 0
2023-01-22 00:06:28 GMT 55.504944 -5.545932 24,000 142 478 0
2023-01-22 00:06:27 GMT 55.507214 -5.549040 24,000 142 478 64
2023-01-22 00:06:26 GMT 55.510704 -5.553761 23,975 142 478 0
2023-01-22 00:06:24 GMT 55.512268 -5.555919 23,975 142 478 0
2023-01-22 00:06:23 GMT 55.514008 -5.558333 24,000 142 478 0
2023-01-22 00:06:22 GMT 55.517487 -5.563077 24,000 142 478 0
2023-01-22 00:06:20 GMT 55.519409 -5.565777 23,975 142 478 64
2023-01-22 00:06:19 GMT 55.521179 -5.568180 24,000 142 478 64
2023-01-22 00:06:18 GMT 55.524670 -5.572901 23,975 142 479 64
2023-01-22 00:06:16 GMT 55.526596 -5.575562 23,975 142 479 64
2023-01-22 00:06:15 GMT 55.528160 -5.577707 23,975 142 479 64
2023-01-22 00:06:13 GMT 55.531651 -5.582514 23,975 142 479 64
2023-01-22 00:06:12 GMT 55.533234 -5.584717 23,975 142 479 64
2023-01-22 00:06:11 GMT 55.536541 -5.589209 23,975 142 478 64
2023-01-22 00:06:09 GMT 55.538261 -5.591612 23,975 142 478 64
2023-01-22 00:06:08 GMT 55.539825 -5.593789 23,975 142 478 64
2023-01-22 00:06:06 GMT 55.543350 -5.598533 23,975 142 479 64
2023-01-22 00:06:05 GMT 55.545246 -5.601225 23,975 142 479 64
2023-01-22 00:06:04 GMT 55.547016 -5.603628 23,975 142 479 0
2023-01-22 00:06:03 GMT 55.548569 -5.605774 23,975 142 479 0
2023-01-22 00:06:01 GMT 55.552094 -5.610518 23,975 142 479 64
2023-01-22 00:06:00 GMT 55.553997 -5.613155 23,975 142 479 64
2023-01-22 00:05:59 GMT 55.555939 -5.615761 23,975 142 480 0
2023-01-22 00:05:58 GMT 55.559418 -5.620589 23,975 141 480 0
2023-01-22 00:05:56 GMT 55.561352 -5.623283 23,975 141 480 64
2023-01-22 00:05:55 GMT 55.562897 -5.625499 23,975 140 480 64
2023-01-22 00:05:52 GMT 55.568024 -5.632907 23,975 139 481 0
2023-01-22 00:05:51 GMT 55.569717 -5.635487 23,975 139 482 -64
2023-01-22 00:05:49 GMT 55.573269 -5.640879 23,975 138 482 -64
2023-01-22 00:05:48 GMT 55.575073 -5.643810 23,975 137 483 -64
2023-01-22 00:05:47 GMT 55.578205 -5.648775 23,975 136 483 -64
2023-01-22 00:05:45 GMT 55.579697 -5.651217 24,000 136 484 -64
2023-01-22 00:05:44 GMT 55.582767 -5.656414 23,975 135 485 -64
2023-01-22 00:05:42 GMT 55.584229 -5.658875 23,975 135 485 -64
2023-01-22 00:05:40 GMT 55.587387 -5.664451 24,000 134 485 -64
2023-01-22 00:05:39 GMT 55.589100 -5.667572 24,000 133 486 -128
2023-01-22 00:05:38 GMT 55.590500 -5.670111 24,000 133 485 -128
2023-01-22 00:05:37 GMT 55.595123 -5.678766 24,000 132 486 -64
2023-01-22 00:05:35 GMT 55.595123 -5.678766 24,000 132 487 -64
2023-01-22 00:05:34 GMT 55.596954 -5.682345 24,000 131 487 -64
2023-01-22 00:05:32 GMT 55.599804 -5.687914 24,000 131 488 -64
2023-01-22 00:05:31 GMT 55.601295 -5.690918 24,000 130 487 -64
2023-01-22 00:05:30 GMT 55.604645 -5.697909 24,000 129 488 -64
2023-01-22 00:05:28 GMT 55.605515 -5.699740 24,000 129 489 -64
2023-01-22 00:05:27 GMT 55.607529 -5.703985 24,000 129 489 -64
2023-01-22 00:05:25 GMT 55.610367 -5.710227 24,000 128 489 0
2023-01-22 00:05:24 GMT 55.611908 -5.713663 24,000 127 490 -64
2023-01-22 00:05:23 GMT 55.612610 -5.715221 24,000 127 490 0
2023-01-22 00:05:20 GMT 55.616844 -5.725079 24,000 126 490 0
2023-01-22 00:05:18 GMT 55.619541 -5.731516 24,000 125 490 0
2023-01-22 00:05:16 GMT 55.622707 -5.739326 24,000 125 491 0
2023-01-22 00:05:15 GMT 55.624012 -5.742588 24,000 124 491 64
2023-01-22 00:05:13 GMT 55.627762 -5.752175 24,000 123 492 64
2023-01-22 00:05:11 GMT 55.628998 -5.755504 24,000 123 492 64
2023-01-22 00:05:10 GMT 55.630390 -5.759239 23,975 122 492 64
2023-01-22 00:05:08 GMT 55.632809 -5.766020 24,000 121 493 0
2023-01-22 00:05:06 GMT 55.636116 -5.775719 24,000 119 494 64
2023-01-22 00:05:04 GMT 55.637329 -5.779558 24,000 119 495 64
2023-01-22 00:05:03 GMT 55.638245 -5.782387 24,000 118 495 64
2023-01-22 00:05:01 GMT 55.640537 -5.789795 24,000 117 496 0
2023-01-22 00:05:00 GMT 55.641495 -5.793041 24,000 117 497 0
2023-01-22 00:04:58 GMT 55.645519 -5.807219 24,000 114 498 -64
2023-01-22 00:04:56 GMT 55.646576 -5.811268 24,000 114 499 -64
2023-01-22 00:04:54 GMT 55.647427 -5.814600 24,000 113 500 0
2023-01-22 00:04:52 GMT 55.649288 -5.822067 24,000 112 500 0
2023-01-22 00:04:51 GMT 55.650421 -5.826999 24,000 111 500 64
2023-01-22 00:04:50 GMT 55.651199 -5.830393 24,000 110 500 -64
2023-01-22 00:04:49 GMT 55.653763 -5.842230 24,000 110 501 -64
2023-01-22 00:04:47 GMT 55.653763 -5.842230 23,975 109 502 -64
2023-01-22 00:04:46 GMT 55.655251 -5.849533 23,975 108 502 -128
2023-01-22 00:04:44 GMT 55.655914 -5.853050 24,000 107 502 -128
2023-01-22 00:04:43 GMT 55.656551 -5.856571 23,975 107 503 -128
2023-01-22 00:04:41 GMT 55.657948 -5.864382 24,000 106 503 -256
2023-01-22 00:04:40 GMT 55.658707 -5.868697 24,000 105 503 -320
2023-01-22 00:04:39 GMT 55.659252 -5.872278 24,025 105 504 -384
2023-01-22 00:04:38 GMT 55.660538 -5.880599 24,025 104 505 -512
2023-01-22 00:04:36 GMT 55.661068 -5.884209 24,050 103 504 -576
2023-01-22 00:04:35 GMT 55.661625 -5.888243 24,050 102 505 -640
2023-01-22 00:04:34 GMT 55.662186 -5.892667 24,050 102 505 -704
2023-01-22 00:04:32 GMT 55.663284 -5.901572 24,075 101 506 -832
2023-01-22 00:04:31 GMT 55.663742 -5.905568 24,100 100 506 -832
2023-01-22 00:04:30 GMT 55.664139 -5.909271 24,100 100 506 -896
2023-01-22 00:04:28 GMT 55.664886 -5.916567 24,150 99 507 -1024
2023-01-22 00:04:27 GMT 55.665298 -5.921048 24,150 98 507 -1088
2023-01-22 00:04:26 GMT 55.665630 -5.924807 24,175 97 507 -1152
2023-01-22 00:04:24 GMT 55.666260 -5.933366 24,225 96 508 -1280
2023-01-22 00:04:23 GMT 55.666653 -5.938797 24,250 95 508 -1408
2023-01-22 00:04:22 GMT 55.667027 -5.945406 24,275 95 508 -1536
2023-01-22 00:04:19 GMT 55.667450 -5.953258 24,325 94 509 -1600
2023-01-22 00:04:18 GMT 55.667633 -5.957766 24,325 93 509 -1664
2023-01-22 00:04:17 GMT 55.667770 -5.961971 24,400 92 509 -1856
2023-01-22 00:04:15 GMT 55.668003 -5.970297 24,450 92 509 -1920
2023-01-22 00:04:14 GMT 55.668049 -5.974417 24,500 90 510 -2048
2023-01-22 00:04:13 GMT 55.668137 -5.983138 24,550 90 510 -2112
2023-01-22 00:04:11 GMT 55.668144 -5.986948 24,600 89 510 -2304
2023-01-22 00:04:10 GMT 55.668049 -5.995188 24,675 88 509 -2368
2023-01-22 00:04:08 GMT 55.668003 -5.999393 24,725 87 509 -2304
2023-01-22 00:04:07 GMT 55.667862 -6.003945 24,750 86 509 -2304
2023-01-22 00:04:06 GMT 55.667633 -6.012268 24,825 85 509 -2304
2023-01-22 00:04:04 GMT 55.667492 -6.016045 24,875 85 509 -2304
2023-01-22 00:04:03 GMT 55.667175 -6.022256 24,925 84 509 -2304
2023-01-22 00:04:01 GMT 55.666855 -6.028831 25,000 83 509 -2304
2023-01-22 00:04:00 GMT 55.666515 -6.034241 25,050 82 508 -2240
2023-01-22 00:03:59 GMT 55.666077 -6.040400 25,100 81 508 -2240
2023-01-22 00:03:57 GMT 55.665722 -6.044884 25,150 81 508 -2240
2023-01-22 00:03:56 GMT 55.665257 -6.050634 25,200 80 508 -2176
2023-01-22 00:03:55 GMT 55.664658 -6.056796 25,250 79 508 -2176
2023-01-22 00:03:52 GMT 55.663834 -6.064953 25,325 78 507 -2176
2023-01-22 00:03:51 GMT 55.662827 -6.073941 25,400 77 507 -2112
2023-01-22 00:03:49 GMT 55.662277 -6.078358 25,425 77 507 -2048
2023-01-22 00:03:48 GMT 55.661766 -6.082478 25,475 76 507 -1984
2023-01-22 00:03:46 GMT 55.660721 -6.090088 25,525 75 508 -1856
2023-01-22 00:03:44 GMT 55.658508 -6.104879 25,625 73 507 -1664
2023-01-22 00:03:42 GMT 55.658508 -6.104879 25,625 73 508 -1600
2023-01-22 00:03:41 GMT 55.657578 -6.110458 25,675 72 508 -1536
2023-01-22 00:03:40 GMT 55.656181 -6.118441 25,725 71 508 -1408
2023-01-22 00:03:38 GMT 55.655434 -6.122389 25,750 71 508 -1344
2023-01-22 00:03:37 GMT 55.654690 -6.126251 25,775 70 508 -1280
2023-01-22 00:03:36 GMT 55.653992 -6.129788 25,800 70 508 -1152
2023-01-22 00:03:34 GMT 55.652176 -6.138783 25,825 69 509 -1088
2023-01-22 00:03:33 GMT 55.651749 -6.140775 25,850 68 508 -1024
2023-01-22 00:03:31 GMT 55.649616 -6.150370 25,875 67 509 -896
2023-01-22 00:03:29 GMT 55.648357 -6.155777 25,900 66 510 -768
2023-01-22 00:03:27 GMT 55.646393 -6.163829 25,925 65 510 -640
2023-01-22 00:03:26 GMT 55.645519 -6.167192 25,925 64 510 -576
2023-01-22 00:03:25 GMT 55.644123 -6.172514 25,950 64 511 -512
2023-01-22 00:03:23 GMT 55.642262 -6.179295 25,975 63 511 -384
2023-01-22 00:03:22 GMT 55.641129 -6.183388 25,975 62 512 -320
2023-01-22 00:03:21 GMT 55.640167 -6.186762 25,975 62 512 -256
2023-01-22 00:03:20 GMT 55.638165 -6.193371 25,975 61 512 -128
2023-01-22 00:03:18 GMT 55.636459 -6.198869 25,975 60 513 -128
2023-01-22 00:03:17 GMT 55.635185 -6.202898 25,975 59 513 -192
2023-01-22 00:03:15 GMT 55.632809 -6.210108 25,975 58 514 -320
2023-01-22 00:03:13 GMT 55.631088 -6.215172 26,000 57 514 -384
2023-01-22 00:03:10 GMT 55.627270 -6.225815 26,025 56 514 -448
2023-01-22 00:03:08 GMT 55.624741 -6.232411 26,025 55 515 -512
2023-01-22 00:03:07 GMT 55.622818 -6.237238 26,050 54 516 -576
2023-01-22 00:03:06 GMT 55.621590 -6.240406 26,050 53 516 -640
2023-01-22 00:03:05 GMT 55.618927 -6.246810 26,075 52 516 -704
2023-01-22 00:03:02 GMT 55.616192 -6.253195 26,075 51 516 -832
2023-01-22 00:03:00 GMT 55.613113 -6.260126 26,125 50 515 -896
2023-01-22 00:02:59 GMT 55.611603 -6.263372 26,125 50 515 -896
2023-01-22 00:02:58 GMT 55.610092 -6.266618 26,150 49 514 -960
2023-01-22 00:02:55 GMT 55.604973 -6.277056 26,200 47 513 -1088
2023-01-22 00:02:54 GMT 55.600780 -6.285124 26,225 47 513 -1088
2023-01-22 00:02:52 GMT 55.600780 -6.285124 26,250 46 512 -1216
2023-01-22 00:02:50 GMT 55.597523 -6.291132 26,275 45 511 -1344
2023-01-22 00:02:49 GMT 55.595718 -6.294417 26,300 44 511 -1408
2023-01-22 00:02:48 GMT 55.594025 -6.297413 26,325 44 510 -1408
2023-01-22 00:02:46 GMT 55.590492 -6.303406 26,375 42 509 -1600
2023-01-22 00:02:45 GMT 55.589100 -6.305723 26,400 42 508 -1664
2023-01-22 00:02:44 GMT 55.585464 -6.311562 26,450 41 506 -1792
2023-01-22 00:02:42 GMT 55.583557 -6.314564 26,475 40 505 -1856
2023-01-22 00:02:41 GMT 55.581787 -6.317310 26,500 40 505 -1984
2023-01-22 00:02:40 GMT 55.578049 -6.322882 26,600 39 503 -2112
2023-01-22 00:02:38 GMT 55.576435 -6.325207 26,625 38 503 -2240
2023-01-22 00:02:37 GMT 55.574432 -6.328042 26,675 38 502 -2368
2023-01-22 00:02:36 GMT 55.570988 -6.332846 26,750 36 500 -2496
2023-01-22 00:02:34 GMT 55.569126 -6.335335 26,800 36 500 -2560
2023-01-22 00:02:32 GMT 55.565231 -6.340360 26,900 35 498 -2688
2023-01-22 00:02:31 GMT 55.563354 -6.342690 26,950 34 498 -2688
2023-01-22 00:02:30 GMT 55.561630 -6.344776 26,975 34 497 -2688
2023-01-22 00:02:28 GMT 55.557632 -6.349515 27,075 32 496 -2688
2023-01-22 00:02:27 GMT 55.556122 -6.351346 27,125 32 495 -2688
2023-01-22 00:02:26 GMT 55.552460 -6.355419 27,225 31 494 -2624
2023-01-22 00:02:24 GMT 55.549713 -6.358337 27,275 30 493 -2624
2023-01-22 00:02:23 GMT 55.547562 -6.360585 27,300 30 493 -2688
2023-01-22 00:02:22 GMT 55.543625 -6.364580 27,400 28 491 -2688
2023-01-22 00:02:20 GMT 55.541801 -6.366320 27,425 28 491 -2688
2023-01-22 00:02:19 GMT 55.539642 -6.368408 27,475 27 490 -2688
2023-01-22 00:02:16 GMT 55.534790 -6.372819 27,600 26 489 -2688
2023-01-22 00:02:15 GMT 55.532776 -6.374567 27,625 25 488 -2752
2023-01-22 00:02:14 GMT 55.530952 -6.376190 27,700 25 488 -2752
2023-01-22 00:02:12 GMT 55.526688 -6.379644 27,875 24 486 -2752
2023-01-22 00:02:10 GMT 55.522343 -6.383057 27,875 21 482 -2816
2023-01-22 00:02:09 GMT 55.520096 -6.384721 27,925 21 482 -2816
2023-01-22 00:02:07 GMT 55.511589 -6.390524 28,125 20 481 -2816
2023-01-22 00:02:05 GMT 55.511589 -6.390524 28,125 19 480 -2816
2023-01-22 00:02:03 GMT 55.507401 -6.393099 28,225 18 479 -2880
2023-01-22 00:02:02 GMT 55.505493 -6.394209 28,250 17 478 -2880
2023-01-22 00:02:01 GMT 55.503208 -6.395502 28,300 16 477 -2880
2023-01-22 00:02:00 GMT 55.501114 -6.396704 28,350 16 476 -2944
2023-01-22 00:01:58 GMT 55.496880 -6.398849 28,450 15 474 -2944
2023-01-22 00:01:57 GMT 55.494736 -6.399879 28,500 13 472 -3008
2023-01-22 00:01:56 GMT 55.492641 -6.400909 28,550 13 472 -3008
2023-01-22 00:01:54 GMT 55.487366 -6.403115 28,650 12 471 -3008
2023-01-22 00:01:53 GMT 55.485214 -6.403947 28,725 12 470 -3008
2023-01-22 00:01:52 GMT 55.481190 -6.405458 28,800 10 468 -3072
2023-01-22 00:01:50 GMT 55.479515 -6.406059 28,850 10 467 -3008
2023-01-22 00:01:48 GMT 55.475231 -6.407433 28,925 9 466 -3008
2023-01-22 00:01:47 GMT 55.472717 -6.408119 29,025 8 465 -3008
2023-01-22 00:01:46 GMT 55.470383 -6.408775 29,100 7 464 -3008
2023-01-22 00:01:44 GMT 55.466125 -6.409773 29,200 6 462 -3008
2023-01-22 00:01:42 GMT 55.463360 -6.410351 29,275 6 461 -2944
2023-01-22 00:01:41 GMT 55.460175 -6.410855 29,325 4 459 -2944
2023-01-22 00:01:39 GMT 55.457245 -6.411355 29,450 4 459 -3008
2023-01-22 00:01:37 GMT 55.453213 -6.411810 29,500 3 456 -2944
2023-01-22 00:01:36 GMT 55.450279 -6.412067 29,550 2 456 -2944
2023-01-22 00:01:34 GMT 55.445023 -6.412354 29,725 0 453 -3008
2023-01-22 00:01:32 GMT 55.440857 -6.412380 29,825 0 451 -3008
2023-01-22 00:01:30 GMT 55.434219 -6.412057 29,975 358 448 -3008
2023-01-22 00:01:28 GMT 55.433193 -6.412021 30,000 357 447 -3008
2023-01-22 00:01:27 GMT 55.428040 -6.411411 30,125 356 445 -2944
2023-01-22 00:01:25 GMT 55.425793 -6.411105 30,175 355 443 -3008
2023-01-22 00:01:24 GMT 55.423744 -6.410772 30,225 354 442 -3008
2023-01-22 00:01:22 GMT 55.419273 -6.409857 30,350 353 441 -3008
2023-01-22 00:01:20 GMT 55.416061 -6.409108 30,425 352 439 -3008
2023-01-22 00:01:18 GMT 55.413223 -6.408358 30,450 351 438 -3008
2023-01-22 00:01:17 GMT 55.411221 -6.407776 30,600 349 436 -3008
2023-01-22 00:01:15 GMT 55.407684 -6.406611 30,600 349 436 -3008
2023-01-22 00:01:14 GMT 55.405518 -6.405837 30,750 348 434 -2944
2023-01-22 00:01:12 GMT 55.401581 -6.404302 30,775 347 432 -2944
2023-01-22 00:01:10 GMT 55.398701 -6.403115 30,850 346 431 -2944
2023-01-22 00:01:09 GMT 55.395813 -6.401798 30,925 345 428 -2944
2023-01-22 00:01:07 GMT 55.389900 -6.398787 31,075 343 426 -2880
2023-01-22 00:01:04 GMT 55.386131 -6.396706 31,175 342 425 -2816
2023-01-22 00:01:02 GMT 55.381706 -6.393960 31,275 340 423 -2688
2023-01-22 00:01:00 GMT 55.379890 -6.392795 31,325 340 421 -2688
2023-01-22 00:00:59 GMT 55.377869 -6.391458 31,375 339 421 -2624
2023-01-22 00:00:58 GMT 55.373375 -6.388300 31,475 337 418 -2496
2023-01-22 00:00:56 GMT 55.371460 -6.386773 31,525 336 418 -2432
2023-01-22 00:00:55 GMT 55.370361 -6.385965 31,550 336 418 -2432
2023-01-22 00:00:54 GMT 55.368622 -6.384591 31,575 336 416 -2368
2023-01-22 00:00:51 GMT 55.362946 -6.379727 31,700 333 414 -2112
2023-01-22 00:00:49 GMT 55.360382 -6.377402 31,750 332 413 -2048
2023-01-22 00:00:48 GMT 55.358047 -6.375140 31,800 331 412 -1856
2023-01-22 00:00:46 GMT 55.354893 -6.372070 31,875 330 411 -1600
2023-01-22 00:00:44 GMT 55.351135 -6.368112 31,925 328 409 -1344
2023-01-22 00:00:43 GMT 55.349854 -6.366739 31,950 328 409 -1152
2023-01-22 00:00:41 GMT 55.346695 -6.363104 31,975 326 409 -768
2023-01-22 00:00:40 GMT 55.345257 -6.361500 32,000 326 408 -576
2023-01-22 00:00:39 GMT 55.343857 -6.359791 32,000 326 408 -576
2023-01-22 00:00:37 GMT 55.340603 -6.355841 32,000 324 408 -128
2023-01-22 00:00:36 GMT 55.337769 -6.352036 32,000 323 407 -64
2023-01-22 00:00:34 GMT 55.336086 -6.349848 32,000 322 407 0
2023-01-22 00:00:33 GMT 55.334599 -6.347850 32,000 321 407 64
2023-01-22 00:00:32 GMT 55.332874 -6.345354 32,000 321 407 64
2023-01-22 00:00:30 GMT 55.330399 -6.341777 31,975 320 407 64
2023-01-22 00:00:29 GMT 55.328545 -6.338945 31,975 319 407 0
2023-01-22 00:00:28 GMT 55.327148 -6.336781 32,000 318 407 64
2023-01-22 00:00:27 GMT 55.325752 -6.334534 31,975 317 407 64
2023-01-22 00:00:25 GMT 55.322845 -6.329821 31,975 316 408 0
2023-01-22 00:00:24 GMT 55.321655 -6.327792 31,975 316 408 0
2023-01-22 00:00:22 GMT 55.317654 -6.320718 31,975 314 407 64
2023-01-22 00:00:20 GMT 55.316483 -6.318593 32,000 313 408 64
2023-01-22 00:00:19 GMT 55.315090 -6.315973 31,975 313 408 64
2023-01-22 00:00:18 GMT 55.313919 -6.313746 31,975 313 407 0
2023-01-22 00:00:16 GMT 55.311554 -6.309065 31,975 312 408 64
2023-01-22 00:00:15 GMT 55.310440 -6.306879 31,975 312 408 64
2023-01-22 00:00:14 GMT 55.308529 -6.303156 31,975 312 408 0
2023-01-22 00:00:13 GMT 55.307922 -6.301871 31,975 312 408 0
2023-01-22 00:00:11 GMT 55.305450 -6.296862 31,975 311 409 -64
2023-01-22 00:00:09 GMT 55.302979 -6.291854 32,000 311 409 -64
2023-01-22 00:00:08 GMT 55.300507 -6.286845 31,975 311 410 0
2023-01-22 00:00:06 GMT 55.299271 -6.284341 31,975 311 410 0
2023-01-22 00:00:05 GMT 55.298035 -6.281837 32,000 311 410 -64
2023-01-22 00:00:04 GMT 55.294933 -6.275607 31,975 311 410 -64
2023-01-22 00:00:01 GMT 55.293045 -6.271820 31,975 311 411 -64
2023-01-22 00:00:00 GMT 55.289337 -6.264307 31,975 311 411 -64
2023-01-21 23:59:58 GMT 55.289337 -6.264307 31,975 311 411 -64
2023-01-21 23:59:57 GMT 55.287952 -6.261541 31,975 311 411 0
2023-01-21 23:59:55 GMT 55.285080 -6.255744 32,000 311 412 -64
2023-01-21 23:59:54 GMT 55.283844 -6.253240 32,000 311 412 -64
2023-01-21 23:59:53 GMT 55.282738 -6.250971 32,000 311 412 -64
2023-01-21 23:59:51 GMT 55.280224 -6.245894 32,000 311 412 0
2023-01-21 23:59:49 GMT 55.277847 -6.241123 31,975 311 414 64
2023-01-21 23:59:48 GMT 55.276611 -6.238538 31,975 311 414 0
2023-01-21 23:59:47 GMT 55.273754 -6.232744 31,975 311 414 0
2023-01-21 23:59:45 GMT 55.272629 -6.230460 31,975 311 414 64
2023-01-21 23:59:44 GMT 55.271240 -6.227667 31,975 311 414 64
2023-01-21 23:59:43 GMT 55.268875 -6.222866 31,975 311 414 64
2023-01-21 23:59:41 GMT 55.267750 -6.220592 31,975 311 414 0
2023-01-21 23:59:40 GMT 55.264069 -6.213253 31,975 311 414 -64
2023-01-21 23:59:38 GMT 55.264069 -6.213253 31,975 311 414 -64
2023-01-21 23:59:37 GMT 55.261597 -6.208245 31,975 311 415 -64
2023-01-21 23:59:35 GMT 55.260590 -6.206144 31,975 311 415 -64
2023-01-21 23:59:33 GMT 55.257462 -6.199868 31,975 311 415 -64
2023-01-21 23:59:31 GMT 55.255409 -6.195790 31,975 311 415 -128
2023-01-21 23:59:29 GMT 55.252808 -6.190473 32,000 311 416 -128
2023-01-21 23:59:27 GMT 55.250896 -6.186634 32,000 311 416 -64
2023-01-21 23:59:25 GMT 55.248383 -6.181557 32,000 312 416 -64
2023-01-21 23:59:23 GMT 55.245125 -6.174982 32,000 311 416 -64
2023-01-21 23:59:20 GMT 55.241074 -6.166826 32,000 312 417 -64
2023-01-21 23:59:18 GMT 55.238560 -6.161749 32,000 312 417 -64
2023-01-21 23:59:15 GMT 55.235413 -6.155413 32,000 312 417 -64
2023-01-21 23:59:12 GMT 55.230694 -6.145935 32,000 312 417 -64
2023-01-21 23:59:09 GMT 55.227814 -6.140146 32,000 312 417 -64
2023-01-21 23:59:07 GMT 55.225250 -6.135056 32,000 312 425 -64
2023-01-21 23:59:04 GMT 55.220821 -6.126126 31,975 312 418 0
2023-01-21 23:59:02 GMT 55.218822 -6.122048 32,000 312 418 0
2023-01-21 23:59:00 GMT 55.215637 -6.115669 32,000 312 418 0
2023-01-21 23:58:57 GMT 55.212723 -6.109813 32,000 312 418 0
2023-01-21 23:58:54 GMT 55.208771 -6.101936 31,975 312 418 0
2023-01-21 23:58:52 GMT 55.204742 -6.093777 31,975 312 418 0
2023-01-21 23:58:49 GMT 55.202682 -6.089657 31,975 311 419 0
2023-01-21 23:58:47 GMT 55.199661 -6.083518 31,975 312 420 64
2023-01-21 23:58:44 GMT 55.195965 -6.076105 31,975 312 420 0
2023-01-21 23:58:42 GMT 55.193527 -6.071239 31,975 312 420 0
2023-01-21 23:58:39 GMT 55.190376 -6.064869 31,975 312 420 0
2023-01-21 23:58:37 GMT 55.187538 -6.059210 31,975 311 421 0
2023-01-21 23:58:35 GMT 55.184647 -6.053305 31,975 312 421 0
2023-01-21 23:58:32 GMT 55.180801 -6.045631 31,975 312 423 -64
2023-01-21 23:58:29 GMT 55.177460 -6.039007 31,975 312 421 -64
2023-01-21 23:58:27 GMT 55.174393 -6.032787 31,975 312 422 -64
2023-01-21 23:58:25 GMT 55.168125 -6.020258 32,000 312 423 -64
2023-01-21 23:58:22 GMT 55.168125 -6.020258 31,975 312 423 -64
2023-01-21 23:58:19 GMT 55.165054 -6.014099 32,000 312 423 -64
2023-01-21 23:58:17 GMT 55.161072 -6.006129 31,975 312 424 -64
2023-01-21 23:58:15 GMT 55.158585 -6.001199 31,975 312 424 -64
2023-01-21 23:58:12 GMT 55.154999 -5.993958 32,000 312 425 -64
2023-01-21 23:58:09 GMT 55.151779 -5.987549 32,000 312 425 -64
2023-01-21 23:58:07 GMT 55.148438 -5.980844 32,000 312 425 -64
2023-01-21 23:58:05 GMT 55.146103 -5.976239 32,000 312 425 -64
2023-01-21 23:58:02 GMT 55.141823 -5.967740 32,000 312 425 -64
2023-01-21 23:57:59 GMT 55.139099 -5.962264 31,975 312 428 0
2023-01-21 23:57:57 GMT 55.135712 -5.955559 32,000 312 426 0
2023-01-21 23:57:54 GMT 55.131210 -5.946517 32,000 312 426 0
2023-01-21 23:57:52 GMT 55.128754 -5.941665 32,000 312 426 -64
2023-01-21 23:57:49 GMT 55.121853 -5.927956 32,000 312 426 0
2023-01-21 23:57:46 GMT 55.121853 -5.927956 32,000 312 426 0
2023-01-21 23:57:43 GMT 55.112411 -5.909029 32,000 312 428 0
2023-01-21 23:57:40 GMT 55.109528 -5.903293 31,975 312 428 0
2023-01-21 23:57:37 GMT 55.109528 -5.903293 32,000 312 428 0
2023-01-21 23:57:35 GMT 55.106815 -5.897910 31,975 312 428 64
2023-01-21 23:57:32 GMT 55.102627 -5.889587 31,975 312 428 64
2023-01-21 23:57:29 GMT 55.100021 -5.884427 31,975 312 428 0
2023-01-21 23:57:27 GMT 55.096802 -5.877928 31,975 312 429 0
2023-01-21 23:57:24 GMT 55.088570 -5.861622 32,000 312 428 -64
2023-01-21 23:57:22 GMT 55.088570 -5.861622 31,975 312 430 0
2023-01-21 23:57:19 GMT 55.085312 -5.855067 31,975 312 430 -64
2023-01-21 23:57:16 GMT 55.082005 -5.848638 32,000 312 430 -64
2023-01-21 23:57:12 GMT 55.076279 -5.837153 32,000 312 430 -64
2023-01-21 23:57:09 GMT 55.073502 -5.831721 32,000 312 430 -64
2023-01-21 23:57:07 GMT 55.070068 -5.825016 31,975 312 430 0
2023-01-21 23:57:04 GMT 55.066132 -5.817180 31,975 312 430 0
2023-01-21 23:57:02 GMT 55.064026 -5.813060 32,000 312 430 0
2023-01-21 23:56:59 GMT 55.060593 -5.806274 31,975 312 432 -64
2023-01-21 23:56:57 GMT 55.057159 -5.799489 32,000 312 431 0
2023-01-21 23:56:55 GMT 55.054680 -5.794539 31,975 312 431 0
2023-01-21 23:56:52 GMT 55.050842 -5.786968 31,975 312 432 0
2023-01-21 23:56:49 GMT 55.047043 -5.779391 32,000 312 432 -64
2023-01-21 23:56:47 GMT 55.043747 -5.772912 32,000 312 432 -64
2023-01-21 23:56:45 GMT 55.036755 -5.759000 31,975 312 433 -64
2023-01-21 23:56:42 GMT 55.036755 -5.759000 31,975 312 434 0
2023-01-21 23:56:39 GMT 55.034149 -5.753756 32,000 312 434 -64
2023-01-21 23:56:37 GMT 55.031342 -5.748273 32,000 312 434 0
2023-01-21 23:56:35 GMT 55.027130 -5.739953 31,975 312 434 0
2023-01-21 23:56:32 GMT 55.025024 -5.735752 31,975 312 434 0
2023-01-21 23:56:30 GMT 55.021042 -5.727835 31,975 312 435 0
2023-01-21 23:56:27 GMT 55.016510 -5.718949 31,975 312 435 -64
2023-01-21 23:56:24 GMT 55.013992 -5.713973 31,975 312 435 -64
2023-01-21 23:56:22 GMT 55.011898 -5.709728 31,975 312 435 -64
2023-01-21 23:56:20 GMT 55.007938 -5.701904 32,000 312 435 -64
2023-01-21 23:56:17 GMT 55.003937 -5.693997 31,975 312 435 -128
2023-01-21 23:56:15 GMT 55.001175 -5.688495 32,000 312 435 -64
2023-01-21 23:56:12 GMT 54.994392 -5.675021 32,000 312 435 -64
2023-01-21 23:56:10 GMT 54.994392 -5.675021 32,000 312 436 -64
2023-01-21 23:56:07 GMT 54.991608 -5.669511 32,000 312 436 -64
2023-01-21 23:56:05 GMT 54.984467 -5.655293 31,975 312 436 0
2023-01-21 23:56:02 GMT 54.984467 -5.655293 32,000 312 436 0
2023-01-21 23:55:59 GMT 54.980988 -5.648427 31,975 312 436 0
2023-01-21 23:55:57 GMT 54.977123 -5.640814 32,000 312 437 -64
2023-01-21 23:55:55 GMT 54.975025 -5.636652 32,000 312 437 0
2023-01-21 23:55:52 GMT 54.971024 -5.628745 31,975 312 436 0
2023-01-21 23:55:49 GMT 54.967812 -5.622420 32,000 312 437 0
2023-01-21 23:55:47 GMT 54.963913 -5.614821 31,975 312 437 0
2023-01-21 23:55:44 GMT 54.960831 -5.608770 32,000 312 437 0
2023-01-21 23:55:42 GMT 54.958054 -5.603270 31,975 312 437 0
2023-01-21 23:55:39 GMT 54.954407 -5.596203 32,000 312 437 0
2023-01-21 23:55:37 GMT 54.950500 -5.588648 32,000 312 438 0
2023-01-21 23:55:34 GMT 54.947571 -5.582832 32,000 312 437 0
2023-01-21 23:55:32 GMT 54.943542 -5.574915 32,000 312 437 -64
2023-01-21 23:55:29 GMT 54.940887 -5.569664 31,975 312 439 -64
2023-01-21 23:55:27 GMT 54.936859 -5.561748 31,975 312 439 -64
2023-01-21 23:55:25 GMT 54.934853 -5.557834 32,000 312 439 -64
2023-01-21 23:55:22 GMT 54.930012 -5.548345 32,000 312 439 -64
2023-01-21 23:55:19 GMT 54.927311 -5.543102 32,000 312 439 -64
2023-01-21 23:55:17 GMT 54.921021 -5.530647 32,000 312 439 -64
2023-01-21 23:55:15 GMT 54.921021 -5.530647 32,000 312 439 -64
2023-01-21 23:55:12 GMT 54.917496 -5.523780 32,000 312 439 0
2023-01-21 23:55:09 GMT 54.913742 -5.516429 32,000 312 439 0
2023-01-21 23:55:07 GMT 54.910133 -5.509311 31,975 312 440 0
2023-01-21 23:55:05 GMT 54.907562 -5.504312 32,000 312 440 0
2023-01-21 23:55:02 GMT 54.903103 -5.495578 31,975 312 440 0
2023-01-21 23:54:59 GMT 54.900284 -5.490014 31,975 312 440 0
2023-01-21 23:54:57 GMT 54.896912 -5.483426 31,975 312 440 0
2023-01-21 23:54:55 GMT 54.894058 -5.477816 31,975 312 442 64
2023-01-21 23:54:52 GMT 54.890579 -5.470949 31,975 312 442 64
2023-01-21 23:54:50 GMT 54.888153 -5.466183 31,975 312 442 64
2023-01-21 23:54:47 GMT 54.882980 -5.456085 31,975 312 442 -64
2023-01-21 23:54:45 GMT 54.880432 -5.451050 31,975 312 442 0
2023-01-21 23:54:42 GMT 54.877174 -5.444724 31,975 312 442 -64
2023-01-21 23:54:39 GMT 54.872955 -5.436536 32,000 312 442 -64
2023-01-21 23:54:37 GMT 54.865490 -5.421919 32,000 312 444 -64
2023-01-21 23:54:34 GMT 54.865490 -5.421919 32,000 312 444 -64
2023-01-21 23:54:32 GMT 54.863480 -5.417956 32,000 312 444 -64
2023-01-21 23:54:29 GMT 54.859406 -5.409959 32,000 312 444 -64
2023-01-21 23:54:27 GMT 54.855713 -5.402777 32,000 312 444 -64
2023-01-21 23:54:24 GMT 54.853249 -5.398032 32,000 312 444 -64
2023-01-21 23:54:22 GMT 54.849709 -5.391124 32,000 312 444 -64
2023-01-21 23:54:19 GMT 54.845490 -5.382897 32,000 312 444 0
2023-01-21 23:54:16 GMT 54.841560 -5.375144 31,975 312 444 0
2023-01-21 23:54:13 GMT 54.838024 -5.368236 31,975 312 444 0
2023-01-21 23:54:11 GMT 54.835968 -5.364236 31,975 312 444 0
2023-01-21 23:54:09 GMT 54.828598 -5.349938 31,975 312 444 0
2023-01-21 23:54:07 GMT 54.828598 -5.349938 31,975 312 444 0
2023-01-21 23:54:04 GMT 54.826172 -5.345172 31,975 312 444 0
2023-01-21 23:54:02 GMT 54.821636 -5.336359 32,000 312 444 -64
2023-01-21 23:53:59 GMT 54.818657 -5.330533 32,000 312 444 -64
2023-01-21 23:53:56 GMT 54.813858 -5.321260 32,000 312 444 -64
2023-01-21 23:53:54 GMT 54.812485 -5.318595 32,000 312 444 -64
2023-01-21 23:53:52 GMT 54.809235 -5.312213 31,975 312 445 0
2023-01-21 23:53:49 GMT 54.804691 -5.303483 32,000 312 445 -64
2023-01-21 23:53:46 GMT 54.801155 -5.296575 31,975 312 445 0
2023-01-21 23:53:44 GMT 54.798523 -5.291533 32,000 312 445 64
2023-01-21 23:53:42 GMT 54.794952 -5.284666 31,975 312 445 0
2023-01-21 23:53:39 GMT 54.790878 -5.276669 32,000 312 445 0
2023-01-21 23:53:37 GMT 54.788132 -5.271418 31,975 312 445 0
2023-01-21 23:53:35 GMT 54.785385 -5.266086 32,000 312 445 -64
2023-01-21 23:53:32 GMT 54.781418 -5.258373 31,975 312 445 0
2023-01-21 23:53:29 GMT 54.777695 -5.251222 32,000 312 445 -64
2023-01-21 23:53:27 GMT 54.774399 -5.244841 31,975 312 445 0
2023-01-21 23:53:25 GMT 54.770710 -5.237732 31,975 312 446 0
2023-01-21 23:53:22 GMT 54.767963 -5.232405 32,000 312 446 -64
2023-01-21 23:53:19 GMT 54.762749 -5.222334 32,000 312 446 -64
2023-01-21 23:53:16 GMT 54.759724 -5.216425 32,000 312 446 -64
2023-01-21 23:53:14 GMT 54.757141 -5.211397 31,975 312 446 -64
2023-01-21 23:53:11 GMT 54.752197 -5.201784 31,975 312 446 0
2023-01-21 23:53:08 GMT 54.748177 -5.194120 31,975 312 446 0
2023-01-21 23:53:05 GMT 54.743637 -5.185305 31,975 312 446 0
2023-01-21 23:53:02 GMT 54.739380 -5.177057 31,975 312 446 -64
2023-01-21 23:52:59 GMT 54.736496 -5.171491 31,975 312 446 0
2023-01-21 23:52:56 GMT 54.731934 -5.162742 31,975 312 447 -64
2023-01-21 23:52:53 GMT 54.728115 -5.155251 32,000 312 447 -64
2023-01-21 23:52:51 GMT 54.723972 -5.147261 31,975 312 448 -64
2023-01-21 23:52:48 GMT 54.720943 -5.141435 31,975 312 448 -64
2023-01-21 23:52:45 GMT 54.715897 -5.131504 32,000 312 447 -64
2023-01-21 23:52:42 GMT 54.712875 -5.125688 32,000 312 447 -64
2023-01-21 23:52:40 GMT 54.709854 -5.119790 32,000 312 447 -64
2023-01-21 23:52:38 GMT 54.706787 -5.113974 32,000 312 447 -64
2023-01-21 23:52:35 GMT 54.702942 -5.106461 32,000 312 447 -64
2023-01-21 23:52:32 GMT 54.698547 -5.097979 32,000 312 447 -64
2023-01-21 23:52:29 GMT 54.694427 -5.089982 32,000 312 448 -64
2023-01-21 23:52:26 GMT 54.690811 -5.083116 32,000 312 447 0
2023-01-21 23:52:24 GMT 54.688889 -5.079400 32,000 312 447 0
2023-01-21 23:52:22 GMT 54.685043 -5.071968 32,000 312 447 0
2023-01-21 23:52:19 GMT 54.680328 -5.062920 32,000 313 446 64
2023-01-21 23:52:16 GMT 54.677032 -5.056619 31,975 313 446 64
2023-01-21 23:52:14 GMT 54.674953 -5.052629 31,975 313 446 64
2023-01-21 23:52:12 GMT 54.670944 -5.044906 31,975 313 446 64
2023-01-21 23:52:10 GMT 54.668343 -5.039895 31,975 313 446 64
2023-01-21 23:52:08 GMT 54.665451 -5.034323 31,975 313 446 64
2023-01-21 23:52:05 GMT 54.662704 -5.029072 32,000 312 446 0
2023-01-21 23:52:02 GMT 54.657486 -5.018975 32,000 312 446 0
2023-01-21 23:52:00 GMT 54.654564 -5.013428 31,975 312 446 0
2023-01-21 23:51:58 GMT 54.652374 -5.009183 31,975 312 446 0
2023-01-21 23:51:56 GMT 54.650299 -5.005161 31,975 312 446 -64
2023-01-21 23:51:54 GMT 54.647003 -4.998860 32,000 312 447 -64
2023-01-21 23:51:52 GMT 54.643856 -4.992787 32,000 312 447 -64
2023-01-21 23:51:49 GMT 54.639153 -4.983715 32,000 312 447 0
2023-01-21 23:51:46 GMT 54.636127 -4.977889 32,000 312 447 -64
2023-01-21 23:51:44 GMT 54.632401 -4.970748 31,975 312 447 64
2023-01-21 23:51:41 GMT 54.628677 -4.963656 32,000 312 447 -64
2023-01-21 23:51:38 GMT 54.622971 -4.952734 31,975 313 448 0
2023-01-21 23:51:34 GMT 54.617599 -4.942433 31,975 312 448 0
2023-01-21 23:51:31 GMT 54.614853 -4.937106 31,975 312 448 0
2023-01-21 23:51:28 GMT 54.611221 -4.930198 32,000 312 448 0
2023-01-21 23:51:26 GMT 54.608047 -4.924137 31,975 312 448 0
2023-01-21 23:51:23 GMT 54.603607 -4.915655 31,975 313 449 -64
2023-01-21 23:51:21 GMT 54.600815 -4.910323 31,975 313 449 0
2023-01-21 23:51:18 GMT 54.597908 -4.904730 31,975 313 449 -64
2023-01-21 23:51:16 GMT 54.591808 -4.893078 31,975 313 449 -64
2023-01-21 23:51:14 GMT 54.591808 -4.893078 31,975 313 449 -64
2023-01-21 23:51:11 GMT 54.587666 -4.885171 32,000 313 449 -64
2023-01-21 23:51:08 GMT 54.584034 -4.878263 32,000 313 449 -64
2023-01-21 23:51:06 GMT 54.580582 -4.871548 32,000 313 449 -64
2023-01-21 23:51:03 GMT 54.575748 -4.862282 31,975 312 450 -64
2023-01-21 23:51:01 GMT 54.574074 -4.859120 31,975 313 449 0
2023-01-21 23:50:59 GMT 54.570442 -4.852212 31,975 312 450 -64
2023-01-21 23:50:56 GMT 54.564903 -4.841558 31,975 312 449 0
2023-01-21 23:50:53 GMT 54.562271 -4.836489 31,975 312 450 0
2023-01-21 23:50:51 GMT 54.559643 -4.831487 31,975 313 449 -64
2023-01-21 23:50:48 GMT 54.555359 -4.823240 32,000 313 449 -64
2023-01-21 23:50:45 GMT 54.551868 -4.816589 31,975 313 449 -128
2023-01-21 23:50:43 GMT 54.548237 -4.809765 31,975 313 449 -64
2023-01-21 23:50:41 GMT 54.546001 -4.805520 32,000 313 449 -64
2023-01-21 23:50:38 GMT 54.541813 -4.797530 32,000 313 449 -64
2023-01-21 23:50:36 GMT 54.538506 -4.791204 32,000 313 449 -64
2023-01-21 23:50:33 GMT 54.530968 -4.776972 32,000 313 448 -64
2023-01-21 23:50:31 GMT 54.530968 -4.776972 32,000 313 448 -64
2023-01-21 23:50:28 GMT 54.527103 -4.769565 32,000 313 448 -64
2023-01-21 23:50:25 GMT 54.519974 -4.756111 32,000 313 448 -64
2023-01-21 23:50:23 GMT 54.519974 -4.756111 32,000 313 448 -64
2023-01-21 23:50:21 GMT 54.517326 -4.751088 32,000 313 448 0
2023-01-21 23:50:18 GMT 54.513885 -4.744478 32,000 313 452 -64
2023-01-21 23:50:16 GMT 54.510670 -4.738437 31,975 313 448 0
2023-01-21 23:50:13 GMT 54.505966 -4.729448 31,975 313 448 64
2023-01-21 23:50:11 GMT 54.503860 -4.725494 32,000 313 448 0
2023-01-21 23:50:08 GMT 54.500099 -4.718378 32,000 313 448 64
2023-01-21 23:50:06 GMT 54.497177 -4.712812 31,975 313 448 64
2023-01-21 23:50:03 GMT 54.492329 -4.703647 31,975 313 448 64
2023-01-21 23:50:01 GMT 54.486328 -4.692293 31,975 313 448 64
2023-01-21 23:49:58 GMT 54.482162 -4.684457 31,975 313 448 64
2023-01-21 23:49:55 GMT 54.478271 -4.677025 31,975 313 448 0
2023-01-21 23:49:53 GMT 54.478271 -4.677025 31,975 313 448 0
2023-01-21 23:49:51 GMT 54.475479 -4.671774 31,975 313 448 -64
2023-01-21 23:49:48 GMT 54.472263 -4.665777 31,975 313 449 -64
2023-01-21 23:49:46 GMT 54.468750 -4.659173 31,975 313 450 -64
2023-01-21 23:49:43 GMT 54.464165 -4.650463 32,000 313 450 -64
2023-01-21 23:49:41 GMT 54.461472 -4.645440 32,000 313 450 -64
2023-01-21 23:49:38 GMT 54.458576 -4.639893 31,975 313 451 -64
2023-01-21 23:49:36 GMT 54.455063 -4.633322 32,000 313 451 -64
2023-01-21 23:49:33 GMT 54.450150 -4.624079 32,000 313 451 -64
2023-01-21 23:49:31 GMT 54.447784 -4.619509 32,000 313 451 -64
2023-01-21 23:49:28 GMT 54.444397 -4.613208 32,000 313 452 -64
2023-01-21 23:49:26 GMT 54.441055 -4.606826 32,000 313 452 -64
2023-01-21 23:49:23 GMT 54.436569 -4.598344 32,000 313 452 0
2023-01-21 23:49:21 GMT 54.433022 -4.591703 32,000 313 452 0
2023-01-21 23:49:18 GMT 54.429668 -4.585377 31,975 313 452 0
2023-01-21 23:49:15 GMT 54.426132 -4.578795 31,975 313 452 0
2023-01-21 23:49:13 GMT 54.422195 -4.571363 31,975 313 452 0
2023-01-21 23:49:11 GMT 54.418404 -4.564237 31,975 313 452 -64
2023-01-21 23:49:08 GMT 54.415840 -4.559493 32,000 313 452 -64
2023-01-21 23:49:06 GMT 54.412582 -4.553348 32,000 313 453 0
2023-01-21 23:49:04 GMT 54.409195 -4.547047 32,000 313 453 0
2023-01-21 23:49:01 GMT 54.405926 -4.540932 32,000 313 454 0
2023-01-21 23:48:58 GMT 54.398438 -4.526933 32,000 313 454 0
2023-01-21 23:48:56 GMT 54.398438 -4.526933 32,000 313 454 0
2023-01-21 23:48:54 GMT 54.394615 -4.519792 32,000 313 455 0
2023-01-21 23:48:51 GMT 54.390331 -4.511802 31,975 313 455 64
2023-01-21 23:48:48 GMT 54.387493 -4.506559 31,975 313 455 64
2023-01-21 23:48:46 GMT 54.384521 -4.501002 31,975 313 455 64
2023-01-21 23:48:43 GMT 54.378971 -4.490662 32,000 313 455 0
2023-01-21 23:48:40 GMT 54.376831 -4.486703 31,975 313 455 0
2023-01-21 23:48:38 GMT 54.369846 -4.473683 32,000 313 456 -64
2023-01-21 23:48:36 GMT 54.369846 -4.473683 32,000 313 456 -64
2023-01-21 23:48:34 GMT 54.366730 -4.467773 31,975 313 456 64
2023-01-21 23:48:31 GMT 54.362595 -4.460045 31,975 313 457 0
2023-01-21 23:48:28 GMT 54.359325 -4.453874 32,000 313 457 0
2023-01-21 23:48:26 GMT 54.355499 -4.446716 31,975 313 457 64
2023-01-21 23:48:24 GMT 54.353371 -4.442721 32,000 313 457 64
2023-01-21 23:48:21 GMT 54.348526 -4.433649 31,975 313 458 0
2023-01-21 23:48:18 GMT 54.344849 -4.426658 32,000 313 460 -64
2023-01-21 23:48:16 GMT 54.341583 -4.420462 32,000 313 458 -64
2023-01-21 23:48:14 GMT 54.338890 -4.415422 31,975 313 458 0
2023-01-21 23:48:11 GMT 54.330933 -4.400441 31,975 313 458 0
2023-01-21 23:48:08 GMT 54.330933 -4.400441 31,975 313 459 -64
2023-01-21 23:48:06 GMT 54.327206 -4.393449 31,975 313 459 64
2023-01-21 23:48:04 GMT 54.324509 -4.388311 32,000 313 459 0
2023-01-21 23:48:01 GMT 54.320251 -4.380314 32,000 313 460 -64
2023-01-21 23:47:58 GMT 54.316498 -4.373286 32,000 313 460 -64
2023-01-21 23:47:56 GMT 54.312790 -4.366338 31,975 313 460 -64
2023-01-21 23:47:54 GMT 54.305511 -4.352667 32,000 313 460 0
2023-01-21 23:47:51 GMT 54.305511 -4.352667 32,000 313 460 -64
2023-01-21 23:47:48 GMT 54.301895 -4.345981 32,000 313 461 -64
2023-01-21 23:47:46 GMT 54.298576 -4.339766 31,975 313 461 -64
2023-01-21 23:47:44 GMT 54.295692 -4.334439 31,975 313 461 0
2023-01-21 23:47:41 GMT 54.291687 -4.326949 31,975 313 461 64
2023-01-21 23:47:38 GMT 54.287796 -4.319646 31,975 313 461 0
2023-01-21 23:47:36 GMT 54.284042 -4.312699 32,000 313 462 -64
2023-01-21 23:47:34 GMT 54.281307 -4.307556 32,000 313 462 -64
2023-01-21 23:47:31 GMT 54.276978 -4.299532 32,000 313 462 -64
2023-01-21 23:47:28 GMT 54.273102 -4.292280 32,000 313 462 -64
2023-01-21 23:47:26 GMT 54.269482 -4.285557 32,000 313 462 -64
2023-01-21 23:47:24 GMT 54.262985 -4.273446 32,000 313 462 -64
2023-01-21 23:47:21 GMT 54.262985 -4.273446 31,975 313 463 0
2023-01-21 23:47:18 GMT 54.258957 -4.265913 31,975 313 462 -64
2023-01-21 23:47:16 GMT 54.255203 -4.258929 31,975 313 462 0
2023-01-21 23:47:14 GMT 54.252441 -4.253809 31,975 313 462 0
2023-01-21 23:47:11 GMT 54.247971 -4.245510 32,000 313 463 0
2023-01-21 23:47:08 GMT 54.240463 -4.231463 32,000 313 463 0
2023-01-21 23:47:06 GMT 54.240463 -4.231463 31,975 313 463 0
2023-01-21 23:47:04 GMT 54.237854 -4.226597 31,975 313 463 0
2023-01-21 23:47:02 GMT 54.236435 -4.223929 31,975 313 463 0
2023-01-21 23:47:00 GMT 54.233231 -4.217965 31,975 313 463 0
2023-01-21 23:46:58 GMT 54.229797 -4.211530 32,000 313 465 -64
2023-01-21 23:46:56 GMT 54.226318 -4.205017 32,000 313 464 -64
2023-01-21 23:46:54 GMT 54.223434 -4.199681 32,000 313 465 -64
2023-01-21 23:46:51 GMT 54.218369 -4.190234 32,000 313 465 -64
2023-01-21 23:46:48 GMT 54.215481 -4.184822 32,000 313 465 -64
2023-01-21 23:46:46 GMT 54.211712 -4.177794 32,000 313 465 -128
2023-01-21 23:46:44 GMT 54.208923 -4.172686 32,000 313 465 -64
2023-01-21 23:46:41 GMT 54.204575 -4.164525 32,000 313 465 -64
2023-01-21 23:46:38 GMT 54.200821 -4.157540 32,000 313 465 -64
2023-01-21 23:46:36 GMT 54.197186 -4.150732 32,000 313 466 -64
2023-01-21 23:46:34 GMT 54.192673 -4.142395 32,000 313 466 0
2023-01-21 23:46:30 GMT 54.189194 -4.135882 32,175 313 471 -832
2023-01-21 23:46:27 GMT 54.181499 -4.121569 32,000 313 466 64
2023-01-21 23:46:25 GMT 54.181499 -4.121569 32,000 313 466 64
2023-01-21 23:46:22 GMT 54.178333 -4.115592 32,000 313 466 64
2023-01-21 23:46:20 GMT 54.175278 -4.109828 32,000 313 466 128
2023-01-21 23:46:18 GMT 54.171631 -4.103070 32,000 313 467 128
2023-01-21 23:46:15 GMT 54.167858 -4.096042 32,000 313 467 128
2023-01-21 23:46:13 GMT 54.165531 -4.091680 31,975 313 468 128
2023-01-21 23:46:11 GMT 54.160873 -4.082956 31,975 313 469 128
2023-01-21 23:46:08 GMT 54.157196 -4.076163 31,975 313 469 64
2023-01-21 23:46:05 GMT 54.152683 -4.067769 31,975 313 469 -64
2023-01-21 23:46:03 GMT 54.150467 -4.063607 31,975 313 470 -192
2023-01-21 23:46:01 GMT 54.146816 -4.056863 32,000 313 470 -192
2023-01-21 23:45:58 GMT 54.140625 -4.045392 32,000 313 471 -512
2023-01-21 23:45:55 GMT 54.138252 -4.041030 32,025 313 471 -576
2023-01-21 23:45:52 GMT 54.133987 -4.033160 32,075 313 471 -832
2023-01-21 23:45:50 GMT 54.131607 -4.028843 32,125 313 470 -1472
2023-01-21 23:45:48 GMT 54.127357 -4.020996 32,150 313 471 -1216
2023-01-21 23:45:46 GMT 54.124985 -4.016634 32,225 313 470 -1408
2023-01-21 23:45:43 GMT 54.116272 -4.000593 32,350 313 470 -1472
2023-01-21 23:45:40 GMT 54.116272 -4.000593 32,325 313 470 -1472
2023-01-21 23:45:38 GMT 54.112427 -3.993609 32,400 313 470 -1536
2023-01-21 23:45:35 GMT 54.108738 -3.986825 32,875 313 464 -1792
2023-01-21 23:45:33 GMT 54.105377 -3.980582 32,525 313 469 -1536
2023-01-21 23:45:30 GMT 54.101662 -3.973820 32,575 313 469 -1600
2023-01-21 23:45:28 GMT 54.097237 -3.965741 32,875 313 468 -1664
2023-01-21 23:45:25 GMT 54.093422 -3.958713 32,725 313 468 -1664
2023-01-21 23:45:22 GMT 54.089603 -3.951685 32,850 313 468 -1728
2023-01-21 23:45:20 GMT 54.086792 -3.946603 32,875 313 467 -1728
2023-01-21 23:45:18 GMT 54.079315 -3.932863 33,050 313 466 -1792
2023-01-21 23:45:15 GMT 54.076660 -3.928097 33,050 314 466 -1792
2023-01-21 23:45:13 GMT 54.076660 -3.928097 33,125 313 464 -1856
2023-01-21 23:45:10 GMT 54.068470 -3.913072 33,225 314 464 -1856
2023-01-21 23:45:07 GMT 54.068470 -3.913072 33,225 314 464 -1856
2023-01-21 23:45:05 GMT 54.064697 -3.906205 33,325 313 463 -1920
2023-01-21 23:45:02 GMT 54.060745 -3.898969 33,450 314 462 -1920
2023-01-21 23:45:00 GMT 54.057816 -3.893712 33,475 314 462 -1856
2023-01-21 23:44:58 GMT 54.053619 -3.886010 33,575 314 461 -1856
2023-01-21 23:44:55 GMT 54.048523 -3.876761 33,675 313 460 -1856
2023-01-21 23:44:52 GMT 54.045753 -3.871711 33,750 313 459 -1664
2023-01-21 23:44:50 GMT 54.042160 -3.865147 33,925 313 457 -1344
2023-01-21 23:44:47 GMT 54.039421 -3.860159 33,850 313 458 -1408
2023-01-21 23:44:45 GMT 54.035976 -3.853858 33,975 313 456 -64
2023-01-21 23:44:43 GMT 54.031368 -3.845457 33,950 313 457 -704
2023-01-21 23:44:40 GMT 54.028481 -3.840206 34,000 313 457 -320
2023-01-21 23:44:37 GMT 54.024757 -3.833340 34,000 313 457 -128
2023-01-21 23:44:35 GMT 54.020752 -3.825989 34,000 313 456 -64
2023-01-21 23:44:32 GMT 54.017307 -3.819688 33,975 313 456 -64
2023-01-21 23:44:30 GMT 54.014282 -3.814218 34,000 313 457 -64
2023-01-21 23:44:27 GMT 54.010696 -3.807651 34,000 313 456 0
2023-01-21 23:44:25 GMT 54.006088 -3.799250 34,000 313 457 -64
2023-01-21 23:44:22 GMT 54.002518 -3.792716 34,000 313 457 64
2023-01-21 23:44:20 GMT 53.998810 -3.785889 33,975 313 456 64
2023-01-21 23:44:17 GMT 53.996078 -3.780913 33,975 314 457 0
2023-01-21 23:44:15 GMT 53.992767 -3.774902 33,975 314 457 0
2023-01-21 23:44:13 GMT 53.988586 -3.767341 33,975 314 457 64
2023-01-21 23:44:10 GMT 53.983566 -3.758187 33,975 314 457 64
2023-01-21 23:44:07 GMT 53.981415 -3.754255 33,975 314 457 0
2023-01-21 23:44:05 GMT 53.977646 -3.747469 34,000 314 457 0
2023-01-21 23:44:02 GMT 53.973923 -3.740683 33,975 314 457 0
2023-01-21 23:44:00 GMT 53.971035 -3.735432 34,000 314 457 0
2023-01-21 23:43:57 GMT 53.966858 -3.727818 33,975 314 457 0
2023-01-21 23:43:55 GMT 53.963379 -3.721540 33,975 314 458 -64
2023-01-21 23:43:52 GMT 53.959492 -3.714510 33,975 314 458 -64
2023-01-21 23:43:49 GMT 53.955765 -3.707724 33,975 314 458 -64
2023-01-21 23:43:47 GMT 53.952438 -3.701686 33,975 314 458 0
2023-01-21 23:43:45 GMT 53.948685 -3.694859 33,975 314 458 -64
2023-01-21 23:43:42 GMT 53.945339 -3.688821 33,975 314 458 -64
2023-01-21 23:43:40 GMT 53.937973 -3.675398 33,975 313 459 0
2023-01-21 23:43:37 GMT 53.937973 -3.675398 33,975 313 459 0
2023-01-21 23:43:35 GMT 53.934494 -3.669120 34,000 313 459 0
2023-01-21 23:43:32 GMT 53.929596 -3.660174 34,000 313 459 -64
2023-01-21 23:43:29 GMT 53.926250 -3.654166 34,000 314 459 -64
2023-01-21 23:43:27 GMT 53.923508 -3.649187 34,000 314 459 0
2023-01-21 23:43:25 GMT 53.916275 -3.636004 34,000 314 459 -64
2023-01-21 23:43:22 GMT 53.916275 -3.636004 34,000 314 459 -64
2023-01-21 23:43:20 GMT 53.912659 -3.629447 33,975 314 459 0
2023-01-21 23:43:17 GMT 53.908890 -3.622661 33,975 314 459 0
2023-01-21 23:43:15 GMT 53.905396 -3.616360 33,975 314 459 64
2023-01-21 23:43:12 GMT 53.901215 -3.608695 34,000 314 460 -64
2023-01-21 23:43:10 GMT 53.896973 -3.601092 34,000 314 460 0
2023-01-21 23:43:07 GMT 53.894211 -3.596139 34,000 314 460 0
2023-01-21 23:43:05 GMT 53.891151 -3.590591 33,975 314 461 0
2023-01-21 23:43:02 GMT 53.886822 -3.582755 34,000 314 461 64
2023-01-21 23:43:00 GMT 53.883003 -3.575888 33,975 314 461 0
2023-01-21 23:42:57 GMT 53.880249 -3.570871 33,975 314 461 -64
2023-01-21 23:42:55 GMT 53.876301 -3.563852 33,975 314 461 -64
2023-01-21 23:42:53 GMT 53.871780 -3.555647 34,000 314 461 -64
2023-01-21 23:42:50 GMT 53.868301 -3.549369 33,975 314 461 -64
2023-01-21 23:42:47 GMT 53.865097 -3.543562 34,000 314 462 64
2023-01-21 23:42:45 GMT 53.862057 -3.538002 34,000 314 462 -64
2023-01-21 23:42:42 GMT 53.857498 -3.529829 34,000 314 462 -64
2023-01-21 23:42:40 GMT 53.854614 -3.524571 34,000 314 462 -64
2023-01-21 23:42:38 GMT 53.852005 -3.519784 34,000 314 462 -64
2023-01-21 23:42:35 GMT 53.847610 -3.511858 34,000 314 462 -64
2023-01-21 23:42:33 GMT 53.844555 -3.506335 34,000 314 463 0
2023-01-21 23:42:30 GMT 53.839737 -3.497655 34,000 314 463 -64
2023-01-21 23:42:27 GMT 53.836212 -3.491298 34,000 314 463 -64
2023-01-21 23:42:25 GMT 53.832687 -3.485020 34,000 314 462 0
2023-01-21 23:42:22 GMT 53.828018 -3.476545 33,975 314 462 64
2023-01-21 23:42:20 GMT 53.825233 -3.471599 34,000 314 462 64
2023-01-21 23:42:17 GMT 53.820858 -3.463682 33,975 314 462 64
2023-01-21 23:42:15 GMT 53.815155 -3.453395 33,975 314 462 64
2023-01-21 23:42:13 GMT 53.815155 -3.453395 33,975 314 462 64
2023-01-21 23:42:10 GMT 53.810894 -3.445830 33,975 314 461 64
2023-01-21 23:42:07 GMT 53.806641 -3.438171 34,000 314 461 0
2023-01-21 23:42:05 GMT 53.803711 -3.432992 33,975 314 461 0
2023-01-21 23:42:02 GMT 53.798607 -3.423776 33,975 314 461 0
2023-01-21 23:41:59 GMT 53.794834 -3.416990 33,975 314 461 0
2023-01-21 23:41:57 GMT 53.788967 -3.406489 33,975 314 461 64
2023-01-21 23:41:55 GMT 53.788967 -3.406489 33,975 314 461 64
2023-01-21 23:41:53 GMT 53.786179 -3.401524 33,975 314 462 0
2023-01-21 23:41:51 GMT 53.783844 -3.397287 33,975 314 462 0
2023-01-21 23:41:49 GMT 53.780365 -3.391009 33,975 314 462 0
2023-01-21 23:41:47 GMT 53.777435 -3.385751 33,975 314 463 -128
2023-01-21 23:41:45 GMT 53.774075 -3.379750 33,975 314 462 -64
2023-01-21 23:41:43 GMT 53.771141 -3.374499 34,000 314 462 -64
2023-01-21 23:41:40 GMT 53.767181 -3.367388 33,975 314 462 -64
2023-01-21 23:41:38 GMT 53.763382 -3.360561 34,000 314 462 -128
2023-01-21 23:41:35 GMT 53.759735 -3.353981 34,000 314 462 -128
2023-01-21 23:41:33 GMT 53.755917 -3.347195 34,000 314 463 -128
2023-01-21 23:41:30 GMT 53.752426 -3.340813 34,000 314 463 -128
2023-01-21 23:41:28 GMT 53.748184 -3.333252 34,000 314 463 0
2023-01-21 23:41:25 GMT 53.744659 -3.326896 33,975 314 463 0
2023-01-21 23:41:23 GMT 53.742184 -3.322476 34,000 314 463 -64
2023-01-21 23:41:21 GMT 53.740135 -3.318760 34,000 314 462 -64
2023-01-21 23:41:19 GMT 53.737484 -3.313994 34,000 314 462 -64
2023-01-21 23:41:17 GMT 53.730011 -3.300685 33,975 314 461 0
2023-01-21 23:41:15 GMT 53.730011 -3.300685 33,975 314 462 64
2023-01-21 23:41:13 GMT 53.727676 -3.296448 33,975 314 461 0
2023-01-21 23:41:11 GMT 53.725342 -3.292289 33,975 314 461 0
2023-01-21 23:41:09 GMT 53.721096 -3.284670 33,975 314 461 0
2023-01-21 23:41:06 GMT 53.717606 -3.278450 34,000 314 461 0
2023-01-21 23:41:03 GMT 53.712952 -3.270048 33,975 314 461 0
2023-01-21 23:41:01 GMT 53.710018 -3.264797 34,000 314 461 -64
2023-01-21 23:40:58 GMT 53.705036 -3.255911 34,000 314 461 0
2023-01-21 23:40:55 GMT 53.698658 -3.244440 34,000 314 461 0
2023-01-21 23:40:53 GMT 53.694283 -3.236605 34,000 314 461 0
2023-01-21 23:40:51 GMT 53.694283 -3.236605 34,000 314 461 0
2023-01-21 23:40:48 GMT 53.691193 -3.231079 34,000 314 460 64
2023-01-21 23:40:45 GMT 53.686844 -3.223310 33,975 314 461 0
2023-01-21 23:40:43 GMT 53.684189 -3.218602 33,975 314 460 0
2023-01-21 23:40:41 GMT 53.681152 -3.213178 33,975 314 460 64
2023-01-21 23:40:38 GMT 53.676781 -3.205342 34,000 314 460 0
2023-01-21 23:40:35 GMT 53.672401 -3.197506 34,000 314 458 0
2023-01-21 23:40:33 GMT 53.669189 -3.191771 34,000 314 460 -64
2023-01-21 23:40:31 GMT 53.666260 -3.186520 34,000 314 460 0
2023-01-21 23:40:28 GMT 53.662163 -3.179249 33,975 314 461 64
2023-01-21 23:40:25 GMT 53.657505 -3.170929 33,975 314 461 64
2023-01-21 23:40:23 GMT 53.654572 -3.165678 33,975 314 461 64
2023-01-21 23:40:21 GMT 53.652695 -3.162336 33,975 314 461 0
2023-01-21 23:40:19 GMT 53.649315 -3.156307 33,975 314 461 0
2023-01-21 23:40:17 GMT 53.644936 -3.148472 33,975 314 461 64
2023-01-21 23:40:14 GMT 53.641571 -3.142482 33,975 314 465 -64
2023-01-21 23:40:11 GMT 53.637302 -3.134900 33,975 314 462 0
2023-01-21 23:40:09 GMT 53.634201 -3.129377 34,000 314 463 0
2023-01-21 23:40:06 GMT 53.628784 -3.119713 33,975 314 464 -64
2023-01-21 23:40:03 GMT 53.625244 -3.113493 34,000 314 464 -64
2023-01-21 23:40:01 GMT 53.622871 -3.109292 34,000 314 464 -64
2023-01-21 23:39:59 GMT 53.620102 -3.104344 34,000 314 464 -64
2023-01-21 23:39:57 GMT 53.615662 -3.096497 34,000 314 465 -64
2023-01-21 23:39:55 GMT 53.613007 -3.091788 34,000 314 465 -64
2023-01-21 23:39:53 GMT 53.610489 -3.087320 34,000 314 466 -64
2023-01-21 23:39:51 GMT 53.608246 -3.083391 34,000 314 465 -64
2023-01-21 23:39:49 GMT 53.605270 -3.078134 34,000 314 466 -64
2023-01-21 23:39:47 GMT 53.601151 -3.070836 34,000 314 466 -64
2023-01-21 23:39:45 GMT 53.597580 -3.064479 34,000 314 466 -64
2023-01-21 23:39:42 GMT 53.593689 -3.057731 33,975 314 466 0
2023-01-21 23:39:39 GMT 53.590889 -3.052745 34,000 314 466 64
2023-01-21 23:39:37 GMT 53.586422 -3.044829 33,975 314 466 64
2023-01-21 23:39:35 GMT 53.583618 -3.039839 34,000 314 466 0
2023-01-21 23:39:33 GMT 53.579903 -3.033277 33,975 314 466 0
2023-01-21 23:39:30 GMT 53.576084 -3.026410 33,975 314 466 0
2023-01-21 23:39:28 GMT 53.573387 -3.021725 33,975 314 466 0
2023-01-21 23:39:25 GMT 53.568787 -3.013628 33,975 314 466 0
2023-01-21 23:39:22 GMT 53.562881 -3.003113 33,975 314 466 0
2023-01-21 23:39:19 GMT 53.560631 -2.999187 33,975 314 466 0
2023-01-21 23:39:17 GMT 53.553787 -2.987150 33,975 314 466 -64
2023-01-21 23:39:15 GMT 53.553787 -2.987150 33,975 314 466 0
2023-01-21 23:39:13 GMT 53.550854 -2.981899 34,000 314 466 0
2023-01-21 23:39:10 GMT 53.546219 -2.973764 34,000 314 466 -64
2023-01-21 23:39:08 GMT 53.538208 -2.959638 33,975 314 466 0
2023-01-21 23:39:05 GMT 53.538208 -2.959638 33,975 314 466 0
2023-01-21 23:39:03 GMT 53.536148 -2.956029 33,975 314 466 0
2023-01-21 23:39:01 GMT 53.532421 -2.949506 33,975 314 466 0
2023-01-21 23:38:58 GMT 53.523529 -2.933754 33,975 314 466 0
2023-01-21 23:38:55 GMT 53.523529 -2.933754 34,000 314 466 0
2023-01-21 23:38:53 GMT 53.521202 -2.929634 33,975 314 466 -64
2023-01-21 23:38:51 GMT 53.518223 -2.924383 34,000 314 465 -64
2023-01-21 23:38:49 GMT 53.516006 -2.920480 34,000 314 465 -64
2023-01-21 23:38:47 GMT 53.509186 -2.908473 34,000 314 465 -64
2023-01-21 23:38:45 GMT 53.509186 -2.908473 34,000 314 466 -64
2023-01-21 23:38:43 GMT 53.506485 -2.903765 34,000 314 466 -64
2023-01-21 23:38:41 GMT 53.503555 -2.898507 34,000 314 466 -64
2023-01-21 23:38:39 GMT 53.501175 -2.894348 34,000 314 466 0
2023-01-21 23:38:37 GMT 53.494202 -2.882134 34,000 314 465 0
2023-01-21 23:38:35 GMT 53.491825 -2.877933 34,000 314 464 0
2023-01-21 23:38:33 GMT 53.491825 -2.877933 34,000 314 464 0
2023-01-21 23:38:31 GMT 53.488998 -2.873003 34,000 314 465 0
2023-01-21 23:38:28 GMT 53.483215 -2.862827 34,000 314 464 0
2023-01-21 23:38:25 GMT 53.479073 -2.855557 34,000 314 464 0
2023-01-21 23:38:23 GMT 53.472553 -2.844086 33,975 314 464 0
2023-01-21 23:38:20 GMT 53.472553 -2.844086 33,975 314 464 0
2023-01-21 23:38:17 GMT 53.467987 -2.836042 33,975 314 464 0
2023-01-21 23:38:14 GMT 53.463989 -2.829060 33,975 314 464 64
2023-01-21 23:38:11 GMT 53.460297 -2.822545 33,975 314 464 64
2023-01-21 23:38:09 GMT 53.456306 -2.815570 33,975 314 463 64
2023-01-21 23:38:06 GMT 53.452442 -2.808784 33,975 314 463 0
2023-01-21 23:38:04 GMT 53.448906 -2.802564 33,975 314 463 0
2023-01-21 23:38:01 GMT 53.445190 -2.796099 33,975 314 463 0
2023-01-21 23:37:59 GMT 53.440338 -2.787538 34,000 314 463 -64
2023-01-21 23:37:56 GMT 53.437500 -2.782601 33,975 314 463 -64
2023-01-21 23:37:54 GMT 53.433975 -2.776402 33,975 314 463 -64
2023-01-21 23:37:51 GMT 53.430405 -2.770203 33,975 314 463 -64
2023-01-21 23:37:49 GMT 53.427303 -2.764758 34,000 314 463 -64
2023-01-21 23:37:47 GMT 53.424179 -2.759295 34,000 314 463 -64
2023-01-21 23:37:45 GMT 53.420181 -2.752318 34,000 314 463 -64
2023-01-21 23:37:42 GMT 53.415154 -2.743593 34,000 314 463 -64
2023-01-21 23:37:39 GMT 53.412643 -2.739127 34,000 314 463 -64
2023-01-21 23:37:37 GMT 53.409195 -2.733172 34,000 314 463 -64
2023-01-21 23:37:35 GMT 53.405380 -2.726467 34,000 314 463 -64
2023-01-21 23:37:32 GMT 53.400787 -2.718488 34,000 314 463 -64
2023-01-21 23:37:29 GMT 53.396622 -2.711269 33,975 314 463 0
2023-01-21 23:37:26 GMT 53.393230 -2.705303 34,000 314 463 -64
2023-01-21 23:37:24 GMT 53.390076 -2.699890 34,000 314 463 0
2023-01-21 23:37:22 GMT 53.386826 -2.694240 33,975 314 462 0
2023-01-21 23:37:19 GMT 53.382240 -2.686238 34,000 314 463 0
2023-01-21 23:37:17 GMT 53.376053 -2.675413 34,000 314 462 0
2023-01-21 23:37:14 GMT 53.376053 -2.675413 33,975 314 461 0
2023-01-21 23:37:12 GMT 53.371906 -2.668224 34,000 314 461 0
2023-01-21 23:37:09 GMT 53.366276 -2.658449 34,000 314 461 0
2023-01-21 23:37:06 GMT 53.363205 -2.653041 33,975 314 461 0
2023-01-21 23:37:04 GMT 53.358921 -2.645605 33,975 314 461 0
2023-01-21 23:37:01 GMT 53.356110 -2.640721 33,975 314 461 -64
2023-01-21 23:36:59 GMT 53.351990 -2.633501 34,000 314 460 -64
2023-01-21 23:36:56 GMT 53.345371 -2.622016 34,000 314 460 0
2023-01-21 23:36:54 GMT 53.345371 -2.622016 34,000 314 460 0
2023-01-21 23:36:51 GMT 53.341557 -2.615392 34,000 314 461 -64
2023-01-21 23:36:49 GMT 53.338165 -2.609488 34,000 315 460 0
2023-01-21 23:36:47 GMT 53.334480 -2.603114 34,000 314 459 0
2023-01-21 23:36:44 GMT 53.331501 -2.598024 34,000 314 459 64
2023-01-21 23:36:42 GMT 53.327080 -2.590350 34,000 314 459 64
2023-01-21 23:36:39 GMT 53.323261 -2.583726 34,000 314 459 0
2023-01-21 23:36:36 GMT 53.319580 -2.577314 34,000 314 459 64
2023-01-21 23:36:34 GMT 53.316231 -2.571447 34,000 314 459 0
2023-01-21 23:36:32 GMT 53.313400 -2.566642 33,975 314 458 0
2023-01-21 23:36:30 GMT 53.309875 -2.560521 33,975 314 458 64
2023-01-21 23:36:28 GMT 53.304611 -2.551339 33,975 314 458 64
2023-01-21 23:36:26 GMT 53.304611 -2.551339 33,975 314 458 64
2023-01-21 23:36:24 GMT 53.300961 -2.544951 33,975 314 457 64
2023-01-21 23:36:22 GMT 53.293762 -2.532506 34,000 314 456 64
2023-01-21 23:36:19 GMT 53.293762 -2.532506 34,000 314 457 -64
2023-01-21 23:36:16 GMT 53.286297 -2.519585 34,000 314 457 0
2023-01-21 23:36:14 GMT 53.282959 -2.513750 34,000 314 456 0
2023-01-21 23:36:11 GMT 53.278431 -2.505852 33,975 314 456 0
2023-01-21 23:36:09 GMT 53.278431 -2.505852 33,975 314 456 0
2023-01-21 23:36:06 GMT 53.274334 -2.498824 34,000 314 456 64
2023-01-21 23:36:03 GMT 53.268906 -2.489423 33,975 314 456 64
2023-01-21 23:36:00 GMT 53.265816 -2.484122 33,975 314 456 64
2023-01-21 23:35:58 GMT 53.263206 -2.479598 34,000 314 456 0
2023-01-21 23:35:56 GMT 53.260277 -2.474509 33,975 315 457 0
2023-01-21 23:35:54 GMT 53.257507 -2.469648 33,975 314 456 0
2023-01-21 23:35:52 GMT 53.253708 -2.463135 33,975 314 456 64
2023-01-21 23:35:49 GMT 53.249588 -2.455994 33,975 314 456 0
2023-01-21 23:35:46 GMT 53.246109 -2.449951 33,975 314 456 0
2023-01-21 23:35:44 GMT 53.238785 -2.437317 33,975 315 457 0
2023-01-21 23:35:41 GMT 53.238785 -2.437317 33,975 315 457 0
2023-01-21 23:35:38 GMT 53.228340 -2.419335 33,975 315 457 0
2023-01-21 23:35:35 GMT 53.228340 -2.419335 33,975 315 457 0
2023-01-21 23:35:32 GMT 53.222351 -2.408988 34,000 315 457 0
2023-01-21 23:35:30 GMT 53.218826 -2.402867 34,000 315 457 0
2023-01-21 23:35:28 GMT 53.218826 -2.402867 34,000 315 457 0
2023-01-21 23:35:25 GMT 53.213120 -2.393000 33,975 315 457 0
2023-01-21 23:35:22 GMT 53.209579 -2.386941 33,975 315 457 64
2023-01-21 23:35:19 GMT 53.205482 -2.379833 33,975 315 458 0
2023-01-21 23:35:16 GMT 53.201202 -2.372498 34,000 315 458 -64
2023-01-21 23:35:14 GMT 53.199013 -2.368685 34,000 315 458 -64
2023-01-21 23:35:12 GMT 53.192642 -2.357823 34,000 315 458 0
2023-01-21 23:35:10 GMT 53.192642 -2.357823 33,975 315 458 0
2023-01-21 23:35:08 GMT 53.190582 -2.354292 33,975 315 458 -64
2023-01-21 23:35:06 GMT 53.182022 -2.339539 34,000 315 459 -64
2023-01-21 23:35:03 GMT 53.182022 -2.339539 34,000 315 458 -64
2023-01-21 23:35:00 GMT 53.178017 -2.332737 33,975 315 458 -64
2023-01-21 23:34:58 GMT 53.175247 -2.327924 33,975 315 458 -64
2023-01-21 23:34:56 GMT 53.173141 -2.324393 34,000 315 458 -64
2023-01-21 23:34:54 GMT 53.169296 -2.317801 33,975 315 458 -64
2023-01-21 23:34:51 GMT 53.163986 -2.308698 34,000 315 458 -64
2023-01-21 23:34:48 GMT 53.161491 -2.304382 34,000 315 458 -64
2023-01-21 23:34:46 GMT 53.157806 -2.298104 34,000 315 458 -64
2023-01-21 23:34:44 GMT 53.150436 -2.285470 34,000 315 458 -64
2023-01-21 23:34:42 GMT 53.145996 -2.277858 34,000 315 458 -64
2023-01-21 23:34:39 GMT 53.145996 -2.277858 34,000 315 458 -64
2023-01-21 23:34:36 GMT 53.142311 -2.271504 34,000 315 458 -64
2023-01-21 23:34:34 GMT 53.139378 -2.266496 34,000 315 458 0
2023-01-21 23:34:31 GMT 53.134956 -2.258902 33,975 315 458 64
2023-01-21 23:34:28 GMT 53.130386 -2.251099 34,000 315 458 0
2023-01-21 23:34:26 GMT 53.128159 -2.247350 34,000 315 458 0
2023-01-21 23:34:24 GMT 53.124344 -2.240807 33,975 315 458 64
2023-01-21 23:34:21 GMT 53.120247 -2.233698 34,000 315 456 0
2023-01-21 23:34:18 GMT 53.116711 -2.227640 33,975 315 457 64
2023-01-21 23:34:16 GMT 53.113777 -2.222631 33,975 315 456 0
2023-01-21 23:34:14 GMT 53.108917 -2.214294 34,000 315 456 0
2023-01-21 23:34:11 GMT 53.105392 -2.208252 34,000 315 457 0
2023-01-21 23:34:08 GMT 53.100677 -2.200248 33,975 315 457 0
2023-01-21 23:34:05 GMT 53.097622 -2.194923 34,000 315 457 0
2023-01-21 23:34:03 GMT 53.093201 -2.187378 33,975 315 457 -64
2023-01-21 23:34:00 GMT 53.085983 -2.175064 33,975 315 457 0
2023-01-21 23:33:58 GMT 53.085983 -2.175064 33,975 315 457 0
2023-01-21 23:33:55 GMT 53.082733 -2.169571 34,000 315 457 -64
2023-01-21 23:33:53 GMT 53.079048 -2.163286 34,000 315 457 -64
2023-01-21 23:33:50 GMT 53.075363 -2.156982 34,000 315 457 0
2023-01-21 23:33:48 GMT 53.073181 -2.153242 34,000 315 457 0
2023-01-21 23:33:46 GMT 53.069366 -2.146729 34,000 315 457 0
2023-01-21 23:33:44 GMT 53.061405 -2.133153 34,000 315 457 0
2023-01-21 23:33:41 GMT 53.061405 -2.133153 34,000 315 457 0
2023-01-21 23:33:38 GMT 53.055817 -2.123657 33,975 315 457 0
2023-01-21 23:33:35 GMT 53.053444 -2.119577 33,975 315 456 64
2023-01-21 23:33:33 GMT 53.045811 -2.106550 33,975 315 456 0
2023-01-21 23:33:30 GMT 53.045811 -2.106550 33,975 315 456 0
2023-01-21 23:33:28 GMT 53.040939 -2.098312 34,000 315 456 0
2023-01-21 23:33:25 GMT 53.038734 -2.094543 34,000 315 456 0
2023-01-21 23:33:23 GMT 53.034637 -2.087481 34,000 315 456 0
2023-01-21 23:33:20 GMT 53.031509 -2.082291 33,975 315 456 64
2023-01-21 23:33:18 GMT 53.027115 -2.074738 33,975 315 456 0
2023-01-21 23:33:15 GMT 53.024021 -2.069510 34,000 315 456 64
2023-01-21 23:33:13 GMT 53.019600 -2.061977 33,975 315 456 64
2023-01-21 23:33:10 GMT 53.016342 -2.056484 33,975 315 456 0
2023-01-21 23:33:08 GMT 53.012524 -2.049970 34,000 315 456 0
2023-01-21 23:33:05 GMT 53.008705 -2.043457 34,000 315 456 64
2023-01-21 23:33:03 GMT 53.001911 -2.031921 33,975 315 457 0
2023-01-21 23:33:00 GMT 53.001911 -2.031921 33,975 315 457 0
2023-01-21 23:32:58 GMT 52.999538 -2.027919 33,975 315 457 0
2023-01-21 23:32:56 GMT 52.995113 -2.020464 33,975 315 456 64
2023-01-21 23:32:53 GMT 52.990414 -2.012460 33,975 315 457 64
2023-01-21 23:32:50 GMT 52.986874 -2.006417 33,975 315 457 0
2023-01-21 23:32:48 GMT 52.982452 -1.998962 33,975 315 457 0
2023-01-21 23:32:45 GMT 52.979195 -1.993469 33,975 315 457 -64
2023-01-21 23:32:43 GMT 52.975655 -1.987427 33,975 315 458 -64
2023-01-21 23:32:40 GMT 52.971954 -1.981201 34,000 315 458 0
2023-01-21 23:32:38 GMT 52.969742 -1.977461 34,000 315 458 -64
2023-01-21 23:32:36 GMT 52.965275 -1.969927 34,000 315 458 -64
2023-01-21 23:32:33 GMT 52.961014 -1.962662 34,000 315 458 -64
2023-01-21 23:32:30 GMT 52.957314 -1.956430 34,000 315 458 -64
2023-01-21 23:32:28 GMT 52.953323 -1.949692 34,000 315 458 -64
2023-01-21 23:32:25 GMT 52.949585 -1.943481 34,000 315 458 -64
2023-01-21 23:32:23 GMT 52.942062 -1.930695 34,000 315 458 -64
2023-01-21 23:32:20 GMT 52.942062 -1.930695 34,000 315 458 0
2023-01-21 23:32:18 GMT 52.939857 -1.926923 34,000 315 453 0
2023-01-21 23:32:16 GMT 52.934967 -1.918716 34,000 315 457 0
2023-01-21 23:32:13 GMT 52.931122 -1.912231 34,000 315 457 0
2023-01-21 23:32:10 GMT 52.927708 -1.906520 34,000 315 457 0
2023-01-21 23:32:08 GMT 52.923283 -1.898987 34,000 315 456 64
2023-01-21 23:32:05 GMT 52.919746 -1.893023 34,000 315 456 64
2023-01-21 23:32:02 GMT 52.915146 -1.885300 33,975 315 456 64
2023-01-21 23:31:59 GMT 52.911301 -1.878815 33,975 315 456 64
2023-01-21 23:31:57 GMT 52.907921 -1.873169 33,975 315 456 64
2023-01-21 23:31:55 GMT 52.905991 -1.869888 33,975 315 456 64
2023-01-21 23:31:53 GMT 52.902145 -1.863403 34,000 315 455 0
2023-01-21 23:31:50 GMT 52.897751 -1.856003 34,000 315 455 0
2023-01-21 23:31:48 GMT 52.894936 -1.851275 33,975 315 455 0
2023-01-21 23:31:46 GMT 52.892002 -1.846331 33,975 315 455 -64
2023-01-21 23:31:43 GMT 52.886696 -1.837385 33,975 315 455 0
2023-01-21 23:31:40 GMT 52.883484 -1.831970 33,975 315 455 0
2023-01-21 23:31:38 GMT 52.880829 -1.827497 33,975 315 454 0
2023-01-21 23:31:35 GMT 52.876236 -1.819763 34,000 315 454 0
2023-01-21 23:31:33 GMT 52.872711 -1.813889 34,000 315 454 0
2023-01-21 23:31:30 GMT 52.864349 -1.799796 34,000 315 454 0
2023-01-21 23:31:28 GMT 52.864349 -1.799796 34,000 315 454 -64
2023-01-21 23:31:25 GMT 52.861267 -1.794586 34,000 315 454 0
2023-01-21 23:31:23 GMT 52.857697 -1.788635 34,000 315 453 0
2023-01-21 23:31:20 GMT 52.853897 -1.782227 34,000 315 453 0
2023-01-21 23:31:18 GMT 52.849640 -1.775077 34,000 315 453 64
2023-01-21 23:31:15 GMT 52.846848 -1.770325 33,975 315 453 64
2023-01-21 23:31:13 GMT 52.842453 -1.762924 33,975 315 453 64
2023-01-21 23:31:10 GMT 52.838608 -1.756516 33,975 315 453 64
2023-01-21 23:31:07 GMT 52.835857 -1.751848 33,975 315 453 64
2023-01-21 23:31:05 GMT 52.832043 -1.745492 33,975 315 453 64
2023-01-21 23:31:03 GMT 52.828354 -1.739273 33,975 315 453 0
2023-01-21 23:31:00 GMT 52.824081 -1.732152 33,975 315 453 0
2023-01-21 23:30:57 GMT 52.819984 -1.725246 33,975 315 453 0
2023-01-21 23:30:54 GMT 52.814678 -1.716378 34,000 315 453 0
2023-01-21 23:30:51 GMT 52.808075 -1.705322 33,975 315 453 0
2023-01-21 23:30:49 GMT 52.808075 -1.705322 33,975 315 453 -64
2023-01-21 23:30:47 GMT 52.805878 -1.701704 33,975 315 453 -64
2023-01-21 23:30:45 GMT 52.802341 -1.695740 34,000 315 453 -64
2023-01-21 23:30:43 GMT 52.799129 -1.690404 34,000 315 453 -64
2023-01-21 23:30:40 GMT 52.794571 -1.682739 34,000 315 453 -64
2023-01-21 23:30:38 GMT 52.791641 -1.677856 34,000 315 453 -64
2023-01-21 23:30:35 GMT 52.787521 -1.670990 33,975 315 452 -64
2023-01-21 23:30:33 GMT 52.784866 -1.666565 34,000 315 453 -64
2023-01-21 23:30:30 GMT 52.779716 -1.657994 34,000 315 452 0
2023-01-21 23:30:28 GMT 52.777061 -1.653521 33,975 315 452 0
2023-01-21 23:30:25 GMT 52.772968 -1.646694 34,000 315 452 0
2023-01-21 23:30:23 GMT 52.769897 -1.641541 33,975 315 452 64
2023-01-21 23:30:20 GMT 52.764168 -1.632019 33,975 315 452 64
2023-01-21 23:30:17 GMT 52.756813 -1.619777 33,975 315 452 64
2023-01-21 23:30:14 GMT 52.756813 -1.619777 33,975 315 451 0
2023-01-21 23:30:12 GMT 52.753464 -1.614151 33,975 315 451 0
2023-01-21 23:30:09 GMT 52.750389 -1.609026 33,975 315 451 0
2023-01-21 23:30:07 GMT 52.746571 -1.602670 34,000 315 451 -64
2023-01-21 23:30:04 GMT 52.742149 -1.595293 34,000 315 451 -64
2023-01-21 23:30:02 GMT 52.739090 -1.590195 33,975 315 451 -64
2023-01-21 23:29:59 GMT 52.734562 -1.582659 34,000 315 450 -128
2023-01-21 23:29:56 GMT 52.729431 -1.574097 34,000 315 449 -128
2023-01-21 23:29:53 GMT 52.721878 -1.561432 34,000 315 449 -64
2023-01-21 23:29:50 GMT 52.721878 -1.561432 34,000 315 448 64
2023-01-21 23:29:48 GMT 52.718353 -1.555634 34,000 315 449 0
2023-01-21 23:29:45 GMT 52.714279 -1.548843 34,000 315 449 0
2023-01-21 23:29:42 GMT 52.708466 -1.539154 34,000 315 448 64
2023-01-21 23:29:39 GMT 52.706257 -1.535496 34,000 315 447 64
2023-01-21 23:29:37 GMT 52.703201 -1.530457 33,975 315 446 128
2023-01-21 23:29:35 GMT 52.699276 -1.523961 34,000 315 446 128
2023-01-21 23:29:32 GMT 52.694901 -1.516663 33,975 315 446 128
2023-01-21 23:29:29 GMT 52.691849 -1.511688 33,975 315 445 128
2023-01-21 23:29:27 GMT 52.687077 -1.503714 33,975 315 444 64
2023-01-21 23:29:24 GMT 52.679863 -1.491708 33,975 315 443 0
2023-01-21 23:29:21 GMT 52.676975 -1.486921 33,975 315 443 0
2023-01-21 23:29:19 GMT 52.676975 -1.486921 33,975 315 443 0
2023-01-21 23:29:17 GMT 52.672531 -1.479492 33,975 315 443 0
2023-01-21 23:29:14 GMT 52.669807 -1.474993 34,000 315 444 0
2023-01-21 23:29:11 GMT 52.665478 -1.467852 33,975 315 444 0
2023-01-21 23:29:09 GMT 52.662590 -1.463065 33,975 315 444 0
2023-01-21 23:29:07 GMT 52.655933 -1.452079 34,000 315 444 0
2023-01-21 23:29:05 GMT 52.655933 -1.452079 33,975 315 444 0
2023-01-21 23:29:03 GMT 52.653049 -1.447292 33,975 315 443 0
2023-01-21 23:29:00 GMT 52.649323 -1.441092 33,975 315 443 0
2023-01-21 23:28:58 GMT 52.642109 -1.429086 33,975 315 443 0
2023-01-21 23:28:55 GMT 52.642109 -1.429086 33,975 315 443 0
2023-01-21 23:28:53 GMT 52.639343 -1.424561 33,975 315 443 0
2023-01-21 23:28:51 GMT 52.636185 -1.419296 34,000 315 444 -64
2023-01-21 23:28:49 GMT 52.633301 -1.414566 34,000 315 444 0
2023-01-21 23:28:47 GMT 52.631287 -1.411209 34,000 315 443 -64
2023-01-21 23:28:45 GMT 52.627071 -1.404288 34,000 315 444 0
2023-01-21 23:28:43 GMT 52.625069 -1.400914 34,000 315 443 0
2023-01-21 23:28:41 GMT 52.621765 -1.395416 34,000 315 444 0
2023-01-21 23:28:39 GMT 52.618412 -1.389927 34,000 315 443 -64
2023-01-21 23:28:36 GMT 52.610359 -1.376587 34,000 315 443 0
2023-01-21 23:28:33 GMT 52.605984 -1.369446 34,000 315 443 0
2023-01-21 23:28:30 GMT 52.605984 -1.369446 34,000 315 443 0
2023-01-21 23:28:28 GMT 52.603546 -1.365433 34,000 315 443 64
2023-01-21 23:28:26 GMT 52.599518 -1.358795 34,000 315 443 0
2023-01-21 23:28:23 GMT 52.595882 -1.352809 34,000 315 443 64
2023-01-21 23:28:21 GMT 52.593273 -1.348572 33,975 315 443 64
2023-01-21 23:28:19 GMT 52.589828 -1.342843 33,975 315 443 64
2023-01-21 23:28:17 GMT 52.587067 -1.338348 34,000 315 443 0
2023-01-21 23:28:15 GMT 52.584183 -1.333542 34,000 315 443 0
2023-01-21 23:28:13 GMT 52.578415 -1.324081 34,000 315 442 0
2023-01-21 23:28:11 GMT 52.578415 -1.324081 34,000 315 442 64
2023-01-21 23:28:09 GMT 52.575680 -1.319536 33,975 315 442 0
2023-01-21 23:28:07 GMT 52.572186 -1.313808 33,975 315 442 0
2023-01-21 23:28:05 GMT 52.569763 -1.309814 33,975 315 442 64
2023-01-21 23:28:03 GMT 52.566559 -1.304626 33,975 315 442 0
2023-01-21 23:28:01 GMT 52.563526 -1.299604 34,000 315 442 64
2023-01-21 23:27:58 GMT 52.556488 -1.287994 33,975 315 441 0
2023-01-21 23:27:56 GMT 52.556488 -1.287994 33,975 315 441 0
2023-01-21 23:27:53 GMT 52.552734 -1.281815 33,975 315 441 64
2023-01-21 23:27:51 GMT 52.549576 -1.276627 33,975 315 441 0
2023-01-21 23:27:48 GMT 52.545822 -1.270447 33,975 315 441 64
2023-01-21 23:27:46 GMT 52.542343 -1.264801 33,975 315 441 -64
2023-01-21 23:27:43 GMT 52.534882 -1.252518 34,000 315 441 0
2023-01-21 23:27:41 GMT 52.534882 -1.252518 34,000 315 441 -64
2023-01-21 23:27:39 GMT 52.532711 -1.248989 34,000 315 441 -64
2023-01-21 23:27:37 GMT 52.529114 -1.243057 34,000 315 441 -64
2023-01-21 23:27:35 GMT 52.526379 -1.238552 33,975 315 441 0
2023-01-21 23:27:33 GMT 52.523495 -1.233843 34,000 315 441 -64
2023-01-21 23:27:31 GMT 52.520782 -1.229324 34,000 316 440 0
2023-01-21 23:27:29 GMT 52.517303 -1.223679 34,000 316 440 0
2023-01-21 23:27:26 GMT 52.514420 -1.218948 34,000 316 440 0
2023-01-21 23:27:24 GMT 52.511669 -1.214460 34,000 316 441 0
2023-01-21 23:27:22 GMT 52.508224 -1.208810 33,975 316 441 0
2023-01-21 23:27:20 GMT 52.504780 -1.203238 33,975 316 440 64
2023-01-21 23:27:17 GMT 52.501289 -1.197588 33,975 316 440 64
2023-01-21 23:27:15 GMT 52.497711 -1.191711 33,975 316 440 64
2023-01-21 23:27:13 GMT 52.494827 -1.186981 34,000 315 439 64
2023-01-21 23:27:11 GMT 52.491943 -1.182251 34,000 315 439 64
2023-01-21 23:27:08 GMT 52.488235 -1.176147 33,975 315 439 0
2023-01-21 23:27:06 GMT 52.480900 -1.164158 33,975 315 439 0
2023-01-21 23:27:03 GMT 52.480900 -1.164158 33,975 315 439 0
2023-01-21 23:27:01 GMT 52.478485 -1.160202 34,000 316 439 -64
2023-01-21 23:26:59 GMT 52.471298 -1.148453 34,000 316 439 -64
2023-01-21 23:26:56 GMT 52.471298 -1.148453 34,000 316 439 -64
2023-01-21 23:26:54 GMT 52.467865 -1.142807 34,000 316 439 0
2023-01-21 23:26:52 GMT 52.464836 -1.137948 33,975 316 439 0
2023-01-21 23:26:50 GMT 52.461998 -1.133240 34,000 316 438 64
2023-01-21 23:26:48 GMT 52.456505 -1.124372 33,975 316 438 0
2023-01-21 23:26:46 GMT 52.456505 -1.124372 33,975 316 438 0
2023-01-21 23:26:44 GMT 52.449615 -1.113150 34,000 316 439 0
2023-01-21 23:26:42 GMT 52.449615 -1.113150 34,000 316 439 0
2023-01-21 23:26:39 GMT 52.445332 -1.106088 34,000 316 437 0
2023-01-21 23:26:36 GMT 52.441772 -1.100235 34,000 316 437 0
2023-01-21 23:26:33 GMT 52.437469 -1.093292 34,000 316 437 0
2023-01-21 23:26:31 GMT 52.435322 -1.089765 34,000 316 437 0
2023-01-21 23:26:29 GMT 52.431152 -1.082993 34,000 316 437 0
2023-01-21 23:26:26 GMT 52.427269 -1.076660 34,000 316 437 64
2023-01-21 23:26:23 GMT 52.422989 -1.069676 34,000 316 437 64
2023-01-21 23:26:21 GMT 52.420986 -1.066459 34,000 316 437 64
2023-01-21 23:26:19 GMT 52.418144 -1.061750 33,975 316 436 0
2023-01-21 23:26:17 GMT 52.414700 -1.056179 33,975 316 436 64
2023-01-21 23:26:15 GMT 52.411423 -1.050797 33,975 316 436 0
2023-01-21 23:26:13 GMT 52.409252 -1.047311 34,000 316 436 64
2023-01-21 23:26:11 GMT 52.402691 -1.036639 33,975 316 436 64
2023-01-21 23:26:09 GMT 52.402691 -1.036639 33,975 316 436 64
2023-01-21 23:26:06 GMT 52.396271 -1.026154 34,000 316 436 0
2023-01-21 23:26:04 GMT 52.396271 -1.026154 33,975 316 436 0
2023-01-21 23:26:02 GMT 52.394257 -1.022949 33,975 316 436 -64
2023-01-21 23:26:00 GMT 52.387115 -1.011276 34,000 316 436 0
2023-01-21 23:25:58 GMT 52.387115 -1.011276 33,975 315 435 -64
2023-01-21 23:25:55 GMT 52.384441 -1.006897 33,975 315 435 0
2023-01-21 23:25:53 GMT 52.380890 -1.001053 33,975 315 435 -64
2023-01-21 23:25:51 GMT 52.374619 -0.990829 33,975 315 435 0
2023-01-21 23:25:49 GMT 52.374619 -0.990829 34,000 315 435 0
2023-01-21 23:25:47 GMT 52.371780 -0.986176 34,000 315 435 -64
2023-01-21 23:25:45 GMT 52.366104 -0.976868 34,000 315 435 0
2023-01-21 23:25:43 GMT 52.366104 -0.976868 34,000 315 435 0
2023-01-21 23:25:40 GMT 52.361679 -0.969700 34,000 315 435 64
2023-01-21 23:25:38 GMT 52.360283 -0.967346 34,000 315 435 0
2023-01-21 23:25:36 GMT 52.355999 -0.960440 33,975 315 435 64
2023-01-21 23:25:34 GMT 52.353161 -0.955732 33,975 315 435 64
2023-01-21 23:25:31 GMT 52.349758 -0.950239 33,975 315 435 64
2023-01-21 23:25:29 GMT 52.346466 -0.944901 33,975 315 434 64
2023-01-21 23:25:26 GMT 52.342079 -0.937683 34,000 315 434 64
2023-01-21 23:25:24 GMT 52.339096 -0.932846 34,000 315 434 0
2023-01-21 23:25:22 GMT 52.337006 -0.929365 34,000 315 434 0
2023-01-21 23:25:20 GMT 52.334015 -0.924454 34,000 315 434 64
2023-01-21 23:25:18 GMT 52.330307 -0.918427 33,975 315 434 64
2023-01-21 23:25:16 GMT 52.324806 -0.909433 34,000 315 434 0
2023-01-21 23:25:14 GMT 52.324806 -0.909433 34,000 315 434 0
2023-01-21 23:25:11 GMT 52.321289 -0.903625 34,000 315 434 0
2023-01-21 23:25:09 GMT 52.317856 -0.898056 34,000 315 434 64
2023-01-21 23:25:07 GMT 52.315170 -0.893659 33,975 315 434 -64
2023-01-21 23:25:04 GMT 52.310211 -0.885544 33,975 316 434 0
2023-01-21 23:25:02 GMT 52.308933 -0.883458 33,975 316 434 64
2023-01-21 23:25:00 GMT 52.305256 -0.877494 33,975 316 434 -64
2023-01-21 23:24:57 GMT 52.301971 -0.872116 33,975 316 434 0
2023-01-21 23:24:55 GMT 52.298695 -0.866821 33,975 316 434 0
2023-01-21 23:24:53 GMT 52.294281 -0.859680 34,000 316 434 0
2023-01-21 23:24:50 GMT 52.289154 -0.851364 34,000 316 434 0
2023-01-21 23:24:47 GMT 52.286316 -0.846786 34,000 316 434 0
2023-01-21 23:24:44 GMT 52.283329 -0.841945 33,975 316 434 0
2023-01-21 23:24:42 GMT 52.278721 -0.834647 34,000 316 434 -64
2023-01-21 23:24:39 GMT 52.271832 -0.823739 34,000 317 434 64
2023-01-21 23:24:36 GMT 52.271832 -0.823739 34,000 317 434 0
2023-01-21 23:24:34 GMT 52.268188 -0.818100 34,000 317 434 0
2023-01-21 23:24:32 GMT 52.263733 -0.811026 33,975 317 434 0
2023-01-21 23:24:29 GMT 52.260361 -0.805893 34,000 317 434 0
2023-01-21 23:24:27 GMT 52.258942 -0.803604 33,975 317 434 0
2023-01-21 23:24:25 GMT 52.255863 -0.798863 34,000 317 434 0
2023-01-21 23:24:23 GMT 52.252979 -0.794312 34,000 317 434 64
2023-01-21 23:24:21 GMT 52.248779 -0.787811 33,975 317 434 64
2023-01-21 23:24:19 GMT 52.246040 -0.783482 34,000 317 434 64
2023-01-21 23:24:17 GMT 52.243111 -0.779009 33,975 317 434 64
2023-01-21 23:24:15 GMT 52.240952 -0.775604 34,000 317 434 64
2023-01-21 23:24:13 GMT 52.238174 -0.771319 33,975 317 434 64
2023-01-21 23:24:11 GMT 52.234268 -0.765152 34,000 317 435 0
2023-01-21 23:24:09 GMT 52.232803 -0.762939 34,000 317 435 0
2023-01-21 23:24:07 GMT 52.228180 -0.755692 33,975 317 435 0
2023-01-21 23:24:04 GMT 52.224701 -0.750275 33,975 317 435 0
2023-01-21 23:24:01 GMT 52.219757 -0.742569 34,000 317 435 0
2023-01-21 23:23:59 GMT 52.217552 -0.739223 33,975 317 435 0
2023-01-21 23:23:57 GMT 52.215225 -0.735613 34,000 317 435 0
2023-01-21 23:23:55 GMT 52.210896 -0.728786 34,000 317 435 -64
2023-01-21 23:23:52 GMT 52.207077 -0.722900 34,000 317 436 -64
2023-01-21 23:23:49 GMT 52.202145 -0.715210 34,000 317 436 -64
2023-01-21 23:23:47 GMT 52.199490 -0.711129 34,000 317 436 0
2023-01-21 23:23:44 GMT 52.196457 -0.706406 34,000 317 436 0
2023-01-21 23:23:42 GMT 52.192932 -0.700989 34,000 317 437 0
2023-01-21 23:23:40 GMT 52.190002 -0.696411 34,000 317 437 0
2023-01-21 23:23:38 GMT 52.187668 -0.692825 34,000 317 437 -64
2023-01-21 23:23:36 GMT 52.184917 -0.688529 33,975 317 437 0
2023-01-21 23:23:34 GMT 52.180820 -0.682173 34,000 317 436 -64
2023-01-21 23:23:32 GMT 52.177460 -0.676956 34,000 317 436 0
2023-01-21 23:23:29 GMT 52.173660 -0.671082 34,000 317 437 0
2023-01-21 23:23:27 GMT 52.169586 -0.664749 34,000 317 437 0
2023-01-21 23:23:24 GMT 52.166656 -0.660248 34,000 317 437 64
2023-01-21 23:23:22 GMT 52.163727 -0.655746 33,975 317 437 64
2023-01-21 23:23:20 GMT 52.160664 -0.650940 34,000 317 437 64
2023-01-21 23:23:18 GMT 52.157867 -0.646667 33,975 317 437 64
2023-01-21 23:23:16 GMT 52.154938 -0.642166 33,975 317 437 64
2023-01-21 23:23:14 GMT 52.152328 -0.638046 33,975 317 437 64
2023-01-21 23:23:12 GMT 52.147770 -0.631086 33,975 317 437 64
2023-01-21 23:23:09 GMT 52.140610 -0.619965 33,975 317 437 64
2023-01-21 23:23:07 GMT 52.140610 -0.619965 34,000 317 437 0
2023-01-21 23:23:04 GMT 52.134037 -0.609820 33,975 317 437 64
2023-01-21 23:23:02 GMT 52.134037 -0.609820 34,000 317 437 0
2023-01-21 23:23:00 GMT 52.130219 -0.603934 34,000 317 437 0
2023-01-21 23:22:57 GMT 52.125797 -0.597107 33,975 317 437 64
2023-01-21 23:22:54 GMT 52.122307 -0.591692 34,000 317 438 0
2023-01-21 23:22:52 GMT 52.119232 -0.586929 33,975 317 438 0
2023-01-21 23:22:50 GMT 52.114517 -0.579681 33,975 317 438 0
2023-01-21 23:22:48 GMT 52.114517 -0.579681 33,975 317 438 0
2023-01-21 23:22:46 GMT 52.111588 -0.575104 33,975 317 439 0
2023-01-21 23:22:44 GMT 52.104664 -0.564462 33,975 317 439 0
2023-01-21 23:22:42 GMT 52.104664 -0.564462 34,000 317 439 0
2023-01-21 23:22:40 GMT 52.101883 -0.560150 33,975 317 439 0
2023-01-21 23:22:38 GMT 52.096424 -0.551749 33,975 317 439 64
2023-01-21 23:22:34 GMT 52.092453 -0.545578 34,000 317 439 0
2023-01-21 23:22:31 GMT 52.089394 -0.540841 34,000 317 439 0
2023-01-21 23:22:29 GMT 52.085857 -0.535348 33,975 317 440 64
2023-01-21 23:22:27 GMT 52.081284 -0.528336 34,000 317 440 0
2023-01-21 23:22:24 GMT 52.078308 -0.523758 33,975 317 441 64
2023-01-21 23:22:22 GMT 52.075378 -0.519257 34,000 317 441 64
2023-01-21 23:22:20 GMT 52.072128 -0.514221 33,975 317 441 0
2023-01-21 23:22:18 GMT 52.070023 -0.511017 34,000 317 441 0
2023-01-21 23:22:16 GMT 52.061928 -0.498544 33,975 317 441 0
2023-01-21 23:22:13 GMT 52.061928 -0.498544 33,975 317 442 0
2023-01-21 23:22:11 GMT 52.059677 -0.495071 33,975 317 442 -64
2023-01-21 23:22:09 GMT 52.055412 -0.488499 33,975 317 442 -64
2023-01-21 23:22:06 GMT 52.052307 -0.483704 33,975 317 442 -64
2023-01-21 23:22:04 GMT 52.049454 -0.479396 34,000 317 442 -64
2023-01-21 23:22:02 GMT 52.045761 -0.473709 34,000 317 442 -64
2023-01-21 23:22:00 GMT 52.040405 -0.465469 34,000 317 443 -64
2023-01-21 23:21:58 GMT 52.040405 -0.465469 34,000 317 443 -64
2023-01-21 23:21:56 GMT 52.036240 -0.459061 33,975 317 443 64
2023-01-21 23:21:54 GMT 52.033585 -0.454941 33,975 317 443 0
2023-01-21 23:21:52 GMT 52.030884 -0.450821 34,000 317 443 64
2023-01-21 23:21:50 GMT 52.027313 -0.445328 33,975 317 444 0
2023-01-21 23:21:48 GMT 52.024933 -0.441742 34,000 317 444 64
2023-01-21 23:21:46 GMT 52.022404 -0.437805 34,000 317 444 64
2023-01-21 23:21:44 GMT 52.019146 -0.432783 34,000 317 444 64
2023-01-21 23:21:42 GMT 52.015842 -0.427761 33,975 317 444 64
2023-01-21 23:21:40 GMT 52.013031 -0.423431 34,000 317 444 64
2023-01-21 23:21:38 GMT 52.010208 -0.419128 33,975 317 444 64
2023-01-21 23:21:36 GMT 52.002155 -0.406730 33,975 317 444 64
2023-01-21 23:21:33 GMT 52.002155 -0.406730 33,975 317 444 64
2023-01-21 23:21:31 GMT 51.999893 -0.403290 33,950 317 445 0
2023-01-21 23:21:29 GMT 51.993942 -0.394135 34,000 317 445 0
2023-01-21 23:21:27 GMT 51.993942 -0.394135 34,000 317 445 0
2023-01-21 23:21:25 GMT 51.990646 -0.389099 34,000 317 445 -64
2023-01-21 23:21:23 GMT 51.987492 -0.384286 33,975 317 445 0
2023-01-21 23:21:21 GMT 51.984512 -0.379735 34,000 317 445 -64
2023-01-21 23:21:19 GMT 51.981205 -0.374712 33,975 317 445 -64
2023-01-21 23:21:16 GMT 51.976868 -0.368042 34,000 317 446 0
2023-01-21 23:21:13 GMT 51.972702 -0.361633 34,000 317 446 64
2023-01-21 23:21:11 GMT 51.969566 -0.356820 33,975 317 445 64
2023-01-21 23:21:08 GMT 51.964645 -0.349274 34,000 317 445 -64
2023-01-21 23:21:06 GMT 51.960159 -0.342407 34,000 317 446 0
2023-01-21 23:21:03 GMT 51.957138 -0.337830 33,975 317 446 0
2023-01-21 23:21:01 GMT 51.953568 -0.332336 34,000 317 446 -64
2023-01-21 23:20:58 GMT 51.950108 -0.327079 33,975 317 447 64
2023-01-21 23:20:56 GMT 51.946804 -0.321978 33,975 317 447 0
2023-01-21 23:20:54 GMT 51.940800 -0.312796 34,000 317 447 0
2023-01-21 23:20:52 GMT 51.940800 -0.312796 33,975 317 447 0
2023-01-21 23:20:50 GMT 51.939468 -0.310745 34,000 317 447 0
2023-01-21 23:20:48 GMT 51.935852 -0.305252 34,000 317 446 64
2023-01-21 23:20:46 GMT 51.927624 -0.292707 33,950 317 447 64
2023-01-21 23:20:43 GMT 51.927624 -0.292707 34,000 317 447 64
2023-01-21 23:20:41 GMT 51.924774 -0.288315 33,975 317 447 64
2023-01-21 23:20:39 GMT 51.921898 -0.283997 34,000 317 447 64
2023-01-21 23:20:37 GMT 51.918732 -0.279160 33,950 317 447 64
2023-01-21 23:20:35 GMT 51.916672 -0.275955 33,975 317 447 64
2023-01-21 23:20:33 GMT 51.912140 -0.269089 33,975 317 447 64
2023-01-21 23:20:31 GMT 51.907188 -0.261553 33,975 317 447 64
2023-01-21 23:20:29 GMT 51.907188 -0.261553 33,975 317 447 64
2023-01-21 23:20:27 GMT 51.903603 -0.255981 33,975 317 447 64
2023-01-21 23:20:25 GMT 51.900742 -0.251694 33,975 317 447 64
2023-01-21 23:20:23 GMT 51.898636 -0.248413 34,000 317 447 0
2023-01-21 23:20:21 GMT 51.894699 -0.242462 33,975 317 447 0
2023-01-21 23:20:19 GMT 51.888382 -0.232866 34,000 317 448 -64
2023-01-21 23:20:17 GMT 51.888382 -0.232866 34,000 317 448 -64
2023-01-21 23:20:15 GMT 51.886147 -0.229416 33,975 317 448 0
2023-01-21 23:20:13 GMT 51.882660 -0.224180 34,000 317 448 -64
2023-01-21 23:20:11 GMT 51.878883 -0.218430 33,975 317 448 -64
2023-01-21 23:20:08 GMT 51.875702 -0.213565 34,000 317 449 -64
2023-01-21 23:20:06 GMT 51.871620 -0.207367 34,000 317 449 -64
2023-01-21 23:20:03 GMT 51.867386 -0.200958 33,975 317 449 -64
2023-01-21 23:20:01 GMT 51.864212 -0.196121 33,975 317 449 0
2023-01-21 23:19:59 GMT 51.862267 -0.193176 34,000 317 449 0
2023-01-21 23:19:57 GMT 51.859085 -0.188326 34,000 317 449 0
2023-01-21 23:19:55 GMT 51.855003 -0.182114 34,000 317 449 0
2023-01-21 23:19:53 GMT 51.851212 -0.176375 34,000 317 449 0
2023-01-21 23:19:50 GMT 51.846405 -0.169026 33,975 317 449 0
2023-01-21 23:19:47 GMT 51.842621 -0.163269 34,000 317 449 64
2023-01-21 23:19:45 GMT 51.838104 -0.156403 34,000 317 449 64
2023-01-21 23:19:43 GMT 51.838104 -0.156403 34,000 317 449 64
2023-01-21 23:19:41 GMT 51.834915 -0.151582 33,975 317 449 0
2023-01-21 23:19:39 GMT 51.827957 -0.141041 33,975 317 449 0
2023-01-21 23:19:37 GMT 51.827957 -0.141041 33,975 317 449 0
2023-01-21 23:19:35 GMT 51.824936 -0.136438 33,975 317 449 0
2023-01-21 23:19:33 GMT 51.822189 -0.132356 34,000 317 449 0
2023-01-21 23:19:31 GMT 51.819950 -0.128937 34,000 317 449 0
2023-01-21 23:19:29 GMT 51.816147 -0.123151 34,000 317 449 0
2023-01-21 23:19:27 GMT 51.812805 -0.118177 33,975 317 449 0
2023-01-21 23:19:25 GMT 51.809662 -0.113373 34,000 317 449 0
2023-01-21 23:19:23 GMT 51.806637 -0.108795 34,000 317 449 0
2023-01-21 23:19:21 GMT 51.803612 -0.104218 33,975 317 448 64
2023-01-21 23:19:18 GMT 51.796066 -0.092773 33,975 317 448 0
2023-01-21 23:19:16 GMT 51.796066 -0.092773 34,000 317 448 -64
2023-01-21 23:19:14 GMT 51.793762 -0.089301 33,975 317 448 0
2023-01-21 23:19:12 GMT 51.790623 -0.084534 34,000 317 448 0
2023-01-21 23:19:10 GMT 51.787720 -0.080171 34,000 317 447 0
2023-01-21 23:19:08 GMT 51.783081 -0.073090 34,000 317 447 0
2023-01-21 23:19:05 GMT 51.775360 -0.061464 34,000 317 447 -64
2023-01-21 23:19:02 GMT 51.775360 -0.061464 34,000 317 447 -64
2023-01-21 23:19:00 GMT 51.772934 -0.057827 34,000 317 447 0
2023-01-21 23:18:58 GMT 51.769318 -0.052408 34,000 317 447 0
2023-01-21 23:18:56 GMT 51.763916 -0.044168 34,000 317 447 0
2023-01-21 23:18:54 GMT 51.763916 -0.044168 34,000 317 447 0
2023-01-21 23:18:52 GMT 51.760300 -0.038749 34,000 317 447 0
2023-01-21 23:18:50 GMT 51.758034 -0.035324 34,000 317 446 64
2023-01-21 23:18:48 GMT 51.753517 -0.028534 34,000 317 446 -64
2023-01-21 23:18:46 GMT 51.751705 -0.025787 34,000 317 446 0
2023-01-21 23:18:44 GMT 51.749004 -0.021744 34,000 317 446 0
2023-01-21 23:18:42 GMT 51.745239 -0.016034 34,000 317 446 0
2023-01-21 23:18:40 GMT 51.741463 -0.010376 34,000 317 445 0
2023-01-21 23:18:37 GMT 51.737877 -0.004959 34,000 317 445 64
2023-01-21 23:18:35 GMT 51.735626 -0.001559 34,000 317 445 64
2023-01-21 23:18:33 GMT 51.731094 0.005270 34,000 317 445 64
2023-01-21 23:18:31 GMT 51.729450 0.007782 33,975 317 445 64
2023-01-21 23:18:29 GMT 51.724823 0.014772 34,000 317 445 64
2023-01-21 23:18:27 GMT 51.717911 0.025165 33,975 317 445 64
2023-01-21 23:18:25 GMT 51.717911 0.025165 33,975 317 445 64
2023-01-21 23:18:22 GMT 51.715672 0.028534 33,975 317 445 64
2023-01-21 23:18:20 GMT 51.711914 0.034221 33,975 317 445 64
2023-01-21 23:18:17 GMT 51.707748 0.040531 33,975 317 445 64
2023-01-21 23:18:15 GMT 51.702499 0.048447 33,975 317 445 64
2023-01-21 23:18:13 GMT 51.702499 0.048447 33,975 317 445 64
2023-01-21 23:18:11 GMT 51.699326 0.053150 33,975 318 444 64
2023-01-21 23:18:09 GMT 51.695114 0.059460 33,975 318 444 0
2023-01-21 23:18:07 GMT 51.693008 0.062652 33,975 318 445 0
2023-01-21 23:18:05 GMT 51.689278 0.068283 33,975 318 445 -64
2023-01-21 23:18:02 GMT 51.681458 0.079956 34,000 318 445 -64
2023-01-21 23:18:00 GMT 51.681458 0.079956 34,000 318 445 -64
2023-01-21 23:17:57 GMT 51.674973 0.089672 34,000 318 445 -64
2023-01-21 23:17:55 GMT 51.670052 0.097122 34,000 318 445 -64
2023-01-21 23:17:52 GMT 51.670052 0.097122 34,000 318 445 -64
2023-01-21 23:17:50 GMT 51.667629 0.100708 34,000 318 445 -64
2023-01-21 23:17:48 GMT 51.663849 0.106374 34,000 318 445 -64
2023-01-21 23:17:46 GMT 51.661148 0.110383 34,000 318 445 0
2023-01-21 23:17:44 GMT 51.658173 0.114911 34,000 318 445 0
2023-01-21 23:17:42 GMT 51.655151 0.119365 34,000 318 444 64
2023-01-21 23:17:40 GMT 51.651382 0.125046 34,000 318 444 64
2023-01-21 23:17:37 GMT 51.647472 0.130844 34,000 318 444 64
2023-01-21 23:17:34 GMT 51.641647 0.139630 34,000 318 443 64
2023-01-21 23:17:31 GMT 51.637604 0.145721 33,975 318 442 64
2023-01-21 23:17:28 GMT 51.633545 0.151730 33,975 318 442 64
2023-01-21 23:17:26 GMT 51.632034 0.153957 33,975 318 442 64
2023-01-21 23:17:24 GMT 51.627735 0.160522 33,975 318 442 64
2023-01-21 23:17:22 GMT 51.624893 0.164721 33,975 318 442 64
2023-01-21 23:17:20 GMT 51.617386 0.175930 33,975 318 442 64
2023-01-21 23:17:17 GMT 51.617386 0.175930 33,975 318 442 64
2023-01-21 23:17:15 GMT 51.614410 0.180384 33,975 318 442 64
2023-01-21 23:17:13 GMT 51.611584 0.184631 34,000 318 442 64
2023-01-21 23:17:11 GMT 51.608414 0.189366 33,975 318 442 0
2023-01-21 23:17:09 GMT 51.605576 0.193558 33,975 318 442 0
2023-01-21 23:17:07 GMT 51.602318 0.198517 33,975 318 442 0
2023-01-21 23:17:05 GMT 51.600632 0.200946 33,975 318 442 0
2023-01-21 23:17:03 GMT 51.597656 0.205400 33,975 318 442 64
2023-01-21 23:17:01 GMT 51.594086 0.210744 33,975 318 442 0
2023-01-21 23:16:59 GMT 51.590515 0.216089 33,975 318 442 64
2023-01-21 23:16:56 GMT 51.584839 0.224626 33,975 318 441 0
2023-01-21 23:16:53 GMT 51.582581 0.227966 33,975 318 442 0
2023-01-21 23:16:51 GMT 51.579273 0.232849 34,000 318 441 0
2023-01-21 23:16:49 GMT 51.576462 0.237097 34,000 318 441 0
2023-01-21 23:16:47 GMT 51.572571 0.242887 33,975 318 441 0
2023-01-21 23:16:45 GMT 51.570335 0.246201 33,975 318 441 0
2023-01-21 23:16:43 GMT 51.566753 0.251541 34,000 318 441 0
2023-01-21 23:16:41 GMT 51.563324 0.256694 33,975 318 441 -64
2023-01-21 23:16:38 GMT 51.559025 0.263138 34,000 318 441 0
2023-01-21 23:16:36 GMT 51.556602 0.266724 34,000 318 440 0
2023-01-21 23:16:34 GMT 51.552460 0.272980 33,975 318 440 0
2023-01-21 23:16:31 GMT 51.548721 0.278518 34,000 318 440 64
2023-01-21 23:16:29 GMT 51.545895 0.282745 33,975 318 440 64
2023-01-21 23:16:26 GMT 51.540497 0.290756 34,000 318 440 64
2023-01-21 23:16:23 GMT 51.537689 0.294924 33,975 318 440 64
2023-01-21 23:16:21 GMT 51.533047 0.301819 33,975 318 440 0
2023-01-21 23:16:18 GMT 51.529953 0.306504 34,000 318 440 0
2023-01-21 23:16:16 GMT 51.526062 0.312294 34,000 318 440 0
2023-01-21 23:16:14 GMT 51.523830 0.315628 34,000 318 440 0
2023-01-21 23:16:12 GMT 51.520851 0.320053 33,975 318 440 0
2023-01-21 23:16:10 GMT 51.516380 0.326691 34,000 318 440 0
2023-01-21 23:16:07 GMT 51.508934 0.337753 33,975 318 440 64
2023-01-21 23:16:05 GMT 51.508934 0.337753 34,000 318 439 0
2023-01-21 23:16:02 GMT 51.504913 0.343768 33,975 318 439 0
2023-01-21 23:16:00 GMT 51.503300 0.346146 33,975 318 439 0
2023-01-21 23:15:58 GMT 51.499718 0.351486 33,975 318 439 0
2023-01-21 23:15:56 GMT 51.497063 0.355453 34,000 318 439 0
2023-01-21 23:15:54 GMT 51.490780 0.364761 33,975 318 438 0
2023-01-21 23:15:52 GMT 51.490780 0.364761 33,975 318 438 0
2023-01-21 23:15:50 GMT 51.487976 0.368933 33,975 318 438 0
2023-01-21 23:15:48 GMT 51.484261 0.374451 34,000 318 438 0
2023-01-21 23:15:45 GMT 51.480240 0.380364 34,000 318 438 -64
2023-01-21 23:15:43 GMT 51.477264 0.384818 34,000 318 438 -64
2023-01-21 23:15:41 GMT 51.474159 0.389404 34,000 318 438 -64
2023-01-21 23:15:38 GMT 51.470169 0.395359 34,000 318 437 -64
2023-01-21 23:15:36 GMT 51.466873 0.400184 34,000 318 437 -64
2023-01-21 23:15:34 GMT 51.463028 0.405900 34,000 318 437 -64
2023-01-21 23:15:31 GMT 51.459503 0.411171 34,000 318 437 0
2023-01-21 23:15:27 GMT 51.453396 0.420151 34,000 318 436 0
2023-01-21 23:15:25 GMT 51.451172 0.423419 34,000 318 435 0
2023-01-21 23:15:23 GMT 51.448368 0.427628 34,000 318 435 0
2023-01-21 23:15:21 GMT 51.444672 0.433069 34,000 318 435 0
2023-01-21 23:15:19 GMT 51.442455 0.436325 34,000 318 435 0
2023-01-21 23:15:17 GMT 51.438812 0.441754 34,000 318 434 64
2023-01-21 23:15:15 GMT 51.435837 0.446134 34,000 318 434 64
2023-01-21 23:15:13 GMT 51.431992 0.451850 34,000 318 433 64
2023-01-21 23:15:10 GMT 51.429932 0.454819 34,000 318 433 64
2023-01-21 23:15:08 GMT 51.425697 0.461121 34,000 318 433 64
2023-01-21 23:15:06 GMT 51.422012 0.466548 34,000 318 431 64
2023-01-21 23:15:03 GMT 51.418018 0.472412 33,975 318 431 64
2023-01-21 23:15:00 GMT 51.414528 0.477600 34,000 318 431 64
2023-01-21 23:14:58 GMT 51.410709 0.483170 33,975 318 431 64
2023-01-21 23:14:56 GMT 51.408508 0.486442 33,975 318 430 64
2023-01-21 23:14:54 GMT 51.404842 0.491791 33,975 318 430 64
2023-01-21 23:14:52 GMT 51.402191 0.495682 33,975 318 430 64
2023-01-21 23:14:50 GMT 51.399445 0.499804 33,975 318 430 64
2023-01-21 23:14:48 GMT 51.392990 0.509305 33,975 318 430 64
2023-01-21 23:14:45 GMT 51.392990 0.509305 33,975 318 430 64
2023-01-21 23:14:43 GMT 51.385986 0.519624 33,975 318 430 64
2023-01-21 23:14:41 GMT 51.385986 0.519624 34,000 318 430 64
2023-01-21 23:14:38 GMT 51.382637 0.524597 33,975 318 430 64
2023-01-21 23:14:36 GMT 51.375458 0.535212 33,975 318 430 0
2023-01-21 23:14:34 GMT 51.375458 0.535212 33,975 318 430 64
2023-01-21 23:14:31 GMT 51.371185 0.541458 33,975 318 431 0
2023-01-21 23:14:29 GMT 51.369137 0.544434 33,975 318 431 0
2023-01-21 23:14:27 GMT 51.365925 0.549240 33,975 318 431 0
2023-01-21 23:14:25 GMT 51.362991 0.553513 33,975 318 431 0
2023-01-21 23:14:23 GMT 51.360214 0.557630 33,975 318 431 0
2023-01-21 23:14:21 GMT 51.356415 0.563272 33,975 318 432 0
2023-01-21 23:14:19 GMT 51.354355 0.566241 33,975 318 432 0
2023-01-21 23:14:17 GMT 51.351868 0.569916 34,000 318 431 0
2023-01-21 23:14:15 GMT 51.349091 0.574036 34,000 318 431 0
2023-01-21 23:14:13 GMT 51.346279 0.578156 33,975 318 431 0
2023-01-21 23:14:11 GMT 51.341904 0.584564 33,975 318 431 0
2023-01-21 23:14:09 GMT 51.337204 0.591507 33,975 318 431 0
2023-01-21 23:14:05 GMT 51.332779 0.597992 34,000 318 431 -64
2023-01-21 23:14:02 GMT 51.328217 0.604619 34,000 318 431 0
2023-01-21 23:14:00 GMT 51.326752 0.606772 34,000 318 431 -64
2023-01-21 23:13:58 GMT 51.323704 0.611343 34,000 318 431 -64
2023-01-21 23:13:56 GMT 51.320770 0.615616 34,000 318 431 0
2023-01-21 23:13:54 GMT 51.314301 0.625076 34,000 318 431 0
2023-01-21 23:13:52 GMT 51.314301 0.625076 34,000 318 431 0
2023-01-21 23:13:50 GMT 51.312103 0.628299 34,000 318 431 0
2023-01-21 23:13:48 GMT 51.307224 0.635452 34,000 318 431 0
2023-01-21 23:13:45 GMT 51.304459 0.639508 34,000 318 431 0
2023-01-21 23:13:43 GMT 51.299030 0.647507 34,000 318 430 0
2023-01-21 23:13:41 GMT 51.299030 0.647507 34,000 318 431 0
2023-01-21 23:13:39 GMT 51.295212 0.653076 33,975 318 431 0
2023-01-21 23:13:37 GMT 51.292606 0.656967 33,975 318 431 64
2023-01-21 23:13:35 GMT 51.289349 0.661697 34,000 318 430 0
2023-01-21 23:13:33 GMT 51.286560 0.665786 34,000 318 430 64
2023-01-21 23:13:30 GMT 51.282486 0.671799 34,000 318 430 64
2023-01-21 23:13:28 GMT 51.278828 0.677109 34,000 318 430 0
2023-01-21 23:13:26 GMT 51.276779 0.680161 34,000 318 430 0
2023-01-21 23:13:24 GMT 51.272827 0.685903 34,000 318 430 0
2023-01-21 23:13:22 GMT 51.268433 0.692361 34,000 318 430 0
2023-01-21 23:13:18 GMT 51.264767 0.697708 34,000 318 430 0
2023-01-21 23:13:15 GMT 51.260067 0.704575 34,000 318 430 0
2023-01-21 23:13:13 GMT 51.257584 0.708247 34,000 318 430 0
2023-01-21 23:13:11 GMT 51.250854 0.718046 34,000 318 430 0
2023-01-21 23:13:09 GMT 51.250854 0.718046 33,975 318 430 0
2023-01-21 23:13:06 GMT 51.247215 0.723419 34,000 318 430 64
2023-01-21 23:13:04 GMT 51.239628 0.734558 34,000 318 430 64
2023-01-21 23:13:01 GMT 51.239628 0.734558 34,000 318 430 64
2023-01-21 23:12:59 GMT 51.232452 0.744992 34,000 318 429 64
2023-01-21 23:12:56 GMT 51.232452 0.744992 34,000 318 429 64
2023-01-21 23:12:53 GMT 51.227783 0.751821 33,975 318 429 64
2023-01-21 23:12:50 GMT 51.224129 0.757217 33,975 318 429 64
2023-01-21 23:12:48 GMT 51.221474 0.761032 33,975 318 429 64
2023-01-21 23:12:46 GMT 51.217705 0.766602 33,975 318 429 64
2023-01-21 23:12:44 GMT 51.215469 0.769785 33,975 318 429 64
2023-01-21 23:12:42 GMT 51.212585 0.774017 33,975 318 429 64
2023-01-21 23:12:40 GMT 51.203922 0.786591 33,975 318 429 64
2023-01-21 23:12:37 GMT 51.203922 0.786591 33,975 318 429 64
2023-01-21 23:12:35 GMT 51.199268 0.793457 33,975 318 429 0
2023-01-21 23:12:33 GMT 51.199268 0.793457 34,000 318 429 0
2023-01-21 23:12:30 GMT 51.194733 0.800072 34,000 318 429 -64
2023-01-21 23:12:28 GMT 51.191681 0.804520 33,975 318 429 -64
2023-01-21 23:12:26 GMT 51.188004 0.809871 33,975 318 429 -64
2023-01-21 23:12:23 GMT 51.183765 0.816040 34,000 318 430 -64
2023-01-21 23:12:21 GMT 51.177902 0.824585 34,000 318 430 -64
2023-01-21 23:12:19 GMT 51.177902 0.824585 34,000 318 430 -64
2023-01-21 23:12:16 GMT 51.174225 0.829913 34,000 318 430 -64
2023-01-21 23:12:14 GMT 51.171429 0.833969 34,000 318 431 -64
2023-01-21 23:12:12 GMT 51.168365 0.838450 34,000 318 431 -64
2023-01-21 23:12:10 GMT 51.164841 0.843572 34,000 318 431 -64
2023-01-21 23:12:07 GMT 51.161041 0.849139 34,000 318 430 0
2023-01-21 23:12:05 GMT 51.158257 0.853195 34,000 318 430 0
2023-01-21 23:12:03 GMT 51.154861 0.858121 34,000 318 430 0
2023-01-21 23:12:00 GMT 51.150017 0.865097 34,000 318 430 64
2023-01-21 23:11:58 GMT 51.147968 0.868149 33,975 318 430 64
2023-01-21 23:11:56 GMT 51.141499 0.877457 33,975 318 429 64
2023-01-21 23:11:54 GMT 51.141499 0.877457 33,975 318 430 64
2023-01-21 23:11:52 GMT 51.139450 0.880432 34,000 318 429 64
2023-01-21 23:11:50 GMT 51.133163 0.889596 33,975 318 429 64
2023-01-21 23:11:48 GMT 51.133163 0.889596 33,975 318 429 0
2023-01-21 23:11:45 GMT 51.127579 0.897687 33,975 318 428 64
2023-01-21 23:11:42 GMT 51.124054 0.902735 33,975 318 428 0
2023-01-21 23:11:40 GMT 51.120529 0.907857 33,975 318 428 0
2023-01-21 23:11:38 GMT 51.117599 0.912088 34,000 318 428 0
2023-01-21 23:11:35 GMT 51.114265 0.916977 34,000 318 428 0
2023-01-21 23:11:33 GMT 51.110596 0.922258 34,000 318 428 -64
2023-01-21 23:11:30 GMT 51.106201 0.928642 34,000 318 428 -64
2023-01-21 23:11:27 GMT 51.102676 0.933689 34,000 318 428 -64
2023-01-21 23:11:25 GMT 51.099747 0.937921 34,000 318 428 0
2023-01-21 23:11:23 GMT 51.095783 0.943680 34,000 318 428 64
2023-01-21 23:11:20 GMT 51.091278 0.950243 34,000 318 428 64
2023-01-21 23:11:18 GMT 51.088474 0.954208 34,000 318 428 0
2023-01-21 23:11:15 GMT 51.081444 0.964355 34,000 318 428 64
2023-01-21 23:11:13 GMT 51.081444 0.964355 33,975 318 427 64
2023-01-21 23:11:11 GMT 51.078560 0.968552 34,000 318 427 64
2023-01-21 23:11:09 GMT 51.076950 0.970880 33,975 318 427 64
2023-01-21 23:11:07 GMT 51.072414 0.977402 33,975 318 427 64
2023-01-21 23:11:05 GMT 51.069481 0.981598 33,975 318 427 64
2023-01-21 23:11:03 GMT 51.061432 0.993149 33,975 318 426 0
2023-01-21 23:11:00 GMT 51.061432 0.993149 33,975 318 426 64
2023-01-21 23:10:57 GMT 51.059097 0.996564 33,975 318 426 0
2023-01-21 23:10:55 GMT 51.051651 1.007309 34,000 318 426 0
2023-01-21 23:10:52 GMT 51.051651 1.007309 34,000 318 426 0
2023-01-21 23:10:50 GMT 51.048161 1.012344 34,000 318 426 0
2023-01-21 23:10:48 GMT 51.044666 1.017380 34,000 318 426 0
2023-01-21 23:10:45 GMT 51.040146 1.023955 34,000 318 426 0
2023-01-21 23:10:42 GMT 51.036522 1.029205 34,000 318 426 64
2023-01-21 23:10:40 GMT 51.034195 1.032562 34,000 318 426 64
2023-01-21 23:10:38 GMT 51.029984 1.038653 34,000 318 426 64
2023-01-21 23:10:36 GMT 51.027649 1.041994 34,000 318 425 64
2023-01-21 23:10:34 GMT 51.021393 1.051025 33,975 318 426 64
2023-01-21 23:10:32 GMT 51.021393 1.051025 34,000 318 426 64
2023-01-21 23:10:29 GMT 51.017166 1.057137 33,975 318 426 64
2023-01-21 23:10:26 GMT 51.012688 1.063614 33,975 318 426 64
2023-01-21 23:10:24 GMT 51.011078 1.065971 33,975 318 426 64
2023-01-21 23:10:22 GMT 51.003654 1.076660 33,975 318 426 64
2023-01-21 23:10:20 GMT 51.003654 1.076660 33,975 318 426 64
2023-01-21 23:10:17 GMT 50.995377 1.088611 33,975 318 426 64
2023-01-21 23:10:14 GMT 50.995377 1.088611 33,975 318 426 0
2023-01-21 23:10:12 GMT 50.988968 1.097890 33,975 318 426 -64
2023-01-21 23:10:10 GMT 50.988968 1.097890 34,000 318 426 -64
2023-01-21 23:10:07 GMT 50.986805 1.100998 34,000 318 426 -64
2023-01-21 23:10:05 GMT 50.982986 1.106491 34,000 318 426 -64
2023-01-21 23:10:03 GMT 50.979218 1.111908 34,000 318 426 -64
2023-01-21 23:10:00 GMT 50.975281 1.117562 34,000 318 427 -64
2023-01-21 23:09:58 GMT 50.972351 1.121793 34,000 318 426 -64
2023-01-21 23:09:56 GMT 50.970291 1.124688 34,000 318 427 -64
2023-01-21 23:09:54 GMT 50.966927 1.129532 34,000 318 427 -64
2023-01-21 23:09:52 GMT 50.963715 1.134109 34,000 318 427 -64
2023-01-21 23:09:50 GMT 50.959763 1.139832 34,000 318 427 0
2023-01-21 23:09:47 GMT 50.955521 1.145859 34,000 318 426 64
2023-01-21 23:09:44 GMT 50.952309 1.150513 34,000 318 427 64
2023-01-21 23:09:42 GMT 50.948364 1.156163 34,000 318 427 64
2023-01-21 23:09:39 GMT 50.943375 1.163289 34,000 318 426 64
2023-01-21 23:09:36 GMT 50.939896 1.168337 34,000 318 426 64
2023-01-21 23:09:34 GMT 50.937561 1.171677 33,975 318 426 64
2023-01-21 23:09:32 GMT 50.933922 1.176910 33,975 318 427 64
2023-01-21 23:09:29 GMT 50.930103 1.182404 33,975 318 427 64
2023-01-21 23:09:27 GMT 50.926891 1.186981 34,000 318 427 64
2023-01-21 23:09:24 GMT 50.919861 1.197052 33,975 318 427 64
2023-01-21 23:09:22 GMT 50.919861 1.197052 33,975 318 427 64
2023-01-21 23:09:20 GMT 50.916927 1.201248 33,975 318 427 64
2023-01-21 23:09:17 GMT 50.911949 1.208420 34,000 318 427 0
2023-01-21 23:09:14 GMT 50.908310 1.213618 34,000 318 428 0
2023-01-21 23:09:12 GMT 50.904236 1.219557 34,000 318 428 -64
2023-01-21 23:09:09 GMT 50.897655 1.228943 34,000 318 428 0
2023-01-21 23:09:06 GMT 50.896317 1.230840 34,000 318 428 0
2023-01-21 23:09:04 GMT 50.892517 1.236333 34,000 318 428 0
2023-01-21 23:09:01 GMT 50.888859 1.241608 33,975 318 429 64
2023-01-21 23:08:58 GMT 50.881783 1.251678 33,975 318 429 64
2023-01-21 23:08:56 GMT 50.881783 1.251678 33,975 318 429 0
2023-01-21 23:08:54 GMT 50.878738 1.256079 34,000 318 429 0
2023-01-21 23:08:52 GMT 50.874893 1.261572 33,975 318 429 64
2023-01-21 23:08:49 GMT 50.871094 1.267065 33,975 318 429 0
2023-01-21 23:08:47 GMT 50.868282 1.271057 33,975 318 429 0
2023-01-21 23:08:44 GMT 50.862698 1.279068 33,975 318 430 64
2023-01-21 23:08:41 GMT 50.860645 1.282043 33,975 318 430 64
2023-01-21 23:08:39 GMT 50.856224 1.288300 33,975 318 431 0
2023-01-21 23:08:36 GMT 50.851803 1.294632 34,000 318 430 0
2023-01-21 23:08:34 GMT 50.849030 1.298688 34,000 318 431 -64
2023-01-21 23:08:32 GMT 50.845333 1.303940 34,000 318 432 0
2023-01-21 23:08:29 GMT 50.841934 1.308783 34,000 318 431 -64
2023-01-21 23:08:26 GMT 50.837650 1.314926 34,000 318 431 -64
2023-01-21 23:08:24 GMT 50.833183 1.321259 33,975 318 432 0
2023-01-21 23:08:21 GMT 50.830078 1.325708 33,975 318 432 0
2023-01-21 23:08:19 GMT 50.827148 1.329865 33,975 318 432 -64
2023-01-21 23:08:17 GMT 50.823578 1.334987 33,975 318 432 0
2023-01-21 23:08:14 GMT 50.819588 1.340637 34,000 318 432 -64
2023-01-21 23:08:12 GMT 50.817215 1.344070 33,975 318 432 -64
2023-01-21 23:08:09 GMT 50.812141 1.351242 34,000 318 433 -64
2023-01-21 23:08:06 GMT 50.807716 1.357574 34,000 318 433 -64
2023-01-21 23:08:04 GMT 50.804581 1.362008 33,975 318 433 -64
2023-01-21 23:08:02 GMT 50.802200 1.365348 34,000 318 433 -64
2023-01-21 23:07:59 GMT 50.797012 1.372757 34,000 318 433 -64
2023-01-21 23:07:56 GMT 50.792542 1.379089 34,000 318 433 -64
2023-01-21 23:07:54 GMT 50.789749 1.383090 34,000 318 433 -64
2023-01-21 23:07:52 GMT 50.786629 1.387558 34,000 318 432 -64
2023-01-21 23:07:49 GMT 50.781879 1.394272 34,000 318 433 -64
2023-01-21 23:07:47 GMT 50.779037 1.398307 34,000 319 432 -64
2023-01-21 23:07:45 GMT 50.776249 1.402283 34,000 319 432 -64
2023-01-21 23:07:41 GMT 50.770752 1.410110 34,000 319 431 -64
2023-01-21 23:07:39 GMT 50.768372 1.413450 34,000 319 431 64
2023-01-21 23:07:37 GMT 50.764801 1.418498 34,000 319 431 0
2023-01-21 23:07:35 GMT 50.761070 1.423798 34,000 319 431 64
2023-01-21 23:07:33 GMT 50.759445 1.426070 34,000 319 431 64
2023-01-21 23:07:31 GMT 50.755600 1.431563 34,000 319 431 64
2023-01-21 23:07:28 GMT 50.752029 1.436611 34,000 319 431 64
2023-01-21 23:07:26 GMT 50.747910 1.442475 34,000 319 431 64
2023-01-21 23:07:24 GMT 50.742405 1.450195 34,000 319 431 64
2023-01-21 23:07:22 GMT 50.742405 1.450195 34,000 319 431 64
2023-01-21 23:07:20 GMT 50.739304 1.454649 34,000 319 431 64
2023-01-21 23:07:18 GMT 50.735004 1.460724 34,000 319 431 64
2023-01-21 23:07:15 GMT 50.731293 1.465932 34,000 319 431 64
2023-01-21 23:07:13 GMT 50.729828 1.468085 34,000 319 431 64
2023-01-21 23:07:11 GMT 50.725983 1.473504 34,000 319 431 64
2023-01-21 23:07:08 GMT 50.721817 1.479368 34,000 319 431 64
2023-01-21 23:07:05 GMT 50.717220 1.485901 34,000 319 431 64
2023-01-21 23:07:03 GMT 50.714287 1.490097 34,000 319 431 64
2023-01-21 23:07:01 GMT 50.712341 1.492804 34,000 319 431 64
2023-01-21 23:06:59 GMT 50.708050 1.498871 33,975 319 432 128
2023-01-21 23:06:57 GMT 50.705070 1.503067 34,000 319 432 64
2023-01-21 23:06:55 GMT 50.702866 1.506166 34,000 319 432 64
2023-01-21 23:06:52 GMT 50.695724 1.516262 33,975 319 432 128
2023-01-21 23:06:48 GMT 50.691662 1.521912 33,975 319 432 128
2023-01-21 23:06:46 GMT 50.689289 1.525269 33,975 319 433 128
2023-01-21 23:06:44 GMT 50.686157 1.529623 33,975 319 433 64
2023-01-21 23:06:42 GMT 50.680161 1.538012 33,975 319 433 128
2023-01-21 23:06:40 GMT 50.680161 1.538012 33,950 319 434 128
2023-01-21 23:06:38 GMT 50.677780 1.541426 33,975 319 434 64
2023-01-21 23:06:36 GMT 50.674343 1.546249 33,950 319 434 -64
2023-01-21 23:06:34 GMT 50.671040 1.550854 33,975 319 434 -128
2023-01-21 23:06:32 GMT 50.668762 1.553987 33,975 319 434 -128
2023-01-21 23:06:30 GMT 50.665314 1.558797 34,000 319 436 -192
2023-01-21 23:06:27 GMT 50.661125 1.564735 34,000 319 436 -128
2023-01-21 23:06:25 GMT 50.657818 1.569338 33,975 319 436 -128
2023-01-21 23:06:23 GMT 50.653748 1.575093 34,000 319 436 -192
2023-01-21 23:06:21 GMT 50.652237 1.577189 34,000 319 438 -192
2023-01-21 23:06:19 GMT 50.649391 1.581215 34,000 319 438 -128
2023-01-21 23:06:17 GMT 50.642735 1.590568 34,000 319 438 -128
2023-01-21 23:06:15 GMT 50.642735 1.590568 34,000 319 438 -128
2023-01-21 23:06:13 GMT 50.639282 1.595403 34,000 319 439 128
2023-01-21 23:06:11 GMT 50.633053 1.604152 34,000 319 439 128
2023-01-21 23:06:09 GMT 50.633053 1.604152 34,000 319 439 256
2023-01-21 23:06:06 GMT 50.628387 1.610726 33,950 319 440 576
2023-01-21 23:06:03 GMT 50.623371 1.617737 33,950 318 441 896
2023-01-21 23:06:00 GMT 50.619873 1.622652 33,950 319 440 640
2023-01-21 23:05:57 GMT 50.615021 1.629518 33,750 318 441 1024
2023-01-21 23:05:55 GMT 50.612000 1.633783 33,825 318 441 1024
2023-01-21 23:05:53 GMT 50.606098 1.642233 33,750 318 441 1216
2023-01-21 23:05:51 GMT 50.606098 1.642233 33,775 318 442 1280
2023-01-21 23:05:48 GMT 50.602516 1.647430 33,650 318 443 1536
2023-01-21 23:05:46 GMT 50.597954 1.653962 33,600 318 444 1792
2023-01-21 23:05:44 GMT 50.595108 1.658068 33,550 318 444 1984
2023-01-21 23:05:41 GMT 50.589340 1.666380 33,400 319 445 2048
2023-01-21 23:05:38 GMT 50.585850 1.671332 33,325 319 445 2048
2023-01-21 23:05:35 GMT 50.581799 1.676900 33,250 320 445 2048
2023-01-21 23:05:33 GMT 50.579453 1.680041 33,200 320 446 1984
2023-01-21 23:05:31 GMT 50.575699 1.685028 33,075 334 443 2624
2023-01-21 23:05:29 GMT 50.567322 1.695581 33,025 323 446 1856
2023-01-21 23:05:26 GMT 50.567322 1.695581 32,950 323 446 1856
2023-01-21 23:05:24 GMT 50.564072 1.699484 32,875 324 447 1728
2023-01-21 23:05:22 GMT 50.560776 1.703387 32,825 324 446 1600
2023-01-21 23:05:20 GMT 50.557919 1.706667 32,125 325 446 1472
2023-01-21 23:05:17 GMT 50.553913 1.711195 32,725 326 445 1344
2023-01-21 23:05:15 GMT 50.549011 1.716541 32,650 327 445 1280
2023-01-21 23:05:13 GMT 50.545258 1.720445 32,600 327 445 1280
2023-01-21 23:05:11 GMT 50.541824 1.723986 32,550 328 445 1216
2023-01-21 23:05:09 GMT 50.539204 1.726635 32,500 329 443 1216
2023-01-21 23:05:06 GMT 50.533989 1.731683 32,425 329 443 1216
2023-01-21 23:05:04 GMT 50.527130 1.738153 32,425 330 442 1280
2023-01-21 23:05:02 GMT 50.527130 1.738153 32,400 330 442 1280
2023-01-21 23:05:00 GMT 50.521980 1.742743 32,375 331 442 1344
2023-01-21 23:04:57 GMT 50.517517 1.746609 32,275 332 442 1536
2023-01-21 23:04:55 GMT 50.514999 1.748778 32,200 333 441 1728
2023-01-21 23:04:53 GMT 50.510483 1.752468 32,175 333 442 1856
2023-01-21 23:04:51 GMT 50.506477 1.755734 32,075 334 441 2240
2023-01-21 23:04:49 GMT 50.503784 1.757885 31,900 334 443 2624
2023-01-21 23:04:47 GMT 50.499912 1.760930 31,725 334 450 3008
2023-01-21 23:04:44 GMT 50.493725 1.765830 31,750 334 445 2944
2023-01-21 23:04:42 GMT 50.490791 1.768131 31,675 334 447 3072
2023-01-21 23:04:40 GMT 50.481354 1.775593 31,450 334 449 3008
2023-01-21 23:04:37 GMT 50.475243 1.780527 31,400 334 451 2880
2023-01-21 23:04:34 GMT 50.475243 1.780527 31,250 334 453 2816
2023-01-21 23:04:32 GMT 50.471889 1.783200 31,150 334 453 2752
2023-01-21 23:04:30 GMT 50.469086 1.785423 31,050 334 455 2688
2023-01-21 23:04:28 GMT 50.465511 1.788173 30,275 334 455 2688
2023-01-21 23:04:26 GMT 50.461945 1.790988 30,900 334 457 2496
2023-01-21 23:04:24 GMT 50.456108 1.795597 30,775 334 458 2304
2023-01-21 23:04:21 GMT 50.449684 1.800644 30,650 334 459 2304
2023-01-21 23:04:18 GMT 50.440189 1.808142 30,525 334 460 2368
2023-01-21 23:04:15 GMT 50.440189 1.808142 30,450 334 461 2432
2023-01-21 23:04:13 GMT 50.437317 1.810359 30,300 333 462 2624
2023-01-21 23:04:10 GMT 50.431274 1.815274 30,225 333 464 2880
2023-01-21 23:04:08 GMT 50.427063 1.818599 30,100 333 464 2944
2023-01-21 23:04:05 GMT 50.420403 1.824027 29,950 333 466 3072
2023-01-21 23:04:03 GMT 50.417496 1.826332 29,875 333 466 3136
2023-01-21 23:04:00 GMT 50.411930 1.830857 29,725 333 470 3264
2023-01-21 23:03:58 GMT 50.407696 1.834271 29,575 334 485 2496
2023-01-21 23:03:55 GMT 50.401703 1.839126 29,400 333 473 3264
2023-01-21 23:03:52 GMT 50.396057 1.843625 28,950 333 476 3328
2023-01-21 23:03:49 GMT 50.389984 1.848522 29,075 333 477 3328
2023-01-21 23:03:47 GMT 50.385860 1.851790 28,850 333 478 3264
2023-01-21 23:03:44 GMT 50.381161 1.855650 28,775 333 481 3008
2023-01-21 23:03:42 GMT 50.376205 1.859581 28,600 334 484 2688
2023-01-21 23:03:39 GMT 50.367661 1.866414 28,425 334 485 2624
2023-01-21 23:03:35 GMT 50.361832 1.871001 28,350 334 486 2432
2023-01-21 23:03:33 GMT 50.358627 1.873530 28,250 334 487 2176
2023-01-21 23:03:30 GMT 50.352219 1.878662 27,525 334 491 1664
2023-01-21 23:03:28 GMT 50.348389 1.881706 28,025 334 488 1920
2023-01-21 23:03:25 GMT 50.341736 1.886974 27,975 334 488 1856
2023-01-21 23:03:23 GMT 50.338749 1.889352 27,925 334 490 1984
2023-01-21 23:03:21 GMT 50.333908 1.893212 27,850 334 490 1984
2023-01-21 23:03:19 GMT 50.327637 1.898105 27,725 334 490 1984
2023-01-21 23:03:14 GMT 50.320175 1.904049 27,550 334 491 1984
2023-01-21 23:03:12 GMT 50.316330 1.907068 27,550 334 491 1856
2023-01-21 23:03:10 GMT 50.311432 1.910898 27,500 334 491 1536
2023-01-21 23:03:08 GMT 50.307816 1.913789 27,300 334 491 1216
2023-01-21 23:03:06 GMT 50.303741 1.916970 27,300 334 491 1216
2023-01-21 23:03:03 GMT 50.297878 1.921642 27,300 334 491 1216
2023-01-21 23:03:01 GMT 50.289963 1.927884 27,250 334 491 1152
2023-01-21 23:02:56 GMT 50.283680 1.932777 27,150 334 490 1088
2023-01-21 23:02:53 GMT 50.275360 1.939304 27,150 334 490 1088
2023-01-21 23:02:50 GMT 50.269730 1.943785 27,025 334 488 1024
2023-01-21 23:02:47 GMT 50.258423 1.952603 27,000 334 488 1024
2023-01-21 23:02:44 GMT 50.258423 1.952603 26,975 334 487 1024
2023-01-21 23:02:42 GMT 50.255585 1.954844 26,775 334 486 1024
2023-01-21 23:02:39 GMT 50.243134 1.964601 26,525 334 486 1024
2023-01-21 23:02:37 GMT 50.243134 1.964601 26,850 334 486 1024
2023-01-21 23:02:34 GMT 50.239105 1.967709 26,800 334 485 1024
2023-01-21 23:02:32 GMT 50.230099 1.974792 26,750 334 484 1024
2023-01-21 23:02:29 GMT 50.230099 1.974792 26,700 334 484 1024
2023-01-21 23:02:26 GMT 50.223301 1.980063 26,650 334 483 1024
2023-01-21 23:02:24 GMT 50.215118 1.986429 26,625 334 482 1088
2023-01-21 23:02:22 GMT 50.215118 1.986429 26,600 334 482 1088
2023-01-21 23:02:19 GMT 50.209705 1.990604 26,525 334 482 1152
2023-01-21 23:02:17 GMT 50.203751 1.995280 26,425 334 481 1216
2023-01-21 23:02:14 GMT 50.198776 1.999150 26,425 334 481 1280
2023-01-21 23:02:12 GMT 50.196205 2.001219 26,400 334 481 1280
2023-01-21 23:02:09 GMT 50.190033 2.006017 26,325 334 481 1280
2023-01-21 23:02:07 GMT 50.185684 2.009414 26,275 334 480 1280
2023-01-21 23:02:04 GMT 50.178749 2.014878 26,200 334 480 1280
2023-01-21 23:02:02 GMT 50.175957 2.017030 26,150 334 478 1280
2023-01-21 23:01:59 GMT 50.169846 2.021846 26,100 334 478 1280
2023-01-21 23:01:57 GMT 50.166275 2.024665 26,100 334 478 1216
2023-01-21 23:01:55 GMT 50.157211 2.031748 25,975 334 478 1216
2023-01-21 23:01:53 GMT 50.157211 2.031748 25,975 334 478 1216
2023-01-21 23:01:51 GMT 50.152264 2.035588 25,900 334 478 1216
2023-01-21 23:01:48 GMT 50.147324 2.039482 25,875 334 476 1216
2023-01-21 23:01:46 GMT 50.144165 2.041939 25,725 334 476 1216
2023-01-21 23:01:43 GMT 50.137318 2.047317 25,750 334 475 1216
2023-01-21 23:01:41 GMT 50.134151 2.049767 25,575 334 473 1344
2023-01-21 23:01:38 GMT 50.127869 2.054666 25,650 334 474 1280
2023-01-21 23:01:34 GMT 50.116882 2.063203 25,525 334 474 1344
2023-01-21 23:01:29 GMT 50.110226 2.068399 25,450 334 473 1344
2023-01-21 23:01:27 GMT 50.107525 2.070477 25,425 334 473 1344
2023-01-21 23:01:25 GMT 50.099331 2.076861 25,350 334 471 1344
2023-01-21 23:01:23 GMT 50.099331 2.076861 25,325 334 471 1344
2023-01-21 23:01:21 GMT 50.096214 2.079311 25,250 334 471 1344
2023-01-21 23:01:19 GMT 50.084530 2.088442 25,200 334 470 1280
2023-01-21 23:01:16 GMT 50.084530 2.088442 25,150 334 470 1280
2023-01-21 23:01:13 GMT 50.080444 2.091594 25,100 334 469 1280
2023-01-21 23:01:11 GMT 50.075409 2.095498 25,000 334 468 1280
2023-01-21 23:01:08 GMT 50.069401 2.100170 24,975 334 468 1344
2023-01-21 23:01:06 GMT 50.066483 2.102436 24,625 334 465 1472
2023-01-21 23:01:03 GMT 50.059113 2.108146 24,850 334 467 1408
2023-01-21 23:01:01 GMT 50.055851 2.110711 24,800 334 466 1472
2023-01-21 23:00:59 GMT 50.052780 2.113087 24,750 334 465 1472
2023-01-21 23:00:56 GMT 50.045242 2.118988 24,575 334 465 1472
2023-01-21 23:00:53 GMT 50.041607 2.121846 24,575 334 465 1536
2023-01-21 23:00:51 GMT 50.029907 2.130986 24,525 334 464 1536
2023-01-21 23:00:48 GMT 50.029907 2.130986 24,350 334 464 1536
2023-01-21 23:00:45 GMT 50.025284 2.134600 24,375 334 463 1536
2023-01-21 23:00:42 GMT 50.014004 2.143373 24,250 334 463 1536
2023-01-21 23:00:39 GMT 50.014004 2.143373 24,225 334 463 1600
2023-01-21 23:00:37 GMT 50.003494 2.151586 24,100 334 463 1536
2023-01-21 23:00:34 GMT 50.003494 2.151586 24,075 334 462 1600
2023-01-21 23:00:32 GMT 50.000641 2.153840 24,025 334 461 1536
2023-01-21 23:00:29 GMT 49.995071 2.158163 23,975 334 461 1536
2023-01-21 23:00:26 GMT 49.988983 2.162861 23,750 334 461 1536
2023-01-21 23:00:23 GMT 49.982483 2.167921 23,800 334 461 1536
2023-01-21 23:00:21 GMT 49.980019 2.169874 23,750 334 460 1664
2023-01-21 23:00:19 GMT 49.976395 2.172619 23,675 334 459 1664
2023-01-21 23:00:17 GMT 49.971638 2.176332 23,600 334 459 1728
2023-01-21 23:00:13 GMT 49.965363 2.181220 23,550 334 459 1728
2023-01-21 23:00:11 GMT 49.960236 2.185240 23,425 334 459 1728
2023-01-21 23:00:08 GMT 49.954556 2.189620 23,300 334 459 1728
2023-01-21 23:00:05 GMT 49.949799 2.193290 23,275 334 459 1664
2023-01-21 23:00:02 GMT 49.944122 2.197699 23,175 334 457 1664
2023-01-21 23:00:00 GMT 49.939007 2.201645 23,150 334 457 1600
2023-01-21 22:59:58 GMT 49.935608 2.204243 23,100 334 458 1536
2023-01-21 22:59:55 GMT 49.930481 2.208252 22,425 334 457 1536
2023-01-21 22:59:52 GMT 49.924805 2.212589 22,950 334 457 1600
2023-01-21 22:59:50 GMT 49.920479 2.215972 22,875 334 456 1600
2023-01-21 22:59:48 GMT 49.916519 2.219021 22,850 334 456 1600
2023-01-21 22:59:45 GMT 49.911621 2.222852 22,700 334 455 1600
2023-01-21 22:59:42 GMT 49.905769 2.227330 22,650 334 454 1600
2023-01-21 22:59:40 GMT 49.898273 2.233194 22,600 334 453 1536
2023-01-21 22:59:38 GMT 49.898273 2.233194 22,550 334 453 1536
2023-01-21 22:59:35 GMT 49.887222 2.241717 22,450 334 452 1536
2023-01-21 22:59:32 GMT 49.887222 2.241717 22,375 334 452 1536
2023-01-21 22:59:30 GMT 49.882538 2.245368 22,325 334 451 1536
2023-01-21 22:59:28 GMT 49.878983 2.248077 22,300 334 451 1536
2023-01-21 22:59:26 GMT 49.877106 2.249523 22,200 334 451 1536
2023-01-21 22:59:23 GMT 49.870201 2.254870 22,175 334 450 1536
2023-01-21 22:59:21 GMT 49.866302 2.257835 22,125 334 450 1536
2023-01-21 22:59:18 GMT 49.860146 2.262590 22,025 334 449 1472
2023-01-21 22:59:12 GMT 49.849766 2.270607 21,875 334 447 1344
2023-01-21 22:59:10 GMT 49.846252 2.273303 21,825 334 446 1408
2023-01-21 22:59:07 GMT 49.838314 2.279366 21,600 334 443 1664
2023-01-21 22:59:03 GMT 49.830215 2.285602 21,650 334 444 1600
2023-01-21 22:58:58 GMT 49.824142 2.290288 21,525 334 443 1664
2023-01-21 22:58:56 GMT 49.813686 2.298295 21,150 334 441 1664
2023-01-21 22:58:53 GMT 49.813686 2.298295 21,375 334 441 1664
2023-01-21 22:58:51 GMT 49.811871 2.299706 21,375 334 441 1664
2023-01-21 22:58:48 GMT 49.805309 2.304753 21,250 334 440 1728
2023-01-21 22:58:45 GMT 49.801483 2.307635 21,150 334 440 1792
2023-01-21 22:58:42 GMT 49.790176 2.316308 21,000 334 439 1856
2023-01-21 22:58:40 GMT 49.790176 2.316308 21,000 334 439 1856
2023-01-21 22:58:37 GMT 49.783802 2.321159 20,750 334 438 1984
2023-01-21 22:58:34 GMT 49.780170 2.323980 20,750 334 438 1984
2023-01-21 22:58:31 GMT 49.775421 2.327543 20,725 334 438 1920
2023-01-21 22:58:29 GMT 49.767288 2.333800 20,575 334 438 1920
2023-01-21 22:58:27 GMT 49.767288 2.333800 20,575 334 438 1920
2023-01-21 22:58:24 GMT 49.761841 2.337992 20,475 334 437 1792
2023-01-21 22:58:21 GMT 49.756939 2.341721 20,400 334 437 1792
2023-01-21 22:58:18 GMT 49.750626 2.346593 20,300 334 436 1728
2023-01-21 22:58:16 GMT 49.746792 2.349441 19,575 334 435 1664
2023-01-21 22:58:11 GMT 49.738876 2.355528 20,125 334 435 1600
2023-01-21 22:58:09 GMT 49.735249 2.358275 20,075 334 435 1664
2023-01-21 22:58:07 GMT 49.730759 2.361699 20,000 334 434 1728
2023-01-21 22:58:04 GMT 49.725563 2.365698 19,900 334 433 1728
2023-01-21 22:58:01 GMT 49.720367 2.369650 19,825 334 432 1856
2023-01-21 22:57:59 GMT 49.717484 2.371890 19,775 334 432 1856
2023-01-21 22:57:57 GMT 49.713913 2.374637 19,725 334 432 1856
2023-01-21 22:57:54 GMT 49.707317 2.379728 19,600 334 431 1856
2023-01-21 22:57:51 GMT 49.702103 2.383744 19,500 334 431 1856
2023-01-21 22:57:49 GMT 49.698898 2.386202 19,450 334 431 1856
2023-01-21 22:57:47 GMT 49.696060 2.388370 19,350 334 431 1856
2023-01-21 22:57:44 GMT 49.689812 2.393164 19,225 334 429 1856
2023-01-21 22:57:41 GMT 49.684296 2.397405 19,175 334 428 1856
2023-01-21 22:57:39 GMT 49.681137 2.399862 19,050 334 428 1856
2023-01-21 22:57:36 GMT 49.676147 2.403693 19,025 334 427 1856
2023-01-21 22:57:33 GMT 49.666260 2.411282 18,875 334 427 1920
2023-01-21 22:57:31 GMT 49.666260 2.411282 18,875 334 427 1920
2023-01-21 22:57:29 GMT 49.663422 2.413451 18,800 334 426 1984
2023-01-21 22:57:26 GMT 49.658798 2.416992 18,725 334 426 1984
2023-01-21 22:57:24 GMT 49.653687 2.420926 18,625 334 425 1984
2023-01-21 22:57:21 GMT 49.649277 2.424292 18,525 334 425 1984
2023-01-21 22:57:19 GMT 49.643818 2.428424 18,425 334 424 1920
2023-01-21 22:57:16 GMT 49.641350 2.430354 18,400 334 424 1920
2023-01-21 22:57:14 GMT 49.638557 2.432507 18,325 334 423 1920
2023-01-21 22:57:11 GMT 49.631378 2.437953 18,200 334 423 1984
2023-01-21 22:57:09 GMT 49.628540 2.440121 18,150 334 423 1984
2023-01-21 22:57:07 GMT 49.624329 2.443302 18,075 334 422 1984
2023-01-21 22:57:05 GMT 49.621704 2.445275 17,700 334 421 1920
2023-01-21 22:57:02 GMT 49.616493 2.449283 17,925 334 421 1920
2023-01-21 22:56:59 GMT 49.610535 2.453811 17,800 334 420 1920
2023-01-21 22:56:57 GMT 49.606342 2.457003 17,725 334 419 1920
2023-01-21 22:56:54 GMT 49.601501 2.460715 17,625 334 418 1920
2023-01-21 22:56:52 GMT 49.598335 2.463090 17,575 334 419 1920
2023-01-21 22:56:49 GMT 49.592472 2.467544 17,475 334 418 1920
2023-01-21 22:56:46 GMT 49.588284 2.470736 17,400 334 418 1920
2023-01-21 22:56:43 GMT 49.583115 2.474670 17,250 334 416 1920
2023-01-21 22:56:40 GMT 49.574661 2.481031 16,950 334 415 1856
2023-01-21 22:56:38 GMT 49.574661 2.481031 17,125 334 415 1856
2023-01-21 22:56:36 GMT 49.567940 2.486102 16,925 334 414 1792
2023-01-21 22:56:34 GMT 49.567940 2.486102 16,925 334 414 1792
2023-01-21 22:56:32 GMT 49.563263 2.489632 16,925 335 413 1792
2023-01-21 22:56:29 GMT 49.558136 2.493463 16,850 334 412 1728
2023-01-21 22:56:27 GMT 49.556255 2.494861 16,825 334 412 1728
2023-01-21 22:56:24 GMT 49.551785 2.498202 16,650 334 411 1792
2023-01-21 22:56:20 GMT 49.543591 2.504437 16,550 334 410 1792
2023-01-21 22:56:18 GMT 49.534607 2.511171 16,475 335 409 1856
2023-01-21 22:56:15 GMT 49.531174 2.513701 16,300 335 407 2048
2023-01-21 22:56:13 GMT 49.531174 2.513701 16,350 335 407 2048
2023-01-21 22:56:10 GMT 49.526093 2.517459 16,250 335 406 2112
2023-01-21 22:56:07 GMT 49.521652 2.520640 16,025 336 405 2176
2023-01-21 22:56:04 GMT 49.511810 2.527578 15,925 336 404 2176
2023-01-21 22:56:01 GMT 49.511810 2.527578 15,950 336 405 2048
2023-01-21 22:55:59 GMT 49.508213 2.530047 15,875 336 404 1920
2023-01-21 22:55:57 GMT 49.503983 2.532999 15,750 337 403 1792
2023-01-21 22:55:55 GMT 49.501923 2.534372 15,775 337 402 1728
2023-01-21 22:55:52 GMT 49.496994 2.537693 15,675 337 401 1664
2023-01-21 22:55:49 GMT 49.491173 2.541553 15,600 337 400 1664
2023-01-21 22:55:47 GMT 49.487450 2.544003 15,525 337 398 1792
2023-01-21 22:55:45 GMT 49.484253 2.546082 15,475 338 398 1856
2023-01-21 22:55:43 GMT 49.480179 2.548756 15,375 338 396 2560
2023-01-21 22:55:39 GMT 49.474045 2.552587 15,225 338 396 2560
2023-01-21 22:55:37 GMT 49.470829 2.554618 15,125 339 395 2816
2023-01-21 22:55:34 GMT 49.465897 2.557574 14,350 340 397 3008
2023-01-21 22:55:30 GMT 49.458214 2.562116 14,775 340 395 2880
2023-01-21 22:55:28 GMT 49.453094 2.565085 14,625 340 396 2944
2023-01-21 22:55:24 GMT 49.448135 2.567982 14,525 340 396 2944
2023-01-21 22:55:19 GMT 49.440582 2.572391 14,225 340 398 3072
2023-01-21 22:55:17 GMT 49.436291 2.574958 14,150 339 398 3136
2023-01-21 22:55:14 GMT 49.431122 2.577927 14,025 339 398 3072
2023-01-21 22:55:12 GMT 49.427856 2.579908 13,875 339 398 3008
2023-01-21 22:55:09 GMT 49.422836 2.582871 13,750 339 399 2816
2023-01-21 22:55:07 GMT 49.419392 2.584967 13,625 339 399 2688
2023-01-21 22:55:04 GMT 49.413570 2.588437 13,475 339 400 2624
2023-01-21 22:55:02 GMT 49.410778 2.590099 13,400 339 399 2624
2023-01-21 22:54:58 GMT 49.401512 2.595592 13,175 339 398 2176
2023-01-21 22:54:52 GMT 49.393066 2.600520 13,000 340 398 2048
2023-01-21 22:54:49 GMT 49.388260 2.603337 12,825 340 397 1920
2023-01-21 22:54:47 GMT 49.384987 2.605278 12,825 340 395 1792
2023-01-21 22:54:45 GMT 49.379169 2.608675 12,750 340 392 1344
2023-01-21 22:54:41 GMT 49.375626 2.610732 12,700 340 392 1344
2023-01-21 22:54:38 GMT 49.369858 2.614112 12,625 340 390 1152
2023-01-21 22:54:36 GMT 49.367477 2.615521 12,600 340 390 1152
2023-01-21 22:54:32 GMT 49.359291 2.620312 12,525 340 385 1088
2023-01-21 22:54:29 GMT 49.353939 2.623420 12,450 340 382 1152
2023-01-21 22:54:27 GMT 49.351330 2.625010 12,425 339 380 1152
2023-01-21 22:54:22 GMT 49.342300 2.630310 12,325 339 376 1152
2023-01-21 22:54:19 GMT 49.334839 2.634747 12,200 339 369 1088
2023-01-21 22:54:17 GMT 49.334839 2.634747 12,225 339 371 1152
2023-01-21 22:54:12 GMT 49.326332 2.639754 12,150 339 368 1088
2023-01-21 22:54:09 GMT 49.321259 2.642790 12,075 339 366 1088
2023-01-21 22:54:07 GMT 49.309944 2.649440 11,950 339 364 1088
2023-01-21 22:54:01 GMT 49.309944 2.649440 11,950 339 359 1088
2023-01-21 22:53:59 GMT 49.305614 2.651970 11,925 340 357 1024
2023-01-21 22:53:57 GMT 49.302219 2.653921 11,875 339 355 1088
2023-01-21 22:53:54 GMT 49.297005 2.657029 11,800 339 351 1088
2023-01-21 22:53:51 GMT 49.294582 2.658475 11,775 339 350 1088
2023-01-21 22:53:49 GMT 49.290955 2.660571 11,725 340 347 1152
2023-01-21 22:53:47 GMT 49.288101 2.662283 11,725 340 346 1152
2023-01-21 22:53:41 GMT 49.279312 2.667365 11,600 340 341 1152
2023-01-21 22:53:39 GMT 49.275650 2.669537 11,550 340 338 1152
2023-01-21 22:53:37 GMT 49.272842 2.671123 11,500 340 337 1152
2023-01-21 22:53:31 GMT 49.264343 2.676086 11,375 340 330 1088
2023-01-21 22:53:29 GMT 49.261345 2.677845 11,325 340 328 1088
2023-01-21 22:53:27 GMT 49.258507 2.679508 11,250 340 326 1152
2023-01-21 22:53:21 GMT 49.249924 2.684467 11,175 340 320 1152
2023-01-21 22:53:19 GMT 49.247005 2.686157 11,150 340 318 1088
2023-01-21 22:53:17 GMT 49.244385 2.687707 10,975 340 308 832
2023-01-21 22:53:11 GMT 49.235962 2.692495 11,000 340 310 960
2023-01-21 22:53:09 GMT 49.233414 2.693963 10,975 340 309 896
2023-01-21 22:53:07 GMT 49.226757 2.697722 10,900 340 304 704
2023-01-21 22:53:02 GMT 49.224243 2.699186 10,875 340 300 576
2023-01-21 22:53:00 GMT 49.222286 2.700252 10,875 340 299 512
2023-01-21 22:52:58 GMT 49.219170 2.701986 10,825 340 295 512
2023-01-21 22:52:56 GMT 49.217400 2.702998 10,825 340 293 512
2023-01-21 22:52:52 GMT 49.211582 2.706251 10,775 340 284 1024
2023-01-21 22:52:49 GMT 49.207214 2.708693 10,750 340 283 1216
2023-01-21 22:52:47 GMT 49.205391 2.709792 10,700 340 281 1344
2023-01-21 22:52:42 GMT 49.198929 2.713412 10,575 340 277 1728
2023-01-21 22:52:39 GMT 49.195705 2.715213 10,450 340 275 2048
2023-01-21 22:52:37 GMT 49.193333 2.716659 10,425 340 274 2176
2023-01-21 22:52:30 GMT 49.185513 2.721212 10,150 339 273 2432
2023-01-21 22:52:28 GMT 49.182587 2.722990 10,075 339 272 2432
2023-01-21 22:52:26 GMT 49.180809 2.724031 9,975 339 272 2368
2023-01-21 22:52:20 GMT 49.169823 2.730464 9,675 339 270 2240
2023-01-21 22:52:17 GMT 49.168194 2.731404 9,550 339 269 2240
2023-01-21 22:52:12 GMT 49.164139 2.733835 9,400 339 266 2304
2023-01-21 22:52:09 GMT 49.158371 2.737215 9,275 339 266 2304
2023-01-21 22:52:01 GMT 49.151917 2.741018 9,000 339 265 2368
2023-01-21 22:51:58 GMT 49.147568 2.743624 8,850 339 265 2432
2023-01-21 22:51:54 GMT 49.144363 2.745526 8,775 339 264 2432
2023-01-21 22:51:49 GMT 49.137890 2.749473 8,500 339 263 2496
2023-01-21 22:51:47 GMT 49.135757 2.750737 8,400 339 262 2496
2023-01-21 22:51:42 GMT 49.125740 2.756846 8,150 339 262 2496
2023-01-21 22:51:38 GMT 49.125740 2.756846 8,050 339 261 2560
2023-01-21 22:51:36 GMT 49.123581 2.758132 7,950 339 261 2624
2023-01-21 22:51:32 GMT 49.119175 2.760749 7,775 339 260 2688
2023-01-21 22:51:29 GMT 49.112888 2.764507 7,475 340 260 2816
2023-01-21 22:51:27 GMT 49.112888 2.764507 7,475 340 260 2816
2023-01-21 22:51:19 GMT 49.103439 2.769928 7,100 340 260 2688
2023-01-21 22:51:17 GMT 49.101746 2.770949 7,025 340 259 2688
2023-01-21 22:51:11 GMT 49.095108 2.774771 6,775 339 259 2688
2023-01-21 22:51:08 GMT 49.092316 2.776372 6,600 339 259 2752
2023-01-21 22:51:06 GMT 49.089989 2.777734 6,550 340 258 2688
2023-01-21 22:51:01 GMT 49.083656 2.781131 6,300 346 255 2560
2023-01-21 22:50:58 GMT 49.080322 2.782358 6,175 351 253 2560
2023-01-21 22:50:56 GMT 49.078491 2.782851 6,125 353 252 2560
2023-01-21 22:50:51 GMT 49.071690 2.783516 5,825 1 248 2624
2023-01-21 22:50:47 GMT 49.067127 2.783083 5,650 8 245 2688
2023-01-21 22:50:45 GMT 49.065903 2.782781 5,600 9 244 2624
2023-01-21 22:50:41 GMT 49.060410 2.780809 5,375 17 242 2688
2023-01-21 22:50:37 GMT 49.056839 2.778907 5,200 24 240 2752
2023-01-21 22:50:28 GMT 49.046879 2.769856 4,700 39 237 2880
2023-01-21 22:50:20 GMT 49.042053 2.762780 4,300 53 236 2560
2023-01-21 22:50:17 GMT 49.039383 2.757713 4,225 54 236 2496
2023-01-21 22:50:10 GMT 49.035919 2.749117 4,000 64 235 1920
2023-01-21 22:50:06 GMT 49.034271 2.743342 3,825 72 232 1280
2023-01-21 22:50:00 GMT 49.032578 2.733976 3,750 79 228 640
2023-01-21 22:49:56 GMT 49.031891 2.726850 3,700 84 225 704
2023-01-21 22:49:48 GMT 49.031250 2.714820 3,575 85 218 768
2023-01-21 22:49:46 GMT 49.031052 2.711310 3,525 85 213 576
2023-01-21 22:49:39 GMT 49.030495 2.701697 3,500 85 209 640
2023-01-21 22:49:36 GMT 49.030212 2.696421 3,450 84 204 640
2023-01-21 22:49:28 GMT 49.029564 2.685651 3,275 85 191 1024
2023-01-21 22:49:26 GMT 49.029373 2.682037 3,325 84 193 960
2023-01-21 22:49:18 GMT 49.028816 2.671340 3,175 85 184 2112
2023-01-21 22:49:16 GMT 49.028629 2.668232 3,125 85 185 1792
2023-01-21 22:49:08 GMT 49.028164 2.659125 2,850 85 184 2304
2023-01-21 22:49:06 GMT 49.028000 2.655381 2,750 85 184 2240
2023-01-21 22:48:57 GMT 49.027420 2.645392 2,450 85 185 2048
2023-01-21 22:48:55 GMT 49.027176 2.640803 2,325 85 185 1920
2023-01-21 22:48:48 GMT 49.026718 2.632000 2,075 85 184 1984
2023-01-21 22:48:46 GMT 49.026581 2.629997 2,050 85 184 1920
2023-01-21 22:48:45 GMT 49.026489 2.628190 1,950 85 184 1920
2023-01-21 22:48:43 GMT 49.026398 2.626383 1,950 85 184 1920
2023-01-21 22:48:41 GMT 49.026257 2.623781 1,875 84 184 1856
2023-01-21 22:48:40 GMT 49.025986 2.619817 1,775 85 184 1984
2023-01-21 22:48:37 GMT 49.025883 2.617854 1,725 85 184 1984
2023-01-21 22:48:35 GMT 49.025745 2.615035 1,650 85 184 1984
2023-01-21 22:48:33 GMT 49.025620 2.612281 1,575 85 184 1920
2023-01-21 22:48:31 GMT 49.025528 2.611295 1,525 85 184 1920
2023-01-21 22:48:30 GMT 49.025463 2.609831 1,475 85 184 1984
2023-01-21 22:48:29 GMT 49.025345 2.607140 1,425 85 183 1984
2023-01-21 22:48:27 GMT 49.025280 2.606000 1,400 85 183 1984
2023-01-21 22:48:26 GMT 49.025230 2.604699 1,325 85 183 1984
2023-01-21 22:48:25 GMT 49.025093 2.601591 1,275 85 183 1920
2023-01-21 22:48:23 GMT 49.025070 2.600943 1,225 85 183 1920
2023-01-21 22:48:22 GMT 49.024979 2.599182 1,200 85 183 1984
2023-01-21 22:48:19 GMT 49.024815 2.595448 1,100 85 183 2112
2023-01-21 22:48:18 GMT 49.024719 2.594147 1,050 85 183 2112
2023-01-21 22:48:16 GMT 49.024628 2.591545 1,000 85 183 2176
2023-01-21 22:48:15 GMT 49.024532 2.590244 950 85 183 2176
2023-01-21 22:48:14 GMT 49.024487 2.588943 925 85 183 2176
2023-01-21 22:48:13 GMT 49.024441 2.587714 875 85 184 2240
2023-01-21 22:48:11 GMT 49.024292 2.585238 800 85 184 2240
2023-01-21 22:48:10 GMT 49.024246 2.583970 725 85 184 2176
2023-01-21 22:48:08 GMT 49.024117 2.581498 700 85 184 2112
2023-01-21 22:48:07 GMT 49.024063 2.580026 650 85 184 2112
2023-01-21 22:48:05 GMT 49.023926 2.577491 600 85 184 2176
2023-01-21 22:48:04 GMT 49.023834 2.576153 525 85 184 2176
2023-01-21 22:48:02 GMT 49.023743 2.573692 475 85 184 2112
2023-01-21 22:48:01 GMT 49.023651 2.572280 425 85 184 2048
2023-01-21 22:48:00 GMT 49.023556 2.569861 375 85 184 2112
2023-01-21 22:47:58 GMT 49.023468 2.568688 325 85 184 2112
2023-01-21 22:47:57 GMT 49.023418 2.567476 275 86 184 2176
2023-01-21 22:47:56 GMT 49.023239 2.563758 175 85 184 2176
2023-01-21 22:47:54 GMT 49.023239 2.563758 175 85 184 2304
2023-01-21 22:47:52 GMT 49.023186 2.561838 100 85 184 2304
2023-01-21 22:47:51 GMT 49.023056 2.559321 50 85 185 2240
2023-01-21 22:47:50 GMT 49.022999 2.558152 0 85 185 2048
2023-01-21 22:47:47 GMT 49.022827 2.554392 -75 85 184 1024
2023-01-21 22:47:46 GMT 49.022781 2.553124 -100 85 180 256
2023-01-21 22:47:43 GMT 49.022598 2.550025 -125 85 180 256
2023-01-21 22:47:42 GMT 49.022488 2.547889 -125 85 175 64
2023-01-21 22:47:33 GMT 49.021927 2.537986 -100 85 151 -64
2023-01-21 22:47:32 GMT 49.021774 2.534602 -100 85 145 64
2023-01-21 22:47:30 GMT 49.021774 2.534602 -100 85 139 64
2023-01-21 22:47:29 GMT 49.021740 2.533722 -100 85 139 64
2023-01-21 22:47:14 GMT 49.021076 2.521525 0 84 86
2023-01-21 22:47:11 GMT 49.020985 2.519901 0 84 74
2023-01-21 22:47:10 GMT 49.020962 2.519429 0 84 69
2023-01-21 22:47:09 GMT 49.020847 2.517471 0 84 53
2023-01-21 22:47:06 GMT 49.020847 2.517471 0 84 53
2023-01-21 22:47:05 GMT 49.020832 2.517152 0 87 45
2023-01-21 22:47:04 GMT 49.020821 2.516809 0 84 40
2023-01-21 22:47:03 GMT 49.020786 2.516249 0 84 32
2023-01-21 22:47:00 GMT 49.020763 2.515797 0 84 24
2023-01-21 22:46:58 GMT 49.020741 2.515381 0 84 16
2023-01-21 22:46:56 GMT 49.020733 2.515253 0 84 14
2023-01-21 22:46:54 GMT 49.020721 2.515130 0 84 12
2023-01-21 22:46:53 GMT 49.020710 2.514989 0 84 11
2023-01-21 22:46:52 GMT 49.020710 2.514901 0 84 10
2023-01-21 22:46:49 GMT 49.020706 2.514749 0 84 9
2023-01-21 22:46:48 GMT 49.020687 2.514654 0 84 8
2023-01-21 22:46:47 GMT 49.020683 2.514604 0 81 8
2023-01-21 22:46:45 GMT 49.020687 2.514496 0 81 8
2023-01-21 22:46:43 GMT 49.020687 2.514408 0 78 8
2023-01-21 22:46:42 GMT 49.020676 2.514355 0 75 8
2023-01-21 22:46:40 GMT 49.020676 2.514249 0 67 8
2023-01-21 22:46:38 GMT 49.020664 2.514144 0 59 8
2023-01-21 22:46:36 GMT 49.020660 2.514062 0 53 8
2023-01-21 22:46:35 GMT 49.020634 2.513990 0 50 8
2023-01-21 22:46:34 GMT 49.020611 2.513954 0 47 9
2023-01-21 22:46:32 GMT 49.020554 2.513845 0 47 10
2023-01-21 22:46:30 GMT 49.020508 2.513755 0 47 11
2023-01-21 22:46:28 GMT 49.020428 2.513647 0 47 11
2023-01-21 22:46:26 GMT 49.020355 2.513528 0 47 12
2023-01-21 22:46:25 GMT 49.020321 2.513475 0 47 12
2023-01-21 22:46:23 GMT 49.020264 2.513357 0 50 11
2023-01-21 22:46:21 GMT 49.020195 2.513246 0 47 11
2023-01-21 22:46:20 GMT 49.020138 2.513140 0 45 11
2023-01-21 22:46:17 GMT 49.020081 2.513035 0 42 11
2023-01-21 22:46:16 GMT 49.020008 2.512906 0 33 10
2023-01-21 22:46:14 GMT 49.019978 2.512858 0 30 10
2023-01-21 22:46:13 GMT 49.019936 2.512815 0 28 10
2023-01-21 22:46:10 GMT 49.019829 2.512700 0 22 10
2023-01-21 22:46:08 GMT 49.019760 2.512647 0 16 9
2023-01-21 22:46:07 GMT 49.019714 2.512612 0 14 9
2023-01-21 22:46:05 GMT 49.019623 2.512559 0 8 9
2023-01-21 22:45:56 GMT 49.019299 2.512508 0 345 8
2023-01-21 22:45:45 GMT 49.019028 2.512594 0 329 5
2023-01-21 22:45:43 GMT 49.018982 2.512612 0 326 5
2023-01-21 22:45:42 GMT 49.018959 2.512635 0 326 4
2023-01-21 22:45:41 GMT 49.018948 2.512647 0 326 4
2023-01-21 22:45:39 GMT 49.018925 2.512665 0 323 3
2023-01-21 22:45:36 GMT 49.018890 2.512682 0 320 3
2023-01-21 22:45:31 GMT 49.018845 2.512718 0 317 2
2023-01-21 22:45:26 GMT 49.018822 2.512735 0 317 0
2023-01-21 22:45:15 GMT 49.018822 2.512743 0 315 0
2023-01-21 22:45:14 GMT 49.018822 2.512743 0 315 0
2023-01-21 22:45:06 GMT 49.018822 2.512743 0 315 0
2023-01-21 22:45:05 GMT 49.018822 2.512753 0 315 0
2023-01-21 22:45:03 GMT 49.018822 2.512743 0 315 0
2023-01-21 22:45:00 GMT 49.018822 2.512753 0 315 0
2023-01-21 22:44:57 GMT 49.018822 2.512743 0 315 0
2023-01-21 22:44:55 GMT 49.018810 2.512753 0 315 0
2023-01-21 22:44:54 GMT 49.018806 2.512761 0 315 0
2023-01-21 22:44:49 GMT 49.018776 2.512788 0 312 3
2023-01-21 22:44:48 GMT 49.018761 2.512815 0 309 4
2023-01-21 22:44:45 GMT 49.018692 2.512906 0 306 5
2023-01-21 22:44:43 GMT 49.018692 2.512906 0 303 5
2023-01-21 22:44:41 GMT 49.018646 2.512960 0 300 6
2023-01-21 22:44:39 GMT 49.018639 2.512999 0 298 6
2023-01-21 22:44:38 GMT 49.018623 2.513032 0 298 6
2023-01-21 22:44:37 GMT 49.018585 2.513086 0 295 6
2023-01-21 22:44:35 GMT 49.018581 2.513123 0 295 6
2023-01-21 22:44:33 GMT 49.018559 2.513158 0 292 6
2023-01-21 22:44:31 GMT 49.018524 2.513246 0 289 6
2023-01-21 22:44:30 GMT 49.018505 2.513321 0 284 6
2023-01-21 22:44:25 GMT 49.018467 2.513439 0 278 6
2023-01-21 22:44:19 GMT 49.018433 2.513739 0 272 7
2023-01-21 22:44:15 GMT 49.018425 2.513881 0 267 7
2023-01-21 22:44:14 GMT 49.018421 2.513950 0 267 8
2023-01-21 22:44:12 GMT 49.018421 2.514073 0 267 8
2023-01-21 22:44:10 GMT 49.018436 2.514261 0 267 8
2023-01-21 22:44:07 GMT 49.018436 2.514297 0 267 8
2023-01-21 22:44:05 GMT 49.018433 2.514425 0 270 8
2023-01-21 22:44:00 GMT 49.018448 2.514658 0 272 7
2023-01-21 22:43:57 GMT 49.018459 2.514821 0 281 7
2023-01-21 22:43:55 GMT 49.018456 2.514883 0 286 7
2023-01-21 22:43:52 GMT 49.018456 2.514989 0 295 6
2023-01-21 22:43:51 GMT 49.018459 2.515056 0 300 6
2023-01-21 22:43:49 GMT 49.018456 2.515147 0 312 6
2023-01-21 22:43:46 GMT 49.018436 2.515255 0 323 6
2023-01-21 22:43:45 GMT 49.018425 2.515291 0 326 5
2023-01-21 22:43:43 GMT 49.018391 2.515345 0 334 5
2023-01-21 22:43:40 GMT 49.018353 2.515411 0 343 5
2023-01-21 22:43:39 GMT 49.018330 2.515435 0 348 5
2023-01-21 22:43:32 GMT 49.018204 2.515499 0 354 5
2023-01-21 22:43:27 GMT 49.018074 2.515526 0 357 5
2023-01-21 22:43:24 GMT 49.018017 2.515526 0 354 5
2023-01-21 22:43:21 GMT 49.017941 2.515535 0 354 5
2023-01-21 22:43:18 GMT 49.017906 2.515535 0 354 4
2023-01-21 22:43:16 GMT 49.017864 2.515544 0 354 4
2023-01-21 22:43:13 GMT 49.017818 2.515562 0 354 3
2023-01-21 22:43:09 GMT 49.017780 2.515552 0 354 2
2023-01-21 22:43:02 GMT 49.017735 2.515570 0 354 0
2023-01-21 22:42:33 GMT 49.017693 2.515562 0 354 0
2023-01-21 22:42:09 GMT 49.017689 2.515570 0 354 0
2023-01-21 22:41:58 GMT 49.017693 2.515580 0 354 0
2023-01-21 22:41:48 GMT 49.017693 2.515562 0 354 0
2023-01-21 22:41:33 GMT 49.017689 2.515570 0 354 0
2023-01-21 22:41:03 GMT 49.017693 2.515580 0 354 0
2023-01-21 22:40:48 GMT 49.017689 2.515570 0 354 0
2023-01-21 22:40:38 GMT 49.017693 2.515580 0 354 0
2023-01-21 22:40:33 GMT 49.017689 2.515570 0 354 0
2023-01-21 22:40:24 GMT 49.017693 2.515580 0 354 0
2023-01-21 22:40:19 GMT 49.017689 2.515570 0 354 0
2023-01-21 22:40:14 GMT 49.017693 2.515580 0 354 0
2023-01-21 22:39:59 GMT 49.017689 2.515570 0 354 0
2023-01-21 22:39:54 GMT 49.017693 2.515580 0 354 0
2023-01-21 22:39:50 GMT 49.017689 2.515570 0 354 0
2023-01-21 22:39:35 GMT 49.017693 2.515580 0 354 0
2023-01-21 22:39:24 GMT 49.017689 2.515570 0 354 0
2023-01-21 22:39:09 GMT 49.017693 2.515580 0 354 0
2023-01-21 22:38:54 GMT 49.017689 2.515570 0 354 0
2023-01-21 22:38:49 GMT 49.017693 2.515580 0 354 0
2023-01-21 22:38:44 GMT 49.017689 2.515570 0 354 0
2023-01-21 22:38:14 GMT 49.017693 2.515580 0 354 0
2023-01-21 22:38:09 GMT 49.017689 2.515570 0 354 0
2023-01-21 22:38:04 GMT 49.017693 2.515580 0 354 0
2023-01-21 22:37:49 GMT 49.017689 2.515570 0 354 0
2023-01-21 22:37:39 GMT 49.017693 2.515580 0 354 0
2023-01-21 22:37:20 GMT 49.017689 2.515570 0 354 0
2023-01-21 22:37:00 GMT 49.017693 2.515580 0 354 0
2023-01-21 22:36:39 GMT 49.017689 2.515570 0 354 0
2023-01-21 22:36:19 GMT 49.017693 2.515580 0 354 0
2023-01-21 22:36:14 GMT 49.017689 2.515570 0 354 0
2023-01-21 22:36:10 GMT 49.017693 2.515580 0 354 0
2023-01-21 22:35:25 GMT 49.017689 2.515570 0 354 0
2023-01-21 22:35:05 GMT 49.017693 2.515580 0 354 0
2023-01-21 22:34:49 GMT 49.017689 2.515570 0 354 0
2023-01-21 22:34:40 GMT 49.017693 2.515580 0 354 0
2023-01-21 22:33:40 GMT 49.017689 2.515570 0 354 0
2023-01-21 22:33:35 GMT 49.017693 2.515580 0 354 0
2023-01-21 22:33:14 GMT 49.017689 2.515570 0 354 0
2023-01-21 22:32:49 GMT 49.017693 2.515580 0 354 0
2023-01-21 22:32:39 GMT 49.017689 2.515570 0 354 0
2023-01-21 22:32:25 GMT 49.017693 2.515562 0 354 0
2023-01-21 22:32:05 GMT 49.017693 2.515580 0 354 0
2023-01-21 22:31:34 GMT 49.017689 2.515570 0 354 0
2023-01-21 22:31:05 GMT 49.017693 2.515580 0 354 0
2023-01-21 22:30:35 GMT 49.017689 2.515570 0 354 0
2023-01-21 22:30:23 GMT 49.017693 2.515580 0 354 0
2023-01-21 22:30:15 GMT 49.017693 2.515580 0 354 0
2023-01-21 22:30:05 GMT 49.017632 2.515580 0 354 2
2023-01-21 22:29:53 GMT 49.017517 2.515598 0 351 3
2023-01-21 22:29:46 GMT 49.017437 2.515623 0 351 4
2023-01-21 22:29:43 GMT 49.017391 2.515623 0 351 4
2023-01-21 22:29:41 GMT 49.017357 2.515640 0 351 4
2023-01-21 22:29:35 GMT 49.017254 2.515658 0 348 5
2023-01-21 22:29:30 GMT 49.017162 2.515675 0 345 4
2023-01-21 22:29:27 GMT 49.017086 2.515688 0 340 4
2023-01-21 22:29:21 GMT 49.017002 2.515688 0 329 4
2023-01-21 22:29:12 GMT 49.016865 2.515743 0 306 3
2023-01-21 22:29:02 GMT 49.016762 2.515834 0 281 3
2023-01-21 22:28:55 GMT 49.016712 2.515959 0 267 3
2023-01-21 22:26:25 GMT 49.016724 2.516176 0 267 0
2023-01-21 22:26:14 GMT 49.016727 2.516168 0 267 0
2023-01-21 22:26:05 GMT 49.016727 2.516221 0 267 2
2023-01-21 22:25:56 GMT 49.016747 2.516447 0 267 7
2023-01-21 22:25:45 GMT 49.016785 2.517207 0 267 12
2023-01-21 22:25:35 GMT 49.016830 2.518001 0 267 12
2023-01-21 22:25:20 GMT 49.016888 2.519126 0 267 11
2023-01-21 22:25:11 GMT 49.016933 2.519866 0 267 13
2023-01-21 22:25:02 GMT 49.016968 2.520676 0 267 14
2023-01-21 22:24:55 GMT 49.017014 2.521415 0 267 14
2023-01-21 22:24:43 GMT 49.017071 2.522419 0 267 11
2023-01-21 22:24:35 GMT 49.017094 2.522964 0 267 9
2023-01-21 22:24:20 GMT 49.017155 2.523928 0 267 11
2023-01-21 22:24:08 GMT 49.017197 2.524778 0 267 13
2023-01-21 22:24:05 GMT 49.017216 2.525085 0 267 14
2023-01-21 22:23:55 GMT 49.017262 2.526097 0 267 14
2023-01-21 22:23:24 GMT 49.017422 2.528915 0 267 17
2023-01-21 22:22:46 GMT 49.017643 2.533144 0 267 13
2023-01-21 22:22:41 GMT 49.017666 2.533599 0 267 13
2023-01-21 22:22:31 GMT 49.017712 2.534479 0 267 12
2023-01-21 22:22:15 GMT 49.017784 2.535818 0 267 14
2023-01-21 22:22:14 GMT 49.017792 2.535993 0 267 14
2023-01-21 22:22:00 GMT 49.017864 2.537390 0 267 15
2023-01-21 22:21:58 GMT 49.017876 2.537571 0 267 15
2023-01-21 22:21:46 GMT 49.017952 2.538775 0 267 16
2023-01-21 22:21:37 GMT 49.017994 2.539775 0 267 17
2023-01-21 22:21:33 GMT 49.018028 2.540335 0 267 17
2023-01-21 22:21:25 GMT 49.018074 2.541221 0 267 17
2023-01-21 22:21:17 GMT 49.018124 2.542085 0 267 16
2023-01-21 22:21:06 GMT 49.018192 2.543353 0 267 19
2023-01-21 22:20:57 GMT 49.018261 2.544726 0 267 23
2023-01-21 22:20:47 GMT 49.018353 2.546316 0 267 23
2023-01-21 22:20:42 GMT 49.018387 2.547032 0 267 23
2023-01-21 22:20:37 GMT 49.018436 2.547907 0 267 24
2023-01-21 22:20:26 GMT 49.018528 2.549551 0 267 22
2023-01-21 22:20:15 GMT 49.018616 2.551047 0 267 21
2023-01-21 22:20:03 GMT 49.018703 2.552894 0 267 21
2023-01-21 22:20:01 GMT 49.018715 2.553129 0 267 21
2023-01-21 22:19:59 GMT 49.018738 2.553472 0 267 21
2023-01-21 22:19:55 GMT 49.018772 2.554050 0 267 21
2023-01-21 22:19:51 GMT 49.018799 2.554709 0 267 21
2023-01-21 22:19:44 GMT 49.018856 2.555624 0 267 23
2023-01-21 22:19:31 GMT 49.018970 2.557827 0 264 24
2023-01-21 22:19:26 GMT 49.019016 2.558658 0 267 22
2023-01-21 22:19:16 GMT 49.019096 2.560219 0 264 21
2023-01-21 22:19:04 GMT 49.019176 2.561663 0 267 19
2023-01-21 22:18:55 GMT 49.019238 2.562832 0 267 17
2023-01-21 22:18:45 GMT 49.019291 2.563952 0 267 15
2023-01-21 22:18:34 GMT 49.019356 2.565019 0 267 14
2023-01-21 22:18:24 GMT 49.019405 2.565994 0 267 14
2023-01-21 22:18:15 GMT 49.019463 2.566945 0 267 15
2023-01-21 22:18:04 GMT 49.019520 2.568054 0 267 16
2023-01-21 22:17:53 GMT 49.019566 2.569138 0 267 17
2023-01-21 22:17:43 GMT 49.019646 2.570396 0 267 18
2023-01-21 22:17:34 GMT 49.019703 2.571596 0 267 19
2023-01-21 22:17:21 GMT 49.019806 2.573336 0 267 20
2023-01-21 22:17:13 GMT 49.019863 2.574428 0 267 20
2023-01-21 22:16:57 GMT 49.019974 2.576619 0 267 18
2023-01-21 22:16:54 GMT 49.019989 2.576963 0 272 16
2023-01-21 22:16:42 GMT 49.019886 2.578055 0 295 13
2023-01-21 22:16:33 GMT 49.019646 2.578751 0 312 12
2023-01-21 22:16:20 GMT 49.019157 2.579456 0 334 11
2023-01-21 22:16:09 GMT 49.018646 2.579781 0 351 13
2023-01-21 22:16:02 GMT 49.018227 2.579868 0 357 14
2023-01-21 22:15:50 GMT 49.017414 2.579974 0 357 16
2023-01-21 22:15:43 GMT 49.016865 2.580044 0 354 16
2023-01-21 22:15:32 GMT 49.016144 2.580132 0 354 13
2023-01-21 22:15:21 GMT 49.015583 2.580197 0 354 12
2023-01-21 22:15:01 GMT 49.014542 2.580343 0 354 12
2023-01-21 22:14:43 GMT 49.013523 2.580468 0 357 15
2023-01-21 22:14:32 GMT 49.012768 2.580558 0 357 15
2023-01-21 22:14:18 GMT 49.011806 2.580678 0 354 14
2023-01-21 22:14:15 GMT 49.011627 2.580703 0 354 13
2023-01-21 22:13:54 GMT 49.010452 2.580847 0 357 11
2023-01-21 22:13:53 GMT 49.010395 2.580847 0 357 11
2023-01-21 22:13:43 GMT 49.009941 2.580907 0 354 9
2023-01-21 22:13:31 GMT 49.009575 2.580960 0 343 7
2023-01-21 22:13:22 GMT 49.009289 2.581030 0 312 7
2023-01-21 22:13:11 GMT 49.009094 2.581382 0 267 9
2023-01-21 22:13:00 GMT 49.009136 2.582275 0 264 12

Making use of Plane Finder data

You are free to use the raw flight data, aircraft information and images provided in this report for your own purposes provided the data is correctly attributed to Plane Finder. We ask that you please credit Plane Finder and link to planefinder.net in close proximity to the content.

Optionally one of the following logos (no smaller then 150x24px) can be used and must link to planefinder.net

Embedding the Plane Finder map

You are welcome to embed the Plane Finder playback map on your website to offer visitors a more interactive experience. We suggest using the following HTML code:

<iframe src="//planefinder.net/data/report/AM4-XA-ADH-7700-squawk-2023-01-22/map" width="800" height="600" seamless="seamless"></iframe>

Where our data comes from

Plane Finder has a global network of data feeds and antenna radars that receive data broadcast directly from aircraft. The primary technologies used are ADS-B and MLAT. We also show feeds from the FAA and a FLARM glider feed.

Click here to find out more about the Plane Finder network.

How we collect our data